<?xml version="1.0" encoding="UTF-8"?>
<gpx version="1.1" creator="2bulu-scraper" xmlns="http://www.topografix.com/GPX/1/1">
  <metadata><name>川黔古道</name><desc>source: 2bulu.com trackId=85165169; exported 2026-09-01T14:39:10.226Z</desc>
    <bounds minlat="28.2202451" minlon="105.8539549" maxlat="28.2647722" maxlon="105.8935052"/>
    <link href="https://www.2bulu.com/track/t-U1B5oLKhOsrp%252FR2KBg5Tzw%253D%253D.htm"><text>2bulu 源页面</text></link>
  </metadata>
  <wpt lat="28.2231673" lon="105.8600478"><ele>1258</ele><name>
        </name></wpt>
  <wpt lat="28.2242004" lon="105.8622538"><ele>1411</ele><name>
        </name></wpt>
  <wpt lat="28.2242004" lon="105.8622538"><ele>1411</ele><name>
        </name></wpt>
  <wpt lat="28.2241714" lon="105.8641021"><ele>1375</ele><name>
        </name></wpt>
  <wpt lat="28.2248481" lon="105.870216"><ele>1111</ele><name>
        </name></wpt>
  <wpt lat="28.2265048" lon="105.8748999"><ele>1018</ele><name>
        </name></wpt>
  <wpt lat="28.2262903" lon="105.8752724"><ele>1017</ele><name>
        </name></wpt>
  <wpt lat="28.2267298" lon="105.8773602"><ele>996</ele><name>
        </name></wpt>
  <wpt lat="28.2267309" lon="105.877421"><ele>998</ele><name>
        </name></wpt>
  <wpt lat="28.2267309" lon="105.877421"><ele>998</ele><name>
        </name></wpt>
  <wpt lat="28.2272835" lon="105.8791741"><ele>1121</ele><name>
        </name></wpt>
  <wpt lat="28.2274248" lon="105.8823052"><ele>1221</ele><name>
        </name></wpt>
  <wpt lat="28.2268179" lon="105.8849344"><ele>1069</ele><name>
        </name></wpt>
  <wpt lat="28.2261934" lon="105.8862585"><ele>1033</ele><name>
        </name></wpt>
  <wpt lat="28.2260042" lon="105.8861176"><ele>1029</ele><name>
        </name></wpt>
  <wpt lat="28.224952" lon="105.8868982"><ele>1062</ele><name>
        </name></wpt>
  <wpt lat="28.225072" lon="105.8875463"><ele>1074</ele><name>
        </name></wpt>
  <wpt lat="28.2266206" lon="105.887703"><ele>1060</ele><name>
        </name></wpt>
  <wpt lat="28.2265494" lon="105.8898816"><ele>985</ele><name>
        </name></wpt>
  <wpt lat="28.2259079" lon="105.8911956"><ele>987</ele><name>
        </name></wpt>
  <wpt lat="28.2257357" lon="105.8913291"><ele>986</ele><name>
        </name></wpt>
  <wpt lat="28.2262529" lon="105.8930425"><ele>979</ele><name>
        </name></wpt>
  <wpt lat="28.2268201" lon="105.8929611"><ele>972</ele><name>
        </name></wpt>
  <wpt lat="28.2287833" lon="105.8927922"><ele>978</ele><name>
        </name></wpt>
  <wpt lat="28.2308468" lon="105.8896465"><ele>952</ele><name>
        </name></wpt>
  <wpt lat="28.2318944" lon="105.8891476"><ele>935</ele><name>
        </name></wpt>
  <wpt lat="28.2319617" lon="105.8901308"><ele>961</ele><name>
        </name></wpt>
  <wpt lat="28.2317872" lon="105.8902368"><ele>973</ele><name>
        </name></wpt>
  <wpt lat="28.2317956" lon="105.8900923"><ele>982</ele><name>
        </name></wpt>
  <wpt lat="28.2317036" lon="105.8904334"><ele>939</ele><name>
        </name></wpt>
  <wpt lat="28.2319538" lon="105.8909457"><ele>952</ele><name>
        </name></wpt>
  <wpt lat="28.2319137" lon="105.8909727"><ele>957</ele><name>
        </name></wpt>
  <wpt lat="28.2319137" lon="105.8909727"><ele>957</ele><name>
        </name></wpt>
  <wpt lat="28.2318572" lon="105.8915505"><ele>948</ele><name>
        </name></wpt>
  <wpt lat="28.2315681" lon="105.8918374"><ele>932</ele><name>
        </name></wpt>
  <wpt lat="28.2340039" lon="105.8927504"><ele>909</ele><name>
        </name></wpt>
  <wpt lat="28.2355038" lon="105.891094"><ele>904</ele><name>
        </name></wpt>
  <wpt lat="28.2355038" lon="105.891094"><ele>904</ele><name>
        </name></wpt>
  <wpt lat="28.2352138" lon="105.8904459"><ele>879</ele><name>
        </name></wpt>
  <wpt lat="28.2361805" lon="105.8885097"><ele>931</ele><name>
        </name></wpt>
  <wpt lat="28.2361805" lon="105.8885097"><ele>931</ele><name>
        </name></wpt>
  <wpt lat="28.2361805" lon="105.8885097"><ele>931</ele><name>
        </name></wpt>
  <wpt lat="28.2359314" lon="105.8885117"><ele>883</ele><name>
        </name></wpt>
  <wpt lat="28.2395803" lon="105.8882068"><ele>762</ele><name>
        </name></wpt>
  <wpt lat="28.2557257" lon="105.8880587"><ele>726</ele><name>
        </name></wpt>
  <wpt lat="28.2646136" lon="105.8757606"><ele>735</ele><name>
        </name></wpt>
  <wpt lat="28.2623844" lon="105.8712907"><ele>722</ele><name>
        </name></wpt>
  <wpt lat="28.2607298" lon="105.8705062"><ele>820</ele><name>
        </name></wpt>
  <wpt lat="28.2578923" lon="105.8702622"><ele>791</ele><name>
        </name></wpt>
  <trk><name>川黔古道</name>
      <trkseg>
        <trkpt lat="28.2202742" lon="105.8539549"><ele>1114.05</ele><time>2026-05-30T13:58:18.000Z</time></trkpt>
        <trkpt lat="28.2203113" lon="105.8539689"><ele>1114.05</ele><time>2026-05-30T13:58:24.000Z</time></trkpt>
        <trkpt lat="28.2203475" lon="105.8540046"><ele>1116.56</ele><time>2026-05-30T13:58:32.000Z</time></trkpt>
        <trkpt lat="28.2203668" lon="105.8540627"><ele>1119.96</ele><time>2026-05-30T13:58:40.000Z</time></trkpt>
        <trkpt lat="28.2203368" lon="105.8540981"><ele>1122.66</ele><time>2026-05-30T13:59:08.000Z</time></trkpt>
        <trkpt lat="28.2203248" lon="105.8541087"><ele>1124.7</ele><time>2026-05-30T13:59:10.000Z</time></trkpt>
        <trkpt lat="28.2202966" lon="105.8541495"><ele>1125.71</ele><time>2026-05-30T13:59:26.000Z</time></trkpt>
        <trkpt lat="28.220297" lon="105.8541994"><ele>1125.63</ele><time>2026-05-30T13:59:30.000Z</time></trkpt>
        <trkpt lat="28.2202991" lon="105.8542633"><ele>1125.91</ele><time>2026-05-30T13:59:36.000Z</time></trkpt>
        <trkpt lat="28.2203174" lon="105.8543216"><ele>1126.72</ele><time>2026-05-30T13:59:42.000Z</time></trkpt>
        <trkpt lat="28.2203127" lon="105.8543769"><ele>1126.68</ele><time>2026-05-30T13:59:48.000Z</time></trkpt>
        <trkpt lat="28.2202937" lon="105.8544257"><ele>1127.3</ele><time>2026-05-30T13:59:56.000Z</time></trkpt>
        <trkpt lat="28.2202841" lon="105.8544787"><ele>1127.39</ele><time>2026-05-30T14:00:04.000Z</time></trkpt>
        <trkpt lat="28.2202516" lon="105.8545289"><ele>1128.57</ele><time>2026-05-30T14:00:16.000Z</time></trkpt>
        <trkpt lat="28.2202451" lon="105.8545818"><ele>1128.65</ele><time>2026-05-30T14:00:22.000Z</time></trkpt>
        <trkpt lat="28.2202714" lon="105.8546262"><ele>1128.29</ele><time>2026-05-30T14:00:26.000Z</time></trkpt>
        <trkpt lat="28.2202816" lon="105.8546747"><ele>1129.24</ele><time>2026-05-30T14:00:32.000Z</time></trkpt>
        <trkpt lat="28.2202816" lon="105.8546747"><ele>1129.24</ele><time>2026-05-30T14:00:47.000Z</time></trkpt>
        <trkpt lat="28.220308" lon="105.854739"><ele>1130.38</ele><time>2026-05-30T14:00:52.000Z</time></trkpt>
        <trkpt lat="28.220308" lon="105.854739"><ele>1130.38</ele><time>2026-05-30T14:00:53.000Z</time></trkpt>
        <trkpt lat="28.2203497" lon="105.8547266"><ele>1131.83</ele><time>2026-05-30T14:00:58.000Z</time></trkpt>
        <trkpt lat="28.2203983" lon="105.8547467"><ele>1133.26</ele><time>2026-05-30T14:01:46.000Z</time></trkpt>
        <trkpt lat="28.2204124" lon="105.8547594"><ele>1133.48</ele><time>2026-05-30T14:01:48.000Z</time></trkpt>
        <trkpt lat="28.2204269" lon="105.8547994"><ele>1133.08</ele><time>2026-05-30T14:01:52.000Z</time></trkpt>
        <trkpt lat="28.2204521" lon="105.8548881"><ele>1132.98</ele><time>2026-05-30T14:01:58.000Z</time></trkpt>
        <trkpt lat="28.2204629" lon="105.8549157"><ele>1134.72</ele><time>2026-05-30T14:02:00.000Z</time></trkpt>
        <trkpt lat="28.2204828" lon="105.8549662"><ele>1135.61</ele><time>2026-05-30T14:02:10.000Z</time></trkpt>
        <trkpt lat="28.2204959" lon="105.8550201"><ele>1135.91</ele><time>2026-05-30T14:02:14.000Z</time></trkpt>
        <trkpt lat="28.2205384" lon="105.8550457"><ele>1136.08</ele><time>2026-05-30T14:02:20.000Z</time></trkpt>
        <trkpt lat="28.2205839" lon="105.8550634"><ele>1135.95</ele><time>2026-05-30T14:02:24.000Z</time></trkpt>
        <trkpt lat="28.2206051" lon="105.8551077"><ele>1136.48</ele><time>2026-05-30T14:02:36.000Z</time></trkpt>
        <trkpt lat="28.2206293" lon="105.8551533"><ele>1138.25</ele><time>2026-05-30T14:02:58.000Z</time></trkpt>
        <trkpt lat="28.2206628" lon="105.8552041"><ele>1138.27</ele><time>2026-05-30T14:03:06.000Z</time></trkpt>
        <trkpt lat="28.2206966" lon="105.8552463"><ele>1139.34</ele><time>2026-05-30T14:03:16.000Z</time></trkpt>
        <trkpt lat="28.2206966" lon="105.8552463"><ele>1139.34</ele><time>2026-05-30T14:03:49.000Z</time></trkpt>
        <trkpt lat="28.2216135" lon="105.8570496"><ele>1140.26</ele><time>2026-05-30T14:11:05.000Z</time></trkpt>
        <trkpt lat="28.2216135" lon="105.8570496"><ele>1140.26</ele><time>2026-05-30T14:11:07.000Z</time></trkpt>
        <trkpt lat="28.2216532" lon="105.8570818"><ele>1155.73</ele><time>2026-05-30T14:11:18.000Z</time></trkpt>
        <trkpt lat="28.221669" lon="105.8571331"><ele>1166.88</ele><time>2026-05-30T14:11:28.000Z</time></trkpt>
        <trkpt lat="28.2216936" lon="105.8571932"><ele>1171.93</ele><time>2026-05-30T14:11:38.000Z</time></trkpt>
        <trkpt lat="28.2217144" lon="105.857246"><ele>1174.85</ele><time>2026-05-30T14:11:44.000Z</time></trkpt>
        <trkpt lat="28.2217189" lon="105.8573059"><ele>1177.31</ele><time>2026-05-30T14:11:52.000Z</time></trkpt>
        <trkpt lat="28.2217545" lon="105.8573228"><ele>1179.03</ele><time>2026-05-30T14:11:58.000Z</time></trkpt>
        <trkpt lat="28.2217854" lon="105.8573581"><ele>1182.24</ele><time>2026-05-30T14:12:04.000Z</time></trkpt>
        <trkpt lat="28.221815" lon="105.8574001"><ele>1184.08</ele><time>2026-05-30T14:12:14.000Z</time></trkpt>
        <trkpt lat="28.2218413" lon="105.8574467"><ele>1183.77</ele><time>2026-05-30T14:12:30.000Z</time></trkpt>
        <trkpt lat="28.2218752" lon="105.8574856"><ele>1183.99</ele><time>2026-05-30T14:12:44.000Z</time></trkpt>
        <trkpt lat="28.2218943" lon="105.8575154"><ele>1186.3</ele><time>2026-05-30T14:12:52.000Z</time></trkpt>
        <trkpt lat="28.221912" lon="105.8575577"><ele>1186.18</ele><time>2026-05-30T14:13:00.000Z</time></trkpt>
        <trkpt lat="28.2219356" lon="105.8576036"><ele>1187.25</ele><time>2026-05-30T14:13:12.000Z</time></trkpt>
        <trkpt lat="28.2219569" lon="105.8576704"><ele>1188.44</ele><time>2026-05-30T14:13:18.000Z</time></trkpt>
        <trkpt lat="28.2219762" lon="105.8577287"><ele>1189.42</ele><time>2026-05-30T14:13:24.000Z</time></trkpt>
        <trkpt lat="28.2219947" lon="105.8577804"><ele>1191.3</ele><time>2026-05-30T14:13:30.000Z</time></trkpt>
        <trkpt lat="28.2220286" lon="105.8578164"><ele>1192.76</ele><time>2026-05-30T14:13:44.000Z</time></trkpt>
        <trkpt lat="28.2220677" lon="105.8578599"><ele>1192.98</ele><time>2026-05-30T14:14:00.000Z</time></trkpt>
        <trkpt lat="28.222099" lon="105.8579157"><ele>1195.77</ele><time>2026-05-30T14:14:06.000Z</time></trkpt>
        <trkpt lat="28.2221159" lon="105.857972"><ele>1197.59</ele><time>2026-05-30T14:14:14.000Z</time></trkpt>
        <trkpt lat="28.2221287" lon="105.8580334"><ele>1198.72</ele><time>2026-05-30T14:14:22.000Z</time></trkpt>
        <trkpt lat="28.2221377" lon="105.8580875"><ele>1198.84</ele><time>2026-05-30T14:14:30.000Z</time></trkpt>
        <trkpt lat="28.2221377" lon="105.8580875"><ele>1198.84</ele><time>2026-05-30T14:14:44.000Z</time></trkpt>
        <trkpt lat="28.2220808" lon="105.8580865"><ele>1198.92</ele><time>2026-05-30T14:14:49.000Z</time></trkpt>
        <trkpt lat="28.2220808" lon="105.8580865"><ele>1198.92</ele><time>2026-05-30T14:14:50.000Z</time></trkpt>
        <trkpt lat="28.2220399" lon="105.8581132"><ele>1205.21</ele><time>2026-05-30T14:14:55.000Z</time></trkpt>
        <trkpt lat="28.2220659" lon="105.8581699"><ele>1208.33</ele><time>2026-05-30T14:15:01.000Z</time></trkpt>
        <trkpt lat="28.2221043" lon="105.8582173"><ele>1206.38</ele><time>2026-05-30T14:15:09.000Z</time></trkpt>
        <trkpt lat="28.2221396" lon="105.8582762"><ele>1205.4</ele><time>2026-05-30T14:15:27.000Z</time></trkpt>
        <trkpt lat="28.2221666" lon="105.8583069"><ele>1204.02</ele><time>2026-05-30T14:15:31.000Z</time></trkpt>
        <trkpt lat="28.2222086" lon="105.8583345"><ele>1203.05</ele><time>2026-05-30T14:15:43.000Z</time></trkpt>
        <trkpt lat="28.2222463" lon="105.8583667"><ele>1204.55</ele><time>2026-05-30T14:15:55.000Z</time></trkpt>
        <trkpt lat="28.2222851" lon="105.8584122"><ele>1206.27</ele><time>2026-05-30T14:15:59.000Z</time></trkpt>
        <trkpt lat="28.2223229" lon="105.8584498"><ele>1209.83</ele><time>2026-05-30T14:16:07.000Z</time></trkpt>
        <trkpt lat="28.2223567" lon="105.8585066"><ele>1211.58</ele><time>2026-05-30T14:16:13.000Z</time></trkpt>
        <trkpt lat="28.2223904" lon="105.8585608"><ele>1213.88</ele><time>2026-05-30T14:16:19.000Z</time></trkpt>
        <trkpt lat="28.2224183" lon="105.8586112"><ele>1216.67</ele><time>2026-05-30T14:16:27.000Z</time></trkpt>
        <trkpt lat="28.2224251" lon="105.8586666"><ele>1218.3</ele><time>2026-05-30T14:16:35.000Z</time></trkpt>
        <trkpt lat="28.2224453" lon="105.8587114"><ele>1218.94</ele><time>2026-05-30T14:16:43.000Z</time></trkpt>
        <trkpt lat="28.2224724" lon="105.8587594"><ele>1220.41</ele><time>2026-05-30T14:16:53.000Z</time></trkpt>
        <trkpt lat="28.2225099" lon="105.858791"><ele>1222.62</ele><time>2026-05-30T14:17:03.000Z</time></trkpt>
        <trkpt lat="28.2225338" lon="105.858838"><ele>1224.07</ele><time>2026-05-30T14:17:17.000Z</time></trkpt>
        <trkpt lat="28.2225318" lon="105.8588923"><ele>1225.48</ele><time>2026-05-30T14:17:25.000Z</time></trkpt>
        <trkpt lat="28.2225413" lon="105.858946"><ele>1226.2</ele><time>2026-05-30T14:17:35.000Z</time></trkpt>
        <trkpt lat="28.2225627" lon="105.858998"><ele>1226.23</ele><time>2026-05-30T14:17:41.000Z</time></trkpt>
        <trkpt lat="28.2225862" lon="105.859048"><ele>1227.71</ele><time>2026-05-30T14:17:49.000Z</time></trkpt>
        <trkpt lat="28.2226188" lon="105.859092"><ele>1229.36</ele><time>2026-05-30T14:17:57.000Z</time></trkpt>
        <trkpt lat="28.2226472" lon="105.8591359"><ele>1229.35</ele><time>2026-05-30T14:18:05.000Z</time></trkpt>
        <trkpt lat="28.2226839" lon="105.8591736"><ele>1231.15</ele><time>2026-05-30T14:18:15.000Z</time></trkpt>
        <trkpt lat="28.2227056" lon="105.85922"><ele>1231.85</ele><time>2026-05-30T14:18:25.000Z</time></trkpt>
        <trkpt lat="28.2227419" lon="105.8592524"><ele>1232.57</ele><time>2026-05-30T14:18:37.000Z</time></trkpt>
        <trkpt lat="28.2227607" lon="105.8593053"><ele>1234.26</ele><time>2026-05-30T14:18:49.000Z</time></trkpt>
        <trkpt lat="28.2227802" lon="105.8593553"><ele>1234.85</ele><time>2026-05-30T14:18:57.000Z</time></trkpt>
        <trkpt lat="28.2228068" lon="105.8594093"><ele>1235.78</ele><time>2026-05-30T14:19:07.000Z</time></trkpt>
        <trkpt lat="28.2228391" lon="105.8594577"><ele>1236.06</ele><time>2026-05-30T14:19:15.000Z</time></trkpt>
        <trkpt lat="28.2228538" lon="105.8595118"><ele>1236.98</ele><time>2026-05-30T14:19:25.000Z</time></trkpt>
        <trkpt lat="28.2228938" lon="105.859545"><ele>1237.76</ele><time>2026-05-30T14:19:35.000Z</time></trkpt>
        <trkpt lat="28.2229031" lon="105.8595917"><ele>1238.51</ele><time>2026-05-30T14:19:43.000Z</time></trkpt>
        <trkpt lat="28.2229298" lon="105.8596288"><ele>1239.91</ele><time>2026-05-30T14:19:51.000Z</time></trkpt>
        <trkpt lat="28.2229661" lon="105.8596658"><ele>1241.89</ele><time>2026-05-30T14:19:59.000Z</time></trkpt>
        <trkpt lat="28.2229786" lon="105.8597144"><ele>1245.36</ele><time>2026-05-30T14:20:09.000Z</time></trkpt>
        <trkpt lat="28.2230022" lon="105.859767"><ele>1247.56</ele><time>2026-05-30T14:20:21.000Z</time></trkpt>
        <trkpt lat="28.2230274" lon="105.8598148"><ele>1249.78</ele><time>2026-05-30T14:20:35.000Z</time></trkpt>
        <trkpt lat="28.2230532" lon="105.8598634"><ele>1250.69</ele><time>2026-05-30T14:20:49.000Z</time></trkpt>
        <trkpt lat="28.223079" lon="105.8599199"><ele>1253.22</ele><time>2026-05-30T14:20:59.000Z</time></trkpt>
        <trkpt lat="28.2231212" lon="105.8599482"><ele>1255.23</ele><time>2026-05-30T14:21:27.000Z</time></trkpt>
        <trkpt lat="28.2231471" lon="105.8599913"><ele>1255.53</ele><time>2026-05-30T14:21:35.000Z</time></trkpt>
        <trkpt lat="28.2231673" lon="105.8600478"><ele>1256.09</ele><time>2026-05-30T14:21:47.000Z</time></trkpt>
        <trkpt lat="28.2231861" lon="105.8600991"><ele>1256.85</ele><time>2026-05-30T14:22:07.000Z</time></trkpt>
        <trkpt lat="28.223221" lon="105.8600932"><ele>1258.32</ele><time>2026-05-30T14:22:13.000Z</time></trkpt>
        <trkpt lat="28.2232287" lon="105.8600888"><ele>1259.6</ele><time>2026-05-30T14:22:15.000Z</time></trkpt>
        <trkpt lat="28.2232606" lon="105.8601218"><ele>1260.2</ele><time>2026-05-30T14:22:21.000Z</time></trkpt>
        <trkpt lat="28.2232573" lon="105.8601226"><ele>1261.42</ele><time>2026-05-30T14:22:23.000Z</time></trkpt>
        <trkpt lat="28.2232719" lon="105.8601652"><ele>1261.85</ele><time>2026-05-30T14:22:33.000Z</time></trkpt>
        <trkpt lat="28.2233018" lon="105.8602213"><ele>1262.81</ele><time>2026-05-30T14:22:51.000Z</time></trkpt>
        <trkpt lat="28.2233308" lon="105.8602757"><ele>1262.12</ele><time>2026-05-30T14:23:03.000Z</time></trkpt>
        <trkpt lat="28.2233561" lon="105.8603243"><ele>1262.65</ele><time>2026-05-30T14:23:15.000Z</time></trkpt>
        <trkpt lat="28.2233741" lon="105.8603726"><ele>1263.67</ele><time>2026-05-30T14:23:25.000Z</time></trkpt>
        <trkpt lat="28.223413" lon="105.8604114"><ele>1264.38</ele><time>2026-05-30T14:23:37.000Z</time></trkpt>
        <trkpt lat="28.2234424" lon="105.8604547"><ele>1266.41</ele><time>2026-05-30T14:23:51.000Z</time></trkpt>
        <trkpt lat="28.2234448" lon="105.8605077"><ele>1268.28</ele><time>2026-05-30T14:23:57.000Z</time></trkpt>
        <trkpt lat="28.2234754" lon="105.8605372"><ele>1271.18</ele><time>2026-05-30T14:24:15.000Z</time></trkpt>
        <trkpt lat="28.2234857" lon="105.860591"><ele>1273.06</ele><time>2026-05-30T14:24:25.000Z</time></trkpt>
        <trkpt lat="28.2234865" lon="105.8606467"><ele>1274.66</ele><time>2026-05-30T14:24:35.000Z</time></trkpt>
        <trkpt lat="28.2234962" lon="105.8607002"><ele>1276.79</ele><time>2026-05-30T14:24:47.000Z</time></trkpt>
        <trkpt lat="28.2235054" lon="105.8607544"><ele>1279.75</ele><time>2026-05-30T14:25:03.000Z</time></trkpt>
        <trkpt lat="28.2235106" lon="105.8608095"><ele>1283.1</ele><time>2026-05-30T14:25:27.000Z</time></trkpt>
        <trkpt lat="28.2235449" lon="105.8608348"><ele>1287.42</ele><time>2026-05-30T14:25:45.000Z</time></trkpt>
        <trkpt lat="28.2235605" lon="105.8608777"><ele>1291.62</ele><time>2026-05-30T14:25:51.000Z</time></trkpt>
        <trkpt lat="28.2235896" lon="105.8609199"><ele>1294.7</ele><time>2026-05-30T14:26:01.000Z</time></trkpt>
        <trkpt lat="28.2236183" lon="105.8609633"><ele>1296.36</ele><time>2026-05-30T14:26:13.000Z</time></trkpt>
        <trkpt lat="28.2236549" lon="105.8609984"><ele>1296.81</ele><time>2026-05-30T14:26:27.000Z</time></trkpt>
        <trkpt lat="28.2236791" lon="105.8610496"><ele>1297.92</ele><time>2026-05-30T14:26:39.000Z</time></trkpt>
        <trkpt lat="28.223696" lon="105.8610614"><ele>1298.66</ele><time>2026-05-30T14:26:45.000Z</time></trkpt>
        <trkpt lat="28.2237349" lon="105.861061"><ele>1299.13</ele><time>2026-05-30T14:27:01.000Z</time></trkpt>
        <trkpt lat="28.2236858" lon="105.8613616"><ele>1302.66</ele><time>2026-05-30T14:29:03.000Z</time></trkpt>
        <trkpt lat="28.2237304" lon="105.8613814"><ele>1318.1</ele><time>2026-05-30T14:29:06.000Z</time></trkpt>
        <trkpt lat="28.2237304" lon="105.8613814"><ele>1318.1</ele><time>2026-05-30T14:29:37.000Z</time></trkpt>
        <trkpt lat="28.2237877" lon="105.8614466"><ele>1325.49</ele><time>2026-05-30T14:30:07.000Z</time></trkpt>
        <trkpt lat="28.2237877" lon="105.8614466"><ele>1325.49</ele><time>2026-05-30T14:30:08.000Z</time></trkpt>
        <trkpt lat="28.2238349" lon="105.8614743"><ele>1327.64</ele><time>2026-05-30T14:30:14.000Z</time></trkpt>
        <trkpt lat="28.2238349" lon="105.8614743"><ele>1327.64</ele><time>2026-05-30T14:30:49.000Z</time></trkpt>
        <trkpt lat="28.2238784" lon="105.8615329"><ele>1329.92</ele><time>2026-05-30T14:31:01.000Z</time></trkpt>
        <trkpt lat="28.2238784" lon="105.8615329"><ele>1329.92</ele><time>2026-05-30T14:31:02.000Z</time></trkpt>
        <trkpt lat="28.2239075" lon="105.8615862"><ele>1332.66</ele><time>2026-05-30T14:31:06.000Z</time></trkpt>
        <trkpt lat="28.2239075" lon="105.8615862"><ele>1332.66</ele><time>2026-05-30T14:31:37.000Z</time></trkpt>
        <trkpt lat="28.2239327" lon="105.8617012"><ele>1334.61</ele><time>2026-05-30T14:32:37.000Z</time></trkpt>
        <trkpt lat="28.2239327" lon="105.8617012"><ele>1334.61</ele><time>2026-05-30T14:32:54.000Z</time></trkpt>
        <trkpt lat="28.2239402" lon="105.8617259"><ele>1340.05</ele><time>2026-05-30T14:32:56.000Z</time></trkpt>
        <trkpt lat="28.2239402" lon="105.8617259"><ele>1340.05</ele><time>2026-05-30T14:33:33.000Z</time></trkpt>
        <trkpt lat="28.2239815" lon="105.8618124"><ele>1343.56</ele><time>2026-05-30T14:33:41.000Z</time></trkpt>
        <trkpt lat="28.2239815" lon="105.8618124"><ele>1343.56</ele><time>2026-05-30T14:33:48.000Z</time></trkpt>
        <trkpt lat="28.2240089" lon="105.8618566"><ele>1351.29</ele><time>2026-05-30T14:33:58.000Z</time></trkpt>
        <trkpt lat="28.2240299" lon="105.8619072"><ele>1357.27</ele><time>2026-05-30T14:34:08.000Z</time></trkpt>
        <trkpt lat="28.2240299" lon="105.8619072"><ele>1357.27</ele><time>2026-05-30T14:36:17.000Z</time></trkpt>
        <trkpt lat="28.2240374" lon="105.8619606"><ele>1362.56</ele><time>2026-05-30T14:36:21.000Z</time></trkpt>
        <trkpt lat="28.2240374" lon="105.8619606"><ele>1362.56</ele><time>2026-05-30T14:36:30.000Z</time></trkpt>
        <trkpt lat="28.2240936" lon="105.8619419"><ele>1369.78</ele><time>2026-05-30T14:36:40.000Z</time></trkpt>
        <trkpt lat="28.2241109" lon="105.8619844"><ele>1375.57</ele><time>2026-05-30T14:37:20.000Z</time></trkpt>
        <trkpt lat="28.2241074" lon="105.8620455"><ele>1381.62</ele><time>2026-05-30T14:37:32.000Z</time></trkpt>
        <trkpt lat="28.2241358" lon="105.862076"><ele>1384.7</ele><time>2026-05-30T14:37:40.000Z</time></trkpt>
        <trkpt lat="28.2241786" lon="105.8620945"><ele>1386.35</ele><time>2026-05-30T14:37:56.000Z</time></trkpt>
        <trkpt lat="28.2241927" lon="105.8621356"><ele>1389.32</ele><time>2026-05-30T14:38:14.000Z</time></trkpt>
        <trkpt lat="28.2242" lon="105.8621873"><ele>1392.43</ele><time>2026-05-30T14:38:40.000Z</time></trkpt>
        <trkpt lat="28.2242093" lon="105.8622438"><ele>1395.37</ele><time>2026-05-30T14:38:58.000Z</time></trkpt>
        <trkpt lat="28.2242093" lon="105.8622438"><ele>1395.37</ele><time>2026-05-30T14:39:35.000Z</time></trkpt>
        <trkpt lat="28.2242093" lon="105.8622438"><ele>1395.37</ele><time>2026-05-30T14:39:37.000Z</time></trkpt>
        <trkpt lat="28.2242093" lon="105.8622438"><ele>1395.37</ele><time>2026-05-30T14:40:09.000Z</time></trkpt>
        <trkpt lat="28.2241475" lon="105.8622808"><ele>1416.12</ele><time>2026-05-30T14:42:36.000Z</time></trkpt>
        <trkpt lat="28.2241594" lon="105.8641552"><ele>1379</ele><time>2026-05-30T14:52:52.000Z</time></trkpt>
        <trkpt lat="28.2241714" lon="105.8641021"><ele>1375.27</ele><time>2026-05-30T14:52:55.000Z</time></trkpt>
        <trkpt lat="28.2241454" lon="105.8641527"><ele>1375.4</ele><time>2026-05-30T14:53:55.000Z</time></trkpt>
        <trkpt lat="28.2241115" lon="105.8641901"><ele>1372.54</ele><time>2026-05-30T14:54:37.000Z</time></trkpt>
        <trkpt lat="28.223744" lon="105.8644"><ele>1321.77</ele><time>2026-05-30T14:58:31.000Z</time></trkpt>
        <trkpt lat="28.223756" lon="105.8644514"><ele>1321.77</ele><time>2026-05-30T14:58:34.000Z</time></trkpt>
        <trkpt lat="28.2237586" lon="105.8645053"><ele>1325.1</ele><time>2026-05-30T14:58:40.000Z</time></trkpt>
        <trkpt lat="28.223724" lon="105.8645241"><ele>1329.8</ele><time>2026-05-30T14:59:00.000Z</time></trkpt>
        <trkpt lat="28.2236989" lon="105.8645774"><ele>1332.9</ele><time>2026-05-30T14:59:10.000Z</time></trkpt>
        <trkpt lat="28.2236721" lon="105.8646077"><ele>1334.09</ele><time>2026-05-30T14:59:16.000Z</time></trkpt>
        <trkpt lat="28.2236854" lon="105.8646448"><ele>1334.1</ele><time>2026-05-30T14:59:28.000Z</time></trkpt>
        <trkpt lat="28.2236795" lon="105.8646493"><ele>1332.46</ele><time>2026-05-30T14:59:36.000Z</time></trkpt>
        <trkpt lat="28.2236496" lon="105.8646179"><ele>1329.38</ele><time>2026-05-30T14:59:46.000Z</time></trkpt>
        <trkpt lat="28.2236496" lon="105.8646179"><ele>1329.38</ele><time>2026-05-30T14:59:59.000Z</time></trkpt>
        <trkpt lat="28.2236136" lon="105.8646357"><ele>1326.87</ele><time>2026-05-30T15:00:00.000Z</time></trkpt>
        <trkpt lat="28.2236136" lon="105.8646357"><ele>1326.87</ele><time>2026-05-30T15:00:03.000Z</time></trkpt>
        <trkpt lat="28.2236136" lon="105.8646357"><ele>1326.87</ele><time>2026-05-30T15:00:23.000Z</time></trkpt>
        <trkpt lat="28.2235803" lon="105.864681"><ele>1329.04</ele><time>2026-05-30T15:00:30.000Z</time></trkpt>
        <trkpt lat="28.2235803" lon="105.864681"><ele>1329.04</ele><time>2026-05-30T15:00:37.000Z</time></trkpt>
        <trkpt lat="28.2235365" lon="105.864725"><ele>1328.42</ele><time>2026-05-30T15:01:07.000Z</time></trkpt>
        <trkpt lat="28.2235184" lon="105.8647078"><ele>1326.2</ele><time>2026-05-30T15:01:13.000Z</time></trkpt>
        <trkpt lat="28.2235081" lon="105.8647392"><ele>1324.73</ele><time>2026-05-30T15:01:31.000Z</time></trkpt>
        <trkpt lat="28.2234742" lon="105.8647666"><ele>1323.15</ele><time>2026-05-30T15:01:55.000Z</time></trkpt>
        <trkpt lat="28.2234648" lon="105.8648157"><ele>1319.6</ele><time>2026-05-30T15:02:17.000Z</time></trkpt>
        <trkpt lat="28.2234823" lon="105.8648652"><ele>1315.91</ele><time>2026-05-30T15:03:01.000Z</time></trkpt>
        <trkpt lat="28.2235069" lon="105.8649224"><ele>1308.89</ele><time>2026-05-30T15:03:19.000Z</time></trkpt>
        <trkpt lat="28.223538" lon="105.8649683"><ele>1304.63</ele><time>2026-05-30T15:03:27.000Z</time></trkpt>
        <trkpt lat="28.2235194" lon="105.8650214"><ele>1301.3</ele><time>2026-05-30T15:04:45.000Z</time></trkpt>
        <trkpt lat="28.223511" lon="105.865081"><ele>1297.55</ele><time>2026-05-30T15:05:25.000Z</time></trkpt>
        <trkpt lat="28.2235529" lon="105.8651163"><ele>1292.09</ele><time>2026-05-30T15:05:51.000Z</time></trkpt>
        <trkpt lat="28.2235668" lon="105.8651253"><ele>1288.47</ele><time>2026-05-30T15:05:53.000Z</time></trkpt>
        <trkpt lat="28.2235455" lon="105.8651534"><ele>1286.3</ele><time>2026-05-30T15:06:21.000Z</time></trkpt>
        <trkpt lat="28.2235002" lon="105.8651897"><ele>1283.98</ele><time>2026-05-30T15:07:39.000Z</time></trkpt>
        <trkpt lat="28.2234939" lon="105.8652477"><ele>1280.73</ele><time>2026-05-30T15:08:03.000Z</time></trkpt>
        <trkpt lat="28.2234542" lon="105.8652293"><ele>1277.5</ele><time>2026-05-30T15:08:11.000Z</time></trkpt>
        <trkpt lat="28.2234586" lon="105.865259"><ele>1274.4</ele><time>2026-05-30T15:08:17.000Z</time></trkpt>
        <trkpt lat="28.2235" lon="105.8652838"><ele>1271.31</ele><time>2026-05-30T15:08:29.000Z</time></trkpt>
        <trkpt lat="28.2235399" lon="105.8653222"><ele>1268.46</ele><time>2026-05-30T15:08:43.000Z</time></trkpt>
        <trkpt lat="28.2235399" lon="105.8653222"><ele>1268.46</ele><time>2026-05-30T15:09:29.000Z</time></trkpt>
        <trkpt lat="28.2235754" lon="105.8653689"><ele>1266.16</ele><time>2026-05-30T15:09:32.000Z</time></trkpt>
        <trkpt lat="28.2235754" lon="105.8653689"><ele>1266.16</ele><time>2026-05-30T15:10:29.000Z</time></trkpt>
        <trkpt lat="28.2235754" lon="105.8653689"><ele>1266.16</ele><time>2026-05-30T15:10:39.000Z</time></trkpt>
        <trkpt lat="28.2235691" lon="105.8654211"><ele>1264.26</ele><time>2026-05-30T15:10:40.000Z</time></trkpt>
        <trkpt lat="28.2235691" lon="105.8654211"><ele>1264.26</ele><time>2026-05-30T15:11:06.000Z</time></trkpt>
        <trkpt lat="28.2236074" lon="105.8654619"><ele>1261.59</ele><time>2026-05-30T15:11:50.000Z</time></trkpt>
        <trkpt lat="28.2236182" lon="105.8654698"><ele>1259.43</ele><time>2026-05-30T15:11:52.000Z</time></trkpt>
        <trkpt lat="28.2235778" lon="105.865487"><ele>1258.03</ele><time>2026-05-30T15:13:06.000Z</time></trkpt>
        <trkpt lat="28.2235847" lon="105.865538"><ele>1253.84</ele><time>2026-05-30T15:13:46.000Z</time></trkpt>
        <trkpt lat="28.2236142" lon="105.8655751"><ele>1250.76</ele><time>2026-05-30T15:14:06.000Z</time></trkpt>
        <trkpt lat="28.2236142" lon="105.8655751"><ele>1250.76</ele><time>2026-05-30T15:14:53.000Z</time></trkpt>
        <trkpt lat="28.2236765" lon="105.8655744"><ele>1248.9</ele><time>2026-05-30T15:15:02.000Z</time></trkpt>
        <trkpt lat="28.2236765" lon="105.8655744"><ele>1248.9</ele><time>2026-05-30T15:15:04.000Z</time></trkpt>
        <trkpt lat="28.2236765" lon="105.8655744"><ele>1248.9</ele><time>2026-05-30T15:15:15.000Z</time></trkpt>
        <trkpt lat="28.2230489" lon="105.8669289"><ele>1245.59</ele><time>2026-05-30T15:30:16.000Z</time></trkpt>
        <trkpt lat="28.2230489" lon="105.8669289"><ele>1245.59</ele><time>2026-05-30T15:30:17.000Z</time></trkpt>
        <trkpt lat="28.2230489" lon="105.8669289"><ele>1245.59</ele><time>2026-05-30T15:30:43.000Z</time></trkpt>
        <trkpt lat="28.2230489" lon="105.8669289"><ele>1245.59</ele><time>2026-05-30T15:30:54.000Z</time></trkpt>
        <trkpt lat="28.2230489" lon="105.8669289"><ele>1245.59</ele><time>2026-05-30T15:31:07.000Z</time></trkpt>
        <trkpt lat="28.2237001" lon="105.8668012"><ele>1228.33</ele><time>2026-05-30T15:31:10.000Z</time></trkpt>
        <trkpt lat="28.2237001" lon="105.8668012"><ele>1228.33</ele><time>2026-05-30T15:31:24.000Z</time></trkpt>
        <trkpt lat="28.2237114" lon="105.8668647"><ele>1210.97</ele><time>2026-05-30T15:31:36.000Z</time></trkpt>
        <trkpt lat="28.2237077" lon="105.8669297"><ele>1197.85</ele><time>2026-05-30T15:31:40.000Z</time></trkpt>
        <trkpt lat="28.2237045" lon="105.866992"><ele>1190.67</ele><time>2026-05-30T15:31:46.000Z</time></trkpt>
        <trkpt lat="28.2237157" lon="105.8670467"><ele>1185.2</ele><time>2026-05-30T15:31:54.000Z</time></trkpt>
        <trkpt lat="28.2237406" lon="105.8670911"><ele>1181</ele><time>2026-05-30T15:32:04.000Z</time></trkpt>
        <trkpt lat="28.2237754" lon="105.867133"><ele>1177.1</ele><time>2026-05-30T15:32:14.000Z</time></trkpt>
        <trkpt lat="28.2237556" lon="105.8671642"><ele>1175.31</ele><time>2026-05-30T15:32:24.000Z</time></trkpt>
        <trkpt lat="28.2237556" lon="105.8671642"><ele>1175.31</ele><time>2026-05-30T15:32:33.000Z</time></trkpt>
        <trkpt lat="28.2237905" lon="105.867131"><ele>1170.53</ele><time>2026-05-30T15:32:34.000Z</time></trkpt>
        <trkpt lat="28.2237905" lon="105.867131"><ele>1170.53</ele><time>2026-05-30T15:32:36.000Z</time></trkpt>
        <trkpt lat="28.2238109" lon="105.8671684"><ele>1164.28</ele><time>2026-05-30T15:33:17.000Z</time></trkpt>
        <trkpt lat="28.2238063" lon="105.8672275"><ele>1161.95</ele><time>2026-05-30T15:33:33.000Z</time></trkpt>
        <trkpt lat="28.2238146" lon="105.8672512"><ele>1162.13</ele><time>2026-05-30T15:33:35.000Z</time></trkpt>
        <trkpt lat="28.2238533" lon="105.8672686"><ele>1161.94</ele><time>2026-05-30T15:33:41.000Z</time></trkpt>
        <trkpt lat="28.223899" lon="105.8672904"><ele>1162.48</ele><time>2026-05-30T15:33:59.000Z</time></trkpt>
        <trkpt lat="28.2239466" lon="105.867313"><ele>1163.33</ele><time>2026-05-30T15:34:29.000Z</time></trkpt>
        <trkpt lat="28.2239675" lon="105.8673631"><ele>1162.57</ele><time>2026-05-30T15:34:41.000Z</time></trkpt>
        <trkpt lat="28.2239874" lon="105.8674152"><ele>1160.7</ele><time>2026-05-30T15:34:55.000Z</time></trkpt>
        <trkpt lat="28.2240188" lon="105.8674658"><ele>1158.57</ele><time>2026-05-30T15:35:05.000Z</time></trkpt>
        <trkpt lat="28.2240463" lon="105.8675204"><ele>1158.21</ele><time>2026-05-30T15:35:25.000Z</time></trkpt>
        <trkpt lat="28.2240763" lon="105.8675848"><ele>1158.5</ele><time>2026-05-30T15:35:31.000Z</time></trkpt>
        <trkpt lat="28.2241042" lon="105.8676413"><ele>1158.92</ele><time>2026-05-30T15:35:39.000Z</time></trkpt>
        <trkpt lat="28.2241316" lon="105.8676885"><ele>1158.42</ele><time>2026-05-30T15:35:45.000Z</time></trkpt>
        <trkpt lat="28.2241537" lon="105.86774"><ele>1158.43</ele><time>2026-05-30T15:35:55.000Z</time></trkpt>
        <trkpt lat="28.2241688" lon="105.8677934"><ele>1160.24</ele><time>2026-05-30T15:35:59.000Z</time></trkpt>
        <trkpt lat="28.2241705" lon="105.8678575"><ele>1160.42</ele><time>2026-05-30T15:36:07.000Z</time></trkpt>
        <trkpt lat="28.2241888" lon="105.867927"><ele>1161.77</ele><time>2026-05-30T15:36:11.000Z</time></trkpt>
        <trkpt lat="28.2242072" lon="105.8679907"><ele>1162.06</ele><time>2026-05-30T15:36:15.000Z</time></trkpt>
        <trkpt lat="28.2241945" lon="105.8680493"><ele>1162.04</ele><time>2026-05-30T15:36:19.000Z</time></trkpt>
        <trkpt lat="28.2241919" lon="105.8681033"><ele>1161.11</ele><time>2026-05-30T15:36:25.000Z</time></trkpt>
        <trkpt lat="28.2241535" lon="105.8680979"><ele>1160.41</ele><time>2026-05-30T15:36:31.000Z</time></trkpt>
        <trkpt lat="28.2241286" lon="105.8681258"><ele>1156.68</ele><time>2026-05-30T15:36:37.000Z</time></trkpt>
        <trkpt lat="28.2241132" lon="105.8681701"><ele>1155.5</ele><time>2026-05-30T15:36:41.000Z</time></trkpt>
        <trkpt lat="28.2240758" lon="105.8682007"><ele>1154.57</ele><time>2026-05-30T15:36:49.000Z</time></trkpt>
        <trkpt lat="28.2240696" lon="105.8682541"><ele>1152.2</ele><time>2026-05-30T15:37:03.000Z</time></trkpt>
        <trkpt lat="28.2240784" lon="105.8683193"><ele>1149.05</ele><time>2026-05-30T15:37:09.000Z</time></trkpt>
        <trkpt lat="28.224087" lon="105.8683842"><ele>1147.84</ele><time>2026-05-30T15:37:15.000Z</time></trkpt>
        <trkpt lat="28.2240849" lon="105.8684471"><ele>1148.11</ele><time>2026-05-30T15:37:21.000Z</time></trkpt>
        <trkpt lat="28.2240669" lon="105.868503"><ele>1148.75</ele><time>2026-05-30T15:37:27.000Z</time></trkpt>
        <trkpt lat="28.2240435" lon="105.8685516"><ele>1149.95</ele><time>2026-05-30T15:37:33.000Z</time></trkpt>
        <trkpt lat="28.2240279" lon="105.86861"><ele>1150.09</ele><time>2026-05-30T15:37:39.000Z</time></trkpt>
        <trkpt lat="28.2240245" lon="105.8686759"><ele>1149.98</ele><time>2026-05-30T15:37:45.000Z</time></trkpt>
        <trkpt lat="28.2240093" lon="105.8687157"><ele>1148.88</ele><time>2026-05-30T15:37:57.000Z</time></trkpt>
        <trkpt lat="28.2240198" lon="105.8687632"><ele>1147.49</ele><time>2026-05-30T15:38:23.000Z</time></trkpt>
        <trkpt lat="28.2240337" lon="105.8688209"><ele>1147.41</ele><time>2026-05-30T15:38:25.000Z</time></trkpt>
        <trkpt lat="28.2240411" lon="105.86882"><ele>1148.41</ele><time>2026-05-30T15:38:27.000Z</time></trkpt>
        <trkpt lat="28.2240528" lon="105.8688587"><ele>1148.84</ele><time>2026-05-30T15:38:57.000Z</time></trkpt>
        <trkpt lat="28.2240567" lon="105.8688598"><ele>1150.74</ele><time>2026-05-30T15:38:59.000Z</time></trkpt>
        <trkpt lat="28.2240388" lon="105.8688932"><ele>1150.95</ele><time>2026-05-30T15:39:29.000Z</time></trkpt>
        <trkpt lat="28.2240554" lon="105.8689322"><ele>1149.89</ele><time>2026-05-30T15:40:03.000Z</time></trkpt>
        <trkpt lat="28.2240912" lon="105.8689729"><ele>1146.81</ele><time>2026-05-30T15:40:31.000Z</time></trkpt>
        <trkpt lat="28.2240806" lon="105.8690229"><ele>1142.72</ele><time>2026-05-30T15:40:37.000Z</time></trkpt>
        <trkpt lat="28.2241053" lon="105.8690543"><ele>1139.82</ele><time>2026-05-30T15:40:51.000Z</time></trkpt>
        <trkpt lat="28.2241408" lon="105.8690337"><ele>1136.12</ele><time>2026-05-30T15:41:01.000Z</time></trkpt>
        <trkpt lat="28.2241666" lon="105.8689767"><ele>1132.54</ele><time>2026-05-30T15:41:13.000Z</time></trkpt>
        <trkpt lat="28.2241922" lon="105.8689207"><ele>1129.46</ele><time>2026-05-30T15:41:21.000Z</time></trkpt>
        <trkpt lat="28.224235" lon="105.8688831"><ele>1126.68</ele><time>2026-05-30T15:41:27.000Z</time></trkpt>
        <trkpt lat="28.2242658" lon="105.8688413"><ele>1125.21</ele><time>2026-05-30T15:41:51.000Z</time></trkpt>
        <trkpt lat="28.2243023" lon="105.86881"><ele>1121.24</ele><time>2026-05-30T15:41:57.000Z</time></trkpt>
        <trkpt lat="28.2243543" lon="105.8687883"><ele>1119.34</ele><time>2026-05-30T15:42:21.000Z</time></trkpt>
        <trkpt lat="28.2243445" lon="105.8688214"><ele>1118.86</ele><time>2026-05-30T15:42:37.000Z</time></trkpt>
        <trkpt lat="28.2243155" lon="105.8688876"><ele>1116.1</ele><time>2026-05-30T15:42:49.000Z</time></trkpt>
        <trkpt lat="28.2243138" lon="105.8689658"><ele>1115.9</ele><time>2026-05-30T15:42:55.000Z</time></trkpt>
        <trkpt lat="28.2243437" lon="105.8690194"><ele>1115.72</ele><time>2026-05-30T15:42:59.000Z</time></trkpt>
        <trkpt lat="28.2243457" lon="105.869076"><ele>1115.15</ele><time>2026-05-30T15:43:11.000Z</time></trkpt>
        <trkpt lat="28.2243622" lon="105.8691235"><ele>1116.41</ele><time>2026-05-30T15:43:19.000Z</time></trkpt>
        <trkpt lat="28.2243674" lon="105.8691798"><ele>1116.41</ele><time>2026-05-30T15:43:33.000Z</time></trkpt>
        <trkpt lat="28.2243322" lon="105.8692205"><ele>1113.34</ele><time>2026-05-30T15:43:41.000Z</time></trkpt>
        <trkpt lat="28.2243045" lon="105.8692806"><ele>1110.82</ele><time>2026-05-30T15:43:57.000Z</time></trkpt>
        <trkpt lat="28.2242695" lon="105.8693215"><ele>1111.87</ele><time>2026-05-30T15:44:03.000Z</time></trkpt>
        <trkpt lat="28.2242303" lon="105.8693562"><ele>1114.4</ele><time>2026-05-30T15:44:19.000Z</time></trkpt>
        <trkpt lat="28.2242167" lon="105.8694078"><ele>1119.5</ele><time>2026-05-30T15:44:33.000Z</time></trkpt>
        <trkpt lat="28.2242188" lon="105.8694648"><ele>1124.73</ele><time>2026-05-30T15:44:39.000Z</time></trkpt>
        <trkpt lat="28.2242523" lon="105.8695"><ele>1128.94</ele><time>2026-05-30T15:44:45.000Z</time></trkpt>
        <trkpt lat="28.2242521" lon="105.8695436"><ele>1132.35</ele><time>2026-05-30T15:44:51.000Z</time></trkpt>
        <trkpt lat="28.2242347" lon="105.8695986"><ele>1133.35</ele><time>2026-05-30T15:44:55.000Z</time></trkpt>
        <trkpt lat="28.2242217" lon="105.8695743"><ele>1133.88</ele><time>2026-05-30T15:45:01.000Z</time></trkpt>
        <trkpt lat="28.2242217" lon="105.8695743"><ele>1133.88</ele><time>2026-05-30T15:45:09.000Z</time></trkpt>
        <trkpt lat="28.2248784" lon="105.8703835"><ele>1130.14</ele><time>2026-05-30T15:51:05.000Z</time></trkpt>
        <trkpt lat="28.2248784" lon="105.8703835"><ele>1130.14</ele><time>2026-05-30T15:51:08.000Z</time></trkpt>
        <trkpt lat="28.2248481" lon="105.870216"><ele>1125.65</ele><time>2026-05-30T15:51:12.000Z</time></trkpt>
        <trkpt lat="28.2248481" lon="105.870216"><ele>1125.65</ele><time>2026-05-30T15:51:53.000Z</time></trkpt>
        <trkpt lat="28.2248736" lon="105.8702252"><ele>1119.52</ele><time>2026-05-30T15:51:57.000Z</time></trkpt>
        <trkpt lat="28.2248736" lon="105.8702252"><ele>1119.52</ele><time>2026-05-30T15:51:56.000Z</time></trkpt>
        <trkpt lat="28.2249002" lon="105.8702698"><ele>1106.74</ele><time>2026-05-30T15:52:08.000Z</time></trkpt>
        <trkpt lat="28.2249181" lon="105.870335"><ele>1101.14</ele><time>2026-05-30T15:52:14.000Z</time></trkpt>
        <trkpt lat="28.2249297" lon="105.8703983"><ele>1097.51</ele><time>2026-05-30T15:52:32.000Z</time></trkpt>
        <trkpt lat="28.2249432" lon="105.8704617"><ele>1094.4</ele><time>2026-05-30T15:52:42.000Z</time></trkpt>
        <trkpt lat="28.2249796" lon="105.8705209"><ele>1089.62</ele><time>2026-05-30T15:52:52.000Z</time></trkpt>
        <trkpt lat="28.2250064" lon="105.8705717"><ele>1088.29</ele><time>2026-05-30T15:53:06.000Z</time></trkpt>
        <trkpt lat="28.2250397" lon="105.8706198"><ele>1084.62</ele><time>2026-05-30T15:53:14.000Z</time></trkpt>
        <trkpt lat="28.2250809" lon="105.8706662"><ele>1082.06</ele><time>2026-05-30T15:53:24.000Z</time></trkpt>
        <trkpt lat="28.2251201" lon="105.8707078"><ele>1081.26</ele><time>2026-05-30T15:53:38.000Z</time></trkpt>
        <trkpt lat="28.2251624" lon="105.8707469"><ele>1080</ele><time>2026-05-30T15:53:48.000Z</time></trkpt>
        <trkpt lat="28.2252009" lon="105.870792"><ele>1078.64</ele><time>2026-05-30T15:53:58.000Z</time></trkpt>
        <trkpt lat="28.2252388" lon="105.8708274"><ele>1078.09</ele><time>2026-05-30T15:54:12.000Z</time></trkpt>
        <trkpt lat="28.2252843" lon="105.870854"><ele>1078.55</ele><time>2026-05-30T15:54:22.000Z</time></trkpt>
        <trkpt lat="28.2253366" lon="105.870888"><ele>1079.24</ele><time>2026-05-30T15:54:30.000Z</time></trkpt>
        <trkpt lat="28.2253856" lon="105.8709021"><ele>1080.18</ele><time>2026-05-30T15:54:56.000Z</time></trkpt>
        <trkpt lat="28.2254301" lon="105.8709255"><ele>1081.09</ele><time>2026-05-30T15:55:06.000Z</time></trkpt>
        <trkpt lat="28.2254634" lon="105.8709606"><ele>1078.88</ele><time>2026-05-30T15:55:16.000Z</time></trkpt>
        <trkpt lat="28.2255113" lon="105.8709916"><ele>1076.36</ele><time>2026-05-30T15:55:30.000Z</time></trkpt>
        <trkpt lat="28.2255537" lon="105.8710252"><ele>1074.66</ele><time>2026-05-30T15:55:34.000Z</time></trkpt>
        <trkpt lat="28.225599" lon="105.8710382"><ele>1073.2</ele><time>2026-05-30T15:55:48.000Z</time></trkpt>
        <trkpt lat="28.2256439" lon="105.8710321"><ele>1071.05</ele><time>2026-05-30T15:56:00.000Z</time></trkpt>
        <trkpt lat="28.2256892" lon="105.871029"><ele>1068.79</ele><time>2026-05-30T15:56:06.000Z</time></trkpt>
        <trkpt lat="28.2257428" lon="105.8710279"><ele>1067.62</ele><time>2026-05-30T15:56:14.000Z</time></trkpt>
        <trkpt lat="28.2257966" lon="105.8710398"><ele>1064.89</ele><time>2026-05-30T15:56:22.000Z</time></trkpt>
        <trkpt lat="28.2258539" lon="105.8710624"><ele>1062.61</ele><time>2026-05-30T15:56:28.000Z</time></trkpt>
        <trkpt lat="28.2259" lon="105.8710864"><ele>1062.93</ele><time>2026-05-30T15:56:48.000Z</time></trkpt>
        <trkpt lat="28.2259457" lon="105.8711157"><ele>1062.98</ele><time>2026-05-30T15:56:54.000Z</time></trkpt>
        <trkpt lat="28.2259679" lon="105.8711663"><ele>1064.53</ele><time>2026-05-30T15:57:16.000Z</time></trkpt>
        <trkpt lat="28.2259947" lon="105.8712204"><ele>1066.65</ele><time>2026-05-30T15:57:28.000Z</time></trkpt>
        <trkpt lat="28.2260013" lon="105.8712747"><ele>1068.19</ele><time>2026-05-30T15:57:50.000Z</time></trkpt>
        <trkpt lat="28.2259975" lon="105.871346"><ele>1068.63</ele><time>2026-05-30T15:58:12.000Z</time></trkpt>
        <trkpt lat="28.2259934" lon="105.8713785"><ele>1070.88</ele><time>2026-05-30T15:58:16.000Z</time></trkpt>
        <trkpt lat="28.2260241" lon="105.8714076"><ele>1072.01</ele><time>2026-05-30T15:58:44.000Z</time></trkpt>
        <trkpt lat="28.226061" lon="105.8713845"><ele>1073.36</ele><time>2026-05-30T15:58:48.000Z</time></trkpt>
        <trkpt lat="28.2260895" lon="105.8713212"><ele>1072.58</ele><time>2026-05-30T15:58:54.000Z</time></trkpt>
        <trkpt lat="28.2261472" lon="105.8713043"><ele>1071.69</ele><time>2026-05-30T15:59:00.000Z</time></trkpt>
        <trkpt lat="28.2261653" lon="105.8713461"><ele>1069.46</ele><time>2026-05-30T15:59:06.000Z</time></trkpt>
        <trkpt lat="28.2261434" lon="105.8714054"><ele>1069.16</ele><time>2026-05-30T15:59:14.000Z</time></trkpt>
        <trkpt lat="28.2261202" lon="105.8714718"><ele>1070.56</ele><time>2026-05-30T15:59:24.000Z</time></trkpt>
        <trkpt lat="28.2260883" lon="105.8715256"><ele>1072.75</ele><time>2026-05-30T15:59:40.000Z</time></trkpt>
        <trkpt lat="28.2261134" lon="105.8715465"><ele>1074.67</ele><time>2026-05-30T15:59:46.000Z</time></trkpt>
        <trkpt lat="28.2261157" lon="105.8715988"><ele>1074.04</ele><time>2026-05-30T15:59:54.000Z</time></trkpt>
        <trkpt lat="28.226105" lon="105.8716511"><ele>1074.7</ele><time>2026-05-30T16:00:04.000Z</time></trkpt>
        <trkpt lat="28.2260711" lon="105.8716862"><ele>1076.35</ele><time>2026-05-30T16:00:14.000Z</time></trkpt>
        <trkpt lat="28.2260748" lon="105.8717288"><ele>1076.67</ele><time>2026-05-30T16:00:26.000Z</time></trkpt>
        <trkpt lat="28.2260839" lon="105.8717805"><ele>1073.57</ele><time>2026-05-30T16:00:34.000Z</time></trkpt>
        <trkpt lat="28.22612" lon="105.8718228"><ele>1071.39</ele><time>2026-05-30T16:00:46.000Z</time></trkpt>
        <trkpt lat="28.2261598" lon="105.8718622"><ele>1068.1</ele><time>2026-05-30T16:00:58.000Z</time></trkpt>
        <trkpt lat="28.226185" lon="105.8719071"><ele>1065.31</ele><time>2026-05-30T16:01:10.000Z</time></trkpt>
        <trkpt lat="28.2262168" lon="105.8719494"><ele>1063.2</ele><time>2026-05-30T16:01:22.000Z</time></trkpt>
        <trkpt lat="28.2262248" lon="105.8720032"><ele>1061.33</ele><time>2026-05-30T16:01:32.000Z</time></trkpt>
        <trkpt lat="28.2262282" lon="105.8720575"><ele>1060.08</ele><time>2026-05-30T16:01:40.000Z</time></trkpt>
        <trkpt lat="28.2262278" lon="105.8721116"><ele>1059.45</ele><time>2026-05-30T16:01:58.000Z</time></trkpt>
        <trkpt lat="28.2262371" lon="105.8721617"><ele>1059.35</ele><time>2026-05-30T16:02:24.000Z</time></trkpt>
        <trkpt lat="28.2262623" lon="105.8722064"><ele>1059.97</ele><time>2026-05-30T16:02:48.000Z</time></trkpt>
        <trkpt lat="28.2262966" lon="105.8722434"><ele>1060.31</ele><time>2026-05-30T16:03:00.000Z</time></trkpt>
        <trkpt lat="28.2263232" lon="105.872291"><ele>1060.08</ele><time>2026-05-30T16:03:18.000Z</time></trkpt>
        <trkpt lat="28.2263397" lon="105.8723408"><ele>1059.56</ele><time>2026-05-30T16:03:34.000Z</time></trkpt>
        <trkpt lat="28.2263649" lon="105.8723912"><ele>1057.95</ele><time>2026-05-30T16:03:44.000Z</time></trkpt>
        <trkpt lat="28.226393" lon="105.8724379"><ele>1057.17</ele><time>2026-05-30T16:03:56.000Z</time></trkpt>
        <trkpt lat="28.2264221" lon="105.8724803"><ele>1056.53</ele><time>2026-05-30T16:04:08.000Z</time></trkpt>
        <trkpt lat="28.2264417" lon="105.8725268"><ele>1055.58</ele><time>2026-05-30T16:04:16.000Z</time></trkpt>
        <trkpt lat="28.226472" lon="105.872573"><ele>1055.04</ele><time>2026-05-30T16:04:28.000Z</time></trkpt>
        <trkpt lat="28.2265158" lon="105.8725852"><ele>1053.26</ele><time>2026-05-30T16:04:44.000Z</time></trkpt>
        <trkpt lat="28.2265399" lon="105.8726213"><ele>1050.15</ele><time>2026-05-30T16:05:04.000Z</time></trkpt>
        <trkpt lat="28.2265667" lon="105.8726714"><ele>1047.59</ele><time>2026-05-30T16:05:32.000Z</time></trkpt>
        <trkpt lat="28.2266028" lon="105.8727073"><ele>1045.11</ele><time>2026-05-30T16:05:46.000Z</time></trkpt>
        <trkpt lat="28.2266409" lon="105.8727592"><ele>1042.76</ele><time>2026-05-30T16:06:14.000Z</time></trkpt>
        <trkpt lat="28.2266596" lon="105.8728126"><ele>1040.47</ele><time>2026-05-30T16:06:20.000Z</time></trkpt>
        <trkpt lat="28.2266862" lon="105.8728675"><ele>1040.02</ele><time>2026-05-30T16:06:34.000Z</time></trkpt>
        <trkpt lat="28.2267249" lon="105.8728939"><ele>1039.77</ele><time>2026-05-30T16:06:38.000Z</time></trkpt>
        <trkpt lat="28.2267395" lon="105.8729028"><ele>1039.97</ele><time>2026-05-30T16:06:40.000Z</time></trkpt>
        <trkpt lat="28.2267378" lon="105.8729398"><ele>1040.27</ele><time>2026-05-30T16:06:46.000Z</time></trkpt>
        <trkpt lat="28.2267655" lon="105.872976"><ele>1039.26</ele><time>2026-05-30T16:07:02.000Z</time></trkpt>
        <trkpt lat="28.2267608" lon="105.8730282"><ele>1038.08</ele><time>2026-05-30T16:07:14.000Z</time></trkpt>
        <trkpt lat="28.2267792" lon="105.8730844"><ele>1039.61</ele><time>2026-05-30T16:07:24.000Z</time></trkpt>
        <trkpt lat="28.2268031" lon="105.8731379"><ele>1040.19</ele><time>2026-05-30T16:07:38.000Z</time></trkpt>
        <trkpt lat="28.226813" lon="105.8731519"><ele>1041.17</ele><time>2026-05-30T16:07:40.000Z</time></trkpt>
        <trkpt lat="28.2268565" lon="105.8731556"><ele>1041.74</ele><time>2026-05-30T16:08:14.000Z</time></trkpt>
        <trkpt lat="28.2268948" lon="105.873183"><ele>1042.69</ele><time>2026-05-30T16:08:20.000Z</time></trkpt>
        <trkpt lat="28.2269182" lon="105.8732354"><ele>1043.69</ele><time>2026-05-30T16:08:26.000Z</time></trkpt>
        <trkpt lat="28.226931" lon="105.8732912"><ele>1044.01</ele><time>2026-05-30T16:08:34.000Z</time></trkpt>
        <trkpt lat="28.2269176" lon="105.8733489"><ele>1044.65</ele><time>2026-05-30T16:08:58.000Z</time></trkpt>
        <trkpt lat="28.2268987" lon="105.8734012"><ele>1044.67</ele><time>2026-05-30T16:09:04.000Z</time></trkpt>
        <trkpt lat="28.2268984" lon="105.8734551"><ele>1044.2</ele><time>2026-05-30T16:09:24.000Z</time></trkpt>
        <trkpt lat="28.2268867" lon="105.8735126"><ele>1043.97</ele><time>2026-05-30T16:09:30.000Z</time></trkpt>
        <trkpt lat="28.2268658" lon="105.873565"><ele>1043.61</ele><time>2026-05-30T16:09:36.000Z</time></trkpt>
        <trkpt lat="28.226817" lon="105.8735811"><ele>1042.98</ele><time>2026-05-30T16:09:56.000Z</time></trkpt>
        <trkpt lat="28.2267653" lon="105.8735694"><ele>1038.72</ele><time>2026-05-30T16:10:06.000Z</time></trkpt>
        <trkpt lat="28.2267154" lon="105.8735571"><ele>1035.78</ele><time>2026-05-30T16:10:14.000Z</time></trkpt>
        <trkpt lat="28.2266628" lon="105.8735871"><ele>1035.21</ele><time>2026-05-30T16:10:32.000Z</time></trkpt>
        <trkpt lat="28.22665" lon="105.8736373"><ele>1034.85</ele><time>2026-05-30T16:10:46.000Z</time></trkpt>
        <trkpt lat="28.2266143" lon="105.87367"><ele>1034.05</ele><time>2026-05-30T16:11:02.000Z</time></trkpt>
        <trkpt lat="28.2265889" lon="105.873715"><ele>1034.9</ele><time>2026-05-30T16:11:12.000Z</time></trkpt>
        <trkpt lat="28.2265632" lon="105.8737662"><ele>1035.56</ele><time>2026-05-30T16:11:20.000Z</time></trkpt>
        <trkpt lat="28.2265258" lon="105.8737611"><ele>1035.63</ele><time>2026-05-30T16:11:32.000Z</time></trkpt>
        <trkpt lat="28.2264808" lon="105.8737839"><ele>1033.38</ele><time>2026-05-30T16:11:50.000Z</time></trkpt>
        <trkpt lat="28.2264369" lon="105.8738197"><ele>1031.32</ele><time>2026-05-30T16:11:58.000Z</time></trkpt>
        <trkpt lat="28.2263941" lon="105.8738491"><ele>1032.29</ele><time>2026-05-30T16:12:10.000Z</time></trkpt>
        <trkpt lat="28.2263473" lon="105.8738694"><ele>1035.35</ele><time>2026-05-30T16:12:20.000Z</time></trkpt>
        <trkpt lat="28.2263081" lon="105.8739009"><ele>1035.84</ele><time>2026-05-30T16:12:28.000Z</time></trkpt>
        <trkpt lat="28.2262669" lon="105.8739222"><ele>1036.31</ele><time>2026-05-30T16:12:42.000Z</time></trkpt>
        <trkpt lat="28.2262231" lon="105.8739429"><ele>1034.66</ele><time>2026-05-30T16:12:58.000Z</time></trkpt>
        <trkpt lat="28.2261827" lon="105.8739839"><ele>1031.07</ele><time>2026-05-30T16:13:18.000Z</time></trkpt>
        <trkpt lat="28.2261682" lon="105.8740382"><ele>1030.57</ele><time>2026-05-30T16:13:32.000Z</time></trkpt>
        <trkpt lat="28.226176" lon="105.8740975"><ele>1031.65</ele><time>2026-05-30T16:13:44.000Z</time></trkpt>
        <trkpt lat="28.2262148" lon="105.874146"><ele>1032.42</ele><time>2026-05-30T16:13:52.000Z</time></trkpt>
        <trkpt lat="28.226228" lon="105.8741475"><ele>1032.43</ele><time>2026-05-30T16:13:58.000Z</time></trkpt>
        <trkpt lat="28.2262555" lon="105.874174"><ele>1031.17</ele><time>2026-05-30T16:14:04.000Z</time></trkpt>
        <trkpt lat="28.2262675" lon="105.874219"><ele>1030.52</ele><time>2026-05-30T16:14:14.000Z</time></trkpt>
        <trkpt lat="28.2262836" lon="105.8742715"><ele>1030.68</ele><time>2026-05-30T16:14:30.000Z</time></trkpt>
        <trkpt lat="28.2262962" lon="105.8743305"><ele>1031.02</ele><time>2026-05-30T16:14:50.000Z</time></trkpt>
        <trkpt lat="28.2263027" lon="105.8743892"><ele>1031.28</ele><time>2026-05-30T16:15:06.000Z</time></trkpt>
        <trkpt lat="28.2263428" lon="105.8744267"><ele>1032.72</ele><time>2026-05-30T16:15:12.000Z</time></trkpt>
        <trkpt lat="28.2263745" lon="105.874482"><ele>1033.96</ele><time>2026-05-30T16:15:24.000Z</time></trkpt>
        <trkpt lat="28.2264068" lon="105.8745331"><ele>1037.34</ele><time>2026-05-30T16:15:34.000Z</time></trkpt>
        <trkpt lat="28.2264213" lon="105.8745849"><ele>1039.03</ele><time>2026-05-30T16:15:50.000Z</time></trkpt>
        <trkpt lat="28.2264361" lon="105.8746211"><ele>1040.79</ele><time>2026-05-30T16:15:56.000Z</time></trkpt>
        <trkpt lat="28.2264511" lon="105.8746655"><ele>1041.71</ele><time>2026-05-30T16:16:16.000Z</time></trkpt>
        <trkpt lat="28.2264577" lon="105.8747165"><ele>1040.21</ele><time>2026-05-30T16:16:28.000Z</time></trkpt>
        <trkpt lat="28.2264903" lon="105.8747516"><ele>1037.19</ele><time>2026-05-30T16:16:34.000Z</time></trkpt>
        <trkpt lat="28.2264852" lon="105.8747969"><ele>1035.3</ele><time>2026-05-30T16:17:20.000Z</time></trkpt>
        <trkpt lat="28.22645" lon="105.8748317"><ele>1027.41</ele><time>2026-05-30T16:17:32.000Z</time></trkpt>
        <trkpt lat="28.22645" lon="105.874875"><ele>1022.82</ele><time>2026-05-30T16:17:52.000Z</time></trkpt>
        <trkpt lat="28.226488" lon="105.8748968"><ele>1020.56</ele><time>2026-05-30T16:18:00.000Z</time></trkpt>
        <trkpt lat="28.2265048" lon="105.8748999"><ele>1019.51</ele><time>2026-05-30T16:18:02.000Z</time></trkpt>
        <trkpt lat="28.2264958" lon="105.8748612"><ele>1018.93</ele><time>2026-05-30T16:18:50.000Z</time></trkpt>
        <trkpt lat="28.2265007" lon="105.8748918"><ele>1018.78</ele><time>2026-05-30T16:19:16.000Z</time></trkpt>
        <trkpt lat="28.2264919" lon="105.8749187"><ele>1018.78</ele><time>2026-05-30T16:19:20.000Z</time></trkpt>
        <trkpt lat="28.2264546" lon="105.8749369"><ele>1018.84</ele><time>2026-05-30T16:19:34.000Z</time></trkpt>
        <trkpt lat="28.2264326" lon="105.8749787"><ele>1018.42</ele><time>2026-05-30T16:19:44.000Z</time></trkpt>
        <trkpt lat="28.2264298" lon="105.8750334"><ele>1016.87</ele><time>2026-05-30T16:19:52.000Z</time></trkpt>
        <trkpt lat="28.226425" lon="105.8750932"><ele>1014.78</ele><time>2026-05-30T16:20:06.000Z</time></trkpt>
        <trkpt lat="28.2264249" lon="105.8751501"><ele>1014.28</ele><time>2026-05-30T16:20:20.000Z</time></trkpt>
        <trkpt lat="28.2264591" lon="105.8751306"><ele>1013.14</ele><time>2026-05-30T16:20:28.000Z</time></trkpt>
        <trkpt lat="28.2265015" lon="105.8751602"><ele>1013.21</ele><time>2026-05-30T16:20:38.000Z</time></trkpt>
        <trkpt lat="28.2265499" lon="105.8751912"><ele>1012.38</ele><time>2026-05-30T16:20:44.000Z</time></trkpt>
        <trkpt lat="28.2265282" lon="105.8752012"><ele>1012.44</ele><time>2026-05-30T16:20:52.000Z</time></trkpt>
        <trkpt lat="28.2265314" lon="105.875242"><ele>1012.17</ele><time>2026-05-30T16:21:04.000Z</time></trkpt>
        <trkpt lat="28.2264965" lon="105.8752658"><ele>1011.41</ele><time>2026-05-30T16:21:12.000Z</time></trkpt>
        <trkpt lat="28.2264479" lon="105.8752789"><ele>1013.11</ele><time>2026-05-30T16:21:36.000Z</time></trkpt>
        <trkpt lat="28.2263883" lon="105.8752675"><ele>1013.43</ele><time>2026-05-30T16:21:44.000Z</time></trkpt>
        <trkpt lat="28.2263273" lon="105.8752569"><ele>1014.65</ele><time>2026-05-30T16:21:48.000Z</time></trkpt>
        <trkpt lat="28.2262724" lon="105.8752578"><ele>1016.01</ele><time>2026-05-30T16:21:58.000Z</time></trkpt>
        <trkpt lat="28.2262903" lon="105.8752724"><ele>1016.38</ele><time>2026-05-30T16:22:12.000Z</time></trkpt>
        <trkpt lat="28.2262903" lon="105.8752724"><ele>1016.38</ele><time>2026-05-30T16:27:42.000Z</time></trkpt>
        <trkpt lat="28.226169" lon="105.8756758"><ele>1016.5</ele><time>2026-05-30T16:27:45.000Z</time></trkpt>
        <trkpt lat="28.226169" lon="105.8756758"><ele>1016.5</ele><time>2026-05-30T16:27:51.000Z</time></trkpt>
        <trkpt lat="28.2261843" lon="105.8756939"><ele>1018.66</ele><time>2026-05-30T16:28:07.000Z</time></trkpt>
        <trkpt lat="28.2261918" lon="105.8757576"><ele>1017.64</ele><time>2026-05-30T16:28:19.000Z</time></trkpt>
        <trkpt lat="28.2262105" lon="105.8758341"><ele>1017.45</ele><time>2026-05-30T16:28:25.000Z</time></trkpt>
        <trkpt lat="28.2262125" lon="105.8759005"><ele>1017.47</ele><time>2026-05-30T16:28:33.000Z</time></trkpt>
        <trkpt lat="28.2262452" lon="105.8759496"><ele>1014.72</ele><time>2026-05-30T16:28:43.000Z</time></trkpt>
        <trkpt lat="28.2262829" lon="105.8759873"><ele>1014.05</ele><time>2026-05-30T16:29:03.000Z</time></trkpt>
        <trkpt lat="28.2263238" lon="105.8760165"><ele>1012.91</ele><time>2026-05-30T16:29:09.000Z</time></trkpt>
        <trkpt lat="28.2263479" lon="105.8759851"><ele>1013.73</ele><time>2026-05-30T16:29:27.000Z</time></trkpt>
        <trkpt lat="28.2263653" lon="105.8760102"><ele>1012.18</ele><time>2026-05-30T16:29:33.000Z</time></trkpt>
        <trkpt lat="28.2263908" lon="105.8760664"><ele>1011.73</ele><time>2026-05-30T16:29:39.000Z</time></trkpt>
        <trkpt lat="28.2264208" lon="105.8761209"><ele>1012.02</ele><time>2026-05-30T16:29:45.000Z</time></trkpt>
        <trkpt lat="28.2264538" lon="105.8761832"><ele>1011.71</ele><time>2026-05-30T16:29:51.000Z</time></trkpt>
        <trkpt lat="28.2264848" lon="105.8762319"><ele>1012.2</ele><time>2026-05-30T16:29:57.000Z</time></trkpt>
        <trkpt lat="28.22651" lon="105.8762814"><ele>1010.45</ele><time>2026-05-30T16:30:03.000Z</time></trkpt>
        <trkpt lat="28.2265351" lon="105.8763294"><ele>1010.02</ele><time>2026-05-30T16:30:09.000Z</time></trkpt>
        <trkpt lat="28.2265579" lon="105.8763776"><ele>1010.2</ele><time>2026-05-30T16:30:15.000Z</time></trkpt>
        <trkpt lat="28.2265756" lon="105.8764347"><ele>1009.73</ele><time>2026-05-30T16:30:21.000Z</time></trkpt>
        <trkpt lat="28.2266027" lon="105.8765028"><ele>1009.19</ele><time>2026-05-30T16:30:27.000Z</time></trkpt>
        <trkpt lat="28.2266283" lon="105.8765687"><ele>1010.37</ele><time>2026-05-30T16:30:33.000Z</time></trkpt>
        <trkpt lat="28.2266485" lon="105.8766254"><ele>1011.93</ele><time>2026-05-30T16:30:37.000Z</time></trkpt>
        <trkpt lat="28.2266423" lon="105.8766913"><ele>1012.67</ele><time>2026-05-30T16:30:43.000Z</time></trkpt>
        <trkpt lat="28.2266452" lon="105.8767568"><ele>1013.97</ele><time>2026-05-30T16:30:49.000Z</time></trkpt>
        <trkpt lat="28.2266577" lon="105.8768194"><ele>1015.36</ele><time>2026-05-30T16:30:57.000Z</time></trkpt>
        <trkpt lat="28.2266667" lon="105.8768766"><ele>1014.85</ele><time>2026-05-30T16:31:05.000Z</time></trkpt>
        <trkpt lat="28.2266519" lon="105.8769301"><ele>1014.29</ele><time>2026-05-30T16:31:17.000Z</time></trkpt>
        <trkpt lat="28.2266366" lon="105.8769854"><ele>1013.56</ele><time>2026-05-30T16:31:49.000Z</time></trkpt>
        <trkpt lat="28.2266366" lon="105.8769854"><ele>1013.56</ele><time>2026-05-30T16:32:33.000Z</time></trkpt>
        <trkpt lat="28.2266287" lon="105.8770372"><ele>1011.44</ele><time>2026-05-30T16:32:35.000Z</time></trkpt>
        <trkpt lat="28.2266287" lon="105.8770372"><ele>1011.44</ele><time>2026-05-30T16:32:35.000Z</time></trkpt>
        <trkpt lat="28.2266281" lon="105.8770603"><ele>1009.26</ele><time>2026-05-30T16:32:39.000Z</time></trkpt>
        <trkpt lat="28.2266281" lon="105.8770603"><ele>1009.26</ele><time>2026-05-30T16:34:01.000Z</time></trkpt>
        <trkpt lat="28.2267284" lon="105.8774022"><ele>1007.33</ele><time>2026-05-30T16:34:14.000Z</time></trkpt>
        <trkpt lat="28.2267284" lon="105.8774022"><ele>1007.33</ele><time>2026-05-30T16:34:19.000Z</time></trkpt>
        <trkpt lat="28.2267309" lon="105.877421"><ele>1003.11</ele><time>2026-05-30T16:34:23.000Z</time></trkpt>
        <trkpt lat="28.2266874" lon="105.8774299"><ele>1001.05</ele><time>2026-05-30T16:35:19.000Z</time></trkpt>
        <trkpt lat="28.2266382" lon="105.8774579"><ele>1000.43</ele><time>2026-05-30T16:35:25.000Z</time></trkpt>
        <trkpt lat="28.2266382" lon="105.8774579"><ele>1000.43</ele><time>2026-05-30T16:36:10.000Z</time></trkpt>
        <trkpt lat="28.2266382" lon="105.8774579"><ele>1000.43</ele><time>2026-05-30T16:36:12.000Z</time></trkpt>
        <trkpt lat="28.2266382" lon="105.8774579"><ele>1000.43</ele><time>2026-05-30T16:37:06.000Z</time></trkpt>
        <trkpt lat="28.2263677" lon="105.8777804"><ele>1000.08</ele><time>2026-05-30T16:45:43.000Z</time></trkpt>
        <trkpt lat="28.2263677" lon="105.8777804"><ele>1000.08</ele><time>2026-05-30T16:45:46.000Z</time></trkpt>
        <trkpt lat="28.2263641" lon="105.8777386"><ele>981.29</ele><time>2026-05-30T16:46:14.000Z</time></trkpt>
        <trkpt lat="28.226356" lon="105.8776608"><ele>978.66</ele><time>2026-05-30T16:46:20.000Z</time></trkpt>
        <trkpt lat="28.226364" lon="105.8776075"><ele>976.58</ele><time>2026-05-30T16:46:28.000Z</time></trkpt>
        <trkpt lat="28.2264013" lon="105.8775571"><ele>975.66</ele><time>2026-05-30T16:46:34.000Z</time></trkpt>
        <trkpt lat="28.2264519" lon="105.8775314"><ele>977.65</ele><time>2026-05-30T16:46:40.000Z</time></trkpt>
        <trkpt lat="28.2265113" lon="105.8775411"><ele>980.58</ele><time>2026-05-30T16:46:46.000Z</time></trkpt>
        <trkpt lat="28.2265394" lon="105.877589"><ele>986.98</ele><time>2026-05-30T16:46:58.000Z</time></trkpt>
        <trkpt lat="28.2265641" lon="105.8776397"><ele>992.09</ele><time>2026-05-30T16:47:14.000Z</time></trkpt>
        <trkpt lat="28.2265963" lon="105.8776837"><ele>995.56</ele><time>2026-05-30T16:48:04.000Z</time></trkpt>
        <trkpt lat="28.226593" lon="105.8777351"><ele>999.39</ele><time>2026-05-30T16:48:14.000Z</time></trkpt>
        <trkpt lat="28.226593" lon="105.8777351"><ele>999.39</ele><time>2026-05-30T16:48:53.000Z</time></trkpt>
        <trkpt lat="28.2266306" lon="105.877728"><ele>1003.41</ele><time>2026-05-30T16:48:57.000Z</time></trkpt>
        <trkpt lat="28.2266306" lon="105.877728"><ele>1003.41</ele><time>2026-05-30T16:49:14.000Z</time></trkpt>
        <trkpt lat="28.2266896" lon="105.8777266"><ele>1006.66</ele><time>2026-05-30T16:49:20.000Z</time></trkpt>
        <trkpt lat="28.2267165" lon="105.8777754"><ele>1008.17</ele><time>2026-05-30T16:49:28.000Z</time></trkpt>
        <trkpt lat="28.2267558" lon="105.8777794"><ele>1006.5</ele><time>2026-05-30T16:49:48.000Z</time></trkpt>
        <trkpt lat="28.2267971" lon="105.8777926"><ele>1006.32</ele><time>2026-05-30T16:50:34.000Z</time></trkpt>
        <trkpt lat="28.2268489" lon="105.8778004"><ele>1007.65</ele><time>2026-05-30T16:50:40.000Z</time></trkpt>
        <trkpt lat="28.2268843" lon="105.8778349"><ele>1008.6</ele><time>2026-05-30T16:50:52.000Z</time></trkpt>
        <trkpt lat="28.2269072" lon="105.8778811"><ele>1012.72</ele><time>2026-05-30T16:51:18.000Z</time></trkpt>
        <trkpt lat="28.2269436" lon="105.8779094"><ele>1013.5</ele><time>2026-05-30T16:51:30.000Z</time></trkpt>
        <trkpt lat="28.2269898" lon="105.8779233"><ele>1013.56</ele><time>2026-05-30T16:51:42.000Z</time></trkpt>
        <trkpt lat="28.2269746" lon="105.877948"><ele>1016.16</ele><time>2026-05-30T16:51:58.000Z</time></trkpt>
        <trkpt lat="28.2269912" lon="105.8779831"><ele>1018.66</ele><time>2026-05-30T16:52:12.000Z</time></trkpt>
        <trkpt lat="28.2270289" lon="105.8780017"><ele>1023.45</ele><time>2026-05-30T16:52:30.000Z</time></trkpt>
        <trkpt lat="28.2270334" lon="105.8780461"><ele>1026.72</ele><time>2026-05-30T16:52:44.000Z</time></trkpt>
        <trkpt lat="28.2270558" lon="105.8780888"><ele>1029.34</ele><time>2026-05-30T16:52:50.000Z</time></trkpt>
        <trkpt lat="28.2270236" lon="105.8780884"><ele>1031.8</ele><time>2026-05-30T16:53:44.000Z</time></trkpt>
        <trkpt lat="28.2269823" lon="105.8781123"><ele>1038.45</ele><time>2026-05-30T16:53:58.000Z</time></trkpt>
        <trkpt lat="28.2269904" lon="105.878158"><ele>1042.95</ele><time>2026-05-30T16:54:26.000Z</time></trkpt>
        <trkpt lat="28.2270302" lon="105.8781822"><ele>1046.86</ele><time>2026-05-30T16:54:38.000Z</time></trkpt>
        <trkpt lat="28.2270531" lon="105.8782263"><ele>1048.59</ele><time>2026-05-30T16:54:54.000Z</time></trkpt>
        <trkpt lat="28.2270422" lon="105.8782836"><ele>1051.31</ele><time>2026-05-30T16:55:08.000Z</time></trkpt>
        <trkpt lat="28.2269979" lon="105.8783121"><ele>1055.89</ele><time>2026-05-30T16:55:18.000Z</time></trkpt>
        <trkpt lat="28.226948" lon="105.8782958"><ele>1058.18</ele><time>2026-05-30T16:55:32.000Z</time></trkpt>
        <trkpt lat="28.2269607" lon="105.8783125"><ele>1059.42</ele><time>2026-05-30T16:55:54.000Z</time></trkpt>
        <trkpt lat="28.2270107" lon="105.8783391"><ele>1059.24</ele><time>2026-05-30T16:56:02.000Z</time></trkpt>
        <trkpt lat="28.2270609" lon="105.878366"><ele>1059.25</ele><time>2026-05-30T16:56:12.000Z</time></trkpt>
        <trkpt lat="28.2270768" lon="105.8784127"><ele>1060.77</ele><time>2026-05-30T16:56:24.000Z</time></trkpt>
        <trkpt lat="28.227112" lon="105.8784465"><ele>1060.14</ele><time>2026-05-30T16:56:38.000Z</time></trkpt>
        <trkpt lat="28.2271638" lon="105.8784622"><ele>1061.96</ele><time>2026-05-30T16:56:50.000Z</time></trkpt>
        <trkpt lat="28.22715" lon="105.8784922"><ele>1064.52</ele><time>2026-05-30T16:57:10.000Z</time></trkpt>
        <trkpt lat="28.2271715" lon="105.8785249"><ele>1065.47</ele><time>2026-05-30T16:57:52.000Z</time></trkpt>
        <trkpt lat="28.2271438" lon="105.8785614"><ele>1067.6</ele><time>2026-05-30T16:58:18.000Z</time></trkpt>
        <trkpt lat="28.2271159" lon="105.8786068"><ele>1070.44</ele><time>2026-05-30T16:58:46.000Z</time></trkpt>
        <trkpt lat="28.2271218" lon="105.8786589"><ele>1072.77</ele><time>2026-05-30T16:58:58.000Z</time></trkpt>
        <trkpt lat="28.2271221" lon="105.8786981"><ele>1073.91</ele><time>2026-05-30T16:59:04.000Z</time></trkpt>
        <trkpt lat="28.2271062" lon="105.8787542"><ele>1073.27</ele><time>2026-05-30T16:59:30.000Z</time></trkpt>
        <trkpt lat="28.2270936" lon="105.8787228"><ele>1074.83</ele><time>2026-05-30T16:59:44.000Z</time></trkpt>
        <trkpt lat="28.2271175" lon="105.8787327"><ele>1076.42</ele><time>2026-05-30T17:00:08.000Z</time></trkpt>
        <trkpt lat="28.2271738" lon="105.8787336"><ele>1079.22</ele><time>2026-05-30T17:00:16.000Z</time></trkpt>
        <trkpt lat="28.227227" lon="105.8787448"><ele>1081.46</ele><time>2026-05-30T17:00:20.000Z</time></trkpt>
        <trkpt lat="28.2272139" lon="105.878775"><ele>1082.18</ele><time>2026-05-30T17:00:54.000Z</time></trkpt>
        <trkpt lat="28.2272442" lon="105.8787977"><ele>1084.86</ele><time>2026-05-30T17:01:28.000Z</time></trkpt>
        <trkpt lat="28.2272914" lon="105.8788247"><ele>1088.98</ele><time>2026-05-30T17:01:48.000Z</time></trkpt>
        <trkpt lat="28.2273183" lon="105.8788745"><ele>1095.26</ele><time>2026-05-30T17:01:56.000Z</time></trkpt>
        <trkpt lat="28.2273164" lon="105.8789365"><ele>1098.78</ele><time>2026-05-30T17:02:12.000Z</time></trkpt>
        <trkpt lat="28.2272984" lon="105.878993"><ele>1102.19</ele><time>2026-05-30T17:02:20.000Z</time></trkpt>
        <trkpt lat="28.227282" lon="105.8790545"><ele>1105.68</ele><time>2026-05-30T17:02:28.000Z</time></trkpt>
        <trkpt lat="28.2272715" lon="105.8791193"><ele>1108.5</ele><time>2026-05-30T17:02:52.000Z</time></trkpt>
        <trkpt lat="28.2272835" lon="105.8791741"><ele>1111.84</ele><time>2026-05-30T17:03:04.000Z</time></trkpt>
        <trkpt lat="28.2273069" lon="105.8792226"><ele>1115.79</ele><time>2026-05-30T17:03:26.000Z</time></trkpt>
        <trkpt lat="28.2273056" lon="105.8792881"><ele>1116.17</ele><time>2026-05-30T17:03:42.000Z</time></trkpt>
        <trkpt lat="28.2272929" lon="105.8793421"><ele>1116.96</ele><time>2026-05-30T17:03:48.000Z</time></trkpt>
        <trkpt lat="28.227251" lon="105.879375"><ele>1117.42</ele><time>2026-05-30T17:03:58.000Z</time></trkpt>
        <trkpt lat="28.227267" lon="105.8794038"><ele>1118.66</ele><time>2026-05-30T17:04:08.000Z</time></trkpt>
        <trkpt lat="28.2273" lon="105.879437"><ele>1118.8</ele><time>2026-05-30T17:04:16.000Z</time></trkpt>
        <trkpt lat="28.227285" lon="105.8794731"><ele>1119.47</ele><time>2026-05-30T17:04:44.000Z</time></trkpt>
        <trkpt lat="28.227296" lon="105.8795151"><ele>1118.41</ele><time>2026-05-30T17:04:56.000Z</time></trkpt>
        <trkpt lat="28.227301" lon="105.8795704"><ele>1120.97</ele><time>2026-05-30T17:05:04.000Z</time></trkpt>
        <trkpt lat="28.2273164" lon="105.8796278"><ele>1121.93</ele><time>2026-05-30T17:05:32.000Z</time></trkpt>
        <trkpt lat="28.2273223" lon="105.8796834"><ele>1123.24</ele><time>2026-05-30T17:05:46.000Z</time></trkpt>
        <trkpt lat="28.2272886" lon="105.8796993"><ele>1124.14</ele><time>2026-05-30T17:06:16.000Z</time></trkpt>
        <trkpt lat="28.2272752" lon="105.8796585"><ele>1122.1</ele><time>2026-05-30T17:06:22.000Z</time></trkpt>
        <trkpt lat="28.2272363" lon="105.8796253"><ele>1121.41</ele><time>2026-05-30T17:06:32.000Z</time></trkpt>
        <trkpt lat="28.2271896" lon="105.8796177"><ele>1123.19</ele><time>2026-05-30T17:06:58.000Z</time></trkpt>
        <trkpt lat="28.2271361" lon="105.8795948"><ele>1125.15</ele><time>2026-05-30T17:07:40.000Z</time></trkpt>
        <trkpt lat="28.2271047" lon="105.879623"><ele>1126.99</ele><time>2026-05-30T17:07:46.000Z</time></trkpt>
        <trkpt lat="28.2270583" lon="105.8796226"><ele>1127.84</ele><time>2026-05-30T17:08:36.000Z</time></trkpt>
        <trkpt lat="28.2270086" lon="105.8796187"><ele>1129.05</ele><time>2026-05-30T17:08:42.000Z</time></trkpt>
        <trkpt lat="28.2269606" lon="105.879619"><ele>1130.44</ele><time>2026-05-30T17:08:50.000Z</time></trkpt>
        <trkpt lat="28.2269119" lon="105.8796134"><ele>1132.51</ele><time>2026-05-30T17:09:02.000Z</time></trkpt>
        <trkpt lat="28.2268526" lon="105.8796315"><ele>1134.72</ele><time>2026-05-30T17:09:12.000Z</time></trkpt>
        <trkpt lat="28.2268093" lon="105.8796278"><ele>1135.33</ele><time>2026-05-30T17:09:22.000Z</time></trkpt>
        <trkpt lat="28.2268005" lon="105.8796718"><ele>1137.92</ele><time>2026-05-30T17:09:34.000Z</time></trkpt>
        <trkpt lat="28.2268105" lon="105.8797276"><ele>1139.66</ele><time>2026-05-30T17:09:44.000Z</time></trkpt>
        <trkpt lat="28.2268043" lon="105.8797893"><ele>1138.85</ele><time>2026-05-30T17:10:10.000Z</time></trkpt>
        <trkpt lat="28.2267854" lon="105.8798437"><ele>1139.26</ele><time>2026-05-30T17:10:22.000Z</time></trkpt>
        <trkpt lat="28.2267909" lon="105.8798995"><ele>1141.02</ele><time>2026-05-30T17:10:28.000Z</time></trkpt>
        <trkpt lat="28.2268293" lon="105.8799269"><ele>1141.55</ele><time>2026-05-30T17:10:36.000Z</time></trkpt>
        <trkpt lat="28.2268456" lon="105.8799772"><ele>1141.85</ele><time>2026-05-30T17:11:02.000Z</time></trkpt>
        <trkpt lat="28.2268826" lon="105.8800259"><ele>1143.01</ele><time>2026-05-30T17:11:10.000Z</time></trkpt>
        <trkpt lat="28.2268906" lon="105.8800777"><ele>1143.41</ele><time>2026-05-30T17:11:22.000Z</time></trkpt>
        <trkpt lat="28.2268696" lon="105.8801219"><ele>1145.36</ele><time>2026-05-30T17:11:42.000Z</time></trkpt>
        <trkpt lat="28.2268613" lon="105.8801731"><ele>1148.37</ele><time>2026-05-30T17:11:46.000Z</time></trkpt>
        <trkpt lat="28.2268775" lon="105.8802285"><ele>1151.22</ele><time>2026-05-30T17:11:58.000Z</time></trkpt>
        <trkpt lat="28.2269069" lon="105.8802798"><ele>1151.97</ele><time>2026-05-30T17:12:04.000Z</time></trkpt>
        <trkpt lat="28.2269228" lon="105.8803305"><ele>1151.65</ele><time>2026-05-30T17:12:08.000Z</time></trkpt>
        <trkpt lat="28.2269263" lon="105.8803992"><ele>1151.78</ele><time>2026-05-30T17:12:20.000Z</time></trkpt>
        <trkpt lat="28.2269037" lon="105.8804556"><ele>1151.7</ele><time>2026-05-30T17:12:28.000Z</time></trkpt>
        <trkpt lat="28.2269169" lon="105.880498"><ele>1152.57</ele><time>2026-05-30T17:12:38.000Z</time></trkpt>
        <trkpt lat="28.226932" lon="105.8805496"><ele>1153.34</ele><time>2026-05-30T17:12:50.000Z</time></trkpt>
        <trkpt lat="28.2269369" lon="105.8806024"><ele>1154.7</ele><time>2026-05-30T17:12:58.000Z</time></trkpt>
        <trkpt lat="28.2269194" lon="105.8806514"><ele>1156.18</ele><time>2026-05-30T17:13:04.000Z</time></trkpt>
        <trkpt lat="28.2269188" lon="105.8807085"><ele>1157.85</ele><time>2026-05-30T17:13:18.000Z</time></trkpt>
        <trkpt lat="28.2269308" lon="105.8807729"><ele>1157.72</ele><time>2026-05-30T17:13:26.000Z</time></trkpt>
        <trkpt lat="28.2269293" lon="105.8808282"><ele>1156.51</ele><time>2026-05-30T17:13:32.000Z</time></trkpt>
        <trkpt lat="28.22694" lon="105.8808801"><ele>1156.11</ele><time>2026-05-30T17:13:40.000Z</time></trkpt>
        <trkpt lat="28.226961" lon="105.8809274"><ele>1156.24</ele><time>2026-05-30T17:13:46.000Z</time></trkpt>
        <trkpt lat="28.2269829" lon="105.8809774"><ele>1156.04</ele><time>2026-05-30T17:13:54.000Z</time></trkpt>
        <trkpt lat="28.226979" lon="105.8810294"><ele>1155.88</ele><time>2026-05-30T17:14:02.000Z</time></trkpt>
        <trkpt lat="28.2269705" lon="105.8810856"><ele>1157.2</ele><time>2026-05-30T17:14:12.000Z</time></trkpt>
        <trkpt lat="28.226951" lon="105.8811488"><ele>1158.94</ele><time>2026-05-30T17:14:20.000Z</time></trkpt>
        <trkpt lat="28.2269542" lon="105.8812096"><ele>1158.52</ele><time>2026-05-30T17:14:34.000Z</time></trkpt>
        <trkpt lat="28.2269477" lon="105.8812646"><ele>1157.73</ele><time>2026-05-30T17:14:40.000Z</time></trkpt>
        <trkpt lat="28.2269407" lon="105.881318"><ele>1157.59</ele><time>2026-05-30T17:14:46.000Z</time></trkpt>
        <trkpt lat="28.2269628" lon="105.8813661"><ele>1156.57</ele><time>2026-05-30T17:14:54.000Z</time></trkpt>
        <trkpt lat="28.2269873" lon="105.8814127"><ele>1155.18</ele><time>2026-05-30T17:15:24.000Z</time></trkpt>
        <trkpt lat="28.2270077" lon="105.8814692"><ele>1155.23</ele><time>2026-05-30T17:15:30.000Z</time></trkpt>
        <trkpt lat="28.2270371" lon="105.8815156"><ele>1154.98</ele><time>2026-05-30T17:15:42.000Z</time></trkpt>
        <trkpt lat="28.2270685" lon="105.8815629"><ele>1156.7</ele><time>2026-05-30T17:15:54.000Z</time></trkpt>
        <trkpt lat="28.2270793" lon="105.8816128"><ele>1159.13</ele><time>2026-05-30T17:16:06.000Z</time></trkpt>
        <trkpt lat="28.2270986" lon="105.8816636"><ele>1162.79</ele><time>2026-05-30T17:16:24.000Z</time></trkpt>
        <trkpt lat="28.2270849" lon="105.8817106"><ele>1165.1</ele><time>2026-05-30T17:16:34.000Z</time></trkpt>
        <trkpt lat="28.2271045" lon="105.8817539"><ele>1164.71</ele><time>2026-05-30T17:16:42.000Z</time></trkpt>
        <trkpt lat="28.2271444" lon="105.881746"><ele>1163.84</ele><time>2026-05-30T17:17:00.000Z</time></trkpt>
        <trkpt lat="28.2271557" lon="105.8817769"><ele>1164.56</ele><time>2026-05-30T17:17:32.000Z</time></trkpt>
        <trkpt lat="28.2271927" lon="105.8818153"><ele>1168.27</ele><time>2026-05-30T17:18:06.000Z</time></trkpt>
        <trkpt lat="28.2271605" lon="105.8818401"><ele>1176.38</ele><time>2026-05-30T17:18:28.000Z</time></trkpt>
        <trkpt lat="28.2271393" lon="105.8818851"><ele>1181.66</ele><time>2026-05-30T17:18:34.000Z</time></trkpt>
        <trkpt lat="28.2271736" lon="105.8818873"><ele>1184.76</ele><time>2026-05-30T17:18:46.000Z</time></trkpt>
        <trkpt lat="28.2272227" lon="105.8818795"><ele>1186.92</ele><time>2026-05-30T17:18:54.000Z</time></trkpt>
        <trkpt lat="28.2272581" lon="105.8819128"><ele>1187.5</ele><time>2026-05-30T17:19:02.000Z</time></trkpt>
        <trkpt lat="28.2272466" lon="105.8819815"><ele>1186.51</ele><time>2026-05-30T17:19:12.000Z</time></trkpt>
        <trkpt lat="28.2272418" lon="105.8820495"><ele>1188.77</ele><time>2026-05-30T17:19:16.000Z</time></trkpt>
        <trkpt lat="28.227227" lon="105.8821079"><ele>1188.86</ele><time>2026-05-30T17:19:22.000Z</time></trkpt>
        <trkpt lat="28.2272637" lon="105.8821092"><ele>1189.14</ele><time>2026-05-30T17:19:30.000Z</time></trkpt>
        <trkpt lat="28.2273049" lon="105.8821324"><ele>1188.83</ele><time>2026-05-30T17:19:44.000Z</time></trkpt>
        <trkpt lat="28.2273248" lon="105.8821832"><ele>1188.6</ele><time>2026-05-30T17:20:20.000Z</time></trkpt>
        <trkpt lat="28.227362" lon="105.8821723"><ele>1191.51</ele><time>2026-05-30T17:20:42.000Z</time></trkpt>
        <trkpt lat="28.2273881" lon="105.882121"><ele>1199.32</ele><time>2026-05-30T17:20:48.000Z</time></trkpt>
        <trkpt lat="28.227431" lon="105.8820747"><ele>1203.93</ele><time>2026-05-30T17:20:58.000Z</time></trkpt>
        <trkpt lat="28.2274413" lon="105.8820993"><ele>1207.27</ele><time>2026-05-30T17:21:10.000Z</time></trkpt>
        <trkpt lat="28.2274485" lon="105.8821493"><ele>1208.8</ele><time>2026-05-30T17:21:20.000Z</time></trkpt>
        <trkpt lat="28.2274602" lon="105.8822088"><ele>1209.75</ele><time>2026-05-30T17:21:26.000Z</time></trkpt>
        <trkpt lat="28.2274389" lon="105.8822568"><ele>1209.93</ele><time>2026-05-30T17:21:32.000Z</time></trkpt>
        <trkpt lat="28.2274029" lon="105.8822986"><ele>1209.73</ele><time>2026-05-30T17:21:40.000Z</time></trkpt>
        <trkpt lat="28.2274248" lon="105.8823052"><ele>1210.07</ele><time>2026-05-30T17:22:02.000Z</time></trkpt>
        <trkpt lat="28.2274248" lon="105.8823052"><ele>1210.07</ele><time>2026-05-30T17:28:32.000Z</time></trkpt>
        <trkpt lat="28.2274117" lon="105.8823339"><ele>1214.86</ele><time>2026-05-30T17:33:13.000Z</time></trkpt>
        <trkpt lat="28.2274117" lon="105.8823339"><ele>1214.86</ele><time>2026-05-30T17:33:13.000Z</time></trkpt>
        <trkpt lat="28.2273905" lon="105.8824017"><ele>1221.33</ele><time>2026-05-30T17:33:19.000Z</time></trkpt>
        <trkpt lat="28.2273634" lon="105.8824477"><ele>1223.81</ele><time>2026-05-30T17:33:27.000Z</time></trkpt>
        <trkpt lat="28.2273621" lon="105.8825011"><ele>1223.77</ele><time>2026-05-30T17:33:39.000Z</time></trkpt>
        <trkpt lat="28.2273414" lon="105.8825505"><ele>1224.72</ele><time>2026-05-30T17:33:43.000Z</time></trkpt>
        <trkpt lat="28.2273155" lon="105.8826055"><ele>1224.29</ele><time>2026-05-30T17:33:47.000Z</time></trkpt>
        <trkpt lat="28.2273111" lon="105.8826617"><ele>1224.07</ele><time>2026-05-30T17:33:51.000Z</time></trkpt>
        <trkpt lat="28.2273209" lon="105.8827383"><ele>1223.22</ele><time>2026-05-30T17:33:57.000Z</time></trkpt>
        <trkpt lat="28.2273135" lon="105.8828044"><ele>1224.37</ele><time>2026-05-30T17:34:03.000Z</time></trkpt>
        <trkpt lat="28.2273096" lon="105.882861"><ele>1225.61</ele><time>2026-05-30T17:34:11.000Z</time></trkpt>
        <trkpt lat="28.2273089" lon="105.8829173"><ele>1226.57</ele><time>2026-05-30T17:34:23.000Z</time></trkpt>
        <trkpt lat="28.2273154" lon="105.882971"><ele>1226.01</ele><time>2026-05-30T17:34:51.000Z</time></trkpt>
        <trkpt lat="28.2273377" lon="105.8829861"><ele>1225.24</ele><time>2026-05-30T17:34:53.000Z</time></trkpt>
        <trkpt lat="28.2273531" lon="105.8830236"><ele>1224.79</ele><time>2026-05-30T17:35:17.000Z</time></trkpt>
        <trkpt lat="28.2273537" lon="105.8830779"><ele>1221.8</ele><time>2026-05-30T17:35:27.000Z</time></trkpt>
        <trkpt lat="28.2273728" lon="105.8831401"><ele>1219.65</ele><time>2026-05-30T17:35:39.000Z</time></trkpt>
        <trkpt lat="28.2273836" lon="105.8831598"><ele>1217.73</ele><time>2026-05-30T17:35:41.000Z</time></trkpt>
        <trkpt lat="28.2274044" lon="105.8832001"><ele>1216.61</ele><time>2026-05-30T17:35:53.000Z</time></trkpt>
        <trkpt lat="28.2273961" lon="105.8832457"><ele>1215.5</ele><time>2026-05-30T17:36:15.000Z</time></trkpt>
        <trkpt lat="28.2274138" lon="105.8833083"><ele>1212.63</ele><time>2026-05-30T17:36:29.000Z</time></trkpt>
        <trkpt lat="28.2274118" lon="105.8833296"><ele>1211.26</ele><time>2026-05-30T17:36:31.000Z</time></trkpt>
        <trkpt lat="28.2273787" lon="105.8833152"><ele>1210.28</ele><time>2026-05-30T17:36:47.000Z</time></trkpt>
        <trkpt lat="28.2273849" lon="105.883348"><ele>1209.44</ele><time>2026-05-30T17:37:07.000Z</time></trkpt>
        <trkpt lat="28.2274239" lon="105.8833972"><ele>1207.95</ele><time>2026-05-30T17:37:13.000Z</time></trkpt>
        <trkpt lat="28.2274715" lon="105.8834492"><ele>1206.04</ele><time>2026-05-30T17:37:19.000Z</time></trkpt>
        <trkpt lat="28.2274646" lon="105.8834509"><ele>1201.9</ele><time>2026-05-30T17:37:21.000Z</time></trkpt>
        <trkpt lat="28.2274656" lon="105.8834849"><ele>1199.75</ele><time>2026-05-30T17:37:51.000Z</time></trkpt>
        <trkpt lat="28.2274989" lon="105.8834858"><ele>1197.47</ele><time>2026-05-30T17:37:57.000Z</time></trkpt>
        <trkpt lat="28.2275039" lon="105.8835282"><ele>1195.93</ele><time>2026-05-30T17:38:25.000Z</time></trkpt>
        <trkpt lat="28.2274975" lon="105.883546"><ele>1195.64</ele><time>2026-05-30T17:38:27.000Z</time></trkpt>
        <trkpt lat="28.2274975" lon="105.883546"><ele>1195.64</ele><time>2026-05-30T17:50:53.000Z</time></trkpt>
        <trkpt lat="28.226818" lon="105.8849949"><ele>1195.29</ele><time>2026-05-30T17:50:57.000Z</time></trkpt>
        <trkpt lat="28.226818" lon="105.8849949"><ele>1195.29</ele><time>2026-05-30T17:51:19.000Z</time></trkpt>
        <trkpt lat="28.2268008" lon="105.8850453"><ele>1147.59</ele><time>2026-05-30T17:51:23.000Z</time></trkpt>
        <trkpt lat="28.2267969" lon="105.8850665"><ele>1120.08</ele><time>2026-05-30T17:51:25.000Z</time></trkpt>
        <trkpt lat="28.2267855" lon="105.8851209"><ele>1104.58</ele><time>2026-05-30T17:51:41.000Z</time></trkpt>
        <trkpt lat="28.226749" lon="105.8851805"><ele>1094.22</ele><time>2026-05-30T17:51:47.000Z</time></trkpt>
        <trkpt lat="28.2267054" lon="105.8852291"><ele>1088.92</ele><time>2026-05-30T17:51:53.000Z</time></trkpt>
        <trkpt lat="28.2266553" lon="105.8852811"><ele>1085.41</ele><time>2026-05-30T17:51:59.000Z</time></trkpt>
        <trkpt lat="28.2266435" lon="105.8853423"><ele>1083.51</ele><time>2026-05-30T17:52:09.000Z</time></trkpt>
        <trkpt lat="28.2266347" lon="105.8854009"><ele>1081.53</ele><time>2026-05-30T17:52:15.000Z</time></trkpt>
        <trkpt lat="28.2266147" lon="105.885452"><ele>1079.24</ele><time>2026-05-30T17:52:23.000Z</time></trkpt>
        <trkpt lat="28.2265745" lon="105.8854775"><ele>1077.69</ele><time>2026-05-30T17:52:29.000Z</time></trkpt>
        <trkpt lat="28.2265595" lon="105.8854783"><ele>1076.8</ele><time>2026-05-30T17:52:31.000Z</time></trkpt>
        <trkpt lat="28.2265182" lon="105.8854689"><ele>1075.99</ele><time>2026-05-30T17:52:39.000Z</time></trkpt>
        <trkpt lat="28.2265108" lon="105.8854741"><ele>1075.93</ele><time>2026-05-30T17:52:43.000Z</time></trkpt>
        <trkpt lat="28.2264763" lon="105.8854943"><ele>1075.6</ele><time>2026-05-30T17:52:51.000Z</time></trkpt>
        <trkpt lat="28.2264149" lon="105.8854899"><ele>1075.73</ele><time>2026-05-30T17:52:55.000Z</time></trkpt>
        <trkpt lat="28.2264061" lon="105.8854908"><ele>1075.61</ele><time>2026-05-30T17:52:57.000Z</time></trkpt>
        <trkpt lat="28.2264275" lon="105.8855247"><ele>1075.88</ele><time>2026-05-30T17:53:23.000Z</time></trkpt>
        <trkpt lat="28.2264549" lon="105.8855749"><ele>1073.76</ele><time>2026-05-30T17:53:37.000Z</time></trkpt>
        <trkpt lat="28.2264416" lon="105.8856241"><ele>1071.57</ele><time>2026-05-30T17:54:05.000Z</time></trkpt>
        <trkpt lat="28.2264003" lon="105.8856702"><ele>1067.7</ele><time>2026-05-30T17:54:13.000Z</time></trkpt>
        <trkpt lat="28.2263414" lon="105.8856853"><ele>1063.55</ele><time>2026-05-30T17:54:21.000Z</time></trkpt>
        <trkpt lat="28.2263086" lon="105.8857264"><ele>1061.17</ele><time>2026-05-30T17:54:27.000Z</time></trkpt>
        <trkpt lat="28.2262752" lon="105.8857787"><ele>1059.23</ele><time>2026-05-30T17:54:35.000Z</time></trkpt>
        <trkpt lat="28.2262306" lon="105.8858138"><ele>1055.9</ele><time>2026-05-30T17:54:41.000Z</time></trkpt>
        <trkpt lat="28.2262208" lon="105.8858667"><ele>1053.32</ele><time>2026-05-30T17:54:49.000Z</time></trkpt>
        <trkpt lat="28.2261961" lon="105.8859186"><ele>1050.28</ele><time>2026-05-30T17:54:57.000Z</time></trkpt>
        <trkpt lat="28.2261956" lon="105.8859181"><ele>1047.73</ele><time>2026-05-30T17:54:59.000Z</time></trkpt>
        <trkpt lat="28.2261631" lon="105.8859336"><ele>1045.14</ele><time>2026-05-30T17:55:05.000Z</time></trkpt>
        <trkpt lat="28.2261407" lon="105.8859817"><ele>1043.72</ele><time>2026-05-30T17:55:15.000Z</time></trkpt>
        <trkpt lat="28.2260963" lon="105.885999"><ele>1043.04</ele><time>2026-05-30T17:55:23.000Z</time></trkpt>
        <trkpt lat="28.2260733" lon="105.8859969"><ele>1041.94</ele><time>2026-05-30T17:55:25.000Z</time></trkpt>
        <trkpt lat="28.2260326" lon="105.8859973"><ele>1041.5</ele><time>2026-05-30T17:55:35.000Z</time></trkpt>
        <trkpt lat="28.2260069" lon="105.8859605"><ele>1041.49</ele><time>2026-05-30T17:55:39.000Z</time></trkpt>
        <trkpt lat="28.2260355" lon="105.8859501"><ele>1041.3</ele><time>2026-05-30T17:55:41.000Z</time></trkpt>
        <trkpt lat="28.2260203" lon="105.8859685"><ele>1039.08</ele><time>2026-05-30T17:55:49.000Z</time></trkpt>
        <trkpt lat="28.2259857" lon="105.8860153"><ele>1038.09</ele><time>2026-05-30T17:55:55.000Z</time></trkpt>
        <trkpt lat="28.2259808" lon="105.886073"><ele>1038.49</ele><time>2026-05-30T17:55:59.000Z</time></trkpt>
        <trkpt lat="28.225983" lon="105.8861213"><ele>1038.64</ele><time>2026-05-30T17:56:03.000Z</time></trkpt>
        <trkpt lat="28.225993" lon="105.8861806"><ele>1036.87</ele><time>2026-05-30T17:56:13.000Z</time></trkpt>
        <trkpt lat="28.2260156" lon="105.8862424"><ele>1033.03</ele><time>2026-05-30T17:56:19.000Z</time></trkpt>
        <trkpt lat="28.2260599" lon="105.8862692"><ele>1029.7</ele><time>2026-05-30T17:56:27.000Z</time></trkpt>
        <trkpt lat="28.2260599" lon="105.8862692"><ele>1029.7</ele><time>2026-05-30T17:56:59.000Z</time></trkpt>
        <trkpt lat="28.2260908" lon="105.886399"><ele>1028.66</ele><time>2026-05-30T17:58:31.000Z</time></trkpt>
        <trkpt lat="28.2260908" lon="105.886399"><ele>1028.66</ele><time>2026-05-30T17:59:59.000Z</time></trkpt>
        <trkpt lat="28.2260631" lon="105.8863343"><ele>1046.07</ele><time>2026-05-30T18:00:04.000Z</time></trkpt>
        <trkpt lat="28.2260631" lon="105.8863343"><ele>1046.07</ele><time>2026-05-30T18:01:16.000Z</time></trkpt>
        <trkpt lat="28.2268224" lon="105.8859407"><ele>1048.69</ele><time>2026-05-30T18:04:35.000Z</time></trkpt>
        <trkpt lat="28.2268224" lon="105.8859407"><ele>1048.69</ele><time>2026-05-30T18:04:44.000Z</time></trkpt>
        <trkpt lat="28.2267695" lon="105.8859817"><ele>1044.29</ele><time>2026-05-30T18:04:48.000Z</time></trkpt>
        <trkpt lat="28.2267252" lon="105.886003"><ele>1042.5</ele><time>2026-05-30T18:05:00.000Z</time></trkpt>
        <trkpt lat="28.2266727" lon="105.8860223"><ele>1042.45</ele><time>2026-05-30T18:05:10.000Z</time></trkpt>
        <trkpt lat="28.226618" lon="105.8860483"><ele>1039.05</ele><time>2026-05-30T18:05:14.000Z</time></trkpt>
        <trkpt lat="28.2265634" lon="105.8860699"><ele>1037.01</ele><time>2026-05-30T18:05:18.000Z</time></trkpt>
        <trkpt lat="28.226502" lon="105.8860874"><ele>1035.24</ele><time>2026-05-30T18:05:24.000Z</time></trkpt>
        <trkpt lat="28.2264482" lon="105.886122"><ele>1035.24</ele><time>2026-05-30T18:05:30.000Z</time></trkpt>
        <trkpt lat="28.226397" lon="105.8861413"><ele>1034.35</ele><time>2026-05-30T18:05:36.000Z</time></trkpt>
        <trkpt lat="28.2263437" lon="105.8861868"><ele>1033.59</ele><time>2026-05-30T18:05:42.000Z</time></trkpt>
        <trkpt lat="28.2262998" lon="105.8862264"><ele>1033.66</ele><time>2026-05-30T18:05:46.000Z</time></trkpt>
        <trkpt lat="28.2262482" lon="105.8862344"><ele>1032.81</ele><time>2026-05-30T18:05:52.000Z</time></trkpt>
        <trkpt lat="28.2261934" lon="105.8862585"><ele>1032.52</ele><time>2026-05-30T18:06:00.000Z</time></trkpt>
        <trkpt lat="28.2261435" lon="105.88627"><ele>1032.55</ele><time>2026-05-30T18:06:06.000Z</time></trkpt>
        <trkpt lat="28.2260969" lon="105.8862637"><ele>1033.03</ele><time>2026-05-30T18:06:12.000Z</time></trkpt>
        <trkpt lat="28.2260509" lon="105.8862455"><ele>1034.01</ele><time>2026-05-30T18:06:18.000Z</time></trkpt>
        <trkpt lat="28.2260171" lon="105.8861894"><ele>1034.88</ele><time>2026-05-30T18:06:24.000Z</time></trkpt>
        <trkpt lat="28.2260042" lon="105.8861176"><ele>1032.91</ele><time>2026-05-30T18:06:30.000Z</time></trkpt>
        <trkpt lat="28.2260011" lon="105.8860435"><ele>1031.18</ele><time>2026-05-30T18:06:56.000Z</time></trkpt>
        <trkpt lat="28.2260152" lon="105.8859725"><ele>1027.01</ele><time>2026-05-30T18:07:02.000Z</time></trkpt>
        <trkpt lat="28.2260302" lon="105.8859057"><ele>1024.28</ele><time>2026-05-30T18:07:12.000Z</time></trkpt>
        <trkpt lat="28.2260617" lon="105.8858594"><ele>1023.55</ele><time>2026-05-30T18:07:22.000Z</time></trkpt>
        <trkpt lat="28.226075" lon="105.8858057"><ele>1021.99</ele><time>2026-05-30T18:07:28.000Z</time></trkpt>
        <trkpt lat="28.2260762" lon="105.8857531"><ele>1021.97</ele><time>2026-05-30T18:07:34.000Z</time></trkpt>
        <trkpt lat="28.2261087" lon="105.8857319"><ele>1022.28</ele><time>2026-05-30T18:07:42.000Z</time></trkpt>
        <trkpt lat="28.2261516" lon="105.8857142"><ele>1023.08</ele><time>2026-05-30T18:07:54.000Z</time></trkpt>
        <trkpt lat="28.2261636" lon="105.8856701"><ele>1021.95</ele><time>2026-05-30T18:08:04.000Z</time></trkpt>
        <trkpt lat="28.2261416" lon="105.885623"><ele>1023.04</ele><time>2026-05-30T18:08:18.000Z</time></trkpt>
        <trkpt lat="28.22613" lon="105.8855673"><ele>1024.09</ele><time>2026-05-30T18:08:28.000Z</time></trkpt>
        <trkpt lat="28.2261074" lon="105.8855167"><ele>1025.74</ele><time>2026-05-30T18:08:34.000Z</time></trkpt>
        <trkpt lat="28.2261164" lon="105.8854606"><ele>1025.87</ele><time>2026-05-30T18:08:42.000Z</time></trkpt>
        <trkpt lat="28.2261614" lon="105.885419"><ele>1025.37</ele><time>2026-05-30T18:08:50.000Z</time></trkpt>
        <trkpt lat="28.2261782" lon="105.8853709"><ele>1024.97</ele><time>2026-05-30T18:08:54.000Z</time></trkpt>
        <trkpt lat="28.2261782" lon="105.8853709"><ele>1024.97</ele><time>2026-05-30T18:10:20.000Z</time></trkpt>
        <trkpt lat="28.2261962" lon="105.885089"><ele>1026.99</ele><time>2026-05-30T18:10:45.000Z</time></trkpt>
        <trkpt lat="28.2261962" lon="105.885089"><ele>1026.99</ele><time>2026-05-30T18:11:06.000Z</time></trkpt>
        <trkpt lat="28.2261795" lon="105.8851414"><ele>1037.9</ele><time>2026-05-30T18:11:16.000Z</time></trkpt>
        <trkpt lat="28.2261431" lon="105.8851724"><ele>1038.06</ele><time>2026-05-30T18:11:30.000Z</time></trkpt>
        <trkpt lat="28.2261431" lon="105.8851724"><ele>1038.06</ele><time>2026-05-30T18:11:57.000Z</time></trkpt>
        <trkpt lat="28.2261117" lon="105.8852137"><ele>1036.53</ele><time>2026-05-30T18:12:01.000Z</time></trkpt>
        <trkpt lat="28.2261117" lon="105.8852137"><ele>1036.53</ele><time>2026-05-30T18:12:04.000Z</time></trkpt>
        <trkpt lat="28.2260705" lon="105.885275"><ele>1034.71</ele><time>2026-05-30T18:12:14.000Z</time></trkpt>
        <trkpt lat="28.2260443" lon="105.8853449"><ele>1033.03</ele><time>2026-05-30T18:12:18.000Z</time></trkpt>
        <trkpt lat="28.2260249" lon="105.8854341"><ele>1033.49</ele><time>2026-05-30T18:12:22.000Z</time></trkpt>
        <trkpt lat="28.2260141" lon="105.8855033"><ele>1034.27</ele><time>2026-05-30T18:12:26.000Z</time></trkpt>
        <trkpt lat="28.2259824" lon="105.8855596"><ele>1036.25</ele><time>2026-05-30T18:12:34.000Z</time></trkpt>
        <trkpt lat="28.2259473" lon="105.8856059"><ele>1035.57</ele><time>2026-05-30T18:12:40.000Z</time></trkpt>
        <trkpt lat="28.2259306" lon="105.8855936"><ele>1034.55</ele><time>2026-05-30T18:12:44.000Z</time></trkpt>
        <trkpt lat="28.22591" lon="105.8856287"><ele>1032.7</ele><time>2026-05-30T18:13:20.000Z</time></trkpt>
        <trkpt lat="28.2258989" lon="105.8856815"><ele>1031.97</ele><time>2026-05-30T18:13:26.000Z</time></trkpt>
        <trkpt lat="28.2258738" lon="105.8857329"><ele>1031.07</ele><time>2026-05-30T18:13:32.000Z</time></trkpt>
        <trkpt lat="28.2258389" lon="105.8857713"><ele>1030.36</ele><time>2026-05-30T18:13:48.000Z</time></trkpt>
        <trkpt lat="28.2258191" lon="105.8858181"><ele>1024.43</ele><time>2026-05-30T18:13:56.000Z</time></trkpt>
        <trkpt lat="28.2257749" lon="105.8858275"><ele>1021.96</ele><time>2026-05-30T18:14:44.000Z</time></trkpt>
        <trkpt lat="28.2257261" lon="105.8858267"><ele>1018.34</ele><time>2026-05-30T18:14:52.000Z</time></trkpt>
        <trkpt lat="28.225678" lon="105.8858267"><ele>1016.1</ele><time>2026-05-30T18:15:02.000Z</time></trkpt>
        <trkpt lat="28.2256295" lon="105.8858105"><ele>1014.66</ele><time>2026-05-30T18:15:14.000Z</time></trkpt>
        <trkpt lat="28.2255894" lon="105.8857765"><ele>1013.55</ele><time>2026-05-30T18:15:30.000Z</time></trkpt>
        <trkpt lat="28.2256189" lon="105.8857689"><ele>1010.36</ele><time>2026-05-30T18:15:46.000Z</time></trkpt>
        <trkpt lat="28.2256486" lon="105.8857273"><ele>1010.36</ele><time>2026-05-30T18:16:00.000Z</time></trkpt>
        <trkpt lat="28.2257068" lon="105.8856804"><ele>1012.77</ele><time>2026-05-30T18:16:06.000Z</time></trkpt>
        <trkpt lat="28.2257192" lon="105.885624"><ele>1013.56</ele><time>2026-05-30T18:16:14.000Z</time></trkpt>
        <trkpt lat="28.2257473" lon="105.8855752"><ele>1015.63</ele><time>2026-05-30T18:16:20.000Z</time></trkpt>
        <trkpt lat="28.2257835" lon="105.8855389"><ele>1017.5</ele><time>2026-05-30T18:16:26.000Z</time></trkpt>
        <trkpt lat="28.2257542" lon="105.8855272"><ele>1020.14</ele><time>2026-05-30T18:16:38.000Z</time></trkpt>
        <trkpt lat="28.2257674" lon="105.8854874"><ele>1020.59</ele><time>2026-05-30T18:16:50.000Z</time></trkpt>
        <trkpt lat="28.2257469" lon="105.885443"><ele>1023.14</ele><time>2026-05-30T18:17:02.000Z</time></trkpt>
        <trkpt lat="28.2256976" lon="105.8854168"><ele>1026.82</ele><time>2026-05-30T18:17:10.000Z</time></trkpt>
        <trkpt lat="28.2256895" lon="105.8854222"><ele>1028.21</ele><time>2026-05-30T18:17:14.000Z</time></trkpt>
        <trkpt lat="28.2256716" lon="105.8854613"><ele>1027.47</ele><time>2026-05-30T18:17:22.000Z</time></trkpt>
        <trkpt lat="28.2256716" lon="105.8854613"><ele>1027.47</ele><time>2026-05-30T18:17:55.000Z</time></trkpt>
        <trkpt lat="28.2256374" lon="105.8854964"><ele>1026.9</ele><time>2026-05-30T18:17:57.000Z</time></trkpt>
        <trkpt lat="28.2256374" lon="105.8854964"><ele>1026.9</ele><time>2026-05-30T18:18:00.000Z</time></trkpt>
        <trkpt lat="28.2256193" lon="105.8854697"><ele>1026.95</ele><time>2026-05-30T18:18:28.000Z</time></trkpt>
        <trkpt lat="28.225582" lon="105.8854745"><ele>1027.07</ele><time>2026-05-30T18:18:44.000Z</time></trkpt>
        <trkpt lat="28.2255514" lon="105.8855091"><ele>1026.13</ele><time>2026-05-30T18:18:52.000Z</time></trkpt>
        <trkpt lat="28.225537" lon="105.8855244"><ele>1025.58</ele><time>2026-05-30T18:18:56.000Z</time></trkpt>
        <trkpt lat="28.2255043" lon="105.8855448"><ele>1025.42</ele><time>2026-05-30T18:19:18.000Z</time></trkpt>
        <trkpt lat="28.2254642" lon="105.8855695"><ele>1025.76</ele><time>2026-05-30T18:19:30.000Z</time></trkpt>
        <trkpt lat="28.2254173" lon="105.8855839"><ele>1024.79</ele><time>2026-05-30T18:19:38.000Z</time></trkpt>
        <trkpt lat="28.2253638" lon="105.8855916"><ele>1023.97</ele><time>2026-05-30T18:19:46.000Z</time></trkpt>
        <trkpt lat="28.2253151" lon="105.885593"><ele>1024.61</ele><time>2026-05-30T18:19:52.000Z</time></trkpt>
        <trkpt lat="28.2252681" lon="105.8855891"><ele>1025.93</ele><time>2026-05-30T18:20:02.000Z</time></trkpt>
        <trkpt lat="28.225223" lon="105.8855978"><ele>1026.73</ele><time>2026-05-30T18:20:20.000Z</time></trkpt>
        <trkpt lat="28.2251817" lon="105.8856197"><ele>1027.78</ele><time>2026-05-30T18:20:34.000Z</time></trkpt>
        <trkpt lat="28.2251838" lon="105.8855877"><ele>1029.22</ele><time>2026-05-30T18:21:30.000Z</time></trkpt>
        <trkpt lat="28.2251604" lon="105.8855507"><ele>1030.22</ele><time>2026-05-30T18:22:02.000Z</time></trkpt>
        <trkpt lat="28.2251604" lon="105.8855507"><ele>1030.22</ele><time>2026-05-30T18:22:31.000Z</time></trkpt>
        <trkpt lat="28.2251697" lon="105.8855829"><ele>1031.13</ele><time>2026-05-30T18:22:35.000Z</time></trkpt>
        <trkpt lat="28.2251697" lon="105.8855829"><ele>1031.13</ele><time>2026-05-30T18:22:42.000Z</time></trkpt>
        <trkpt lat="28.2251601" lon="105.8856388"><ele>1032.17</ele><time>2026-05-30T18:22:48.000Z</time></trkpt>
        <trkpt lat="28.2251434" lon="105.8856981"><ele>1033.33</ele><time>2026-05-30T18:22:56.000Z</time></trkpt>
        <trkpt lat="28.2251684" lon="105.8857416"><ele>1035.3</ele><time>2026-05-30T18:23:04.000Z</time></trkpt>
        <trkpt lat="28.2251583" lon="105.8857928"><ele>1035.28</ele><time>2026-05-30T18:23:14.000Z</time></trkpt>
        <trkpt lat="28.2251274" lon="105.885839"><ele>1035.97</ele><time>2026-05-30T18:23:24.000Z</time></trkpt>
        <trkpt lat="28.2250878" lon="105.8858723"><ele>1035.83</ele><time>2026-05-30T18:23:30.000Z</time></trkpt>
        <trkpt lat="28.2250587" lon="105.8859146"><ele>1035.67</ele><time>2026-05-30T18:23:38.000Z</time></trkpt>
        <trkpt lat="28.2250331" lon="105.8859645"><ele>1036.25</ele><time>2026-05-30T18:23:44.000Z</time></trkpt>
        <trkpt lat="28.2250127" lon="105.8860254"><ele>1037.79</ele><time>2026-05-30T18:23:50.000Z</time></trkpt>
        <trkpt lat="28.2249839" lon="105.8860837"><ele>1039.69</ele><time>2026-05-30T18:23:58.000Z</time></trkpt>
        <trkpt lat="28.2249424" lon="105.8861055"><ele>1040.3</ele><time>2026-05-30T18:24:12.000Z</time></trkpt>
        <trkpt lat="28.2249071" lon="105.8861378"><ele>1041.01</ele><time>2026-05-30T18:24:22.000Z</time></trkpt>
        <trkpt lat="28.2248722" lon="105.8861703"><ele>1042.99</ele><time>2026-05-30T18:24:28.000Z</time></trkpt>
        <trkpt lat="28.2248809" lon="105.8862135"><ele>1044.65</ele><time>2026-05-30T18:24:36.000Z</time></trkpt>
        <trkpt lat="28.2248646" lon="105.8862541"><ele>1045.93</ele><time>2026-05-30T18:24:48.000Z</time></trkpt>
        <trkpt lat="28.2248815" lon="105.8863113"><ele>1048.4</ele><time>2026-05-30T18:25:04.000Z</time></trkpt>
        <trkpt lat="28.2249041" lon="105.8863626"><ele>1049.74</ele><time>2026-05-30T18:25:08.000Z</time></trkpt>
        <trkpt lat="28.2249391" lon="105.8864164"><ele>1050.22</ele><time>2026-05-30T18:25:14.000Z</time></trkpt>
        <trkpt lat="28.2249633" lon="105.8864685"><ele>1050.84</ele><time>2026-05-30T18:25:20.000Z</time></trkpt>
        <trkpt lat="28.2249861" lon="105.886519"><ele>1050.86</ele><time>2026-05-30T18:25:26.000Z</time></trkpt>
        <trkpt lat="28.2250223" lon="105.8865483"><ele>1050.71</ele><time>2026-05-30T18:25:36.000Z</time></trkpt>
        <trkpt lat="28.225057" lon="105.8865856"><ele>1050.14</ele><time>2026-05-30T18:25:44.000Z</time></trkpt>
        <trkpt lat="28.2250925" lon="105.8866272"><ele>1049.14</ele><time>2026-05-30T18:25:52.000Z</time></trkpt>
        <trkpt lat="28.2251044" lon="105.8866786"><ele>1049.96</ele><time>2026-05-30T18:26:02.000Z</time></trkpt>
        <trkpt lat="28.2250726" lon="105.8867047"><ele>1051.3</ele><time>2026-05-30T18:26:12.000Z</time></trkpt>
        <trkpt lat="28.2250335" lon="105.8867363"><ele>1053.5</ele><time>2026-05-30T18:26:24.000Z</time></trkpt>
        <trkpt lat="28.2249965" lon="105.8867845"><ele>1056.93</ele><time>2026-05-30T18:26:34.000Z</time></trkpt>
        <trkpt lat="28.2249782" lon="105.8868412"><ele>1059.82</ele><time>2026-05-30T18:26:40.000Z</time></trkpt>
        <trkpt lat="28.224952" lon="105.8868982"><ele>1060.17</ele><time>2026-05-30T18:26:46.000Z</time></trkpt>
        <trkpt lat="28.2249399" lon="105.8869612"><ele>1060.78</ele><time>2026-05-30T18:26:54.000Z</time></trkpt>
        <trkpt lat="28.2249181" lon="105.8869938"><ele>1060.53</ele><time>2026-05-30T18:27:02.000Z</time></trkpt>
        <trkpt lat="28.224917" lon="105.8870462"><ele>1060.77</ele><time>2026-05-30T18:27:10.000Z</time></trkpt>
        <trkpt lat="28.2249211" lon="105.8871136"><ele>1061.56</ele><time>2026-05-30T18:27:28.000Z</time></trkpt>
        <trkpt lat="28.224938" lon="105.8871689"><ele>1061.34</ele><time>2026-05-30T18:27:34.000Z</time></trkpt>
        <trkpt lat="28.2249603" lon="105.8872273"><ele>1060.47</ele><time>2026-05-30T18:27:38.000Z</time></trkpt>
        <trkpt lat="28.2249632" lon="105.8872422"><ele>1060.86</ele><time>2026-05-30T18:27:40.000Z</time></trkpt>
        <trkpt lat="28.2249683" lon="105.8872817"><ele>1059.94</ele><time>2026-05-30T18:27:48.000Z</time></trkpt>
        <trkpt lat="28.2249664" lon="105.8873393"><ele>1060.58</ele><time>2026-05-30T18:27:54.000Z</time></trkpt>
        <trkpt lat="28.2249504" lon="105.8873995"><ele>1061.76</ele><time>2026-05-30T18:28:00.000Z</time></trkpt>
        <trkpt lat="28.224937" lon="105.8874579"><ele>1063.59</ele><time>2026-05-30T18:28:10.000Z</time></trkpt>
        <trkpt lat="28.2249156" lon="105.8875063"><ele>1065.62</ele><time>2026-05-30T18:28:16.000Z</time></trkpt>
        <trkpt lat="28.2249114" lon="105.8875188"><ele>1067.1</ele><time>2026-05-30T18:28:22.000Z</time></trkpt>
        <trkpt lat="28.2249442" lon="105.8875377"><ele>1067.68</ele><time>2026-05-30T18:28:32.000Z</time></trkpt>
        <trkpt lat="28.2249912" lon="105.8875219"><ele>1067.36</ele><time>2026-05-30T18:28:38.000Z</time></trkpt>
        <trkpt lat="28.2250422" lon="105.8875138"><ele>1068.05</ele><time>2026-05-30T18:28:50.000Z</time></trkpt>
        <trkpt lat="28.225072" lon="105.8875463"><ele>1069.79</ele><time>2026-05-30T18:29:00.000Z</time></trkpt>
        <trkpt lat="28.2250712" lon="105.8875981"><ele>1071.52</ele><time>2026-05-30T18:29:12.000Z</time></trkpt>
        <trkpt lat="28.2250591" lon="105.8876661"><ele>1072.33</ele><time>2026-05-30T18:29:20.000Z</time></trkpt>
        <trkpt lat="28.2250424" lon="105.8877278"><ele>1073.65</ele><time>2026-05-30T18:29:24.000Z</time></trkpt>
        <trkpt lat="28.2250073" lon="105.8877826"><ele>1075.01</ele><time>2026-05-30T18:29:30.000Z</time></trkpt>
        <trkpt lat="28.2249817" lon="105.8878334"><ele>1076.43</ele><time>2026-05-30T18:29:36.000Z</time></trkpt>
        <trkpt lat="28.2249703" lon="105.887898"><ele>1076.83</ele><time>2026-05-30T18:29:42.000Z</time></trkpt>
        <trkpt lat="28.2249995" lon="105.8879422"><ele>1077.26</ele><time>2026-05-30T18:29:48.000Z</time></trkpt>
        <trkpt lat="28.2249951" lon="105.8879888"><ele>1075.37</ele><time>2026-05-30T18:29:54.000Z</time></trkpt>
        <trkpt lat="28.2249519" lon="105.8880207"><ele>1075.29</ele><time>2026-05-30T18:30:00.000Z</time></trkpt>
        <trkpt lat="28.2249072" lon="105.8880517"><ele>1078.06</ele><time>2026-05-30T18:30:06.000Z</time></trkpt>
        <trkpt lat="28.2248664" lon="105.8881"><ele>1080.15</ele><time>2026-05-30T18:30:16.000Z</time></trkpt>
        <trkpt lat="28.2248385" lon="105.8881521"><ele>1082.45</ele><time>2026-05-30T18:30:24.000Z</time></trkpt>
        <trkpt lat="28.224816" lon="105.8882016"><ele>1084.94</ele><time>2026-05-30T18:30:30.000Z</time></trkpt>
        <trkpt lat="28.2247856" lon="105.8882427"><ele>1086.43</ele><time>2026-05-30T18:30:36.000Z</time></trkpt>
        <trkpt lat="28.2247459" lon="105.8882851"><ele>1086.65</ele><time>2026-05-30T18:30:42.000Z</time></trkpt>
        <trkpt lat="28.2247022" lon="105.8883139"><ele>1087.81</ele><time>2026-05-30T18:30:48.000Z</time></trkpt>
        <trkpt lat="28.2246868" lon="105.8883211"><ele>1087.71</ele><time>2026-05-30T18:30:52.000Z</time></trkpt>
        <trkpt lat="28.2246454" lon="105.8883475"><ele>1087.52</ele><time>2026-05-30T18:31:12.000Z</time></trkpt>
        <trkpt lat="28.2246094" lon="105.8883849"><ele>1087.69</ele><time>2026-05-30T18:31:18.000Z</time></trkpt>
        <trkpt lat="28.2245951" lon="105.8884481"><ele>1087.52</ele><time>2026-05-30T18:31:24.000Z</time></trkpt>
        <trkpt lat="28.2246108" lon="105.8885151"><ele>1087.54</ele><time>2026-05-30T18:31:30.000Z</time></trkpt>
        <trkpt lat="28.2246211" lon="105.8885244"><ele>1087.45</ele><time>2026-05-30T18:31:32.000Z</time></trkpt>
        <trkpt lat="28.2246563" lon="105.8885465"><ele>1086.93</ele><time>2026-05-30T18:31:36.000Z</time></trkpt>
        <trkpt lat="28.2246708" lon="105.8885927"><ele>1086.02</ele><time>2026-05-30T18:31:44.000Z</time></trkpt>
        <trkpt lat="28.2246752" lon="105.8886472"><ele>1086.26</ele><time>2026-05-30T18:31:52.000Z</time></trkpt>
        <trkpt lat="28.2246875" lon="105.8887179"><ele>1087.15</ele><time>2026-05-30T18:32:00.000Z</time></trkpt>
        <trkpt lat="28.2246804" lon="105.8887778"><ele>1086.66</ele><time>2026-05-30T18:32:06.000Z</time></trkpt>
      </trkseg>
      <trkseg>
        <trkpt lat="28.2255508" lon="105.888904"><ele>1073.4</ele><time>2026-05-30T18:35:27.000Z</time></trkpt>
        <trkpt lat="28.2255982" lon="105.8888836"><ele>1073.4</ele><time>2026-05-30T18:35:35.000Z</time></trkpt>
        <trkpt lat="28.2256533" lon="105.8888669"><ele>1073.2</ele><time>2026-05-30T18:35:41.000Z</time></trkpt>
        <trkpt lat="28.2257037" lon="105.8888524"><ele>1072.88</ele><time>2026-05-30T18:35:45.000Z</time></trkpt>
        <trkpt lat="28.225758" lon="105.8888345"><ele>1072.45</ele><time>2026-05-30T18:35:51.000Z</time></trkpt>
        <trkpt lat="28.2258115" lon="105.888816"><ele>1071.86</ele><time>2026-05-30T18:35:57.000Z</time></trkpt>
        <trkpt lat="28.2258665" lon="105.8887914"><ele>1071.08</ele><time>2026-05-30T18:36:03.000Z</time></trkpt>
        <trkpt lat="28.2259197" lon="105.8887607"><ele>1070.4</ele><time>2026-05-30T18:36:09.000Z</time></trkpt>
        <trkpt lat="28.2259655" lon="105.8887168"><ele>1069.32</ele><time>2026-05-30T18:36:15.000Z</time></trkpt>
        <trkpt lat="28.2260065" lon="105.8886681"><ele>1068.66</ele><time>2026-05-30T18:36:21.000Z</time></trkpt>
        <trkpt lat="28.2260406" lon="105.8886242"><ele>1068.93</ele><time>2026-05-30T18:36:27.000Z</time></trkpt>
        <trkpt lat="28.2260515" lon="105.8885637"><ele>1068.07</ele><time>2026-05-30T18:36:33.000Z</time></trkpt>
        <trkpt lat="28.2260826" lon="105.8885131"><ele>1068.11</ele><time>2026-05-30T18:36:39.000Z</time></trkpt>
        <trkpt lat="28.2260842" lon="105.8884534"><ele>1067.8</ele><time>2026-05-30T18:36:47.000Z</time></trkpt>
        <trkpt lat="28.22611" lon="105.8884062"><ele>1065.19</ele><time>2026-05-30T18:36:51.000Z</time></trkpt>
        <trkpt lat="28.2261521" lon="105.8883647"><ele>1064.56</ele><time>2026-05-30T18:36:57.000Z</time></trkpt>
        <trkpt lat="28.2261969" lon="105.8883262"><ele>1064.79</ele><time>2026-05-30T18:37:03.000Z</time></trkpt>
        <trkpt lat="28.2264469" lon="105.8878325"><ele>1064.03</ele><time>2026-05-30T18:38:00.000Z</time></trkpt>
        <trkpt lat="28.2265684" lon="105.8876936"><ele>1057.76</ele><time>2026-05-30T18:38:07.000Z</time></trkpt>
        <trkpt lat="28.2266206" lon="105.887703"><ele>1058.07</ele><time>2026-05-30T18:38:19.000Z</time></trkpt>
        <trkpt lat="28.2266424" lon="105.8877716"><ele>1058.7</ele><time>2026-05-30T18:38:27.000Z</time></trkpt>
        <trkpt lat="28.2266635" lon="105.887852"><ele>1059.44</ele><time>2026-05-30T18:38:33.000Z</time></trkpt>
        <trkpt lat="28.2267024" lon="105.887881"><ele>1060.56</ele><time>2026-05-30T18:38:41.000Z</time></trkpt>
        <trkpt lat="28.2267106" lon="105.8878866"><ele>1061.91</ele><time>2026-05-30T18:38:43.000Z</time></trkpt>
        <trkpt lat="28.2267521" lon="105.8878914"><ele>1062.79</ele><time>2026-05-30T18:38:49.000Z</time></trkpt>
        <trkpt lat="28.2267787" lon="105.887901"><ele>1063.98</ele><time>2026-05-30T18:38:55.000Z</time></trkpt>
        <trkpt lat="28.2268086" lon="105.8879462"><ele>1063.57</ele><time>2026-05-30T18:39:01.000Z</time></trkpt>
        <trkpt lat="28.2268378" lon="105.8880088"><ele>1063.35</ele><time>2026-05-30T18:39:07.000Z</time></trkpt>
        <trkpt lat="28.2268736" lon="105.8880603"><ele>1063.77</ele><time>2026-05-30T18:39:13.000Z</time></trkpt>
        <trkpt lat="28.2269193" lon="105.8880791"><ele>1064.87</ele><time>2026-05-30T18:39:17.000Z</time></trkpt>
        <trkpt lat="28.226966" lon="105.8881168"><ele>1066.13</ele><time>2026-05-30T18:39:23.000Z</time></trkpt>
        <trkpt lat="28.2269955" lon="105.8881715"><ele>1066.57</ele><time>2026-05-30T18:39:29.000Z</time></trkpt>
        <trkpt lat="28.2270192" lon="105.8882311"><ele>1066.57</ele><time>2026-05-30T18:39:35.000Z</time></trkpt>
        <trkpt lat="28.2270408" lon="105.8882928"><ele>1065.85</ele><time>2026-05-30T18:39:41.000Z</time></trkpt>
        <trkpt lat="28.2270607" lon="105.8883381"><ele>1065.06</ele><time>2026-05-30T18:39:49.000Z</time></trkpt>
        <trkpt lat="28.2270851" lon="105.8883802"><ele>1062.81</ele><time>2026-05-30T18:39:55.000Z</time></trkpt>
        <trkpt lat="28.2271217" lon="105.8884263"><ele>1060.3</ele><time>2026-05-30T18:39:59.000Z</time></trkpt>
        <trkpt lat="28.2271475" lon="105.8884763"><ele>1059.59</ele><time>2026-05-30T18:40:03.000Z</time></trkpt>
        <trkpt lat="28.2271697" lon="105.8885273"><ele>1058.68</ele><time>2026-05-30T18:40:09.000Z</time></trkpt>
        <trkpt lat="28.2271832" lon="105.8885879"><ele>1057.55</ele><time>2026-05-30T18:40:13.000Z</time></trkpt>
        <trkpt lat="28.227219" lon="105.8886123"><ele>1057.34</ele><time>2026-05-30T18:40:19.000Z</time></trkpt>
        <trkpt lat="28.227263" lon="105.8886355"><ele>1056.27</ele><time>2026-05-30T18:40:23.000Z</time></trkpt>
        <trkpt lat="28.2272535" lon="105.8886681"><ele>1055.9</ele><time>2026-05-30T18:40:29.000Z</time></trkpt>
        <trkpt lat="28.2272523" lon="105.8887186"><ele>1054.34</ele><time>2026-05-30T18:40:35.000Z</time></trkpt>
        <trkpt lat="28.2272778" lon="105.8887636"><ele>1052.92</ele><time>2026-05-30T18:40:41.000Z</time></trkpt>
        <trkpt lat="28.2273155" lon="105.8888047"><ele>1051.9</ele><time>2026-05-30T18:40:49.000Z</time></trkpt>
        <trkpt lat="28.2273626" lon="105.8888076"><ele>1050.96</ele><time>2026-05-30T18:41:01.000Z</time></trkpt>
        <trkpt lat="28.2273874" lon="105.8888448"><ele>1048.83</ele><time>2026-05-30T18:41:09.000Z</time></trkpt>
        <trkpt lat="28.2273874" lon="105.8888448"><ele>1048.83</ele><time>2026-05-30T18:41:26.000Z</time></trkpt>
        <trkpt lat="28.2274271" lon="105.888832"><ele>1047.51</ele><time>2026-05-30T18:41:27.000Z</time></trkpt>
        <trkpt lat="28.2274271" lon="105.888832"><ele>1047.51</ele><time>2026-05-30T18:41:35.000Z</time></trkpt>
        <trkpt lat="28.2274611" lon="105.8887958"><ele>1046.22</ele><time>2026-05-30T18:41:43.000Z</time></trkpt>
        <trkpt lat="28.2274688" lon="105.8888405"><ele>1044.41</ele><time>2026-05-30T18:41:49.000Z</time></trkpt>
        <trkpt lat="28.2274645" lon="105.8889019"><ele>1042.81</ele><time>2026-05-30T18:41:55.000Z</time></trkpt>
        <trkpt lat="28.2274921" lon="105.8888941"><ele>1040.94</ele><time>2026-05-30T18:42:03.000Z</time></trkpt>
        <trkpt lat="28.2274668" lon="105.888861"><ele>1037.31</ele><time>2026-05-30T18:42:13.000Z</time></trkpt>
        <trkpt lat="28.227421" lon="105.8888737"><ele>1031.87</ele><time>2026-05-30T18:42:17.000Z</time></trkpt>
        <trkpt lat="28.2273776" lon="105.888915"><ele>1029.04</ele><time>2026-05-30T18:42:23.000Z</time></trkpt>
        <trkpt lat="28.2273372" lon="105.8889487"><ele>1026.65</ele><time>2026-05-30T18:42:31.000Z</time></trkpt>
        <trkpt lat="28.2273062" lon="105.8889978"><ele>1025.21</ele><time>2026-05-30T18:42:37.000Z</time></trkpt>
        <trkpt lat="28.2272829" lon="105.8890596"><ele>1024.19</ele><time>2026-05-30T18:42:43.000Z</time></trkpt>
        <trkpt lat="28.2272573" lon="105.8891103"><ele>1024.54</ele><time>2026-05-30T18:42:47.000Z</time></trkpt>
        <trkpt lat="28.2272236" lon="105.8891708"><ele>1025.71</ele><time>2026-05-30T18:42:51.000Z</time></trkpt>
        <trkpt lat="28.2271914" lon="105.8892383"><ele>1027.36</ele><time>2026-05-30T18:42:57.000Z</time></trkpt>
        <trkpt lat="28.2271926" lon="105.889241"><ele>1029.26</ele><time>2026-05-30T18:43:01.000Z</time></trkpt>
        <trkpt lat="28.2272213" lon="105.8892813"><ele>1027.56</ele><time>2026-05-30T18:43:07.000Z</time></trkpt>
        <trkpt lat="28.2272075" lon="105.889294"><ele>1027.66</ele><time>2026-05-30T18:43:15.000Z</time></trkpt>
        <trkpt lat="28.2272402" lon="105.889294"><ele>1027.81</ele><time>2026-05-30T18:43:29.000Z</time></trkpt>
        <trkpt lat="28.22723" lon="105.8893277"><ele>1025.72</ele><time>2026-05-30T18:43:33.000Z</time></trkpt>
        <trkpt lat="28.2271978" lon="105.8893645"><ele>1024.67</ele><time>2026-05-30T18:43:47.000Z</time></trkpt>
        <trkpt lat="28.2271535" lon="105.8893923"><ele>1023.99</ele><time>2026-05-30T18:43:51.000Z</time></trkpt>
        <trkpt lat="28.227109" lon="105.8894425"><ele>1023.64</ele><time>2026-05-30T18:43:57.000Z</time></trkpt>
        <trkpt lat="28.2270676" lon="105.8894987"><ele>1024.53</ele><time>2026-05-30T18:44:03.000Z</time></trkpt>
        <trkpt lat="28.2270255" lon="105.889542"><ele>1026.13</ele><time>2026-05-30T18:44:09.000Z</time></trkpt>
        <trkpt lat="28.2269828" lon="105.8895721"><ele>1027.11</ele><time>2026-05-30T18:44:15.000Z</time></trkpt>
        <trkpt lat="28.226944" lon="105.8896001"><ele>1027.64</ele><time>2026-05-30T18:44:19.000Z</time></trkpt>
        <trkpt lat="28.2268991" lon="105.8896355"><ele>1027.35</ele><time>2026-05-30T18:44:25.000Z</time></trkpt>
        <trkpt lat="28.2268598" lon="105.8896753"><ele>1026.76</ele><time>2026-05-30T18:44:31.000Z</time></trkpt>
        <trkpt lat="28.2268682" lon="105.8896528"><ele>1026.84</ele><time>2026-05-30T18:44:33.000Z</time></trkpt>
        <trkpt lat="28.2268496" lon="105.8896664"><ele>1023.15</ele><time>2026-05-30T18:44:39.000Z</time></trkpt>
        <trkpt lat="28.2268117" lon="105.8897002"><ele>1021.17</ele><time>2026-05-30T18:44:45.000Z</time></trkpt>
        <trkpt lat="28.2268049" lon="105.8897612"><ele>1020.61</ele><time>2026-05-30T18:44:53.000Z</time></trkpt>
        <trkpt lat="28.2267856" lon="105.8898124"><ele>1019.49</ele><time>2026-05-30T18:44:59.000Z</time></trkpt>
        <trkpt lat="28.2267386" lon="105.8898327"><ele>1018.16</ele><time>2026-05-30T18:45:07.000Z</time></trkpt>
        <trkpt lat="28.2266878" lon="105.889859"><ele>1014.41</ele><time>2026-05-30T18:45:17.000Z</time></trkpt>
        <trkpt lat="28.2266364" lon="105.8898505"><ele>1009.7</ele><time>2026-05-30T18:45:45.000Z</time></trkpt>
        <trkpt lat="28.226669" lon="105.8898444"><ele>1003.63</ele><time>2026-05-30T18:46:13.000Z</time></trkpt>
        <trkpt lat="28.226669" lon="105.8898444"><ele>1003.63</ele><time>2026-05-30T18:47:10.000Z</time></trkpt>
        <trkpt lat="28.2267385" lon="105.8900539"><ele>999.75</ele><time>2026-05-30T18:47:51.000Z</time></trkpt>
        <trkpt lat="28.2267385" lon="105.8900539"><ele>999.75</ele><time>2026-05-30T18:47:53.000Z</time></trkpt>
        <trkpt lat="28.2267385" lon="105.8900539"><ele>999.75</ele><time>2026-05-30T18:48:02.000Z</time></trkpt>
        <trkpt lat="28.2265494" lon="105.8898816"><ele>995.75</ele><time>2026-05-30T18:48:15.000Z</time></trkpt>
        <trkpt lat="28.2265494" lon="105.8898816"><ele>995.75</ele><time>2026-05-30T18:48:22.000Z</time></trkpt>
        <trkpt lat="28.2265494" lon="105.8898816"><ele>995.75</ele><time>2026-05-30T18:48:28.000Z</time></trkpt>
        <trkpt lat="28.2265494" lon="105.8898816"><ele>995.75</ele><time>2026-05-30T18:48:51.000Z</time></trkpt>
        <trkpt lat="28.2265494" lon="105.8898816"><ele>995.75</ele><time>2026-05-30T18:49:02.000Z</time></trkpt>
        <trkpt lat="28.2265494" lon="105.8898816"><ele>995.75</ele><time>2026-05-30T18:49:08.000Z</time></trkpt>
        <trkpt lat="28.2265494" lon="105.8898816"><ele>995.75</ele><time>2026-05-30T18:49:08.000Z</time></trkpt>
        <trkpt lat="28.2265494" lon="105.8898816"><ele>995.75</ele><time>2026-05-30T18:49:15.000Z</time></trkpt>
        <trkpt lat="28.2265494" lon="105.8898816"><ele>995.75</ele><time>2026-05-30T18:49:48.000Z</time></trkpt>
        <trkpt lat="28.2265494" lon="105.8898816"><ele>995.75</ele><time>2026-05-30T18:50:41.000Z</time></trkpt>
        <trkpt lat="28.2265494" lon="105.8898816"><ele>995.75</ele><time>2026-05-30T18:51:04.000Z</time></trkpt>
        <trkpt lat="28.2265494" lon="105.8898816"><ele>995.75</ele><time>2026-05-30T18:51:05.000Z</time></trkpt>
        <trkpt lat="28.2265494" lon="105.8898816"><ele>995.75</ele><time>2026-05-30T18:51:16.000Z</time></trkpt>
        <trkpt lat="28.2265494" lon="105.8898816"><ele>995.75</ele><time>2026-05-30T18:51:43.000Z</time></trkpt>
        <trkpt lat="28.2265494" lon="105.8898816"><ele>995.75</ele><time>2026-05-30T18:51:54.000Z</time></trkpt>
        <trkpt lat="28.2264602" lon="105.8897202"><ele>975.96</ele><time>2026-05-30T18:52:09.000Z</time></trkpt>
        <trkpt lat="28.2264602" lon="105.8897202"><ele>975.96</ele><time>2026-05-30T18:52:12.000Z</time></trkpt>
        <trkpt lat="28.2266137" lon="105.8898578"><ele>967.79</ele><time>2026-05-30T18:52:17.000Z</time></trkpt>
        <trkpt lat="28.2266137" lon="105.8898578"><ele>967.79</ele><time>2026-05-30T18:52:18.000Z</time></trkpt>
        <trkpt lat="28.2266137" lon="105.8898578"><ele>967.79</ele><time>2026-05-30T18:52:33.000Z</time></trkpt>
        <trkpt lat="28.2266137" lon="105.8898578"><ele>967.79</ele><time>2026-05-30T18:52:58.000Z</time></trkpt>
        <trkpt lat="28.2265926" lon="105.8899303"><ele>962.99</ele><time>2026-05-30T18:53:07.000Z</time></trkpt>
        <trkpt lat="28.2265926" lon="105.8899303"><ele>962.99</ele><time>2026-05-30T18:53:34.000Z</time></trkpt>
        <trkpt lat="28.2265926" lon="105.8899303"><ele>962.99</ele><time>2026-05-30T18:54:38.000Z</time></trkpt>
        <trkpt lat="28.2265926" lon="105.8899303"><ele>962.99</ele><time>2026-05-30T18:54:59.000Z</time></trkpt>
        <trkpt lat="28.2265926" lon="105.8899303"><ele>962.99</ele><time>2026-05-30T18:56:14.000Z</time></trkpt>
        <trkpt lat="28.2263282" lon="105.8909188"><ele>970.79</ele><time>2026-05-30T18:56:23.000Z</time></trkpt>
        <trkpt lat="28.2263282" lon="105.8909188"><ele>970.79</ele><time>2026-05-30T18:56:31.000Z</time></trkpt>
        <trkpt lat="28.2262682" lon="105.8909059"><ele>984.9</ele><time>2026-05-30T18:56:34.000Z</time></trkpt>
        <trkpt lat="28.2262277" lon="105.8909309"><ele>988.07</ele><time>2026-05-30T18:56:44.000Z</time></trkpt>
        <trkpt lat="28.2261871" lon="105.8909717"><ele>990.03</ele><time>2026-05-30T18:56:50.000Z</time></trkpt>
        <trkpt lat="28.2261403" lon="105.8910193"><ele>990.22</ele><time>2026-05-30T18:56:56.000Z</time></trkpt>
        <trkpt lat="28.2261015" lon="105.89106"><ele>989.78</ele><time>2026-05-30T18:57:00.000Z</time></trkpt>
        <trkpt lat="28.2260722" lon="105.8911017"><ele>990.1</ele><time>2026-05-30T18:57:04.000Z</time></trkpt>
        <trkpt lat="28.2260734" lon="105.8911079"><ele>990.22</ele><time>2026-05-30T18:57:06.000Z</time></trkpt>
        <trkpt lat="28.2260465" lon="105.891123"><ele>987.07</ele><time>2026-05-30T18:57:10.000Z</time></trkpt>
        <trkpt lat="28.2259997" lon="105.8911389"><ele>985.84</ele><time>2026-05-30T18:57:14.000Z</time></trkpt>
        <trkpt lat="28.2259518" lon="105.8911668"><ele>985.99</ele><time>2026-05-30T18:57:18.000Z</time></trkpt>
        <trkpt lat="28.2259079" lon="105.8911956"><ele>987.06</ele><time>2026-05-30T18:57:24.000Z</time></trkpt>
        <trkpt lat="28.2258634" lon="105.8912232"><ele>986.96</ele><time>2026-05-30T18:57:38.000Z</time></trkpt>
        <trkpt lat="28.2258255" lon="105.8912567"><ele>986.2</ele><time>2026-05-30T18:57:42.000Z</time></trkpt>
        <trkpt lat="28.2257821" lon="105.8912917"><ele>986.39</ele><time>2026-05-30T18:57:48.000Z</time></trkpt>
        <trkpt lat="28.2257357" lon="105.8913291"><ele>986.3</ele><time>2026-05-30T18:57:54.000Z</time></trkpt>
        <trkpt lat="28.2256929" lon="105.8913634"><ele>986.21</ele><time>2026-05-30T18:58:14.000Z</time></trkpt>
        <trkpt lat="28.2256353" lon="105.8913965"><ele>986.14</ele><time>2026-05-30T18:58:20.000Z</time></trkpt>
        <trkpt lat="28.2255783" lon="105.891428"><ele>986.44</ele><time>2026-05-30T18:58:26.000Z</time></trkpt>
        <trkpt lat="28.2255256" lon="105.8914727"><ele>986.14</ele><time>2026-05-30T18:58:32.000Z</time></trkpt>
        <trkpt lat="28.2254725" lon="105.8915145"><ele>986.03</ele><time>2026-05-30T18:58:38.000Z</time></trkpt>
        <trkpt lat="28.2254284" lon="105.8915579"><ele>985.91</ele><time>2026-05-30T18:58:44.000Z</time></trkpt>
        <trkpt lat="28.2253777" lon="105.8915909"><ele>984.92</ele><time>2026-05-30T18:58:50.000Z</time></trkpt>
        <trkpt lat="28.2253401" lon="105.8916366"><ele>984.05</ele><time>2026-05-30T18:58:56.000Z</time></trkpt>
        <trkpt lat="28.2253017" lon="105.8916871"><ele>984.38</ele><time>2026-05-30T18:59:02.000Z</time></trkpt>
        <trkpt lat="28.2252674" lon="105.8917308"><ele>985.27</ele><time>2026-05-30T18:59:10.000Z</time></trkpt>
        <trkpt lat="28.2252384" lon="105.8917735"><ele>984.78</ele><time>2026-05-30T18:59:18.000Z</time></trkpt>
        <trkpt lat="28.2252617" lon="105.8918175"><ele>983.55</ele><time>2026-05-30T18:59:24.000Z</time></trkpt>
        <trkpt lat="28.2252847" lon="105.8918698"><ele>985.09</ele><time>2026-05-30T18:59:32.000Z</time></trkpt>
        <trkpt lat="28.2253093" lon="105.8919264"><ele>985.22</ele><time>2026-05-30T18:59:40.000Z</time></trkpt>
        <trkpt lat="28.225313" lon="105.8919936"><ele>985.64</ele><time>2026-05-30T18:59:48.000Z</time></trkpt>
        <trkpt lat="28.2253197" lon="105.8920545"><ele>986.67</ele><time>2026-05-30T18:59:54.000Z</time></trkpt>
        <trkpt lat="28.2253158" lon="105.8921144"><ele>986.48</ele><time>2026-05-30T19:00:00.000Z</time></trkpt>
        <trkpt lat="28.2253001" lon="105.8921683"><ele>986.17</ele><time>2026-05-30T19:00:06.000Z</time></trkpt>
        <trkpt lat="28.2252946" lon="105.8922279"><ele>985.62</ele><time>2026-05-30T19:00:12.000Z</time></trkpt>
        <trkpt lat="28.2253028" lon="105.8922802"><ele>985.33</ele><time>2026-05-30T19:00:16.000Z</time></trkpt>
        <trkpt lat="28.225327" lon="105.8923453"><ele>985.39</ele><time>2026-05-30T19:00:22.000Z</time></trkpt>
        <trkpt lat="28.2253493" lon="105.8924035"><ele>985.8</ele><time>2026-05-30T19:00:26.000Z</time></trkpt>
        <trkpt lat="28.2253867" lon="105.8924442"><ele>986.21</ele><time>2026-05-30T19:00:32.000Z</time></trkpt>
        <trkpt lat="28.2254255" lon="105.8924817"><ele>986.71</ele><time>2026-05-30T19:00:38.000Z</time></trkpt>
        <trkpt lat="28.2254593" lon="105.8925361"><ele>987.25</ele><time>2026-05-30T19:00:44.000Z</time></trkpt>
        <trkpt lat="28.2254878" lon="105.8925849"><ele>987.79</ele><time>2026-05-30T19:00:50.000Z</time></trkpt>
        <trkpt lat="28.2255207" lon="105.8926235"><ele>988.2</ele><time>2026-05-30T19:00:56.000Z</time></trkpt>
        <trkpt lat="28.2255657" lon="105.8926584"><ele>987.64</ele><time>2026-05-30T19:01:04.000Z</time></trkpt>
        <trkpt lat="28.2256125" lon="105.8926838"><ele>986.84</ele><time>2026-05-30T19:01:10.000Z</time></trkpt>
        <trkpt lat="28.225658" lon="105.8926997"><ele>986.1</ele><time>2026-05-30T19:01:16.000Z</time></trkpt>
        <trkpt lat="28.2257057" lon="105.8927234"><ele>985.22</ele><time>2026-05-30T19:01:22.000Z</time></trkpt>
        <trkpt lat="28.2257436" lon="105.8927591"><ele>984.31</ele><time>2026-05-30T19:01:26.000Z</time></trkpt>
        <trkpt lat="28.2257613" lon="105.8928001"><ele>983.51</ele><time>2026-05-30T19:01:34.000Z</time></trkpt>
        <trkpt lat="28.2257957" lon="105.8928364"><ele>983.01</ele><time>2026-05-30T19:01:40.000Z</time></trkpt>
        <trkpt lat="28.2258518" lon="105.8928563"><ele>982.98</ele><time>2026-05-30T19:01:48.000Z</time></trkpt>
        <trkpt lat="28.2259281" lon="105.8928633"><ele>983.61</ele><time>2026-05-30T19:01:54.000Z</time></trkpt>
        <trkpt lat="28.225984" lon="105.8928773"><ele>984.49</ele><time>2026-05-30T19:01:58.000Z</time></trkpt>
        <trkpt lat="28.2260333" lon="105.892894"><ele>984.83</ele><time>2026-05-30T19:02:02.000Z</time></trkpt>
        <trkpt lat="28.2260813" lon="105.8929006"><ele>985.01</ele><time>2026-05-30T19:02:06.000Z</time></trkpt>
        <trkpt lat="28.2261248" lon="105.8929143"><ele>985.41</ele><time>2026-05-30T19:02:12.000Z</time></trkpt>
        <trkpt lat="28.226167" lon="105.892937"><ele>985.4</ele><time>2026-05-30T19:02:24.000Z</time></trkpt>
        <trkpt lat="28.2262046" lon="105.892975"><ele>983.95</ele><time>2026-05-30T19:02:32.000Z</time></trkpt>
        <trkpt lat="28.2262461" lon="105.8930059"><ele>982.3</ele><time>2026-05-30T19:02:36.000Z</time></trkpt>
        <trkpt lat="28.2262647" lon="105.8930161"><ele>981.05</ele><time>2026-05-30T19:02:38.000Z</time></trkpt>
        <trkpt lat="28.2262925" lon="105.8930522"><ele>980.22</ele><time>2026-05-30T19:02:50.000Z</time></trkpt>
        <trkpt lat="28.2263135" lon="105.8930481"><ele>978.98</ele><time>2026-05-30T19:03:04.000Z</time></trkpt>
        <trkpt lat="28.2263519" lon="105.8930249"><ele>977.98</ele><time>2026-05-30T19:03:10.000Z</time></trkpt>
        <trkpt lat="28.2263975" lon="105.8930026"><ele>977.46</ele><time>2026-05-30T19:03:22.000Z</time></trkpt>
        <trkpt lat="28.2263758" lon="105.892992"><ele>977.72</ele><time>2026-05-30T19:03:28.000Z</time></trkpt>
        <trkpt lat="28.2263244" lon="105.893009"><ele>978.62</ele><time>2026-05-30T19:03:32.000Z</time></trkpt>
        <trkpt lat="28.2262696" lon="105.8930259"><ele>978.73</ele><time>2026-05-30T19:03:38.000Z</time></trkpt>
        <trkpt lat="28.2262529" lon="105.8930425"><ele>978.7</ele><time>2026-05-30T19:03:40.000Z</time></trkpt>
        <trkpt lat="28.2262216" lon="105.8930175"><ele>978.66</ele><time>2026-05-30T19:03:56.000Z</time></trkpt>
        <trkpt lat="28.2261836" lon="105.8929761"><ele>977.67</ele><time>2026-05-30T19:04:02.000Z</time></trkpt>
        <trkpt lat="28.2262172" lon="105.892953"><ele>977.05</ele><time>2026-05-30T19:04:08.000Z</time></trkpt>
        <trkpt lat="28.2262748" lon="105.8929594"><ele>976.99</ele><time>2026-05-30T19:04:16.000Z</time></trkpt>
        <trkpt lat="28.2263373" lon="105.8929682"><ele>977.43</ele><time>2026-05-30T19:04:26.000Z</time></trkpt>
        <trkpt lat="28.2263984" lon="105.8929507"><ele>976.95</ele><time>2026-05-30T19:04:34.000Z</time></trkpt>
        <trkpt lat="28.2264495" lon="105.8929191"><ele>976.15</ele><time>2026-05-30T19:04:40.000Z</time></trkpt>
        <trkpt lat="28.2264832" lon="105.8928756"><ele>976.17</ele><time>2026-05-30T19:04:56.000Z</time></trkpt>
        <trkpt lat="28.2265162" lon="105.8928367"><ele>975.67</ele><time>2026-05-30T19:05:12.000Z</time></trkpt>
        <trkpt lat="28.2265664" lon="105.8928353"><ele>975.96</ele><time>2026-05-30T19:05:28.000Z</time></trkpt>
        <trkpt lat="28.2265921" lon="105.8928455"><ele>976.25</ele><time>2026-05-30T19:05:32.000Z</time></trkpt>
        <trkpt lat="28.2266321" lon="105.8928591"><ele>976.27</ele><time>2026-05-30T19:05:48.000Z</time></trkpt>
        <trkpt lat="28.2266636" lon="105.8929178"><ele>977.08</ele><time>2026-05-30T19:06:50.000Z</time></trkpt>
        <trkpt lat="28.2267104" lon="105.8929315"><ele>975.97</ele><time>2026-05-30T19:07:02.000Z</time></trkpt>
        <trkpt lat="28.2267674" lon="105.8929339"><ele>975.36</ele><time>2026-05-30T19:07:08.000Z</time></trkpt>
        <trkpt lat="28.2268201" lon="105.8929611"><ele>974.85</ele><time>2026-05-30T19:07:16.000Z</time></trkpt>
        <trkpt lat="28.2268201" lon="105.8929611"><ele>974.85</ele><time>2026-05-30T19:14:26.000Z</time></trkpt>
        <trkpt lat="28.2279401" lon="105.8918968"><ele>973.72</ele><time>2026-05-30T19:14:29.000Z</time></trkpt>
        <trkpt lat="28.2279401" lon="105.8918968"><ele>973.72</ele><time>2026-05-30T19:14:43.000Z</time></trkpt>
        <trkpt lat="28.2279243" lon="105.8919074"><ele>975.85</ele><time>2026-05-30T19:14:50.000Z</time></trkpt>
        <trkpt lat="28.227956" lon="105.891931"><ele>979.71</ele><time>2026-05-30T19:15:34.000Z</time></trkpt>
        <trkpt lat="28.227956" lon="105.891931"><ele>979.71</ele><time>2026-05-30T19:16:12.000Z</time></trkpt>
        <trkpt lat="28.2288202" lon="105.8927594"><ele>980.2</ele><time>2026-05-30T19:16:33.000Z</time></trkpt>
        <trkpt lat="28.2288202" lon="105.8927594"><ele>980.2</ele><time>2026-05-30T19:20:21.000Z</time></trkpt>
        <trkpt lat="28.2287833" lon="105.8927922"><ele>977.36</ele><time>2026-05-30T19:20:26.000Z</time></trkpt>
        <trkpt lat="28.2287833" lon="105.8927922"><ele>977.36</ele><time>2026-05-30T19:20:52.000Z</time></trkpt>
        <trkpt lat="28.2287833" lon="105.8927922"><ele>977.36</ele><time>2026-05-30T19:20:55.000Z</time></trkpt>
        <trkpt lat="28.2287833" lon="105.8927922"><ele>977.36</ele><time>2026-05-30T19:21:12.000Z</time></trkpt>
        <trkpt lat="28.2288121" lon="105.8927716"><ele>977.75</ele><time>2026-05-30T19:21:17.000Z</time></trkpt>
        <trkpt lat="28.2288121" lon="105.8927716"><ele>977.75</ele><time>2026-05-30T19:21:21.000Z</time></trkpt>
        <trkpt lat="28.2288594" lon="105.8927704"><ele>976.46</ele><time>2026-05-30T19:21:31.000Z</time></trkpt>
        <trkpt lat="28.2288997" lon="105.8927229"><ele>974.71</ele><time>2026-05-30T19:21:41.000Z</time></trkpt>
        <trkpt lat="28.2289559" lon="105.8927005"><ele>973.4</ele><time>2026-05-30T19:21:47.000Z</time></trkpt>
        <trkpt lat="28.2290158" lon="105.8926848"><ele>971.66</ele><time>2026-05-30T19:21:53.000Z</time></trkpt>
        <trkpt lat="28.229035" lon="105.892659"><ele>969.7</ele><time>2026-05-30T19:21:59.000Z</time></trkpt>
        <trkpt lat="28.2290699" lon="105.8926463"><ele>970.09</ele><time>2026-05-30T19:22:09.000Z</time></trkpt>
        <trkpt lat="28.2291144" lon="105.8926466"><ele>969.72</ele><time>2026-05-30T19:22:17.000Z</time></trkpt>
        <trkpt lat="28.2291318" lon="105.892595"><ele>968.96</ele><time>2026-05-30T19:22:23.000Z</time></trkpt>
        <trkpt lat="28.2291324" lon="105.8925353"><ele>967.9</ele><time>2026-05-30T19:22:41.000Z</time></trkpt>
        <trkpt lat="28.2291399" lon="105.892468"><ele>966.56</ele><time>2026-05-30T19:22:47.000Z</time></trkpt>
        <trkpt lat="28.2291489" lon="105.8924047"><ele>966.51</ele><time>2026-05-30T19:22:51.000Z</time></trkpt>
        <trkpt lat="28.2291477" lon="105.8923443"><ele>965.12</ele><time>2026-05-30T19:22:59.000Z</time></trkpt>
        <trkpt lat="28.2291299" lon="105.8922906"><ele>963.4</ele><time>2026-05-30T19:23:07.000Z</time></trkpt>
        <trkpt lat="28.229139" lon="105.8922377"><ele>963.56</ele><time>2026-05-30T19:23:13.000Z</time></trkpt>
        <trkpt lat="28.2291485" lon="105.8921747"><ele>963.56</ele><time>2026-05-30T19:23:19.000Z</time></trkpt>
        <trkpt lat="28.2291312" lon="105.8921176"><ele>964.19</ele><time>2026-05-30T19:23:25.000Z</time></trkpt>
        <trkpt lat="28.2291137" lon="105.8920612"><ele>963.84</ele><time>2026-05-30T19:23:35.000Z</time></trkpt>
        <trkpt lat="28.2291391" lon="105.8920502"><ele>965.11</ele><time>2026-05-30T19:23:39.000Z</time></trkpt>
        <trkpt lat="28.2291837" lon="105.8920771"><ele>965.45</ele><time>2026-05-30T19:23:45.000Z</time></trkpt>
        <trkpt lat="28.2291961" lon="105.8920931"><ele>965.22</ele><time>2026-05-30T19:23:47.000Z</time></trkpt>
        <trkpt lat="28.2291961" lon="105.8920931"><ele>965.22</ele><time>2026-05-30T19:23:56.000Z</time></trkpt>
        <trkpt lat="28.2291682" lon="105.891986"><ele>965.22</ele><time>2026-05-30T19:23:59.000Z</time></trkpt>
        <trkpt lat="28.2291682" lon="105.891986"><ele>965.22</ele><time>2026-05-30T19:24:00.000Z</time></trkpt>
        <trkpt lat="28.2291682" lon="105.891986"><ele>965.22</ele><time>2026-05-30T19:24:08.000Z</time></trkpt>
        <trkpt lat="28.2291211" lon="105.8919317"><ele>964.18</ele><time>2026-05-30T19:24:17.000Z</time></trkpt>
        <trkpt lat="28.2291211" lon="105.8919317"><ele>964.18</ele><time>2026-05-30T19:24:24.000Z</time></trkpt>
        <trkpt lat="28.2291062" lon="105.8918765"><ele>963.98</ele><time>2026-05-30T19:24:34.000Z</time></trkpt>
        <trkpt lat="28.2290958" lon="105.8918169"><ele>966.53</ele><time>2026-05-30T19:24:40.000Z</time></trkpt>
        <trkpt lat="28.22911" lon="105.8917511"><ele>967.93</ele><time>2026-05-30T19:24:48.000Z</time></trkpt>
        <trkpt lat="28.2291023" lon="105.8916959"><ele>969.46</ele><time>2026-05-30T19:24:54.000Z</time></trkpt>
        <trkpt lat="28.229081" lon="105.891647"><ele>970.64</ele><time>2026-05-30T19:25:00.000Z</time></trkpt>
        <trkpt lat="28.2290863" lon="105.8915946"><ele>971.87</ele><time>2026-05-30T19:25:34.000Z</time></trkpt>
        <trkpt lat="28.2291176" lon="105.8915596"><ele>972.44</ele><time>2026-05-30T19:25:40.000Z</time></trkpt>
        <trkpt lat="28.2291442" lon="105.8915083"><ele>972.02</ele><time>2026-05-30T19:25:46.000Z</time></trkpt>
        <trkpt lat="28.229145" lon="105.8914432"><ele>971.05</ele><time>2026-05-30T19:25:52.000Z</time></trkpt>
        <trkpt lat="28.2291399" lon="105.8913752"><ele>970.21</ele><time>2026-05-30T19:25:58.000Z</time></trkpt>
        <trkpt lat="28.2291443" lon="105.8913066"><ele>968.1</ele><time>2026-05-30T19:26:04.000Z</time></trkpt>
        <trkpt lat="28.2291353" lon="105.8912468"><ele>966.96</ele><time>2026-05-30T19:26:10.000Z</time></trkpt>
        <trkpt lat="28.229124" lon="105.8911865"><ele>965.75</ele><time>2026-05-30T19:26:16.000Z</time></trkpt>
        <trkpt lat="28.2290995" lon="105.891136"><ele>963.54</ele><time>2026-05-30T19:26:20.000Z</time></trkpt>
        <trkpt lat="28.2290821" lon="105.8910753"><ele>961.99</ele><time>2026-05-30T19:26:24.000Z</time></trkpt>
        <trkpt lat="28.2290727" lon="105.8910161"><ele>962.47</ele><time>2026-05-30T19:26:28.000Z</time></trkpt>
        <trkpt lat="28.2290654" lon="105.8909544"><ele>963.22</ele><time>2026-05-30T19:26:34.000Z</time></trkpt>
        <trkpt lat="28.2290404" lon="105.8909056"><ele>964.27</ele><time>2026-05-30T19:26:40.000Z</time></trkpt>
        <trkpt lat="28.2290112" lon="105.890863"><ele>964.42</ele><time>2026-05-30T19:26:46.000Z</time></trkpt>
        <trkpt lat="28.2289885" lon="105.8908074"><ele>964.71</ele><time>2026-05-30T19:26:54.000Z</time></trkpt>
        <trkpt lat="28.228979" lon="105.8907689"><ele>965.4</ele><time>2026-05-30T19:26:58.000Z</time></trkpt>
        <trkpt lat="28.2289484" lon="105.8907422"><ele>966.43</ele><time>2026-05-30T19:27:10.000Z</time></trkpt>
        <trkpt lat="28.2289319" lon="105.8906898"><ele>967.43</ele><time>2026-05-30T19:27:16.000Z</time></trkpt>
        <trkpt lat="28.2289131" lon="105.8906346"><ele>967.77</ele><time>2026-05-30T19:27:22.000Z</time></trkpt>
        <trkpt lat="28.2288755" lon="105.8906034"><ele>968.58</ele><time>2026-05-30T19:27:28.000Z</time></trkpt>
        <trkpt lat="28.2288324" lon="105.8905689"><ele>969.06</ele><time>2026-05-30T19:27:34.000Z</time></trkpt>
        <trkpt lat="28.2288251" lon="105.8905512"><ele>968.4</ele><time>2026-05-30T19:27:36.000Z</time></trkpt>
        <trkpt lat="28.228837" lon="105.8904967"><ele>968.39</ele><time>2026-05-30T19:27:42.000Z</time></trkpt>
        <trkpt lat="28.228841" lon="105.8904739"><ele>968</ele><time>2026-05-30T19:27:48.000Z</time></trkpt>
        <trkpt lat="28.2288628" lon="105.8904208"><ele>967.49</ele><time>2026-05-30T19:27:56.000Z</time></trkpt>
        <trkpt lat="28.2288477" lon="105.8903754"><ele>968.11</ele><time>2026-05-30T19:28:06.000Z</time></trkpt>
        <trkpt lat="28.2288208" lon="105.8903248"><ele>968.33</ele><time>2026-05-30T19:28:12.000Z</time></trkpt>
        <trkpt lat="28.2287826" lon="105.8902904"><ele>969.14</ele><time>2026-05-30T19:28:16.000Z</time></trkpt>
        <trkpt lat="28.2287657" lon="105.8903067"><ele>968.65</ele><time>2026-05-30T19:28:20.000Z</time></trkpt>
        <trkpt lat="28.228801" lon="105.8903183"><ele>967.94</ele><time>2026-05-30T19:28:32.000Z</time></trkpt>
        <trkpt lat="28.2288503" lon="105.890324"><ele>967.22</ele><time>2026-05-30T19:28:38.000Z</time></trkpt>
        <trkpt lat="28.2289075" lon="105.890313"><ele>967.2</ele><time>2026-05-30T19:28:40.000Z</time></trkpt>
        <trkpt lat="28.2289533" lon="105.8903544"><ele>967.03</ele><time>2026-05-30T19:28:44.000Z</time></trkpt>
        <trkpt lat="28.228979" lon="105.8904152"><ele>967.94</ele><time>2026-05-30T19:28:48.000Z</time></trkpt>
        <trkpt lat="28.2289818" lon="105.8904344"><ele>969.49</ele><time>2026-05-30T19:28:50.000Z</time></trkpt>
        <trkpt lat="28.2289939" lon="105.8904814"><ele>970.34</ele><time>2026-05-30T19:28:58.000Z</time></trkpt>
        <trkpt lat="28.2290295" lon="105.8905261"><ele>971.62</ele><time>2026-05-30T19:29:06.000Z</time></trkpt>
        <trkpt lat="28.2290357" lon="105.890585"><ele>974.63</ele><time>2026-05-30T19:29:12.000Z</time></trkpt>
        <trkpt lat="28.2290408" lon="105.890654"><ele>976.77</ele><time>2026-05-30T19:29:18.000Z</time></trkpt>
        <trkpt lat="28.2290413" lon="105.8907162"><ele>977.24</ele><time>2026-05-30T19:29:22.000Z</time></trkpt>
        <trkpt lat="28.2290226" lon="105.8907592"><ele>977.22</ele><time>2026-05-30T19:29:26.000Z</time></trkpt>
        <trkpt lat="28.2290279" lon="105.8908097"><ele>976.07</ele><time>2026-05-30T19:29:32.000Z</time></trkpt>
        <trkpt lat="28.2290076" lon="105.8908589"><ele>975.8</ele><time>2026-05-30T19:29:44.000Z</time></trkpt>
        <trkpt lat="28.2290184" lon="105.8909079"><ele>974.98</ele><time>2026-05-30T19:29:48.000Z</time></trkpt>
        <trkpt lat="28.2290521" lon="105.8909474"><ele>974.56</ele><time>2026-05-30T19:29:54.000Z</time></trkpt>
        <trkpt lat="28.2292117" lon="105.8895747"><ele>970.97</ele><time>2026-05-30T19:33:52.000Z</time></trkpt>
        <trkpt lat="28.2292417" lon="105.889621"><ele>988.15</ele><time>2026-05-30T19:33:54.000Z</time></trkpt>
        <trkpt lat="28.2292695" lon="105.8897378"><ele>995.56</ele><time>2026-05-30T19:33:58.000Z</time></trkpt>
        <trkpt lat="28.2292905" lon="105.889823"><ele>991.05</ele><time>2026-05-30T19:34:02.000Z</time></trkpt>
        <trkpt lat="28.2293227" lon="105.8898686"><ele>989.22</ele><time>2026-05-30T19:34:16.000Z</time></trkpt>
        <trkpt lat="28.2293692" lon="105.8898693"><ele>980.99</ele><time>2026-05-30T19:34:26.000Z</time></trkpt>
        <trkpt lat="28.2294113" lon="105.8898826"><ele>973.59</ele><time>2026-05-30T19:34:30.000Z</time></trkpt>
        <trkpt lat="28.229454" lon="105.8898991"><ele>970.62</ele><time>2026-05-30T19:34:34.000Z</time></trkpt>
        <trkpt lat="28.2295026" lon="105.8898987"><ele>970.62</ele><time>2026-05-30T19:34:40.000Z</time></trkpt>
        <trkpt lat="28.2295308" lon="105.8899375"><ele>970.87</ele><time>2026-05-30T19:34:54.000Z</time></trkpt>
        <trkpt lat="28.2295742" lon="105.88996"><ele>971.11</ele><time>2026-05-30T19:35:00.000Z</time></trkpt>
        <trkpt lat="28.2296234" lon="105.8899569"><ele>972.51</ele><time>2026-05-30T19:35:04.000Z</time></trkpt>
        <trkpt lat="28.2296738" lon="105.8899607"><ele>973.59</ele><time>2026-05-30T19:35:10.000Z</time></trkpt>
        <trkpt lat="28.2297033" lon="105.889964"><ele>974.74</ele><time>2026-05-30T19:35:14.000Z</time></trkpt>
        <trkpt lat="28.2297103" lon="105.8899165"><ele>974.07</ele><time>2026-05-30T19:35:42.000Z</time></trkpt>
        <trkpt lat="28.2297052" lon="105.889941"><ele>973.84</ele><time>2026-05-30T19:35:50.000Z</time></trkpt>
        <trkpt lat="28.2296971" lon="105.8899497"><ele>973.3</ele><time>2026-05-30T19:35:52.000Z</time></trkpt>
        <trkpt lat="28.2297283" lon="105.8899583"><ele>972.98</ele><time>2026-05-30T19:36:30.000Z</time></trkpt>
        <trkpt lat="28.2297495" lon="105.8899071"><ele>972.33</ele><time>2026-05-30T19:36:34.000Z</time></trkpt>
        <trkpt lat="28.2297732" lon="105.8898901"><ele>971.68</ele><time>2026-05-30T19:36:40.000Z</time></trkpt>
        <trkpt lat="28.2298016" lon="105.8898524"><ele>972.51</ele><time>2026-05-30T19:36:46.000Z</time></trkpt>
        <trkpt lat="28.2298237" lon="105.8898599"><ele>973.22</ele><time>2026-05-30T19:36:50.000Z</time></trkpt>
        <trkpt lat="28.2298339" lon="105.8899092"><ele>973.26</ele><time>2026-05-30T19:36:54.000Z</time></trkpt>
        <trkpt lat="28.2298511" lon="105.8899767"><ele>973.61</ele><time>2026-05-30T19:37:04.000Z</time></trkpt>
        <trkpt lat="28.2298393" lon="105.8899543"><ele>973.69</ele><time>2026-05-30T19:37:16.000Z</time></trkpt>
        <trkpt lat="28.2298466" lon="105.8898997"><ele>973.59</ele><time>2026-05-30T19:37:20.000Z</time></trkpt>
        <trkpt lat="28.2298601" lon="105.8898922"><ele>973.48</ele><time>2026-05-30T19:37:22.000Z</time></trkpt>
        <trkpt lat="28.2298965" lon="105.8898752"><ele>972.64</ele><time>2026-05-30T19:37:28.000Z</time></trkpt>
        <trkpt lat="28.2299154" lon="105.889915"><ele>969.09</ele><time>2026-05-30T19:37:36.000Z</time></trkpt>
        <trkpt lat="28.2299207" lon="105.8899586"><ele>967.31</ele><time>2026-05-30T19:37:38.000Z</time></trkpt>
        <trkpt lat="28.2299263" lon="105.8900231"><ele>966.25</ele><time>2026-05-30T19:37:42.000Z</time></trkpt>
        <trkpt lat="28.2299441" lon="105.8900843"><ele>965.32</ele><time>2026-05-30T19:37:46.000Z</time></trkpt>
        <trkpt lat="28.2299649" lon="105.890105"><ele>965.41</ele><time>2026-05-30T19:37:52.000Z</time></trkpt>
        <trkpt lat="28.2299921" lon="105.8901391"><ele>965.64</ele><time>2026-05-30T19:38:24.000Z</time></trkpt>
        <trkpt lat="28.2299885" lon="105.8901891"><ele>966.66</ele><time>2026-05-30T19:38:36.000Z</time></trkpt>
        <trkpt lat="28.2300182" lon="105.8901822"><ele>965.41</ele><time>2026-05-30T19:38:42.000Z</time></trkpt>
        <trkpt lat="28.2300657" lon="105.890157"><ele>964.91</ele><time>2026-05-30T19:38:48.000Z</time></trkpt>
        <trkpt lat="28.2300645" lon="105.8901537"><ele>964.35</ele><time>2026-05-30T19:38:50.000Z</time></trkpt>
        <trkpt lat="28.2300974" lon="105.8901714"><ele>964.07</ele><time>2026-05-30T19:39:00.000Z</time></trkpt>
        <trkpt lat="28.2301255" lon="105.8902126"><ele>965.29</ele><time>2026-05-30T19:39:06.000Z</time></trkpt>
        <trkpt lat="28.230103" lon="105.8902085"><ele>965.61</ele><time>2026-05-30T19:39:20.000Z</time></trkpt>
        <trkpt lat="28.230093" lon="105.8901944"><ele>965.56</ele><time>2026-05-30T19:39:22.000Z</time></trkpt>
        <trkpt lat="28.2300829" lon="105.8901349"><ele>965.37</ele><time>2026-05-30T19:39:28.000Z</time></trkpt>
        <trkpt lat="28.2300893" lon="105.8901079"><ele>964.98</ele><time>2026-05-30T19:39:32.000Z</time></trkpt>
        <trkpt lat="28.2301309" lon="105.890116"><ele>964.28</ele><time>2026-05-30T19:39:46.000Z</time></trkpt>
        <trkpt lat="28.2301497" lon="105.8901218"><ele>964.63</ele><time>2026-05-30T19:39:48.000Z</time></trkpt>
        <trkpt lat="28.2301497" lon="105.8901218"><ele>964.63</ele><time>2026-05-30T19:39:58.000Z</time></trkpt>
        <trkpt lat="28.2302183" lon="105.8901452"><ele>964.3</ele><time>2026-05-30T19:40:05.000Z</time></trkpt>
        <trkpt lat="28.2302183" lon="105.8901452"><ele>964.3</ele><time>2026-05-30T19:40:06.000Z</time></trkpt>
        <trkpt lat="28.2302065" lon="105.8901713"><ele>961.95</ele><time>2026-05-30T19:40:09.000Z</time></trkpt>
        <trkpt lat="28.230224" lon="105.8902067"><ele>960.46</ele><time>2026-05-30T19:40:23.000Z</time></trkpt>
        <trkpt lat="28.2302652" lon="105.8902239"><ele>959.41</ele><time>2026-05-30T19:40:37.000Z</time></trkpt>
        <trkpt lat="28.2302926" lon="105.8901921"><ele>957.97</ele><time>2026-05-30T19:40:45.000Z</time></trkpt>
        <trkpt lat="28.230334" lon="105.8901802"><ele>958.37</ele><time>2026-05-30T19:41:09.000Z</time></trkpt>
        <trkpt lat="28.230394" lon="105.8901714"><ele>958.67</ele><time>2026-05-30T19:41:19.000Z</time></trkpt>
        <trkpt lat="28.2304437" lon="105.8901474"><ele>958.33</ele><time>2026-05-30T19:41:33.000Z</time></trkpt>
        <trkpt lat="28.2304875" lon="105.8901128"><ele>958.98</ele><time>2026-05-30T19:41:45.000Z</time></trkpt>
        <trkpt lat="28.2305315" lon="105.8900647"><ele>959.9</ele><time>2026-05-30T19:42:21.000Z</time></trkpt>
        <trkpt lat="28.2305492" lon="105.8900116"><ele>963.38</ele><time>2026-05-30T19:42:25.000Z</time></trkpt>
        <trkpt lat="28.2305567" lon="105.8899451"><ele>965.24</ele><time>2026-05-30T19:42:31.000Z</time></trkpt>
        <trkpt lat="28.2305663" lon="105.8898764"><ele>966.78</ele><time>2026-05-30T19:42:37.000Z</time></trkpt>
        <trkpt lat="28.2306051" lon="105.8898506"><ele>967.91</ele><time>2026-05-30T19:42:45.000Z</time></trkpt>
        <trkpt lat="28.2306609" lon="105.8898552"><ele>965.98</ele><time>2026-05-30T19:42:55.000Z</time></trkpt>
        <trkpt lat="28.2307084" lon="105.8898268"><ele>965.32</ele><time>2026-05-30T19:43:01.000Z</time></trkpt>
        <trkpt lat="28.2307302" lon="105.8897718"><ele>966.52</ele><time>2026-05-30T19:43:05.000Z</time></trkpt>
        <trkpt lat="28.230727" lon="105.8897581"><ele>968.74</ele><time>2026-05-30T19:43:07.000Z</time></trkpt>
        <trkpt lat="28.2307555" lon="105.8897404"><ele>970.13</ele><time>2026-05-30T19:43:19.000Z</time></trkpt>
        <trkpt lat="28.2308064" lon="105.8897533"><ele>972.97</ele><time>2026-05-30T19:43:33.000Z</time></trkpt>
        <trkpt lat="28.2308325" lon="105.8897957"><ele>969.66</ele><time>2026-05-30T19:43:37.000Z</time></trkpt>
        <trkpt lat="28.2308715" lon="105.8898409"><ele>964.31</ele><time>2026-05-30T19:43:41.000Z</time></trkpt>
        <trkpt lat="28.2308706" lon="105.8898599"><ele>959.8</ele><time>2026-05-30T19:43:45.000Z</time></trkpt>
        <trkpt lat="28.2308515" lon="105.8898287"><ele>958.06</ele><time>2026-05-30T19:43:49.000Z</time></trkpt>
        <trkpt lat="28.2308542" lon="105.8897739"><ele>957.25</ele><time>2026-05-30T19:43:55.000Z</time></trkpt>
        <trkpt lat="28.2308605" lon="105.889747"><ele>958.85</ele><time>2026-05-30T19:43:59.000Z</time></trkpt>
        <trkpt lat="28.2308756" lon="105.8896994"><ele>959.76</ele><time>2026-05-30T19:44:03.000Z</time></trkpt>
        <trkpt lat="28.2309139" lon="105.8896685"><ele>960.67</ele><time>2026-05-30T19:44:13.000Z</time></trkpt>
        <trkpt lat="28.2308899" lon="105.8896703"><ele>961.02</ele><time>2026-05-30T19:44:19.000Z</time></trkpt>
        <trkpt lat="28.2308899" lon="105.8896703"><ele>961.02</ele><time>2026-05-30T19:44:26.000Z</time></trkpt>
        <trkpt lat="28.2308468" lon="105.8896465"><ele>960.64</ele><time>2026-05-30T19:44:29.000Z</time></trkpt>
        <trkpt lat="28.2308468" lon="105.8896465"><ele>960.64</ele><time>2026-05-30T19:44:33.000Z</time></trkpt>
        <trkpt lat="28.2308468" lon="105.8896465"><ele>960.64</ele><time>2026-05-30T19:44:44.000Z</time></trkpt>
        <trkpt lat="28.2308468" lon="105.8896465"><ele>960.64</ele><time>2026-05-30T19:44:45.000Z</time></trkpt>
        <trkpt lat="28.2308468" lon="105.8896465"><ele>960.64</ele><time>2026-05-30T19:45:36.000Z</time></trkpt>
        <trkpt lat="28.2318934" lon="105.8891235"><ele>956.76</ele><time>2026-05-30T19:45:43.000Z</time></trkpt>
        <trkpt lat="28.2318934" lon="105.8891235"><ele>956.76</ele><time>2026-05-30T20:02:13.000Z</time></trkpt>
        <trkpt lat="28.2318944" lon="105.8891476"><ele>949.53</ele><time>2026-05-30T20:02:18.000Z</time></trkpt>
        <trkpt lat="28.2319617" lon="105.8901308"><ele>943.48</ele><time>2026-05-30T20:10:28.000Z</time></trkpt>
        <trkpt lat="28.231976" lon="105.8901105"><ele>950.97</ele><time>2026-05-30T20:10:53.000Z</time></trkpt>
        <trkpt lat="28.231976" lon="105.8901105"><ele>950.97</ele><time>2026-05-30T20:10:59.000Z</time></trkpt>
        <trkpt lat="28.231976" lon="105.8901105"><ele>950.97</ele><time>2026-05-30T20:14:13.000Z</time></trkpt>
        <trkpt lat="28.231976" lon="105.8901105"><ele>950.97</ele><time>2026-05-30T20:14:20.000Z</time></trkpt>
        <trkpt lat="28.2317544" lon="105.8901162"><ele>955.55</ele><time>2026-05-30T20:14:30.000Z</time></trkpt>
        <trkpt lat="28.2317544" lon="105.8901162"><ele>955.55</ele><time>2026-05-30T20:14:29.000Z</time></trkpt>
        <trkpt lat="28.2317956" lon="105.8900923"><ele>965.03</ele><time>2026-05-30T20:14:51.000Z</time></trkpt>
        <trkpt lat="28.2317956" lon="105.8900923"><ele>965.03</ele><time>2026-05-30T20:15:16.000Z</time></trkpt>
        <trkpt lat="28.2317036" lon="105.8904334"><ele>972.5</ele><time>2026-05-30T20:16:22.000Z</time></trkpt>
        <trkpt lat="28.2317036" lon="105.8904334"><ele>972.5</ele><time>2026-05-30T20:16:23.000Z</time></trkpt>
        <trkpt lat="28.2316412" lon="105.890493"><ele>958.01</ele><time>2026-05-30T20:16:29.000Z</time></trkpt>
        <trkpt lat="28.2315905" lon="105.8905261"><ele>950</ele><time>2026-05-30T20:16:37.000Z</time></trkpt>
        <trkpt lat="28.2315905" lon="105.8905261"><ele>950</ele><time>2026-05-30T20:16:54.000Z</time></trkpt>
        <trkpt lat="28.2315905" lon="105.8905261"><ele>950</ele><time>2026-05-30T20:20:23.000Z</time></trkpt>
        <trkpt lat="28.2315905" lon="105.8905261"><ele>950</ele><time>2026-05-30T20:20:55.000Z</time></trkpt>
        <trkpt lat="28.2311466" lon="105.8909694"><ele>947.01</ele><time>2026-05-30T20:22:32.000Z</time></trkpt>
        <trkpt lat="28.2311466" lon="105.8909694"><ele>947.01</ele><time>2026-05-30T20:22:39.000Z</time></trkpt>
        <trkpt lat="28.2311686" lon="105.8908754"><ele>979.4</ele><time>2026-05-30T20:22:45.000Z</time></trkpt>
        <trkpt lat="28.2311686" lon="105.8908754"><ele>979.4</ele><time>2026-05-30T20:23:06.000Z</time></trkpt>
        <trkpt lat="28.2312023" lon="105.8907827"><ele>995.4</ele><time>2026-05-30T20:23:30.000Z</time></trkpt>
        <trkpt lat="28.2312023" lon="105.8907827"><ele>995.4</ele><time>2026-05-30T20:23:31.000Z</time></trkpt>
        <trkpt lat="28.2312301" lon="105.890847"><ele>1000.53</ele><time>2026-05-30T20:24:17.000Z</time></trkpt>
        <trkpt lat="28.2312802" lon="105.890878"><ele>1002.28</ele><time>2026-05-30T20:24:23.000Z</time></trkpt>
        <trkpt lat="28.2312751" lon="105.8909221"><ele>1001.53</ele><time>2026-05-30T20:24:57.000Z</time></trkpt>
        <trkpt lat="28.2312843" lon="105.8909396"><ele>999.49</ele><time>2026-05-30T20:24:59.000Z</time></trkpt>
        <trkpt lat="28.2312868" lon="105.8909822"><ele>998.34</ele><time>2026-05-30T20:25:03.000Z</time></trkpt>
        <trkpt lat="28.2313088" lon="105.8909805"><ele>996.76</ele><time>2026-05-30T20:25:07.000Z</time></trkpt>
        <trkpt lat="28.2312749" lon="105.8909732"><ele>994.13</ele><time>2026-05-30T20:25:37.000Z</time></trkpt>
        <trkpt lat="28.2312551" lon="105.8909271"><ele>991.22</ele><time>2026-05-30T20:25:47.000Z</time></trkpt>
        <trkpt lat="28.2312484" lon="105.8908647"><ele>989.5</ele><time>2026-05-30T20:25:51.000Z</time></trkpt>
        <trkpt lat="28.2312474" lon="105.8908054"><ele>988.91</ele><time>2026-05-30T20:25:55.000Z</time></trkpt>
        <trkpt lat="28.2312715" lon="105.8907805"><ele>987.55</ele><time>2026-05-30T20:25:59.000Z</time></trkpt>
        <trkpt lat="28.2313219" lon="105.8908183"><ele>985.86</ele><time>2026-05-30T20:26:17.000Z</time></trkpt>
        <trkpt lat="28.2313674" lon="105.8908723"><ele>984.49</ele><time>2026-05-30T20:26:23.000Z</time></trkpt>
        <trkpt lat="28.2314255" lon="105.8909171"><ele>983.53</ele><time>2026-05-30T20:26:29.000Z</time></trkpt>
        <trkpt lat="28.2314255" lon="105.8909171"><ele>983.53</ele><time>2026-05-30T20:27:00.000Z</time></trkpt>
        <trkpt lat="28.23145" lon="105.8908823"><ele>982.58</ele><time>2026-05-30T20:27:04.000Z</time></trkpt>
        <trkpt lat="28.23145" lon="105.8908823"><ele>982.58</ele><time>2026-05-30T20:27:19.000Z</time></trkpt>
        <trkpt lat="28.2314545" lon="105.8908094"><ele>979.08</ele><time>2026-05-30T20:27:27.000Z</time></trkpt>
        <trkpt lat="28.2314921" lon="105.8908022"><ele>978.31</ele><time>2026-05-30T20:27:37.000Z</time></trkpt>
        <trkpt lat="28.2314958" lon="105.8908636"><ele>974.79</ele><time>2026-05-30T20:27:43.000Z</time></trkpt>
        <trkpt lat="28.2314868" lon="105.8909021"><ele>971.68</ele><time>2026-05-30T20:27:47.000Z</time></trkpt>
        <trkpt lat="28.2315133" lon="105.8909442"><ele>968.22</ele><time>2026-05-30T20:28:05.000Z</time></trkpt>
        <trkpt lat="28.2315615" lon="105.8909625"><ele>963.24</ele><time>2026-05-30T20:28:09.000Z</time></trkpt>
        <trkpt lat="28.2315429" lon="105.8909904"><ele>959.24</ele><time>2026-05-30T20:28:29.000Z</time></trkpt>
        <trkpt lat="28.2315712" lon="105.8909935"><ele>955.02</ele><time>2026-05-30T20:28:33.000Z</time></trkpt>
        <trkpt lat="28.2316242" lon="105.8910213"><ele>950.86</ele><time>2026-05-30T20:28:45.000Z</time></trkpt>
        <trkpt lat="28.2316478" lon="105.8910747"><ele>947.58</ele><time>2026-05-30T20:28:51.000Z</time></trkpt>
        <trkpt lat="28.2316863" lon="105.8911066"><ele>944.91</ele><time>2026-05-30T20:29:01.000Z</time></trkpt>
        <trkpt lat="28.231723" lon="105.891086"><ele>941.13</ele><time>2026-05-30T20:29:05.000Z</time></trkpt>
        <trkpt lat="28.2317691" lon="105.8910693"><ele>938.11</ele><time>2026-05-30T20:29:09.000Z</time></trkpt>
        <trkpt lat="28.2318357" lon="105.8910683"><ele>935.92</ele><time>2026-05-30T20:29:13.000Z</time></trkpt>
        <trkpt lat="28.231889" lon="105.8910877"><ele>934.08</ele><time>2026-05-30T20:29:17.000Z</time></trkpt>
        <trkpt lat="28.2319075" lon="105.891144"><ele>932.39</ele><time>2026-05-30T20:29:21.000Z</time></trkpt>
        <trkpt lat="28.2318924" lon="105.8912014"><ele>934.26</ele><time>2026-05-30T20:29:25.000Z</time></trkpt>
        <trkpt lat="28.2318512" lon="105.8912431"><ele>937.07</ele><time>2026-05-30T20:29:33.000Z</time></trkpt>
        <trkpt lat="28.231825" lon="105.8912393"><ele>938.71</ele><time>2026-05-30T20:29:39.000Z</time></trkpt>
        <trkpt lat="28.2318488" lon="105.8912824"><ele>941.51</ele><time>2026-05-30T20:29:45.000Z</time></trkpt>
        <trkpt lat="28.231894" lon="105.8913383"><ele>943.67</ele><time>2026-05-30T20:29:49.000Z</time></trkpt>
        <trkpt lat="28.2319406" lon="105.8913738"><ele>944.45</ele><time>2026-05-30T20:29:53.000Z</time></trkpt>
        <trkpt lat="28.2319678" lon="105.8914225"><ele>943.52</ele><time>2026-05-30T20:29:59.000Z</time></trkpt>
        <trkpt lat="28.231945" lon="105.891476"><ele>943.31</ele><time>2026-05-30T20:30:03.000Z</time></trkpt>
        <trkpt lat="28.2318935" lon="105.8915245"><ele>944.46</ele><time>2026-05-30T20:30:07.000Z</time></trkpt>
        <trkpt lat="28.2318572" lon="105.8915505"><ele>945.67</ele><time>2026-05-30T20:30:11.000Z</time></trkpt>
        <trkpt lat="28.2318572" lon="105.8915505"><ele>945.67</ele><time>2026-05-30T20:30:58.000Z</time></trkpt>
        <trkpt lat="28.2317529" lon="105.8915898"><ele>946.81</ele><time>2026-05-30T20:32:56.000Z</time></trkpt>
        <trkpt lat="28.2317529" lon="105.8915898"><ele>946.81</ele><time>2026-05-30T20:33:01.000Z</time></trkpt>
        <trkpt lat="28.2316953" lon="105.8915991"><ele>946.91</ele><time>2026-05-30T20:33:05.000Z</time></trkpt>
        <trkpt lat="28.2316582" lon="105.8916355"><ele>947.97</ele><time>2026-05-30T20:33:09.000Z</time></trkpt>
        <trkpt lat="28.2316496" lon="105.8916478"><ele>949.5</ele><time>2026-05-30T20:33:13.000Z</time></trkpt>
        <trkpt lat="28.2316883" lon="105.8916628"><ele>950.31</ele><time>2026-05-30T20:33:19.000Z</time></trkpt>
        <trkpt lat="28.2317299" lon="105.8916722"><ele>948.82</ele><time>2026-05-30T20:33:23.000Z</time></trkpt>
        <trkpt lat="28.2317257" lon="105.8916241"><ele>947.67</ele><time>2026-05-30T20:33:35.000Z</time></trkpt>
        <trkpt lat="28.2317095" lon="105.891579"><ele>944.35</ele><time>2026-05-30T20:33:43.000Z</time></trkpt>
        <trkpt lat="28.2316634" lon="105.8915742"><ele>939.88</ele><time>2026-05-30T20:33:49.000Z</time></trkpt>
        <trkpt lat="28.2316077" lon="105.8915787"><ele>937.08</ele><time>2026-05-30T20:33:51.000Z</time></trkpt>
        <trkpt lat="28.2315569" lon="105.8915838"><ele>937.37</ele><time>2026-05-30T20:33:53.000Z</time></trkpt>
        <trkpt lat="28.2314968" lon="105.8915964"><ele>937.38</ele><time>2026-05-30T20:33:59.000Z</time></trkpt>
        <trkpt lat="28.2314418" lon="105.8915866"><ele>937.79</ele><time>2026-05-30T20:34:03.000Z</time></trkpt>
        <trkpt lat="28.2314238" lon="105.8916015"><ele>938.2</ele><time>2026-05-30T20:34:09.000Z</time></trkpt>
        <trkpt lat="28.2313833" lon="105.8916128"><ele>938.12</ele><time>2026-05-30T20:34:17.000Z</time></trkpt>
        <trkpt lat="28.2313707" lon="105.891663"><ele>935.75</ele><time>2026-05-30T20:34:21.000Z</time></trkpt>
        <trkpt lat="28.2313811" lon="105.8917186"><ele>933.52</ele><time>2026-05-30T20:34:25.000Z</time></trkpt>
        <trkpt lat="28.2314146" lon="105.8917861"><ele>931.16</ele><time>2026-05-30T20:34:31.000Z</time></trkpt>
        <trkpt lat="28.2314582" lon="105.8918229"><ele>928.63</ele><time>2026-05-30T20:34:35.000Z</time></trkpt>
        <trkpt lat="28.2315036" lon="105.8918229"><ele>926.95</ele><time>2026-05-30T20:34:41.000Z</time></trkpt>
        <trkpt lat="28.2315681" lon="105.8918374"><ele>924.74</ele><time>2026-05-30T20:34:44.000Z</time></trkpt>
        <trkpt lat="28.2315681" lon="105.8918374"><ele>924.74</ele><time>2026-05-30T20:35:12.000Z</time></trkpt>
        <trkpt lat="28.2312793" lon="105.8925007"><ele>928.06</ele><time>2026-05-30T20:39:36.000Z</time></trkpt>
        <trkpt lat="28.2312793" lon="105.8925007"><ele>928.06</ele><time>2026-05-30T20:39:57.000Z</time></trkpt>
        <trkpt lat="28.2313179" lon="105.8925191"><ele>924.44</ele><time>2026-05-30T20:40:01.000Z</time></trkpt>
        <trkpt lat="28.2313679" lon="105.8925214"><ele>920.68</ele><time>2026-05-30T20:40:09.000Z</time></trkpt>
        <trkpt lat="28.2314104" lon="105.8925447"><ele>916.56</ele><time>2026-05-30T20:40:19.000Z</time></trkpt>
        <trkpt lat="28.2314345" lon="105.8925954"><ele>912.52</ele><time>2026-05-30T20:40:25.000Z</time></trkpt>
        <trkpt lat="28.2314377" lon="105.8926321"><ele>910.33</ele><time>2026-05-30T20:40:33.000Z</time></trkpt>
        <trkpt lat="28.231411" lon="105.8926695"><ele>907.11</ele><time>2026-05-30T20:41:05.000Z</time></trkpt>
        <trkpt lat="28.2313705" lon="105.8926892"><ele>904.1</ele><time>2026-05-30T20:41:17.000Z</time></trkpt>
        <trkpt lat="28.2313235" lon="105.8927053"><ele>902.7</ele><time>2026-05-30T20:41:25.000Z</time></trkpt>
        <trkpt lat="28.2313235" lon="105.8927053"><ele>902.7</ele><time>2026-05-30T20:42:10.000Z</time></trkpt>
        <trkpt lat="28.2313368" lon="105.8927486"><ele>901.27</ele><time>2026-05-30T20:42:14.000Z</time></trkpt>
        <trkpt lat="28.2313368" lon="105.8927486"><ele>901.27</ele><time>2026-05-30T20:42:33.000Z</time></trkpt>
        <trkpt lat="28.2313857" lon="105.8927455"><ele>898.79</ele><time>2026-05-30T20:42:45.000Z</time></trkpt>
        <trkpt lat="28.231411" lon="105.892792"><ele>897.41</ele><time>2026-05-30T20:42:55.000Z</time></trkpt>
        <trkpt lat="28.2314017" lon="105.8928143"><ele>898.93</ele><time>2026-05-30T20:42:59.000Z</time></trkpt>
        <trkpt lat="28.2314225" lon="105.8928446"><ele>900.62</ele><time>2026-05-30T20:43:09.000Z</time></trkpt>
        <trkpt lat="28.2314391" lon="105.8928955"><ele>899.82</ele><time>2026-05-30T20:43:19.000Z</time></trkpt>
        <trkpt lat="28.2314437" lon="105.892951"><ele>901</ele><time>2026-05-30T20:44:01.000Z</time></trkpt>
        <trkpt lat="28.2314368" lon="105.8930119"><ele>902.44</ele><time>2026-05-30T20:44:07.000Z</time></trkpt>
        <trkpt lat="28.2314147" lon="105.8930686"><ele>902.61</ele><time>2026-05-30T20:44:13.000Z</time></trkpt>
        <trkpt lat="28.2314066" lon="105.8931221"><ele>902.77</ele><time>2026-05-30T20:44:33.000Z</time></trkpt>
        <trkpt lat="28.2314203" lon="105.8931596"><ele>903.58</ele><time>2026-05-30T20:44:39.000Z</time></trkpt>
        <trkpt lat="28.2313914" lon="105.893176"><ele>905.77</ele><time>2026-05-30T20:44:55.000Z</time></trkpt>
        <trkpt lat="28.2313506" lon="105.8932073"><ele>908.96</ele><time>2026-05-30T20:44:59.000Z</time></trkpt>
        <trkpt lat="28.2313062" lon="105.8932317"><ele>910.12</ele><time>2026-05-30T20:45:11.000Z</time></trkpt>
        <trkpt lat="28.2312843" lon="105.8932498"><ele>911.33</ele><time>2026-05-30T20:45:13.000Z</time></trkpt>
        <trkpt lat="28.2312553" lon="105.8932796"><ele>911.52</ele><time>2026-05-30T20:45:17.000Z</time></trkpt>
        <trkpt lat="28.2312438" lon="105.8933138"><ele>910.84</ele><time>2026-05-30T20:45:23.000Z</time></trkpt>
        <trkpt lat="28.2312438" lon="105.8933138"><ele>910.84</ele><time>2026-05-30T20:46:54.000Z</time></trkpt>
        <trkpt lat="28.2312948" lon="105.89333"><ele>908.92</ele><time>2026-05-30T20:47:02.000Z</time></trkpt>
        <trkpt lat="28.2312948" lon="105.89333"><ele>908.92</ele><time>2026-05-30T20:47:27.000Z</time></trkpt>
        <trkpt lat="28.2312948" lon="105.89333"><ele>908.92</ele><time>2026-05-30T20:47:34.000Z</time></trkpt>
        <trkpt lat="28.2312945" lon="105.8934027"><ele>906.74</ele><time>2026-05-30T20:47:52.000Z</time></trkpt>
        <trkpt lat="28.2312945" lon="105.8934027"><ele>906.74</ele><time>2026-05-30T20:47:57.000Z</time></trkpt>
        <trkpt lat="28.2312953" lon="105.8934418"><ele>906.39</ele><time>2026-05-30T20:48:01.000Z</time></trkpt>
        <trkpt lat="28.2312605" lon="105.8934652"><ele>905.83</ele><time>2026-05-30T20:48:15.000Z</time></trkpt>
        <trkpt lat="28.2312006" lon="105.8934553"><ele>906.56</ele><time>2026-05-30T20:48:19.000Z</time></trkpt>
        <trkpt lat="28.2311454" lon="105.8934642"><ele>909.43</ele><time>2026-05-30T20:48:23.000Z</time></trkpt>
        <trkpt lat="28.2311041" lon="105.8934937"><ele>911.32</ele><time>2026-05-30T20:48:31.000Z</time></trkpt>
        <trkpt lat="28.2310402" lon="105.8935052"><ele>912.89</ele><time>2026-05-30T20:48:37.000Z</time></trkpt>
        <trkpt lat="28.2310059" lon="105.8934632"><ele>917.2</ele><time>2026-05-30T20:48:41.000Z</time></trkpt>
        <trkpt lat="28.2310144" lon="105.893404"><ele>921.36</ele><time>2026-05-30T20:48:49.000Z</time></trkpt>
        <trkpt lat="28.2310429" lon="105.8933519"><ele>925.29</ele><time>2026-05-30T20:49:01.000Z</time></trkpt>
        <trkpt lat="28.2310872" lon="105.8933229"><ele>931.32</ele><time>2026-05-30T20:49:31.000Z</time></trkpt>
        <trkpt lat="28.2311433" lon="105.8933093"><ele>933.86</ele><time>2026-05-30T20:49:37.000Z</time></trkpt>
        <trkpt lat="28.2312031" lon="105.8933006"><ele>934.21</ele><time>2026-05-30T20:49:41.000Z</time></trkpt>
        <trkpt lat="28.2312474" lon="105.8932618"><ele>933.81</ele><time>2026-05-30T20:49:47.000Z</time></trkpt>
        <trkpt lat="28.2312722" lon="105.8932147"><ele>935.02</ele><time>2026-05-30T20:49:49.000Z</time></trkpt>
        <trkpt lat="28.2313075" lon="105.8931829"><ele>936.12</ele><time>2026-05-30T20:49:51.000Z</time></trkpt>
        <trkpt lat="28.2313722" lon="105.8931311"><ele>936.82</ele><time>2026-05-30T20:49:55.000Z</time></trkpt>
        <trkpt lat="28.2314253" lon="105.8930784"><ele>937.42</ele><time>2026-05-30T20:49:59.000Z</time></trkpt>
        <trkpt lat="28.2314268" lon="105.8930787"><ele>938.7</ele><time>2026-05-30T20:50:01.000Z</time></trkpt>
        <trkpt lat="28.2313875" lon="105.8931136"><ele>939.36</ele><time>2026-05-30T20:50:17.000Z</time></trkpt>
        <trkpt lat="28.2313329" lon="105.8931656"><ele>936.54</ele><time>2026-05-30T20:50:19.000Z</time></trkpt>
        <trkpt lat="28.2312907" lon="105.8932228"><ele>934.21</ele><time>2026-05-30T20:50:21.000Z</time></trkpt>
        <trkpt lat="28.2312908" lon="105.893204"><ele>932.47</ele><time>2026-05-30T20:50:39.000Z</time></trkpt>
        <trkpt lat="28.2313287" lon="105.8932006"><ele>929.34</ele><time>2026-05-30T20:50:45.000Z</time></trkpt>
        <trkpt lat="28.2313852" lon="105.893171"><ele>927.84</ele><time>2026-05-30T20:50:49.000Z</time></trkpt>
        <trkpt lat="28.2314302" lon="105.8931307"><ele>926.57</ele><time>2026-05-30T20:50:57.000Z</time></trkpt>
        <trkpt lat="28.2314541" lon="105.8930739"><ele>925.05</ele><time>2026-05-30T20:51:03.000Z</time></trkpt>
        <trkpt lat="28.2314857" lon="105.8930304"><ele>922.25</ele><time>2026-05-30T20:51:15.000Z</time></trkpt>
        <trkpt lat="28.2314877" lon="105.8929768"><ele>919.72</ele><time>2026-05-30T20:51:19.000Z</time></trkpt>
        <trkpt lat="28.2314778" lon="105.892914"><ele>915.16</ele><time>2026-05-30T20:51:25.000Z</time></trkpt>
        <trkpt lat="28.2314447" lon="105.8928701"><ele>910.81</ele><time>2026-05-30T20:51:33.000Z</time></trkpt>
        <trkpt lat="28.2314151" lon="105.8928189"><ele>906.45</ele><time>2026-05-30T20:51:39.000Z</time></trkpt>
        <trkpt lat="28.2314146" lon="105.8927552"><ele>902.62</ele><time>2026-05-30T20:51:45.000Z</time></trkpt>
        <trkpt lat="28.2314097" lon="105.892689"><ele>901.53</ele><time>2026-05-30T20:51:51.000Z</time></trkpt>
        <trkpt lat="28.2313834" lon="105.8926276"><ele>901.09</ele><time>2026-05-30T20:51:55.000Z</time></trkpt>
        <trkpt lat="28.2313994" lon="105.8925841"><ele>901.12</ele><time>2026-05-30T20:51:59.000Z</time></trkpt>
        <trkpt lat="28.2314354" lon="105.8925535"><ele>902.03</ele><time>2026-05-30T20:52:03.000Z</time></trkpt>
        <trkpt lat="28.2314246" lon="105.892604"><ele>902.41</ele><time>2026-05-30T20:52:05.000Z</time></trkpt>
        <trkpt lat="28.2313636" lon="105.8926194"><ele>901.82</ele><time>2026-05-30T20:52:29.000Z</time></trkpt>
        <trkpt lat="28.2312998" lon="105.8926287"><ele>901.09</ele><time>2026-05-30T20:52:31.000Z</time></trkpt>
        <trkpt lat="28.2313081" lon="105.8925981"><ele>900.31</ele><time>2026-05-30T20:52:33.000Z</time></trkpt>
        <trkpt lat="28.231291" lon="105.8925487"><ele>900.17</ele><time>2026-05-30T20:52:37.000Z</time></trkpt>
        <trkpt lat="28.231311" lon="105.8925887"><ele>901.06</ele><time>2026-05-30T20:52:39.000Z</time></trkpt>
        <trkpt lat="28.231371" lon="105.8925315"><ele>899.24</ele><time>2026-05-30T20:52:41.000Z</time></trkpt>
        <trkpt lat="28.2314035" lon="105.8924733"><ele>898.31</ele><time>2026-05-30T20:52:45.000Z</time></trkpt>
        <trkpt lat="28.2314388" lon="105.8924259"><ele>897.85</ele><time>2026-05-30T20:52:51.000Z</time></trkpt>
        <trkpt lat="28.231423" lon="105.8924502"><ele>898.54</ele><time>2026-05-30T20:52:57.000Z</time></trkpt>
        <trkpt lat="28.2313574" lon="105.8924751"><ele>898.52</ele><time>2026-05-30T20:53:01.000Z</time></trkpt>
        <trkpt lat="28.2313267" lon="105.8924963"><ele>898.02</ele><time>2026-05-30T20:53:03.000Z</time></trkpt>
        <trkpt lat="28.2312863" lon="105.8924737"><ele>897.77</ele><time>2026-05-30T20:53:25.000Z</time></trkpt>
        <trkpt lat="28.2312398" lon="105.8924594"><ele>896.92</ele><time>2026-05-30T20:53:31.000Z</time></trkpt>
        <trkpt lat="28.2312007" lon="105.8924219"><ele>897.12</ele><time>2026-05-30T20:53:39.000Z</time></trkpt>
        <trkpt lat="28.2311579" lon="105.8923982"><ele>898.12</ele><time>2026-05-30T20:53:43.000Z</time></trkpt>
        <trkpt lat="28.2311151" lon="105.8923745"><ele>899.71</ele><time>2026-05-30T20:53:49.000Z</time></trkpt>
        <trkpt lat="28.2310992" lon="105.8923248"><ele>900.66</ele><time>2026-05-30T20:53:55.000Z</time></trkpt>
        <trkpt lat="28.2310848" lon="105.8922577"><ele>901.67</ele><time>2026-05-30T20:54:01.000Z</time></trkpt>
        <trkpt lat="28.2310753" lon="105.8921915"><ele>902.81</ele><time>2026-05-30T20:54:09.000Z</time></trkpt>
        <trkpt lat="28.2310365" lon="105.8921221"><ele>902.64</ele><time>2026-05-30T20:54:15.000Z</time></trkpt>
        <trkpt lat="28.230997" lon="105.8921059"><ele>902.23</ele><time>2026-05-30T20:54:19.000Z</time></trkpt>
        <trkpt lat="28.2310036" lon="105.892145"><ele>904.34</ele><time>2026-05-30T20:54:39.000Z</time></trkpt>
        <trkpt lat="28.2310047" lon="105.8921146"><ele>905.19</ele><time>2026-05-30T20:54:57.000Z</time></trkpt>
        <trkpt lat="28.2309735" lon="105.8920974"><ele>904.91</ele><time>2026-05-30T20:54:59.000Z</time></trkpt>
        <trkpt lat="28.2309325" lon="105.8921047"><ele>904.54</ele><time>2026-05-30T20:55:05.000Z</time></trkpt>
        <trkpt lat="28.2309064" lon="105.8920664"><ele>904.15</ele><time>2026-05-30T20:55:39.000Z</time></trkpt>
        <trkpt lat="28.2309268" lon="105.8920195"><ele>902.54</ele><time>2026-05-30T20:55:45.000Z</time></trkpt>
        <trkpt lat="28.23096" lon="105.8919656"><ele>902.44</ele><time>2026-05-30T20:55:53.000Z</time></trkpt>
        <trkpt lat="28.2309735" lon="105.8918951"><ele>901.94</ele><time>2026-05-30T20:55:59.000Z</time></trkpt>
        <trkpt lat="28.2310049" lon="105.8918358"><ele>902.15</ele><time>2026-05-30T20:56:05.000Z</time></trkpt>
        <trkpt lat="28.2310148" lon="105.8917741"><ele>903.24</ele><time>2026-05-30T20:56:13.000Z</time></trkpt>
        <trkpt lat="28.2309884" lon="105.8917196"><ele>904.49</ele><time>2026-05-30T20:56:17.000Z</time></trkpt>
        <trkpt lat="28.2310033" lon="105.8916553"><ele>904.45</ele><time>2026-05-30T20:56:21.000Z</time></trkpt>
        <trkpt lat="28.2310436" lon="105.8916085"><ele>903.33</ele><time>2026-05-30T20:56:27.000Z</time></trkpt>
        <trkpt lat="28.231088" lon="105.8915797"><ele>901.75</ele><time>2026-05-30T20:56:33.000Z</time></trkpt>
        <trkpt lat="28.2311367" lon="105.891577"><ele>899.95</ele><time>2026-05-30T20:56:39.000Z</time></trkpt>
        <trkpt lat="28.2311959" lon="105.8916008"><ele>898.56</ele><time>2026-05-30T20:56:45.000Z</time></trkpt>
        <trkpt lat="28.2312195" lon="105.8916117"><ele>898.69</ele><time>2026-05-30T20:56:49.000Z</time></trkpt>
        <trkpt lat="28.2312471" lon="105.8915817"><ele>897.94</ele><time>2026-05-30T20:56:59.000Z</time></trkpt>
        <trkpt lat="28.2312265" lon="105.8915339"><ele>898.17</ele><time>2026-05-30T20:57:03.000Z</time></trkpt>
        <trkpt lat="28.2311789" lon="105.8915236"><ele>898.69</ele><time>2026-05-30T20:57:05.000Z</time></trkpt>
        <trkpt lat="28.2311129" lon="105.8915352"><ele>899.66</ele><time>2026-05-30T20:57:09.000Z</time></trkpt>
        <trkpt lat="28.2310558" lon="105.8915694"><ele>900.78</ele><time>2026-05-30T20:57:13.000Z</time></trkpt>
        <trkpt lat="28.2310393" lon="105.891544"><ele>901.34</ele><time>2026-05-30T20:57:21.000Z</time></trkpt>
        <trkpt lat="28.2310393" lon="105.891544"><ele>901.34</ele><time>2026-05-30T20:58:20.000Z</time></trkpt>
        <trkpt lat="28.2311556" lon="105.8914978"><ele>902.53</ele><time>2026-05-30T21:10:24.000Z</time></trkpt>
        <trkpt lat="28.2311556" lon="105.8914978"><ele>902.53</ele><time>2026-05-30T21:10:23.000Z</time></trkpt>
        <trkpt lat="28.2311979" lon="105.8915001"><ele>915.8</ele><time>2026-05-30T21:10:31.000Z</time></trkpt>
        <trkpt lat="28.2312584" lon="105.8915002"><ele>922.62</ele><time>2026-05-30T21:10:35.000Z</time></trkpt>
        <trkpt lat="28.231325" lon="105.8915011"><ele>927.04</ele><time>2026-05-30T21:10:41.000Z</time></trkpt>
        <trkpt lat="28.2313902" lon="105.8915018"><ele>928.77</ele><time>2026-05-30T21:10:51.000Z</time></trkpt>
        <trkpt lat="28.2314533" lon="105.8914594"><ele>928.85</ele><time>2026-05-30T21:10:55.000Z</time></trkpt>
        <trkpt lat="28.2314748" lon="105.8914395"><ele>926.85</ele><time>2026-05-30T21:10:57.000Z</time></trkpt>
        <trkpt lat="28.2314299" lon="105.8914842"><ele>925.65</ele><time>2026-05-30T21:11:09.000Z</time></trkpt>
        <trkpt lat="28.231461" lon="105.8915957"><ele>924.15</ele><time>2026-05-30T21:11:13.000Z</time></trkpt>
        <trkpt lat="28.2314817" lon="105.8916323"><ele>922.18</ele><time>2026-05-30T21:11:15.000Z</time></trkpt>
        <trkpt lat="28.2315281" lon="105.8916482"><ele>921.49</ele><time>2026-05-30T21:11:27.000Z</time></trkpt>
        <trkpt lat="28.2315466" lon="105.8916318"><ele>921.24</ele><time>2026-05-30T21:11:33.000Z</time></trkpt>
        <trkpt lat="28.2315483" lon="105.8915816"><ele>922.52</ele><time>2026-05-30T21:11:35.000Z</time></trkpt>
        <trkpt lat="28.2315496" lon="105.8915161"><ele>924.63</ele><time>2026-05-30T21:11:39.000Z</time></trkpt>
        <trkpt lat="28.231509" lon="105.8914768"><ele>925.38</ele><time>2026-05-30T21:11:43.000Z</time></trkpt>
        <trkpt lat="28.2315162" lon="105.8914109"><ele>923.82</ele><time>2026-05-30T21:11:47.000Z</time></trkpt>
        <trkpt lat="28.2314803" lon="105.8914142"><ele>922.08</ele><time>2026-05-30T21:11:55.000Z</time></trkpt>
        <trkpt lat="28.2315087" lon="105.8914371"><ele>919.86</ele><time>2026-05-30T21:11:59.000Z</time></trkpt>
        <trkpt lat="28.2315714" lon="105.8914547"><ele>918.49</ele><time>2026-05-30T21:12:05.000Z</time></trkpt>
        <trkpt lat="28.2316354" lon="105.8914863"><ele>915.96</ele><time>2026-05-30T21:12:09.000Z</time></trkpt>
        <trkpt lat="28.231675" lon="105.8915364"><ele>915.4</ele><time>2026-05-30T21:12:13.000Z</time></trkpt>
        <trkpt lat="28.2317162" lon="105.8915737"><ele>917.45</ele><time>2026-05-30T21:12:17.000Z</time></trkpt>
        <trkpt lat="28.2317542" lon="105.8915611"><ele>920.35</ele><time>2026-05-30T21:12:27.000Z</time></trkpt>
        <trkpt lat="28.2317288" lon="105.8915681"><ele>921.53</ele><time>2026-05-30T21:12:33.000Z</time></trkpt>
        <trkpt lat="28.2317552" lon="105.8916032"><ele>924.79</ele><time>2026-05-30T21:12:39.000Z</time></trkpt>
        <trkpt lat="28.2317983" lon="105.8916122"><ele>925.92</ele><time>2026-05-30T21:12:43.000Z</time></trkpt>
        <trkpt lat="28.2318367" lon="105.8916007"><ele>927.78</ele><time>2026-05-30T21:12:49.000Z</time></trkpt>
        <trkpt lat="28.2318912" lon="105.8916041"><ele>928.88</ele><time>2026-05-30T21:12:59.000Z</time></trkpt>
        <trkpt lat="28.231916" lon="105.8916063"><ele>930.76</ele><time>2026-05-30T21:13:01.000Z</time></trkpt>
        <trkpt lat="28.2319538" lon="105.8916031"><ele>931.84</ele><time>2026-05-30T21:13:23.000Z</time></trkpt>
        <trkpt lat="28.2319538" lon="105.8916031"><ele>931.84</ele><time>2026-05-30T21:13:50.000Z</time></trkpt>
        <trkpt lat="28.2319641" lon="105.8915507"><ele>931.62</ele><time>2026-05-30T21:14:00.000Z</time></trkpt>
        <trkpt lat="28.2319641" lon="105.8915507"><ele>931.62</ele><time>2026-05-30T21:14:17.000Z</time></trkpt>
        <trkpt lat="28.2319682" lon="105.8914871"><ele>931.79</ele><time>2026-05-30T21:14:23.000Z</time></trkpt>
        <trkpt lat="28.2320148" lon="105.891478"><ele>933.38</ele><time>2026-05-30T21:14:29.000Z</time></trkpt>
        <trkpt lat="28.2320756" lon="105.8914768"><ele>933</ele><time>2026-05-30T21:14:33.000Z</time></trkpt>
        <trkpt lat="28.2320903" lon="105.8914342"><ele>931.72</ele><time>2026-05-30T21:14:59.000Z</time></trkpt>
        <trkpt lat="28.2321004" lon="105.8914153"><ele>930.66</ele><time>2026-05-30T21:15:03.000Z</time></trkpt>
        <trkpt lat="28.2320691" lon="105.8913746"><ele>929.16</ele><time>2026-05-30T21:15:25.000Z</time></trkpt>
        <trkpt lat="28.2320161" lon="105.8913404"><ele>931.3</ele><time>2026-05-30T21:15:29.000Z</time></trkpt>
        <trkpt lat="28.2319872" lon="105.8912949"><ele>933.49</ele><time>2026-05-30T21:15:33.000Z</time></trkpt>
        <trkpt lat="28.2319692" lon="105.8912418"><ele>935.03</ele><time>2026-05-30T21:15:39.000Z</time></trkpt>
        <trkpt lat="28.2319691" lon="105.8911818"><ele>935.36</ele><time>2026-05-30T21:15:47.000Z</time></trkpt>
        <trkpt lat="28.2319275" lon="105.8911444"><ele>935.15</ele><time>2026-05-30T21:15:55.000Z</time></trkpt>
        <trkpt lat="28.2318736" lon="105.8911078"><ele>935.07</ele><time>2026-05-30T21:15:59.000Z</time></trkpt>
        <trkpt lat="28.2318125" lon="105.891095"><ele>936.05</ele><time>2026-05-30T21:16:05.000Z</time></trkpt>
        <trkpt lat="28.2317832" lon="105.8910531"><ele>936.52</ele><time>2026-05-30T21:16:11.000Z</time></trkpt>
        <trkpt lat="28.2317978" lon="105.8910065"><ele>936.02</ele><time>2026-05-30T21:16:21.000Z</time></trkpt>
        <trkpt lat="28.2318162" lon="105.8909466"><ele>932.1</ele><time>2026-05-30T21:16:27.000Z</time></trkpt>
        <trkpt lat="28.23178" lon="105.8909068"><ele>928.43</ele><time>2026-05-30T21:16:33.000Z</time></trkpt>
        <trkpt lat="28.2317107" lon="105.8909117"><ele>929.5</ele><time>2026-05-30T21:16:37.000Z</time></trkpt>
        <trkpt lat="28.2316546" lon="105.8909011"><ele>932.03</ele><time>2026-05-30T21:16:41.000Z</time></trkpt>
        <trkpt lat="28.2315975" lon="105.8908959"><ele>934</ele><time>2026-05-30T21:16:47.000Z</time></trkpt>
        <trkpt lat="28.2315532" lon="105.8909156"><ele>935</ele><time>2026-05-30T21:16:53.000Z</time></trkpt>
        <trkpt lat="28.2315157" lon="105.8908907"><ele>934.18</ele><time>2026-05-30T21:17:05.000Z</time></trkpt>
        <trkpt lat="28.2314695" lon="105.890878"><ele>930.72</ele><time>2026-05-30T21:17:09.000Z</time></trkpt>
        <trkpt lat="28.2314568" lon="105.890814"><ele>928.79</ele><time>2026-05-30T21:17:19.000Z</time></trkpt>
        <trkpt lat="28.2314818" lon="105.8907584"><ele>925.48</ele><time>2026-05-30T21:17:25.000Z</time></trkpt>
        <trkpt lat="28.2315089" lon="105.8907053"><ele>923.9</ele><time>2026-05-30T21:17:35.000Z</time></trkpt>
        <trkpt lat="28.2314788" lon="105.8906846"><ele>922.98</ele><time>2026-05-30T21:17:45.000Z</time></trkpt>
        <trkpt lat="28.2314547" lon="105.8907031"><ele>923.18</ele><time>2026-05-30T21:18:01.000Z</time></trkpt>
        <trkpt lat="28.2314864" lon="105.8906984"><ele>927.08</ele><time>2026-05-30T21:18:07.000Z</time></trkpt>
        <trkpt lat="28.2315313" lon="105.890676"><ele>932.01</ele><time>2026-05-30T21:18:13.000Z</time></trkpt>
        <trkpt lat="28.2315117" lon="105.8906896"><ele>932.02</ele><time>2026-05-30T21:18:23.000Z</time></trkpt>
        <trkpt lat="28.2315223" lon="105.8907341"><ele>929.83</ele><time>2026-05-30T21:18:31.000Z</time></trkpt>
        <trkpt lat="28.2315458" lon="105.8907901"><ele>930.3</ele><time>2026-05-30T21:18:37.000Z</time></trkpt>
        <trkpt lat="28.2315801" lon="105.8908497"><ele>931.58</ele><time>2026-05-30T21:18:43.000Z</time></trkpt>
        <trkpt lat="28.2316309" lon="105.8908762"><ele>933.16</ele><time>2026-05-30T21:18:59.000Z</time></trkpt>
        <trkpt lat="28.2316824" lon="105.890875"><ele>934.59</ele><time>2026-05-30T21:19:03.000Z</time></trkpt>
        <trkpt lat="28.2317449" lon="105.8908698"><ele>935.36</ele><time>2026-05-30T21:19:09.000Z</time></trkpt>
        <trkpt lat="28.2317824" lon="105.8909058"><ele>935.03</ele><time>2026-05-30T21:19:13.000Z</time></trkpt>
        <trkpt lat="28.2318193" lon="105.8909639"><ele>936.21</ele><time>2026-05-30T21:19:21.000Z</time></trkpt>
        <trkpt lat="28.231893" lon="105.8909851"><ele>939.13</ele><time>2026-05-30T21:19:25.000Z</time></trkpt>
        <trkpt lat="28.2319558" lon="105.8909731"><ele>941.47</ele><time>2026-05-30T21:19:29.000Z</time></trkpt>
        <trkpt lat="28.2320225" lon="105.8909777"><ele>943.57</ele><time>2026-05-30T21:19:35.000Z</time></trkpt>
        <trkpt lat="28.2320736" lon="105.8909968"><ele>944.51</ele><time>2026-05-30T21:19:39.000Z</time></trkpt>
        <trkpt lat="28.2320931" lon="105.8910425"><ele>945.51</ele><time>2026-05-30T21:19:49.000Z</time></trkpt>
        <trkpt lat="28.2321388" lon="105.8910581"><ele>944.68</ele><time>2026-05-30T21:19:53.000Z</time></trkpt>
        <trkpt lat="28.232183" lon="105.8910891"><ele>943.7</ele><time>2026-05-30T21:19:59.000Z</time></trkpt>
        <trkpt lat="28.2321449" lon="105.8911554"><ele>940.42</ele><time>2026-05-30T21:20:03.000Z</time></trkpt>
        <trkpt lat="28.2321369" lon="105.8912267"><ele>938.47</ele><time>2026-05-30T21:20:09.000Z</time></trkpt>
        <trkpt lat="28.2321831" lon="105.8912489"><ele>939.18</ele><time>2026-05-30T21:20:13.000Z</time></trkpt>
        <trkpt lat="28.2322349" lon="105.8912174"><ele>938.68</ele><time>2026-05-30T21:20:15.000Z</time></trkpt>
        <trkpt lat="28.2322721" lon="105.8911699"><ele>936.07</ele><time>2026-05-30T21:20:49.000Z</time></trkpt>
        <trkpt lat="28.2322721" lon="105.8911699"><ele>936.07</ele><time>2026-05-30T21:20:50.000Z</time></trkpt>
        <trkpt lat="28.2323138" lon="105.8911729"><ele>933.78</ele><time>2026-05-30T21:20:52.000Z</time></trkpt>
        <trkpt lat="28.2323138" lon="105.8911729"><ele>933.78</ele><time>2026-05-30T21:20:55.000Z</time></trkpt>
        <trkpt lat="28.2323434" lon="105.8912106"><ele>932.5</ele><time>2026-05-30T21:20:59.000Z</time></trkpt>
        <trkpt lat="28.2323793" lon="105.891247"><ele>933.23</ele><time>2026-05-30T21:21:03.000Z</time></trkpt>
        <trkpt lat="28.2323493" lon="105.8912914"><ele>933.64</ele><time>2026-05-30T21:21:13.000Z</time></trkpt>
        <trkpt lat="28.232332" lon="105.8913528"><ele>935.45</ele><time>2026-05-30T21:21:19.000Z</time></trkpt>
        <trkpt lat="28.2323185" lon="105.891418"><ele>937.01</ele><time>2026-05-30T21:21:23.000Z</time></trkpt>
        <trkpt lat="28.2322852" lon="105.8914701"><ele>939.56</ele><time>2026-05-30T21:21:27.000Z</time></trkpt>
        <trkpt lat="28.2322463" lon="105.8915056"><ele>941.79</ele><time>2026-05-30T21:21:31.000Z</time></trkpt>
        <trkpt lat="28.2322303" lon="105.8915574"><ele>942.85</ele><time>2026-05-30T21:21:43.000Z</time></trkpt>
        <trkpt lat="28.2322381" lon="105.8916243"><ele>943.8</ele><time>2026-05-30T21:21:49.000Z</time></trkpt>
        <trkpt lat="28.2322138" lon="105.8916766"><ele>944.31</ele><time>2026-05-30T21:21:53.000Z</time></trkpt>
        <trkpt lat="28.2321593" lon="105.891686"><ele>944.59</ele><time>2026-05-30T21:21:57.000Z</time></trkpt>
        <trkpt lat="28.2321" lon="105.8916897"><ele>946.4</ele><time>2026-05-30T21:22:01.000Z</time></trkpt>
        <trkpt lat="28.2320525" lon="105.8917125"><ele>946.05</ele><time>2026-05-30T21:22:05.000Z</time></trkpt>
        <trkpt lat="28.2320121" lon="105.8917569"><ele>946.4</ele><time>2026-05-30T21:22:11.000Z</time></trkpt>
        <trkpt lat="28.2319707" lon="105.8918112"><ele>946.5</ele><time>2026-05-30T21:22:17.000Z</time></trkpt>
        <trkpt lat="28.2319501" lon="105.8918819"><ele>946.52</ele><time>2026-05-30T21:22:25.000Z</time></trkpt>
        <trkpt lat="28.2319181" lon="105.891931"><ele>945.61</ele><time>2026-05-30T21:22:29.000Z</time></trkpt>
        <trkpt lat="28.2318871" lon="105.8919718"><ele>945.23</ele><time>2026-05-30T21:22:35.000Z</time></trkpt>
        <trkpt lat="28.2318379" lon="105.8919992"><ele>945.86</ele><time>2026-05-30T21:22:41.000Z</time></trkpt>
        <trkpt lat="28.2317891" lon="105.8920286"><ele>946.85</ele><time>2026-05-30T21:22:45.000Z</time></trkpt>
        <trkpt lat="28.2317825" lon="105.8920726"><ele>948.25</ele><time>2026-05-30T21:22:49.000Z</time></trkpt>
        <trkpt lat="28.2317845" lon="105.892125"><ele>948.98</ele><time>2026-05-30T21:22:53.000Z</time></trkpt>
        <trkpt lat="28.2317768" lon="105.8921773"><ele>949.53</ele><time>2026-05-30T21:22:57.000Z</time></trkpt>
        <trkpt lat="28.2317446" lon="105.8922353"><ele>949.7</ele><time>2026-05-30T21:23:01.000Z</time></trkpt>
        <trkpt lat="28.2317105" lon="105.8922849"><ele>950.84</ele><time>2026-05-30T21:23:05.000Z</time></trkpt>
        <trkpt lat="28.2317197" lon="105.8923389"><ele>951.42</ele><time>2026-05-30T21:23:13.000Z</time></trkpt>
        <trkpt lat="28.2316982" lon="105.8923871"><ele>951.4</ele><time>2026-05-30T21:23:21.000Z</time></trkpt>
        <trkpt lat="28.2317235" lon="105.892425"><ele>952.36</ele><time>2026-05-30T21:23:47.000Z</time></trkpt>
        <trkpt lat="28.2317142" lon="105.892397"><ele>952.18</ele><time>2026-05-30T21:24:05.000Z</time></trkpt>
        <trkpt lat="28.2317314" lon="105.8924318"><ele>951.32</ele><time>2026-05-30T21:24:15.000Z</time></trkpt>
        <trkpt lat="28.2317616" lon="105.8924876"><ele>950.3</ele><time>2026-05-30T21:24:21.000Z</time></trkpt>
        <trkpt lat="28.231805" lon="105.8925129"><ele>950.63</ele><time>2026-05-30T21:24:25.000Z</time></trkpt>
        <trkpt lat="28.2318338" lon="105.8925635"><ele>949.85</ele><time>2026-05-30T21:24:31.000Z</time></trkpt>
        <trkpt lat="28.231827" lon="105.8926187"><ele>948.38</ele><time>2026-05-30T21:24:35.000Z</time></trkpt>
        <trkpt lat="28.2318353" lon="105.8926862"><ele>946.62</ele><time>2026-05-30T21:24:41.000Z</time></trkpt>
        <trkpt lat="28.2318303" lon="105.892751"><ele>945.64</ele><time>2026-05-30T21:24:49.000Z</time></trkpt>
        <trkpt lat="28.2318078" lon="105.8927684"><ele>944.79</ele><time>2026-05-30T21:24:55.000Z</time></trkpt>
        <trkpt lat="28.2318394" lon="105.8927904"><ele>941.52</ele><time>2026-05-30T21:25:55.000Z</time></trkpt>
        <trkpt lat="28.2318727" lon="105.8928487"><ele>938.81</ele><time>2026-05-30T21:26:01.000Z</time></trkpt>
        <trkpt lat="28.2318961" lon="105.8929111"><ele>938.13</ele><time>2026-05-30T21:26:07.000Z</time></trkpt>
        <trkpt lat="28.2319068" lon="105.8929072"><ele>938.37</ele><time>2026-05-30T21:26:17.000Z</time></trkpt>
        <trkpt lat="28.2318784" lon="105.8928811"><ele>934.61</ele><time>2026-05-30T21:26:51.000Z</time></trkpt>
        <trkpt lat="28.2318732" lon="105.8929061"><ele>930.85</ele><time>2026-05-30T21:27:05.000Z</time></trkpt>
        <trkpt lat="28.2319078" lon="105.8929353"><ele>930.13</ele><time>2026-05-30T21:27:09.000Z</time></trkpt>
        <trkpt lat="28.2319394" lon="105.8929854"><ele>931.76</ele><time>2026-05-30T21:27:17.000Z</time></trkpt>
        <trkpt lat="28.2319188" lon="105.8930153"><ele>935.94</ele><time>2026-05-30T21:27:21.000Z</time></trkpt>
        <trkpt lat="28.2318732" lon="105.8930013"><ele>939.27</ele><time>2026-05-30T21:27:27.000Z</time></trkpt>
        <trkpt lat="28.2318497" lon="105.8929986"><ele>941.7</ele><time>2026-05-30T21:27:43.000Z</time></trkpt>
        <trkpt lat="28.2318829" lon="105.8929685"><ele>942.86</ele><time>2026-05-30T21:27:49.000Z</time></trkpt>
        <trkpt lat="28.2319338" lon="105.8929373"><ele>943.24</ele><time>2026-05-30T21:27:55.000Z</time></trkpt>
        <trkpt lat="28.2319834" lon="105.8929434"><ele>941.79</ele><time>2026-05-30T21:28:03.000Z</time></trkpt>
        <trkpt lat="28.2320182" lon="105.8929849"><ele>941.76</ele><time>2026-05-30T21:28:15.000Z</time></trkpt>
        <trkpt lat="28.2320256" lon="105.8930462"><ele>941.37</ele><time>2026-05-30T21:28:21.000Z</time></trkpt>
        <trkpt lat="28.2320313" lon="105.8931048"><ele>940.68</ele><time>2026-05-30T21:28:27.000Z</time></trkpt>
        <trkpt lat="28.232045" lon="105.8931585"><ele>940.65</ele><time>2026-05-30T21:28:41.000Z</time></trkpt>
        <trkpt lat="28.2320171" lon="105.8932075"><ele>941.88</ele><time>2026-05-30T21:28:55.000Z</time></trkpt>
        <trkpt lat="28.2319714" lon="105.8931915"><ele>941.8</ele><time>2026-05-30T21:29:07.000Z</time></trkpt>
        <trkpt lat="28.2319402" lon="105.8931619"><ele>938.58</ele><time>2026-05-30T21:29:11.000Z</time></trkpt>
        <trkpt lat="28.2318924" lon="105.8931528"><ele>934.82</ele><time>2026-05-30T21:29:17.000Z</time></trkpt>
        <trkpt lat="28.2319001" lon="105.8931755"><ele>931.35</ele><time>2026-05-30T21:29:23.000Z</time></trkpt>
        <trkpt lat="28.2318804" lon="105.8932154"><ele>928.64</ele><time>2026-05-30T21:29:33.000Z</time></trkpt>
        <trkpt lat="28.2318758" lon="105.8932679"><ele>925.77</ele><time>2026-05-30T21:29:37.000Z</time></trkpt>
        <trkpt lat="28.2318885" lon="105.8933043"><ele>924.01</ele><time>2026-05-30T21:29:41.000Z</time></trkpt>
        <trkpt lat="28.2318535" lon="105.8933316"><ele>922.32</ele><time>2026-05-30T21:30:01.000Z</time></trkpt>
        <trkpt lat="28.2318406" lon="105.8933694"><ele>919.54</ele><time>2026-05-30T21:30:09.000Z</time></trkpt>
        <trkpt lat="28.2318735" lon="105.8933906"><ele>917.97</ele><time>2026-05-30T21:30:15.000Z</time></trkpt>
        <trkpt lat="28.2319361" lon="105.8933836"><ele>917.87</ele><time>2026-05-30T21:30:21.000Z</time></trkpt>
        <trkpt lat="28.2319809" lon="105.8934106"><ele>916.89</ele><time>2026-05-30T21:30:37.000Z</time></trkpt>
        <trkpt lat="28.232041" lon="105.8934315"><ele>915.12</ele><time>2026-05-30T21:30:43.000Z</time></trkpt>
        <trkpt lat="28.2320975" lon="105.8934272"><ele>914.18</ele><time>2026-05-30T21:30:59.000Z</time></trkpt>
        <trkpt lat="28.2321292" lon="105.8934364"><ele>912.24</ele><time>2026-05-30T21:31:05.000Z</time></trkpt>
        <trkpt lat="28.2321834" lon="105.8934581"><ele>910.95</ele><time>2026-05-30T21:31:17.000Z</time></trkpt>
        <trkpt lat="28.2322203" lon="105.893501"><ele>908.94</ele><time>2026-05-30T21:31:23.000Z</time></trkpt>
        <trkpt lat="28.2322187" lon="105.8934888"><ele>906.57</ele><time>2026-05-30T21:31:39.000Z</time></trkpt>
        <trkpt lat="28.2322294" lon="105.8934323"><ele>902.98</ele><time>2026-05-30T21:32:15.000Z</time></trkpt>
        <trkpt lat="28.23224" lon="105.8933716"><ele>901.66</ele><time>2026-05-30T21:32:23.000Z</time></trkpt>
        <trkpt lat="28.2322607" lon="105.8933119"><ele>900.68</ele><time>2026-05-30T21:32:27.000Z</time></trkpt>
        <trkpt lat="28.2322826" lon="105.8932573"><ele>900.32</ele><time>2026-05-30T21:32:31.000Z</time></trkpt>
        <trkpt lat="28.23228" lon="105.8932005"><ele>900.48</ele><time>2026-05-30T21:32:37.000Z</time></trkpt>
        <trkpt lat="28.2323093" lon="105.8931567"><ele>898.84</ele><time>2026-05-30T21:33:07.000Z</time></trkpt>
        <trkpt lat="28.2323514" lon="105.8931245"><ele>898.41</ele><time>2026-05-30T21:33:13.000Z</time></trkpt>
        <trkpt lat="28.2324048" lon="105.8931295"><ele>898.61</ele><time>2026-05-30T21:33:19.000Z</time></trkpt>
        <trkpt lat="28.2324048" lon="105.8931295"><ele>898.61</ele><time>2026-05-30T21:33:58.000Z</time></trkpt>
        <trkpt lat="28.2323903" lon="105.8931556"><ele>896.69</ele><time>2026-05-30T21:34:00.000Z</time></trkpt>
        <trkpt lat="28.2323903" lon="105.8931556"><ele>896.69</ele><time>2026-05-30T21:34:05.000Z</time></trkpt>
        <trkpt lat="28.2323944" lon="105.8932157"><ele>897.66</ele><time>2026-05-30T21:34:39.000Z</time></trkpt>
        <trkpt lat="28.2323792" lon="105.8932409"><ele>899.21</ele><time>2026-05-30T21:34:43.000Z</time></trkpt>
        <trkpt lat="28.2323403" lon="105.8932587"><ele>899.32</ele><time>2026-05-30T21:34:47.000Z</time></trkpt>
        <trkpt lat="28.2323403" lon="105.8932587"><ele>899.32</ele><time>2026-05-30T21:35:20.000Z</time></trkpt>
        <trkpt lat="28.2340614" lon="105.8928148"><ele>905.72</ele><time>2026-05-30T21:45:09.000Z</time></trkpt>
      </trkseg>
      <trkseg>
        <trkpt lat="28.2356016" lon="105.8911275"><ele>927.14</ele><time>2026-05-30T21:51:18.000Z</time></trkpt>
        <trkpt lat="28.2356021" lon="105.8910868"><ele>927.14</ele><time>2026-05-30T21:51:46.000Z</time></trkpt>
        <trkpt lat="28.2355604" lon="105.8910344"><ele>926.21</ele><time>2026-05-30T21:51:52.000Z</time></trkpt>
        <trkpt lat="28.2354853" lon="105.8909887"><ele>923.14</ele><time>2026-05-30T21:51:58.000Z</time></trkpt>
        <trkpt lat="28.2354329" lon="105.8909229"><ele>919.2</ele><time>2026-05-30T21:52:04.000Z</time></trkpt>
        <trkpt lat="28.2354088" lon="105.8908639"><ele>914.45</ele><time>2026-05-30T21:52:08.000Z</time></trkpt>
        <trkpt lat="28.2354065" lon="105.8908021"><ele>908.91</ele><time>2026-05-30T21:52:18.000Z</time></trkpt>
        <trkpt lat="28.2354426" lon="105.8907936"><ele>903.25</ele><time>2026-05-30T21:52:26.000Z</time></trkpt>
        <trkpt lat="28.2354492" lon="105.8907898"><ele>898.42</ele><time>2026-05-30T21:52:28.000Z</time></trkpt>
        <trkpt lat="28.2354528" lon="105.8907507"><ele>895.73</ele><time>2026-05-30T21:52:32.000Z</time></trkpt>
        <trkpt lat="28.2354492" lon="105.8906951"><ele>893.85</ele><time>2026-05-30T21:52:40.000Z</time></trkpt>
        <trkpt lat="28.2354263" lon="105.8906462"><ele>890.19</ele><time>2026-05-30T21:52:46.000Z</time></trkpt>
        <trkpt lat="28.2354176" lon="105.8905886"><ele>887.35</ele><time>2026-05-30T21:53:00.000Z</time></trkpt>
        <trkpt lat="28.2354012" lon="105.8905184"><ele>886.07</ele><time>2026-05-30T21:53:16.000Z</time></trkpt>
        <trkpt lat="28.2353592" lon="105.8904724"><ele>883.16</ele><time>2026-05-30T21:53:22.000Z</time></trkpt>
        <trkpt lat="28.2353035" lon="105.8904405"><ele>879.93</ele><time>2026-05-30T21:53:28.000Z</time></trkpt>
        <trkpt lat="28.2352515" lon="105.8904174"><ele>877.79</ele><time>2026-05-30T21:53:34.000Z</time></trkpt>
        <trkpt lat="28.2352138" lon="105.8904459"><ele>877.17</ele><time>2026-05-30T21:53:44.000Z</time></trkpt>
        <trkpt lat="28.235172" lon="105.8904514"><ele>877.97</ele><time>2026-05-30T21:53:54.000Z</time></trkpt>
        <trkpt lat="28.235172" lon="105.8904514"><ele>877.97</ele><time>2026-05-30T21:53:55.000Z</time></trkpt>
      </trkseg>
      <trkseg>
        <trkpt lat="28.2351323" lon="105.8904345"><ele>876.79</ele><time>2026-05-30T21:53:57.000Z</time></trkpt>
        <trkpt lat="28.2351323" lon="105.8904345"><ele>876.79</ele><time>2026-05-30T21:54:06.000Z</time></trkpt>
        <trkpt lat="28.2351024" lon="105.8903812"><ele>875.21</ele><time>2026-05-30T21:54:12.000Z</time></trkpt>
        <trkpt lat="28.2351144" lon="105.8903261"><ele>872.88</ele><time>2026-05-30T21:54:16.000Z</time></trkpt>
        <trkpt lat="28.235128" lon="105.8902638"><ele>870.93</ele><time>2026-05-30T21:54:20.000Z</time></trkpt>
        <trkpt lat="28.2351104" lon="105.8902134"><ele>869.4</ele><time>2026-05-30T21:54:24.000Z</time></trkpt>
        <trkpt lat="28.2350681" lon="105.8901736"><ele>868.15</ele><time>2026-05-30T21:54:30.000Z</time></trkpt>
        <trkpt lat="28.2350205" lon="105.8901525"><ele>867.24</ele><time>2026-05-30T21:54:34.000Z</time></trkpt>
        <trkpt lat="28.2350057" lon="105.8901077"><ele>868.64</ele><time>2026-05-30T21:54:40.000Z</time></trkpt>
        <trkpt lat="28.2350098" lon="105.8900555"><ele>868.42</ele><time>2026-05-30T21:54:50.000Z</time></trkpt>
        <trkpt lat="28.2350423" lon="105.889996"><ele>868.64</ele><time>2026-05-30T21:54:58.000Z</time></trkpt>
        <trkpt lat="28.2350408" lon="105.8899436"><ele>870.31</ele><time>2026-05-30T21:55:04.000Z</time></trkpt>
        <trkpt lat="28.234998" lon="105.8899217"><ele>872.46</ele><time>2026-05-30T21:55:08.000Z</time></trkpt>
        <trkpt lat="28.2349503" lon="105.8898977"><ele>875.57</ele><time>2026-05-30T21:55:16.000Z</time></trkpt>
        <trkpt lat="28.2348913" lon="105.8899006"><ele>876.73</ele><time>2026-05-30T21:55:32.000Z</time></trkpt>
        <trkpt lat="28.234868" lon="105.8898497"><ele>875.89</ele><time>2026-05-30T21:55:50.000Z</time></trkpt>
        <trkpt lat="28.2348505" lon="105.8897864"><ele>877.27</ele><time>2026-05-30T21:55:56.000Z</time></trkpt>
        <trkpt lat="28.2348245" lon="105.8897255"><ele>877.92</ele><time>2026-05-30T21:56:02.000Z</time></trkpt>
        <trkpt lat="28.234809" lon="105.8896649"><ele>878.57</ele><time>2026-05-30T21:56:08.000Z</time></trkpt>
        <trkpt lat="28.2348196" lon="105.8895949"><ele>877.14</ele><time>2026-05-30T21:56:14.000Z</time></trkpt>
        <trkpt lat="28.234794" lon="105.8895517"><ele>874.86</ele><time>2026-05-30T21:56:18.000Z</time></trkpt>
        <trkpt lat="28.2347624" lon="105.8895013"><ele>874.64</ele><time>2026-05-30T21:56:22.000Z</time></trkpt>
        <trkpt lat="28.2347726" lon="105.8894443"><ele>874.58</ele><time>2026-05-30T21:56:26.000Z</time></trkpt>
        <trkpt lat="28.2347991" lon="105.8893674"><ele>875.09</ele><time>2026-05-30T21:56:30.000Z</time></trkpt>
        <trkpt lat="28.2348224" lon="105.8893051"><ele>876.66</ele><time>2026-05-30T21:56:34.000Z</time></trkpt>
        <trkpt lat="28.2348575" lon="105.8892675"><ele>877.45</ele><time>2026-05-30T21:56:40.000Z</time></trkpt>
        <trkpt lat="28.2348889" lon="105.8892199"><ele>877.23</ele><time>2026-05-30T21:56:48.000Z</time></trkpt>
        <trkpt lat="28.2349278" lon="105.8891762"><ele>878.06</ele><time>2026-05-30T21:56:56.000Z</time></trkpt>
        <trkpt lat="28.2349818" lon="105.8891516"><ele>875.17</ele><time>2026-05-30T21:57:00.000Z</time></trkpt>
        <trkpt lat="28.2350405" lon="105.889126"><ele>873.69</ele><time>2026-05-30T21:57:06.000Z</time></trkpt>
        <trkpt lat="28.2350642" lon="105.8890666"><ele>871.94</ele><time>2026-05-30T21:57:12.000Z</time></trkpt>
        <trkpt lat="28.2350721" lon="105.88901"><ele>871.57</ele><time>2026-05-30T21:57:16.000Z</time></trkpt>
        <trkpt lat="28.2351025" lon="105.8889632"><ele>872.48</ele><time>2026-05-30T21:57:22.000Z</time></trkpt>
        <trkpt lat="28.2351494" lon="105.8889455"><ele>870</ele><time>2026-05-30T21:57:26.000Z</time></trkpt>
        <trkpt lat="28.2352002" lon="105.8889491"><ele>868.65</ele><time>2026-05-30T21:57:34.000Z</time></trkpt>
        <trkpt lat="28.235196" lon="105.8889044"><ele>868.78</ele><time>2026-05-30T21:57:42.000Z</time></trkpt>
        <trkpt lat="28.235196" lon="105.8889044"><ele>868.78</ele><time>2026-05-30T21:58:19.000Z</time></trkpt>
        <trkpt lat="28.235487" lon="105.8888726"><ele>870.81</ele><time>2026-05-30T21:58:20.000Z</time></trkpt>
        <trkpt lat="28.235487" lon="105.8888726"><ele>870.81</ele><time>2026-05-30T21:58:39.000Z</time></trkpt>
        <trkpt lat="28.2356005" lon="105.8889105"><ele>879.1</ele><time>2026-05-30T21:58:51.000Z</time></trkpt>
        <trkpt lat="28.2356239" lon="105.8889335"><ele>888.38</ele><time>2026-05-30T21:58:53.000Z</time></trkpt>
        <trkpt lat="28.2356239" lon="105.8889335"><ele>888.38</ele><time>2026-05-30T21:59:33.000Z</time></trkpt>
        <trkpt lat="28.2356239" lon="105.8889335"><ele>888.38</ele><time>2026-05-30T21:59:38.000Z</time></trkpt>
        <trkpt lat="28.2356239" lon="105.8889335"><ele>888.38</ele><time>2026-05-30T21:59:59.000Z</time></trkpt>
        <trkpt lat="28.2355955" lon="105.8890018"><ele>892.59</ele><time>2026-05-30T22:00:04.000Z</time></trkpt>
        <trkpt lat="28.2355955" lon="105.8890018"><ele>892.59</ele><time>2026-05-30T22:00:44.000Z</time></trkpt>
        <trkpt lat="28.2355955" lon="105.8890018"><ele>892.59</ele><time>2026-05-30T22:02:03.000Z</time></trkpt>
        <trkpt lat="28.2355955" lon="105.8890018"><ele>892.59</ele><time>2026-05-30T22:02:48.000Z</time></trkpt>
        <trkpt lat="28.2355955" lon="105.8890018"><ele>892.59</ele><time>2026-05-30T22:02:59.000Z</time></trkpt>
        <trkpt lat="28.2359661" lon="105.8888376"><ele>893.12</ele><time>2026-05-30T22:03:02.000Z</time></trkpt>
        <trkpt lat="28.2359661" lon="105.8888376"><ele>893.12</ele><time>2026-05-30T22:03:17.000Z</time></trkpt>
        <trkpt lat="28.2359668" lon="105.8888986"><ele>877.37</ele><time>2026-05-30T22:03:20.000Z</time></trkpt>
        <trkpt lat="28.2360125" lon="105.8889523"><ele>876.33</ele><time>2026-05-30T22:03:26.000Z</time></trkpt>
        <trkpt lat="28.2360569" lon="105.8890021"><ele>885.54</ele><time>2026-05-30T22:03:32.000Z</time></trkpt>
        <trkpt lat="28.2360425" lon="105.8889794"><ele>897.01</ele><time>2026-05-30T22:03:54.000Z</time></trkpt>
        <trkpt lat="28.2360425" lon="105.8889794"><ele>897.01</ele><time>2026-05-30T22:03:57.000Z</time></trkpt>
        <trkpt lat="28.2360425" lon="105.8889794"><ele>897.01</ele><time>2026-05-30T22:04:00.000Z</time></trkpt>
        <trkpt lat="28.2360425" lon="105.8889794"><ele>897.01</ele><time>2026-05-30T22:04:09.000Z</time></trkpt>
        <trkpt lat="28.2360425" lon="105.8889794"><ele>897.01</ele><time>2026-05-30T22:04:40.000Z</time></trkpt>
        <trkpt lat="28.2360425" lon="105.8889794"><ele>897.01</ele><time>2026-05-30T22:05:01.000Z</time></trkpt>
        <trkpt lat="28.2360401" lon="105.889008"><ele>895.8</ele><time>2026-05-30T22:05:16.000Z</time></trkpt>
        <trkpt lat="28.2360401" lon="105.889008"><ele>895.8</ele><time>2026-05-30T22:05:23.000Z</time></trkpt>
        <trkpt lat="28.2360401" lon="105.889008"><ele>895.8</ele><time>2026-05-30T22:05:29.000Z</time></trkpt>
        <trkpt lat="28.2360401" lon="105.889008"><ele>895.8</ele><time>2026-05-30T22:05:54.000Z</time></trkpt>
        <trkpt lat="28.2360401" lon="105.889008"><ele>895.8</ele><time>2026-05-30T22:06:31.000Z</time></trkpt>
        <trkpt lat="28.2360596" lon="105.8890584"><ele>906.6</ele><time>2026-05-30T22:06:46.000Z</time></trkpt>
        <trkpt lat="28.2360596" lon="105.8890584"><ele>906.6</ele><time>2026-05-30T22:06:53.000Z</time></trkpt>
        <trkpt lat="28.2360071" lon="105.8890781"><ele>917.21</ele><time>2026-05-30T22:07:03.000Z</time></trkpt>
        <trkpt lat="28.2359652" lon="105.8891028"><ele>922.7</ele><time>2026-05-30T22:07:25.000Z</time></trkpt>
        <trkpt lat="28.2359118" lon="105.8891402"><ele>922.52</ele><time>2026-05-30T22:07:47.000Z</time></trkpt>
        <trkpt lat="28.2358665" lon="105.8891863"><ele>922.45</ele><time>2026-05-30T22:07:53.000Z</time></trkpt>
        <trkpt lat="28.2358665" lon="105.8891863"><ele>922.45</ele><time>2026-05-30T22:08:15.000Z</time></trkpt>
        <trkpt lat="28.2358665" lon="105.8891863"><ele>922.45</ele><time>2026-05-30T22:08:22.000Z</time></trkpt>
        <trkpt lat="28.2358665" lon="105.8891863"><ele>922.45</ele><time>2026-05-30T22:08:39.000Z</time></trkpt>
        <trkpt lat="28.2359439" lon="105.8892254"><ele>923.1</ele><time>2026-05-30T22:08:42.000Z</time></trkpt>
        <trkpt lat="28.2359439" lon="105.8892254"><ele>923.1</ele><time>2026-05-30T22:09:04.000Z</time></trkpt>
        <trkpt lat="28.2359439" lon="105.8892254"><ele>923.1</ele><time>2026-05-30T22:09:17.000Z</time></trkpt>
        <trkpt lat="28.2359941" lon="105.8892013"><ele>931.22</ele><time>2026-05-30T22:09:22.000Z</time></trkpt>
        <trkpt lat="28.2359941" lon="105.8892013"><ele>931.22</ele><time>2026-05-30T22:09:24.000Z</time></trkpt>
        <trkpt lat="28.2360281" lon="105.8891573"><ele>938.19</ele><time>2026-05-30T22:09:30.000Z</time></trkpt>
        <trkpt lat="28.2360281" lon="105.8891573"><ele>938.19</ele><time>2026-05-30T22:09:37.000Z</time></trkpt>
        <trkpt lat="28.236043" lon="105.8890493"><ele>942.19</ele><time>2026-05-30T22:09:42.000Z</time></trkpt>
        <trkpt lat="28.236043" lon="105.8890493"><ele>942.19</ele><time>2026-05-30T22:09:50.000Z</time></trkpt>
        <trkpt lat="28.2360187" lon="105.8889938"><ele>948.04</ele><time>2026-05-30T22:10:00.000Z</time></trkpt>
        <trkpt lat="28.2359949" lon="105.8889397"><ele>951.72</ele><time>2026-05-30T22:10:06.000Z</time></trkpt>
        <trkpt lat="28.2359949" lon="105.8889397"><ele>951.72</ele><time>2026-05-30T22:10:13.000Z</time></trkpt>
        <trkpt lat="28.2360182" lon="105.8888992"><ele>954.03</ele><time>2026-05-30T22:10:18.000Z</time></trkpt>
        <trkpt lat="28.2360182" lon="105.8888992"><ele>954.03</ele><time>2026-05-30T22:10:41.000Z</time></trkpt>
        <trkpt lat="28.2360724" lon="105.888869"><ele>957.38</ele><time>2026-05-30T22:10:45.000Z</time></trkpt>
        <trkpt lat="28.2361333" lon="105.8888566"><ele>957.64</ele><time>2026-05-30T22:10:49.000Z</time></trkpt>
        <trkpt lat="28.2362426" lon="105.8886121"><ele>958.24</ele><time>2026-05-30T22:10:57.000Z</time></trkpt>
        <trkpt lat="28.2362296" lon="105.8885323"><ele>953.68</ele><time>2026-05-30T22:10:59.000Z</time></trkpt>
        <trkpt lat="28.2361805" lon="105.8885097"><ele>947.22</ele><time>2026-05-30T22:11:01.000Z</time></trkpt>
        <trkpt lat="28.236145" lon="105.8884685"><ele>940.24</ele><time>2026-05-30T22:11:33.000Z</time></trkpt>
        <trkpt lat="28.2361738" lon="105.8884469"><ele>929.11</ele><time>2026-05-30T22:11:39.000Z</time></trkpt>
        <trkpt lat="28.2361804" lon="105.8884576"><ele>921.22</ele><time>2026-05-30T22:11:41.000Z</time></trkpt>
        <trkpt lat="28.2361985" lon="105.888424"><ele>916.01</ele><time>2026-05-30T22:11:49.000Z</time></trkpt>
        <trkpt lat="28.2362008" lon="105.8884095"><ele>912.94</ele><time>2026-05-30T22:11:51.000Z</time></trkpt>
        <trkpt lat="28.2361097" lon="105.8883554"><ele>911</ele><time>2026-05-30T22:11:57.000Z</time></trkpt>
        <trkpt lat="28.2360573" lon="105.8883857"><ele>908.69</ele><time>2026-05-30T22:12:01.000Z</time></trkpt>
        <trkpt lat="28.2360927" lon="105.8884111"><ele>906.08</ele><time>2026-05-30T22:12:05.000Z</time></trkpt>
        <trkpt lat="28.2360648" lon="105.8884813"><ele>903.6</ele><time>2026-05-30T22:12:09.000Z</time></trkpt>
        <trkpt lat="28.2360045" lon="105.8885042"><ele>897.3</ele><time>2026-05-30T22:12:11.000Z</time></trkpt>
        <trkpt lat="28.2359314" lon="105.8885117"><ele>892.94</ele><time>2026-05-30T22:12:13.000Z</time></trkpt>
        <trkpt lat="28.2359314" lon="105.8885117"><ele>892.94</ele><time>2026-05-30T22:12:31.000Z</time></trkpt>
        <trkpt lat="28.2359199" lon="105.8886122"><ele>888.53</ele><time>2026-05-30T22:12:38.000Z</time></trkpt>
        <trkpt lat="28.2359199" lon="105.8886122"><ele>888.53</ele><time>2026-05-30T22:13:02.000Z</time></trkpt>
        <trkpt lat="28.2359843" lon="105.8891214"><ele>871.49</ele><time>2026-05-30T22:13:10.000Z</time></trkpt>
        <trkpt lat="28.2360275" lon="105.8892942"><ele>850.12</ele><time>2026-05-30T22:13:12.000Z</time></trkpt>
        <trkpt lat="28.2360704" lon="105.8893528"><ele>838.7</ele><time>2026-05-30T22:13:26.000Z</time></trkpt>
        <trkpt lat="28.2361062" lon="105.8893075"><ele>832.88</ele><time>2026-05-30T22:13:28.000Z</time></trkpt>
        <trkpt lat="28.2361447" lon="105.889246"><ele>833.33</ele><time>2026-05-30T22:13:34.000Z</time></trkpt>
        <trkpt lat="28.2361977" lon="105.8892019"><ele>835.94</ele><time>2026-05-30T22:13:52.000Z</time></trkpt>
        <trkpt lat="28.2365834" lon="105.8905906"><ele>841.1</ele><time>2026-05-30T22:15:58.000Z</time></trkpt>
        <trkpt lat="28.2365727" lon="105.8904048"><ele>858.04</ele><time>2026-05-30T22:16:01.000Z</time></trkpt>
        <trkpt lat="28.2365196" lon="105.8903398"><ele>869.48</ele><time>2026-05-30T22:16:07.000Z</time></trkpt>
        <trkpt lat="28.2364701" lon="105.8903476"><ele>873.86</ele><time>2026-05-30T22:16:13.000Z</time></trkpt>
        <trkpt lat="28.2364173" lon="105.8903778"><ele>879.31</ele><time>2026-05-30T22:16:43.000Z</time></trkpt>
        <trkpt lat="28.2363592" lon="105.890403"><ele>882.58</ele><time>2026-05-30T22:16:49.000Z</time></trkpt>
        <trkpt lat="28.2363197" lon="105.8904417"><ele>885.82</ele><time>2026-05-30T22:17:11.000Z</time></trkpt>
        <trkpt lat="28.2362789" lon="105.8904943"><ele>888.72</ele><time>2026-05-30T22:17:15.000Z</time></trkpt>
        <trkpt lat="28.2362569" lon="105.8905624"><ele>890.25</ele><time>2026-05-30T22:17:19.000Z</time></trkpt>
        <trkpt lat="28.2362279" lon="105.8906116"><ele>891.07</ele><time>2026-05-30T22:17:25.000Z</time></trkpt>
        <trkpt lat="28.2362279" lon="105.8906116"><ele>891.07</ele><time>2026-05-30T22:18:27.000Z</time></trkpt>
        <trkpt lat="28.2362279" lon="105.8906116"><ele>891.07</ele><time>2026-05-30T22:18:48.000Z</time></trkpt>
        <trkpt lat="28.2362279" lon="105.8906116"><ele>891.07</ele><time>2026-05-30T22:20:07.000Z</time></trkpt>
        <trkpt lat="28.2362578" lon="105.8905646"><ele>891.53</ele><time>2026-05-30T22:20:12.000Z</time></trkpt>
        <trkpt lat="28.2362578" lon="105.8905646"><ele>891.53</ele><time>2026-05-30T22:20:52.000Z</time></trkpt>
        <trkpt lat="28.236288" lon="105.8905172"><ele>890.37</ele><time>2026-05-30T22:20:58.000Z</time></trkpt>
        <trkpt lat="28.236288" lon="105.8905172"><ele>890.37</ele><time>2026-05-30T22:21:15.000Z</time></trkpt>
        <trkpt lat="28.236288" lon="105.8905172"><ele>890.37</ele><time>2026-05-30T22:21:18.000Z</time></trkpt>
        <trkpt lat="28.236288" lon="105.8905172"><ele>890.37</ele><time>2026-05-30T22:22:53.000Z</time></trkpt>
        <trkpt lat="28.236288" lon="105.8905172"><ele>890.37</ele><time>2026-05-30T22:23:06.000Z</time></trkpt>
        <trkpt lat="28.236288" lon="105.8905172"><ele>890.37</ele><time>2026-05-30T22:23:17.000Z</time></trkpt>
        <trkpt lat="28.236288" lon="105.8905172"><ele>890.37</ele><time>2026-05-30T22:23:26.000Z</time></trkpt>
        <trkpt lat="28.236288" lon="105.8905172"><ele>890.37</ele><time>2026-05-30T22:23:39.000Z</time></trkpt>
        <trkpt lat="28.236288" lon="105.8905172"><ele>890.37</ele><time>2026-05-30T22:23:40.000Z</time></trkpt>
        <trkpt lat="28.236288" lon="105.8905172"><ele>890.37</ele><time>2026-05-30T22:23:51.000Z</time></trkpt>
        <trkpt lat="28.236288" lon="105.8905172"><ele>890.37</ele><time>2026-05-30T22:24:30.000Z</time></trkpt>
        <trkpt lat="28.236288" lon="105.8905172"><ele>890.37</ele><time>2026-05-30T22:25:37.000Z</time></trkpt>
        <trkpt lat="28.236288" lon="105.8905172"><ele>890.37</ele><time>2026-05-30T22:25:42.000Z</time></trkpt>
        <trkpt lat="28.236288" lon="105.8905172"><ele>890.37</ele><time>2026-05-30T22:27:11.000Z</time></trkpt>
        <trkpt lat="28.236288" lon="105.8905172"><ele>890.37</ele><time>2026-05-30T22:27:14.000Z</time></trkpt>
        <trkpt lat="28.236288" lon="105.8905172"><ele>890.37</ele><time>2026-05-30T22:27:33.000Z</time></trkpt>
        <trkpt lat="28.236288" lon="105.8905172"><ele>890.37</ele><time>2026-05-30T22:28:14.000Z</time></trkpt>
        <trkpt lat="28.236288" lon="105.8905172"><ele>890.37</ele><time>2026-05-30T22:28:49.000Z</time></trkpt>
        <trkpt lat="28.236316" lon="105.8905591"><ele>887.94</ele><time>2026-05-30T22:29:14.000Z</time></trkpt>
        <trkpt lat="28.236316" lon="105.8905591"><ele>887.94</ele><time>2026-05-30T22:29:23.000Z</time></trkpt>
        <trkpt lat="28.236316" lon="105.8905591"><ele>887.94</ele><time>2026-05-30T22:31:25.000Z</time></trkpt>
        <trkpt lat="28.2363505" lon="105.8904758"><ele>885.79</ele><time>2026-05-30T22:32:48.000Z</time></trkpt>
        <trkpt lat="28.2363505" lon="105.8904758"><ele>885.79</ele><time>2026-05-30T22:32:53.000Z</time></trkpt>
        <trkpt lat="28.2363003" lon="105.8904483"><ele>873.03</ele><time>2026-05-30T22:32:56.000Z</time></trkpt>
        <trkpt lat="28.2363003" lon="105.8904483"><ele>873.03</ele><time>2026-05-30T22:33:11.000Z</time></trkpt>
        <trkpt lat="28.2366615" lon="105.8911105"><ele>858.76</ele><time>2026-05-30T22:34:16.000Z</time></trkpt>
        <trkpt lat="28.2366615" lon="105.8911105"><ele>858.76</ele><time>2026-05-30T22:34:20.000Z</time></trkpt>
        <trkpt lat="28.2366138" lon="105.8910711"><ele>884.09</ele><time>2026-05-30T22:34:25.000Z</time></trkpt>
        <trkpt lat="28.2366138" lon="105.8910711"><ele>884.09</ele><time>2026-05-30T22:34:33.000Z</time></trkpt>
        <trkpt lat="28.2365718" lon="105.8910435"><ele>901.4</ele><time>2026-05-30T22:34:48.000Z</time></trkpt>
        <trkpt lat="28.2365718" lon="105.8910435"><ele>901.4</ele><time>2026-05-30T22:34:51.000Z</time></trkpt>
        <trkpt lat="28.2365253" lon="105.8910093"><ele>908.27</ele><time>2026-05-30T22:34:54.000Z</time></trkpt>
        <trkpt lat="28.2365067" lon="105.8910126"><ele>907.91</ele><time>2026-05-30T22:35:08.000Z</time></trkpt>
        <trkpt lat="28.2364892" lon="105.890981"><ele>907.61</ele><time>2026-05-30T22:35:34.000Z</time></trkpt>
        <trkpt lat="28.2364264" lon="105.8908692"><ele>902.97</ele><time>2026-05-30T22:35:50.000Z</time></trkpt>
        <trkpt lat="28.2363753" lon="105.8907998"><ele>896.59</ele><time>2026-05-30T22:35:52.000Z</time></trkpt>
        <trkpt lat="28.2363603" lon="105.8907915"><ele>892.39</ele><time>2026-05-30T22:35:56.000Z</time></trkpt>
        <trkpt lat="28.2363425" lon="105.8907585"><ele>888.88</ele><time>2026-05-30T22:36:04.000Z</time></trkpt>
        <trkpt lat="28.2363273" lon="105.8907139"><ele>882.3</ele><time>2026-05-30T22:36:18.000Z</time></trkpt>
        <trkpt lat="28.2363273" lon="105.8907139"><ele>882.3</ele><time>2026-05-30T22:36:27.000Z</time></trkpt>
        <trkpt lat="28.2363273" lon="105.8907139"><ele>882.3</ele><time>2026-05-30T22:36:54.000Z</time></trkpt>
        <trkpt lat="28.2363273" lon="105.8907139"><ele>882.3</ele><time>2026-05-30T22:37:05.000Z</time></trkpt>
        <trkpt lat="28.2363273" lon="105.8907139"><ele>882.3</ele><time>2026-05-30T22:37:12.000Z</time></trkpt>
        <trkpt lat="28.2363273" lon="105.8907139"><ele>882.3</ele><time>2026-05-30T22:37:31.000Z</time></trkpt>
        <trkpt lat="28.2363273" lon="105.8907139"><ele>882.3</ele><time>2026-05-30T22:37:46.000Z</time></trkpt>
        <trkpt lat="28.2363273" lon="105.8907139"><ele>882.3</ele><time>2026-05-30T22:39:13.000Z</time></trkpt>
        <trkpt lat="28.2363273" lon="105.8907139"><ele>882.3</ele><time>2026-05-30T22:39:14.000Z</time></trkpt>
        <trkpt lat="28.2363273" lon="105.8907139"><ele>882.3</ele><time>2026-05-30T22:40:01.000Z</time></trkpt>
        <trkpt lat="28.2363273" lon="105.8907139"><ele>882.3</ele><time>2026-05-30T22:40:06.000Z</time></trkpt>
        <trkpt lat="28.2363273" lon="105.8907139"><ele>882.3</ele><time>2026-05-30T22:40:27.000Z</time></trkpt>
        <trkpt lat="28.2363273" lon="105.8907139"><ele>882.3</ele><time>2026-05-30T22:40:44.000Z</time></trkpt>
        <trkpt lat="28.2363273" lon="105.8907139"><ele>882.3</ele><time>2026-05-30T22:40:55.000Z</time></trkpt>
        <trkpt lat="28.2363273" lon="105.8907139"><ele>882.3</ele><time>2026-05-30T22:41:04.000Z</time></trkpt>
        <trkpt lat="28.2363273" lon="105.8907139"><ele>882.3</ele><time>2026-05-30T22:41:23.000Z</time></trkpt>
        <trkpt lat="28.2363273" lon="105.8907139"><ele>882.3</ele><time>2026-05-30T22:41:44.000Z</time></trkpt>
        <trkpt lat="28.2363273" lon="105.8907139"><ele>882.3</ele><time>2026-05-30T22:41:55.000Z</time></trkpt>
        <trkpt lat="28.2363273" lon="105.8907139"><ele>882.3</ele><time>2026-05-30T22:42:06.000Z</time></trkpt>
        <trkpt lat="28.2363273" lon="105.8907139"><ele>882.3</ele><time>2026-05-30T22:42:43.000Z</time></trkpt>
        <trkpt lat="28.2362966" lon="105.8907447"><ele>876.39</ele><time>2026-05-30T22:43:00.000Z</time></trkpt>
        <trkpt lat="28.2362966" lon="105.8907447"><ele>876.39</ele><time>2026-05-30T22:43:10.000Z</time></trkpt>
        <trkpt lat="28.2362966" lon="105.8907447"><ele>876.39</ele><time>2026-05-30T22:43:35.000Z</time></trkpt>
        <trkpt lat="28.2362966" lon="105.8907447"><ele>876.39</ele><time>2026-05-30T22:43:46.000Z</time></trkpt>
        <trkpt lat="28.2362966" lon="105.8907447"><ele>876.39</ele><time>2026-05-30T22:43:55.000Z</time></trkpt>
        <trkpt lat="28.2362966" lon="105.8907447"><ele>876.39</ele><time>2026-05-30T22:43:56.000Z</time></trkpt>
        <trkpt lat="28.2362966" lon="105.8907447"><ele>876.39</ele><time>2026-05-30T22:44:33.000Z</time></trkpt>
        <trkpt lat="28.2362911" lon="105.8907751"><ele>871.05</ele><time>2026-05-30T22:44:38.000Z</time></trkpt>
        <trkpt lat="28.2362911" lon="105.8907751"><ele>871.05</ele><time>2026-05-30T22:44:48.000Z</time></trkpt>
        <trkpt lat="28.2362911" lon="105.8907751"><ele>871.05</ele><time>2026-05-30T22:44:55.000Z</time></trkpt>
        <trkpt lat="28.2362911" lon="105.8907751"><ele>871.05</ele><time>2026-05-30T22:45:00.000Z</time></trkpt>
        <trkpt lat="28.2362911" lon="105.8907751"><ele>871.05</ele><time>2026-05-30T22:45:09.000Z</time></trkpt>
        <trkpt lat="28.2362911" lon="105.8907751"><ele>871.05</ele><time>2026-05-30T22:45:20.000Z</time></trkpt>
        <trkpt lat="28.2362911" lon="105.8907751"><ele>871.05</ele><time>2026-05-30T22:45:31.000Z</time></trkpt>
        <trkpt lat="28.2362911" lon="105.8907751"><ele>871.05</ele><time>2026-05-30T22:45:42.000Z</time></trkpt>
        <trkpt lat="28.2362911" lon="105.8907751"><ele>871.05</ele><time>2026-05-30T22:45:51.000Z</time></trkpt>
        <trkpt lat="28.2362911" lon="105.8907751"><ele>871.05</ele><time>2026-05-30T22:45:58.000Z</time></trkpt>
        <trkpt lat="28.2362911" lon="105.8907751"><ele>871.05</ele><time>2026-05-30T22:46:21.000Z</time></trkpt>
        <trkpt lat="28.2362911" lon="105.8907751"><ele>871.05</ele><time>2026-05-30T22:46:28.000Z</time></trkpt>
        <trkpt lat="28.2362911" lon="105.8907751"><ele>871.05</ele><time>2026-05-30T22:46:45.000Z</time></trkpt>
        <trkpt lat="28.2362911" lon="105.8907751"><ele>871.05</ele><time>2026-05-30T22:46:50.000Z</time></trkpt>
        <trkpt lat="28.2362911" lon="105.8907751"><ele>871.05</ele><time>2026-05-30T22:47:01.000Z</time></trkpt>
        <trkpt lat="28.2362911" lon="105.8907751"><ele>871.05</ele><time>2026-05-30T22:47:04.000Z</time></trkpt>
        <trkpt lat="28.2362911" lon="105.8907751"><ele>871.05</ele><time>2026-05-30T22:49:45.000Z</time></trkpt>
        <trkpt lat="28.2363079" lon="105.8908417"><ele>867.85</ele><time>2026-05-30T22:49:50.000Z</time></trkpt>
        <trkpt lat="28.2363079" lon="105.8908417"><ele>867.85</ele><time>2026-05-30T22:50:06.000Z</time></trkpt>
        <trkpt lat="28.2363079" lon="105.8908417"><ele>867.85</ele><time>2026-05-30T22:50:31.000Z</time></trkpt>
        <trkpt lat="28.2363079" lon="105.8908417"><ele>867.85</ele><time>2026-05-30T22:50:34.000Z</time></trkpt>
        <trkpt lat="28.2363079" lon="105.8908417"><ele>867.85</ele><time>2026-05-30T22:50:45.000Z</time></trkpt>
        <trkpt lat="28.2363519" lon="105.8908582"><ele>861.22</ele><time>2026-05-30T22:50:50.000Z</time></trkpt>
        <trkpt lat="28.2363519" lon="105.8908582"><ele>861.22</ele><time>2026-05-30T22:50:54.000Z</time></trkpt>
        <trkpt lat="28.2363519" lon="105.8908582"><ele>861.22</ele><time>2026-05-30T22:51:03.000Z</time></trkpt>
        <trkpt lat="28.2363519" lon="105.8908582"><ele>861.22</ele><time>2026-05-30T22:51:18.000Z</time></trkpt>
        <trkpt lat="28.2363519" lon="105.8908582"><ele>861.22</ele><time>2026-05-30T22:51:49.000Z</time></trkpt>
        <trkpt lat="28.2363519" lon="105.8908582"><ele>861.22</ele><time>2026-05-30T22:52:00.000Z</time></trkpt>
        <trkpt lat="28.2363519" lon="105.8908582"><ele>861.22</ele><time>2026-05-30T22:52:21.000Z</time></trkpt>
        <trkpt lat="28.2363519" lon="105.8908582"><ele>861.22</ele><time>2026-05-30T22:52:44.000Z</time></trkpt>
        <trkpt lat="28.2363519" lon="105.8908582"><ele>861.22</ele><time>2026-05-30T22:54:13.000Z</time></trkpt>
        <trkpt lat="28.236393" lon="105.8908876"><ele>855.95</ele><time>2026-05-30T22:54:22.000Z</time></trkpt>
        <trkpt lat="28.236393" lon="105.8908876"><ele>855.95</ele><time>2026-05-30T22:54:28.000Z</time></trkpt>
        <trkpt lat="28.236492" lon="105.8908998"><ele>846.1</ele><time>2026-05-30T22:55:52.000Z</time></trkpt>
        <trkpt lat="28.2365462" lon="105.8909133"><ele>839.87</ele><time>2026-05-30T22:55:54.000Z</time></trkpt>
        <trkpt lat="28.2365873" lon="105.8909465"><ele>836.41</ele><time>2026-05-30T22:56:02.000Z</time></trkpt>
        <trkpt lat="28.2366384" lon="105.8909542"><ele>833.97</ele><time>2026-05-30T22:56:12.000Z</time></trkpt>
        <trkpt lat="28.2366018" lon="105.8909795"><ele>830.75</ele><time>2026-05-30T22:56:52.000Z</time></trkpt>
        <trkpt lat="28.2365836" lon="105.8910253"><ele>821.46</ele><time>2026-05-30T22:57:04.000Z</time></trkpt>
        <trkpt lat="28.2366045" lon="105.8910673"><ele>810.8</ele><time>2026-05-30T22:57:10.000Z</time></trkpt>
        <trkpt lat="28.2366441" lon="105.8911085"><ele>804.01</ele><time>2026-05-30T22:57:16.000Z</time></trkpt>
        <trkpt lat="28.2366334" lon="105.8911654"><ele>799.96</ele><time>2026-05-30T22:57:24.000Z</time></trkpt>
        <trkpt lat="28.2366334" lon="105.8911654"><ele>799.96</ele><time>2026-05-30T22:57:37.000Z</time></trkpt>
        <trkpt lat="28.2366458" lon="105.8912157"><ele>797.99</ele><time>2026-05-30T22:57:46.000Z</time></trkpt>
        <trkpt lat="28.2366458" lon="105.8912157"><ele>797.99</ele><time>2026-05-30T22:58:00.000Z</time></trkpt>
        <trkpt lat="28.2366785" lon="105.8912624"><ele>797.16</ele><time>2026-05-30T22:58:08.000Z</time></trkpt>
        <trkpt lat="28.2366767" lon="105.8913104"><ele>797.06</ele><time>2026-05-30T22:58:12.000Z</time></trkpt>
        <trkpt lat="28.2366789" lon="105.8912724"><ele>797.39</ele><time>2026-05-30T22:58:16.000Z</time></trkpt>
        <trkpt lat="28.2366768" lon="105.8912111"><ele>797.14</ele><time>2026-05-30T22:58:20.000Z</time></trkpt>
        <trkpt lat="28.2366755" lon="105.8911878"><ele>797.74</ele><time>2026-05-30T22:58:22.000Z</time></trkpt>
        <trkpt lat="28.2367037" lon="105.8911553"><ele>798.1</ele><time>2026-05-30T22:58:26.000Z</time></trkpt>
        <trkpt lat="28.2367539" lon="105.8911414"><ele>799.2</ele><time>2026-05-30T22:58:50.000Z</time></trkpt>
        <trkpt lat="28.2367856" lon="105.8911858"><ele>800.09</ele><time>2026-05-30T22:59:08.000Z</time></trkpt>
        <trkpt lat="28.2368324" lon="105.8912111"><ele>804.32</ele><time>2026-05-30T22:59:14.000Z</time></trkpt>
        <trkpt lat="28.2368864" lon="105.8912363"><ele>805.81</ele><time>2026-05-30T22:59:38.000Z</time></trkpt>
        <trkpt lat="28.2369377" lon="105.8912342"><ele>806.22</ele><time>2026-05-30T22:59:50.000Z</time></trkpt>
        <trkpt lat="28.2369377" lon="105.8912342"><ele>806.22</ele><time>2026-05-30T22:59:57.000Z</time></trkpt>
        <trkpt lat="28.2370102" lon="105.8912954"><ele>808.08</ele><time>2026-05-30T23:00:18.000Z</time></trkpt>
        <trkpt lat="28.2370102" lon="105.8912954"><ele>808.08</ele><time>2026-05-30T23:00:21.000Z</time></trkpt>
        <trkpt lat="28.236994" lon="105.8912974"><ele>809.99</ele><time>2026-05-30T23:00:24.000Z</time></trkpt>
        <trkpt lat="28.2369642" lon="105.8912682"><ele>811.5</ele><time>2026-05-30T23:00:28.000Z</time></trkpt>
        <trkpt lat="28.2369642" lon="105.8912682"><ele>811.5</ele><time>2026-05-30T23:01:01.000Z</time></trkpt>
        <trkpt lat="28.2369823" lon="105.8912399"><ele>815.18</ele><time>2026-05-30T23:01:18.000Z</time></trkpt>
        <trkpt lat="28.2369823" lon="105.8912399"><ele>815.18</ele><time>2026-05-30T23:01:26.000Z</time></trkpt>
        <trkpt lat="28.2370079" lon="105.8912213"><ele>816.3</ele><time>2026-05-30T23:01:32.000Z</time></trkpt>
        <trkpt lat="28.2370546" lon="105.8912216"><ele>818.62</ele><time>2026-05-30T23:01:40.000Z</time></trkpt>
        <trkpt lat="28.2370546" lon="105.8912216"><ele>818.62</ele><time>2026-05-30T23:01:55.000Z</time></trkpt>
        <trkpt lat="28.2371249" lon="105.8912501"><ele>821.04</ele><time>2026-05-30T23:01:58.000Z</time></trkpt>
        <trkpt lat="28.2371249" lon="105.8912501"><ele>821.04</ele><time>2026-05-30T23:02:14.000Z</time></trkpt>
        <trkpt lat="28.2371763" lon="105.8912788"><ele>822.13</ele><time>2026-05-30T23:02:16.000Z</time></trkpt>
        <trkpt lat="28.2372134" lon="105.8912563"><ele>825.08</ele><time>2026-05-30T23:02:24.000Z</time></trkpt>
        <trkpt lat="28.2372471" lon="105.8912369"><ele>824.26</ele><time>2026-05-30T23:02:28.000Z</time></trkpt>
        <trkpt lat="28.2372471" lon="105.8912369"><ele>824.26</ele><time>2026-05-30T23:02:39.000Z</time></trkpt>
        <trkpt lat="28.2372471" lon="105.8912369"><ele>824.26</ele><time>2026-05-30T23:03:00.000Z</time></trkpt>
        <trkpt lat="28.2372471" lon="105.8912369"><ele>824.26</ele><time>2026-05-30T23:03:13.000Z</time></trkpt>
        <trkpt lat="28.2372933" lon="105.8912346"><ele>824.77</ele><time>2026-05-30T23:03:18.000Z</time></trkpt>
        <trkpt lat="28.2372933" lon="105.8912346"><ele>824.77</ele><time>2026-05-30T23:04:18.000Z</time></trkpt>
        <trkpt lat="28.2373383" lon="105.8912469"><ele>820.95</ele><time>2026-05-30T23:04:54.000Z</time></trkpt>
        <trkpt lat="28.2374113" lon="105.8911186"><ele>818.58</ele><time>2026-05-30T23:05:04.000Z</time></trkpt>
        <trkpt lat="28.2374566" lon="105.8910559"><ele>812.43</ele><time>2026-05-30T23:05:10.000Z</time></trkpt>
        <trkpt lat="28.2374998" lon="105.8910498"><ele>806.73</ele><time>2026-05-30T23:05:50.000Z</time></trkpt>
        <trkpt lat="28.2375376" lon="105.8910833"><ele>802.69</ele><time>2026-05-30T23:05:52.000Z</time></trkpt>
        <trkpt lat="28.2375958" lon="105.8911228"><ele>800.29</ele><time>2026-05-30T23:06:36.000Z</time></trkpt>
        <trkpt lat="28.2376592" lon="105.8911422"><ele>800.46</ele><time>2026-05-30T23:06:40.000Z</time></trkpt>
        <trkpt lat="28.2377182" lon="105.8911249"><ele>799.14</ele><time>2026-05-30T23:06:46.000Z</time></trkpt>
        <trkpt lat="28.2377547" lon="105.8910966"><ele>798.99</ele><time>2026-05-30T23:06:50.000Z</time></trkpt>
        <trkpt lat="28.2378" lon="105.891061"><ele>799.52</ele><time>2026-05-30T23:06:58.000Z</time></trkpt>
        <trkpt lat="28.2378324" lon="105.8910136"><ele>799.99</ele><time>2026-05-30T23:07:04.000Z</time></trkpt>
        <trkpt lat="28.2378324" lon="105.8910136"><ele>799.99</ele><time>2026-05-30T23:07:13.000Z</time></trkpt>
        <trkpt lat="28.2378399" lon="105.890944"><ele>800.04</ele><time>2026-05-30T23:07:20.000Z</time></trkpt>
        <trkpt lat="28.2378399" lon="105.890944"><ele>800.04</ele><time>2026-05-30T23:07:22.000Z</time></trkpt>
        <trkpt lat="28.2378872" lon="105.8909172"><ele>795.3</ele><time>2026-05-30T23:07:27.000Z</time></trkpt>
        <trkpt lat="28.2379355" lon="105.890906"><ele>794.15</ele><time>2026-05-30T23:07:59.000Z</time></trkpt>
        <trkpt lat="28.2379839" lon="105.8908822"><ele>796.49</ele><time>2026-05-30T23:08:07.000Z</time></trkpt>
        <trkpt lat="28.2380344" lon="105.890867"><ele>797.13</ele><time>2026-05-30T23:08:15.000Z</time></trkpt>
        <trkpt lat="28.2381089" lon="105.8908661"><ele>796.18</ele><time>2026-05-30T23:08:43.000Z</time></trkpt>
        <trkpt lat="28.2381877" lon="105.8908926"><ele>795.44</ele><time>2026-05-30T23:08:47.000Z</time></trkpt>
        <trkpt lat="28.238269" lon="105.8908963"><ele>793.57</ele><time>2026-05-30T23:08:53.000Z</time></trkpt>
        <trkpt lat="28.2383359" lon="105.8908739"><ele>791.66</ele><time>2026-05-30T23:08:59.000Z</time></trkpt>
        <trkpt lat="28.238408" lon="105.8908667"><ele>791.43</ele><time>2026-05-30T23:09:03.000Z</time></trkpt>
        <trkpt lat="28.2384297" lon="105.8908591"><ele>791.2</ele><time>2026-05-30T23:09:05.000Z</time></trkpt>
        <trkpt lat="28.2384043" lon="105.890819"><ele>791.63</ele><time>2026-05-30T23:09:09.000Z</time></trkpt>
        <trkpt lat="28.2383968" lon="105.8907592"><ele>793.66</ele><time>2026-05-30T23:09:15.000Z</time></trkpt>
        <trkpt lat="28.2383775" lon="105.8907041"><ele>796.33</ele><time>2026-05-30T23:09:25.000Z</time></trkpt>
        <trkpt lat="28.2383365" lon="105.890716"><ele>798.12</ele><time>2026-05-30T23:09:29.000Z</time></trkpt>
        <trkpt lat="28.2382958" lon="105.8907"><ele>797.15</ele><time>2026-05-30T23:09:35.000Z</time></trkpt>
        <trkpt lat="28.238319" lon="105.8906836"><ele>798.24</ele><time>2026-05-30T23:09:47.000Z</time></trkpt>
        <trkpt lat="28.2383714" lon="105.8906704"><ele>799.69</ele><time>2026-05-30T23:09:53.000Z</time></trkpt>
        <trkpt lat="28.2384189" lon="105.8906357"><ele>798.1</ele><time>2026-05-30T23:10:09.000Z</time></trkpt>
        <trkpt lat="28.2384675" lon="105.8906128"><ele>794.67</ele><time>2026-05-30T23:10:15.000Z</time></trkpt>
        <trkpt lat="28.2385158" lon="105.8906373"><ele>791.92</ele><time>2026-05-30T23:10:19.000Z</time></trkpt>
        <trkpt lat="28.2385721" lon="105.8906365"><ele>789.58</ele><time>2026-05-30T23:10:23.000Z</time></trkpt>
        <trkpt lat="28.2386118" lon="105.8905864"><ele>787.22</ele><time>2026-05-30T23:10:29.000Z</time></trkpt>
        <trkpt lat="28.2386575" lon="105.8905525"><ele>786.31</ele><time>2026-05-30T23:10:39.000Z</time></trkpt>
        <trkpt lat="28.238666" lon="105.8905391"><ele>785.66</ele><time>2026-05-30T23:10:43.000Z</time></trkpt>
        <trkpt lat="28.238666" lon="105.8905391"><ele>785.66</ele><time>2026-05-30T23:10:53.000Z</time></trkpt>
        <trkpt lat="28.238666" lon="105.8905391"><ele>785.66</ele><time>2026-05-30T23:10:56.000Z</time></trkpt>
        <trkpt lat="28.238666" lon="105.8905391"><ele>785.66</ele><time>2026-05-30T23:11:41.000Z</time></trkpt>
        <trkpt lat="28.2386785" lon="105.8904933"><ele>784.13</ele><time>2026-05-30T23:11:50.000Z</time></trkpt>
        <trkpt lat="28.2386785" lon="105.8904933"><ele>784.13</ele><time>2026-05-30T23:11:55.000Z</time></trkpt>
        <trkpt lat="28.2386829" lon="105.8904696"><ele>784.38</ele><time>2026-05-30T23:12:05.000Z</time></trkpt>
        <trkpt lat="28.2387177" lon="105.8904448"><ele>784.93</ele><time>2026-05-30T23:12:41.000Z</time></trkpt>
        <trkpt lat="28.2387632" lon="105.8903521"><ele>786.1</ele><time>2026-05-30T23:13:07.000Z</time></trkpt>
        <trkpt lat="28.2388198" lon="105.8902827"><ele>787.61</ele><time>2026-05-30T23:13:19.000Z</time></trkpt>
        <trkpt lat="28.2388383" lon="105.890261"><ele>786.53</ele><time>2026-05-30T23:13:21.000Z</time></trkpt>
        <trkpt lat="28.2388614" lon="105.8902092"><ele>786.34</ele><time>2026-05-30T23:13:35.000Z</time></trkpt>
        <trkpt lat="28.2388957" lon="105.8901721"><ele>787.49</ele><time>2026-05-30T23:13:43.000Z</time></trkpt>
        <trkpt lat="28.2389589" lon="105.8901903"><ele>789.51</ele><time>2026-05-30T23:14:23.000Z</time></trkpt>
        <trkpt lat="28.2391359" lon="105.8902018"><ele>788.23</ele><time>2026-05-30T23:14:29.000Z</time></trkpt>
        <trkpt lat="28.2392196" lon="105.8901677"><ele>780.93</ele><time>2026-05-30T23:15:07.000Z</time></trkpt>
        <trkpt lat="28.2392602" lon="105.8901062"><ele>786.84</ele><time>2026-05-30T23:15:11.000Z</time></trkpt>
        <trkpt lat="28.239267" lon="105.8900336"><ele>792.66</ele><time>2026-05-30T23:15:17.000Z</time></trkpt>
        <trkpt lat="28.2392586" lon="105.8899616"><ele>798.61</ele><time>2026-05-30T23:15:23.000Z</time></trkpt>
        <trkpt lat="28.2392314" lon="105.8898853"><ele>802.67</ele><time>2026-05-30T23:15:27.000Z</time></trkpt>
        <trkpt lat="28.2392304" lon="105.8898017"><ele>806.37</ele><time>2026-05-30T23:15:31.000Z</time></trkpt>
        <trkpt lat="28.2392412" lon="105.8897393"><ele>810.84</ele><time>2026-05-30T23:15:39.000Z</time></trkpt>
        <trkpt lat="28.2392085" lon="105.8897266"><ele>812.38</ele><time>2026-05-30T23:16:03.000Z</time></trkpt>
        <trkpt lat="28.2391645" lon="105.8896976"><ele>807.78</ele><time>2026-05-30T23:16:11.000Z</time></trkpt>
        <trkpt lat="28.2391599" lon="105.8896539"><ele>804.09</ele><time>2026-05-30T23:16:37.000Z</time></trkpt>
        <trkpt lat="28.2391879" lon="105.8896055"><ele>797.52</ele><time>2026-05-30T23:16:47.000Z</time></trkpt>
        <trkpt lat="28.239199" lon="105.8895518"><ele>789.86</ele><time>2026-05-30T23:16:55.000Z</time></trkpt>
        <trkpt lat="28.2392226" lon="105.8895047"><ele>785.98</ele><time>2026-05-30T23:17:01.000Z</time></trkpt>
        <trkpt lat="28.2392226" lon="105.8895047"><ele>785.98</ele><time>2026-05-30T23:17:15.000Z</time></trkpt>
        <trkpt lat="28.2392944" lon="105.8895017"><ele>784.03</ele><time>2026-05-30T23:17:20.000Z</time></trkpt>
        <trkpt lat="28.2392944" lon="105.8895017"><ele>784.03</ele><time>2026-05-30T23:17:21.000Z</time></trkpt>
        <trkpt lat="28.2393445" lon="105.8895366"><ele>778.16</ele><time>2026-05-30T23:17:34.000Z</time></trkpt>
        <trkpt lat="28.2393445" lon="105.8895366"><ele>778.16</ele><time>2026-05-30T23:17:39.000Z</time></trkpt>
        <trkpt lat="28.2393219" lon="105.8895419"><ele>776.99</ele><time>2026-05-30T23:17:44.000Z</time></trkpt>
        <trkpt lat="28.2393219" lon="105.8895419"><ele>776.99</ele><time>2026-05-30T23:17:53.000Z</time></trkpt>
        <trkpt lat="28.2392697" lon="105.8895153"><ele>774.98</ele><time>2026-05-30T23:18:09.000Z</time></trkpt>
        <trkpt lat="28.239252" lon="105.8894623"><ele>772.07</ele><time>2026-05-30T23:18:23.000Z</time></trkpt>
        <trkpt lat="28.2392402" lon="105.8893851"><ele>772.45</ele><time>2026-05-30T23:18:53.000Z</time></trkpt>
        <trkpt lat="28.2392361" lon="105.8893334"><ele>773.53</ele><time>2026-05-30T23:18:55.000Z</time></trkpt>
        <trkpt lat="28.2392648" lon="105.8892726"><ele>774.16</ele><time>2026-05-30T23:18:59.000Z</time></trkpt>
        <trkpt lat="28.2392883" lon="105.8892159"><ele>774.26</ele><time>2026-05-30T23:19:05.000Z</time></trkpt>
        <trkpt lat="28.2392796" lon="105.8891572"><ele>774.31</ele><time>2026-05-30T23:19:31.000Z</time></trkpt>
        <trkpt lat="28.2392558" lon="105.8890741"><ele>774.55</ele><time>2026-05-30T23:19:35.000Z</time></trkpt>
        <trkpt lat="28.2392673" lon="105.8890071"><ele>774.36</ele><time>2026-05-30T23:19:43.000Z</time></trkpt>
        <trkpt lat="28.2393006" lon="105.8889448"><ele>772.85</ele><time>2026-05-30T23:19:49.000Z</time></trkpt>
        <trkpt lat="28.2392952" lon="105.8888777"><ele>770.13</ele><time>2026-05-30T23:19:53.000Z</time></trkpt>
        <trkpt lat="28.2392633" lon="105.888838"><ele>768.51</ele><time>2026-05-30T23:20:01.000Z</time></trkpt>
        <trkpt lat="28.2392896" lon="105.8888311"><ele>764.28</ele><time>2026-05-30T23:20:05.000Z</time></trkpt>
        <trkpt lat="28.2392896" lon="105.8888311"><ele>764.28</ele><time>2026-05-30T23:20:13.000Z</time></trkpt>
        <trkpt lat="28.2393523" lon="105.8888379"><ele>761.38</ele><time>2026-05-30T23:20:20.000Z</time></trkpt>
        <trkpt lat="28.2393523" lon="105.8888379"><ele>761.38</ele><time>2026-05-30T23:20:22.000Z</time></trkpt>
        <trkpt lat="28.2393523" lon="105.8888379"><ele>761.38</ele><time>2026-05-30T23:20:45.000Z</time></trkpt>
        <trkpt lat="28.2393523" lon="105.8888379"><ele>761.38</ele><time>2026-05-30T23:20:58.000Z</time></trkpt>
        <trkpt lat="28.2393523" lon="105.8888379"><ele>761.38</ele><time>2026-05-30T23:21:13.000Z</time></trkpt>
        <trkpt lat="28.2393523" lon="105.8888379"><ele>761.38</ele><time>2026-05-30T23:21:54.000Z</time></trkpt>
        <trkpt lat="28.2393523" lon="105.8888379"><ele>761.38</ele><time>2026-05-30T23:22:11.000Z</time></trkpt>
        <trkpt lat="28.2393523" lon="105.8888379"><ele>761.38</ele><time>2026-05-30T23:22:14.000Z</time></trkpt>
        <trkpt lat="28.2393523" lon="105.8888379"><ele>761.38</ele><time>2026-05-30T23:22:23.000Z</time></trkpt>
        <trkpt lat="28.2392853" lon="105.8887761"><ele>760.53</ele><time>2026-05-30T23:23:26.000Z</time></trkpt>
        <trkpt lat="28.2392853" lon="105.8887761"><ele>760.53</ele><time>2026-05-30T23:23:36.000Z</time></trkpt>
        <trkpt lat="28.2392842" lon="105.8888399"><ele>755.62</ele><time>2026-05-30T23:23:38.000Z</time></trkpt>
        <trkpt lat="28.2389692" lon="105.8888786"><ele>749.12</ele><time>2026-05-30T23:23:48.000Z</time></trkpt>
        <trkpt lat="28.2389692" lon="105.8888786"><ele>749.12</ele><time>2026-05-30T23:23:53.000Z</time></trkpt>
        <trkpt lat="28.2388553" lon="105.8889087"><ele>738.28</ele><time>2026-05-30T23:24:30.000Z</time></trkpt>
        <trkpt lat="28.2388553" lon="105.8889087"><ele>738.28</ele><time>2026-05-30T23:24:33.000Z</time></trkpt>
        <trkpt lat="28.2388855" lon="105.8889315"><ele>736.61</ele><time>2026-05-30T23:24:36.000Z</time></trkpt>
        <trkpt lat="28.2389457" lon="105.8889442"><ele>745.21</ele><time>2026-05-30T23:24:38.000Z</time></trkpt>
        <trkpt lat="28.2389457" lon="105.8889442"><ele>745.21</ele><time>2026-05-30T23:24:43.000Z</time></trkpt>
        <trkpt lat="28.2389532" lon="105.8889098"><ele>753.05</ele><time>2026-05-30T23:24:52.000Z</time></trkpt>
        <trkpt lat="28.2389532" lon="105.8889098"><ele>753.05</ele><time>2026-05-30T23:25:01.000Z</time></trkpt>
        <trkpt lat="28.2389248" lon="105.8889082"><ele>756.12</ele><time>2026-05-30T23:25:31.000Z</time></trkpt>
        <trkpt lat="28.2389248" lon="105.8889082"><ele>756.12</ele><time>2026-05-30T23:26:05.000Z</time></trkpt>
        <trkpt lat="28.2389501" lon="105.8888805"><ele>762.42</ele><time>2026-05-30T23:26:10.000Z</time></trkpt>
        <trkpt lat="28.2389501" lon="105.8888805"><ele>762.42</ele><time>2026-05-30T23:26:16.000Z</time></trkpt>
        <trkpt lat="28.2389552" lon="105.8888129"><ele>765.19</ele><time>2026-05-30T23:26:20.000Z</time></trkpt>
        <trkpt lat="28.238971" lon="105.8887374"><ele>766.5</ele><time>2026-05-30T23:26:22.000Z</time></trkpt>
        <trkpt lat="28.2389729" lon="105.888668"><ele>766.33</ele><time>2026-05-30T23:26:24.000Z</time></trkpt>
        <trkpt lat="28.2390109" lon="105.8886544"><ele>765.88</ele><time>2026-05-30T23:26:26.000Z</time></trkpt>
        <trkpt lat="28.2390512" lon="105.8886304"><ele>766.92</ele><time>2026-05-30T23:26:30.000Z</time></trkpt>
        <trkpt lat="28.2390857" lon="105.8885929"><ele>766.89</ele><time>2026-05-30T23:26:34.000Z</time></trkpt>
        <trkpt lat="28.2391313" lon="105.888563"><ele>768.07</ele><time>2026-05-30T23:26:36.000Z</time></trkpt>
        <trkpt lat="28.2391833" lon="105.8885275"><ele>769.15</ele><time>2026-05-30T23:26:38.000Z</time></trkpt>
        <trkpt lat="28.2392459" lon="105.8884693"><ele>769.27</ele><time>2026-05-30T23:26:42.000Z</time></trkpt>
        <trkpt lat="28.239309" lon="105.8884329"><ele>770.1</ele><time>2026-05-30T23:26:44.000Z</time></trkpt>
        <trkpt lat="28.2393564" lon="105.8883919"><ele>771.19</ele><time>2026-05-30T23:26:48.000Z</time></trkpt>
        <trkpt lat="28.2394051" lon="105.8883654"><ele>771.6</ele><time>2026-05-30T23:26:52.000Z</time></trkpt>
        <trkpt lat="28.2394051" lon="105.8883654"><ele>771.6</ele><time>2026-05-30T23:27:05.000Z</time></trkpt>
        <trkpt lat="28.2394417" lon="105.8882246"><ele>770.66</ele><time>2026-05-30T23:27:10.000Z</time></trkpt>
        <trkpt lat="28.2394417" lon="105.8882246"><ele>770.66</ele><time>2026-05-30T23:27:12.000Z</time></trkpt>
        <trkpt lat="28.2394896" lon="105.8881859"><ele>763.41</ele><time>2026-05-30T23:27:17.000Z</time></trkpt>
        <trkpt lat="28.2395235" lon="105.8881992"><ele>759.38</ele><time>2026-05-30T23:27:31.000Z</time></trkpt>
        <trkpt lat="28.2395535" lon="105.8881749"><ele>759.28</ele><time>2026-05-30T23:27:41.000Z</time></trkpt>
        <trkpt lat="28.2395803" lon="105.8882068"><ele>759.08</ele><time>2026-05-30T23:27:47.000Z</time></trkpt>
        <trkpt lat="28.2405916" lon="105.8879423"><ele>760.25</ele><time>2026-05-30T23:31:11.000Z</time></trkpt>
        <trkpt lat="28.2406014" lon="105.888037"><ele>786.73</ele><time>2026-05-30T23:31:14.000Z</time></trkpt>
        <trkpt lat="28.240641" lon="105.8880673"><ele>803.2</ele><time>2026-05-30T23:31:50.000Z</time></trkpt>
        <trkpt lat="28.2406865" lon="105.8880857"><ele>811.14</ele><time>2026-05-30T23:31:58.000Z</time></trkpt>
        <trkpt lat="28.2406865" lon="105.8880857"><ele>811.14</ele><time>2026-05-30T23:32:03.000Z</time></trkpt>
        <trkpt lat="28.2406865" lon="105.8880857"><ele>811.14</ele><time>2026-05-30T23:32:12.000Z</time></trkpt>
        <trkpt lat="28.2406865" lon="105.8880857"><ele>811.14</ele><time>2026-05-30T23:32:41.000Z</time></trkpt>
        <trkpt lat="28.2407481" lon="105.888056"><ele>815.36</ele><time>2026-05-30T23:32:50.000Z</time></trkpt>
        <trkpt lat="28.2407481" lon="105.888056"><ele>815.36</ele><time>2026-05-30T23:33:12.000Z</time></trkpt>
        <trkpt lat="28.2408007" lon="105.8880578"><ele>809.05</ele><time>2026-05-30T23:33:16.000Z</time></trkpt>
        <trkpt lat="28.2408498" lon="105.8880636"><ele>803.37</ele><time>2026-05-30T23:33:22.000Z</time></trkpt>
        <trkpt lat="28.2408844" lon="105.8880303"><ele>798.05</ele><time>2026-05-30T23:33:58.000Z</time></trkpt>
        <trkpt lat="28.2409275" lon="105.8880333"><ele>794.43</ele><time>2026-05-30T23:34:04.000Z</time></trkpt>
        <trkpt lat="28.2409761" lon="105.8880236"><ele>791.92</ele><time>2026-05-30T23:34:16.000Z</time></trkpt>
        <trkpt lat="28.2410065" lon="105.8879825"><ele>787.69</ele><time>2026-05-30T23:34:20.000Z</time></trkpt>
        <trkpt lat="28.2410458" lon="105.8879272"><ele>782.4</ele><time>2026-05-30T23:34:26.000Z</time></trkpt>
        <trkpt lat="28.2410923" lon="105.8878952"><ele>780.64</ele><time>2026-05-30T23:34:30.000Z</time></trkpt>
        <trkpt lat="28.2411356" lon="105.8879034"><ele>779.78</ele><time>2026-05-30T23:34:36.000Z</time></trkpt>
        <trkpt lat="28.2411295" lon="105.887953"><ele>780.26</ele><time>2026-05-30T23:34:38.000Z</time></trkpt>
        <trkpt lat="28.2411494" lon="105.8880058"><ele>780.93</ele><time>2026-05-30T23:34:44.000Z</time></trkpt>
        <trkpt lat="28.2411628" lon="105.8880685"><ele>780.61</ele><time>2026-05-30T23:34:52.000Z</time></trkpt>
        <trkpt lat="28.2412121" lon="105.8880554"><ele>779.45</ele><time>2026-05-30T23:35:08.000Z</time></trkpt>
        <trkpt lat="28.2412878" lon="105.8879991"><ele>780.49</ele><time>2026-05-30T23:35:12.000Z</time></trkpt>
        <trkpt lat="28.2413254" lon="105.887995"><ele>781.5</ele><time>2026-05-30T23:35:18.000Z</time></trkpt>
        <trkpt lat="28.241376" lon="105.8879786"><ele>783.82</ele><time>2026-05-30T23:35:48.000Z</time></trkpt>
        <trkpt lat="28.2414141" lon="105.8879454"><ele>785.53</ele><time>2026-05-30T23:35:52.000Z</time></trkpt>
        <trkpt lat="28.241461" lon="105.8879085"><ele>786.6</ele><time>2026-05-30T23:36:00.000Z</time></trkpt>
        <trkpt lat="28.2415049" lon="105.8879108"><ele>788.2</ele><time>2026-05-30T23:36:08.000Z</time></trkpt>
        <trkpt lat="28.2415579" lon="105.8879107"><ele>786.28</ele><time>2026-05-30T23:36:16.000Z</time></trkpt>
        <trkpt lat="28.2416076" lon="105.8879168"><ele>783.57</ele><time>2026-05-30T23:36:24.000Z</time></trkpt>
        <trkpt lat="28.2416531" lon="105.8879358"><ele>780.72</ele><time>2026-05-30T23:36:32.000Z</time></trkpt>
        <trkpt lat="28.2416923" lon="105.8879727"><ele>778.87</ele><time>2026-05-30T23:36:46.000Z</time></trkpt>
        <trkpt lat="28.2417319" lon="105.8880216"><ele>775.19</ele><time>2026-05-30T23:36:52.000Z</time></trkpt>
        <trkpt lat="28.2417468" lon="105.8880901"><ele>773.72</ele><time>2026-05-30T23:36:56.000Z</time></trkpt>
        <trkpt lat="28.2417684" lon="105.8881557"><ele>771.91</ele><time>2026-05-30T23:37:00.000Z</time></trkpt>
        <trkpt lat="28.2417901" lon="105.8881828"><ele>770.86</ele><time>2026-05-30T23:37:06.000Z</time></trkpt>
        <trkpt lat="28.2418307" lon="105.8881763"><ele>769.71</ele><time>2026-05-30T23:37:10.000Z</time></trkpt>
        <trkpt lat="28.2418295" lon="105.8881781"><ele>769.09</ele><time>2026-05-30T23:37:12.000Z</time></trkpt>
        <trkpt lat="28.2418675" lon="105.8881924"><ele>767.27</ele><time>2026-05-30T23:37:20.000Z</time></trkpt>
        <trkpt lat="28.241912" lon="105.8881753"><ele>767.12</ele><time>2026-05-30T23:37:26.000Z</time></trkpt>
        <trkpt lat="28.2419594" lon="105.8881834"><ele>766.76</ele><time>2026-05-30T23:37:34.000Z</time></trkpt>
        <trkpt lat="28.2420049" lon="105.8881725"><ele>766.6</ele><time>2026-05-30T23:37:42.000Z</time></trkpt>
        <trkpt lat="28.2420619" lon="105.8881886"><ele>766.43</ele><time>2026-05-30T23:37:52.000Z</time></trkpt>
        <trkpt lat="28.2421152" lon="105.8881952"><ele>766.51</ele><time>2026-05-30T23:38:00.000Z</time></trkpt>
        <trkpt lat="28.2421716" lon="105.8882153"><ele>767.45</ele><time>2026-05-30T23:38:06.000Z</time></trkpt>
        <trkpt lat="28.2422188" lon="105.8882442"><ele>768.12</ele><time>2026-05-30T23:38:14.000Z</time></trkpt>
        <trkpt lat="28.2422618" lon="105.8882776"><ele>768.05</ele><time>2026-05-30T23:38:22.000Z</time></trkpt>
        <trkpt lat="28.2423107" lon="105.888272"><ele>767.78</ele><time>2026-05-30T23:38:28.000Z</time></trkpt>
        <trkpt lat="28.2423581" lon="105.8882867"><ele>768.93</ele><time>2026-05-30T23:38:36.000Z</time></trkpt>
        <trkpt lat="28.2424023" lon="105.8883015"><ele>766.91</ele><time>2026-05-30T23:38:42.000Z</time></trkpt>
        <trkpt lat="28.2424489" lon="105.8883166"><ele>764.47</ele><time>2026-05-30T23:38:50.000Z</time></trkpt>
        <trkpt lat="28.2424992" lon="105.8883028"><ele>762.96</ele><time>2026-05-30T23:39:02.000Z</time></trkpt>
        <trkpt lat="28.2425489" lon="105.8882924"><ele>761.8</ele><time>2026-05-30T23:39:08.000Z</time></trkpt>
        <trkpt lat="28.242601" lon="105.8883062"><ele>762.54</ele><time>2026-05-30T23:39:18.000Z</time></trkpt>
        <trkpt lat="28.2426548" lon="105.8883265"><ele>761.98</ele><time>2026-05-30T23:39:26.000Z</time></trkpt>
        <trkpt lat="28.2427056" lon="105.8883471"><ele>762.48</ele><time>2026-05-30T23:39:36.000Z</time></trkpt>
        <trkpt lat="28.2427474" lon="105.8883755"><ele>762.39</ele><time>2026-05-30T23:39:42.000Z</time></trkpt>
        <trkpt lat="28.242798" lon="105.8884024"><ele>764.32</ele><time>2026-05-30T23:39:50.000Z</time></trkpt>
        <trkpt lat="28.2427939" lon="105.8884467"><ele>764.65</ele><time>2026-05-30T23:40:04.000Z</time></trkpt>
        <trkpt lat="28.2428154" lon="105.8884859"><ele>762.91</ele><time>2026-05-30T23:40:08.000Z</time></trkpt>
        <trkpt lat="28.2428217" lon="105.8884537"><ele>761.15</ele><time>2026-05-30T23:40:12.000Z</time></trkpt>
        <trkpt lat="28.2428538" lon="105.8884532"><ele>759.55</ele><time>2026-05-30T23:40:52.000Z</time></trkpt>
        <trkpt lat="28.2428538" lon="105.8884532"><ele>759.55</ele><time>2026-05-30T23:41:17.000Z</time></trkpt>
        <trkpt lat="28.2428684" lon="105.8885009"><ele>757.95</ele><time>2026-05-30T23:41:32.000Z</time></trkpt>
        <trkpt lat="28.2428684" lon="105.8885009"><ele>757.95</ele><time>2026-05-30T23:41:41.000Z</time></trkpt>
        <trkpt lat="28.2428882" lon="105.8885008"><ele>762.04</ele><time>2026-05-30T23:41:43.000Z</time></trkpt>
        <trkpt lat="28.2428845" lon="105.8884984"><ele>765.63</ele><time>2026-05-30T23:42:01.000Z</time></trkpt>
        <trkpt lat="28.2429122" lon="105.8885111"><ele>767.04</ele><time>2026-05-30T23:42:33.000Z</time></trkpt>
        <trkpt lat="28.2429118" lon="105.8885145"><ele>763.67</ele><time>2026-05-30T23:42:35.000Z</time></trkpt>
        <trkpt lat="28.2429751" lon="105.8884855"><ele>759.34</ele><time>2026-05-30T23:42:39.000Z</time></trkpt>
        <trkpt lat="28.2431014" lon="105.8884457"><ele>760.1</ele><time>2026-05-30T23:42:49.000Z</time></trkpt>
        <trkpt lat="28.2431545" lon="105.8884283"><ele>768.63</ele><time>2026-05-30T23:42:53.000Z</time></trkpt>
        <trkpt lat="28.2432084" lon="105.8884384"><ele>773.73</ele><time>2026-05-30T23:43:15.000Z</time></trkpt>
        <trkpt lat="28.2432381" lon="105.8884477"><ele>781.29</ele><time>2026-05-30T23:43:17.000Z</time></trkpt>
        <trkpt lat="28.2432792" lon="105.8884427"><ele>787.12</ele><time>2026-05-30T23:43:27.000Z</time></trkpt>
        <trkpt lat="28.243324" lon="105.8884434"><ele>790.89</ele><time>2026-05-30T23:43:45.000Z</time></trkpt>
        <trkpt lat="28.2433447" lon="105.8884446"><ele>792.71</ele><time>2026-05-30T23:43:47.000Z</time></trkpt>
        <trkpt lat="28.2434239" lon="105.8884132"><ele>794.27</ele><time>2026-05-30T23:44:15.000Z</time></trkpt>
        <trkpt lat="28.2435507" lon="105.8883256"><ele>794.45</ele><time>2026-05-30T23:44:21.000Z</time></trkpt>
        <trkpt lat="28.2435507" lon="105.8883256"><ele>794.45</ele><time>2026-05-30T23:44:47.000Z</time></trkpt>
        <trkpt lat="28.2435507" lon="105.8883256"><ele>794.45</ele><time>2026-05-30T23:44:50.000Z</time></trkpt>
        <trkpt lat="28.2435507" lon="105.8883256"><ele>794.45</ele><time>2026-05-30T23:45:05.000Z</time></trkpt>
        <trkpt lat="28.2436111" lon="105.8883281"><ele>792.99</ele><time>2026-05-30T23:45:08.000Z</time></trkpt>
        <trkpt lat="28.2436111" lon="105.8883281"><ele>792.99</ele><time>2026-05-30T23:45:12.000Z</time></trkpt>
        <trkpt lat="28.243647" lon="105.888369"><ele>790.95</ele><time>2026-05-30T23:45:30.000Z</time></trkpt>
        <trkpt lat="28.2436867" lon="105.8883775"><ele>784.95</ele><time>2026-05-30T23:45:36.000Z</time></trkpt>
        <trkpt lat="28.2437256" lon="105.8883625"><ele>778.47</ele><time>2026-05-30T23:45:40.000Z</time></trkpt>
        <trkpt lat="28.2437699" lon="105.8883443"><ele>773.99</ele><time>2026-05-30T23:45:44.000Z</time></trkpt>
        <trkpt lat="28.2438209" lon="105.8883344"><ele>771.08</ele><time>2026-05-30T23:45:48.000Z</time></trkpt>
        <trkpt lat="28.243855" lon="105.8883381"><ele>769.14</ele><time>2026-05-30T23:45:52.000Z</time></trkpt>
        <trkpt lat="28.2438951" lon="105.8883202"><ele>767.5</ele><time>2026-05-30T23:46:00.000Z</time></trkpt>
        <trkpt lat="28.2439149" lon="105.8883231"><ele>764.91</ele><time>2026-05-30T23:46:08.000Z</time></trkpt>
        <trkpt lat="28.243948" lon="105.8883505"><ele>759.94</ele><time>2026-05-30T23:46:18.000Z</time></trkpt>
        <trkpt lat="28.2439865" lon="105.888332"><ele>755.75</ele><time>2026-05-30T23:46:24.000Z</time></trkpt>
        <trkpt lat="28.243997" lon="105.8883164"><ele>753.46</ele><time>2026-05-30T23:46:26.000Z</time></trkpt>
        <trkpt lat="28.2440399" lon="105.8883114"><ele>751.98</ele><time>2026-05-30T23:46:32.000Z</time></trkpt>
        <trkpt lat="28.244089" lon="105.8883098"><ele>751.88</ele><time>2026-05-30T23:46:42.000Z</time></trkpt>
        <trkpt lat="28.244143" lon="105.8883249"><ele>752.63</ele><time>2026-05-30T23:47:00.000Z</time></trkpt>
        <trkpt lat="28.2441944" lon="105.8883274"><ele>751.98</ele><time>2026-05-30T23:47:10.000Z</time></trkpt>
        <trkpt lat="28.2442426" lon="105.8883442"><ele>752.17</ele><time>2026-05-30T23:47:16.000Z</time></trkpt>
        <trkpt lat="28.2442604" lon="105.8883083"><ele>752</ele><time>2026-05-30T23:47:24.000Z</time></trkpt>
        <trkpt lat="28.2443016" lon="105.8882819"><ele>752.6</ele><time>2026-05-30T23:47:30.000Z</time></trkpt>
        <trkpt lat="28.2443409" lon="105.8882993"><ele>752.98</ele><time>2026-05-30T23:47:38.000Z</time></trkpt>
        <trkpt lat="28.2443825" lon="105.8882745"><ele>752.14</ele><time>2026-05-30T23:48:04.000Z</time></trkpt>
        <trkpt lat="28.2444239" lon="105.8882477"><ele>751.75</ele><time>2026-05-30T23:48:12.000Z</time></trkpt>
        <trkpt lat="28.2444767" lon="105.8882102"><ele>751.99</ele><time>2026-05-30T23:48:52.000Z</time></trkpt>
        <trkpt lat="28.2445254" lon="105.8881981"><ele>750.36</ele><time>2026-05-30T23:49:04.000Z</time></trkpt>
        <trkpt lat="28.2445781" lon="105.8881814"><ele>749.42</ele><time>2026-05-30T23:49:18.000Z</time></trkpt>
        <trkpt lat="28.2446186" lon="105.8881522"><ele>749.84</ele><time>2026-05-30T23:49:26.000Z</time></trkpt>
        <trkpt lat="28.2446548" lon="105.8881154"><ele>750.96</ele><time>2026-05-30T23:49:34.000Z</time></trkpt>
        <trkpt lat="28.2446933" lon="105.8880762"><ele>752.87</ele><time>2026-05-30T23:49:42.000Z</time></trkpt>
        <trkpt lat="28.2447404" lon="105.8880723"><ele>755.48</ele><time>2026-05-30T23:49:50.000Z</time></trkpt>
        <trkpt lat="28.2447873" lon="105.8880746"><ele>756.35</ele><time>2026-05-30T23:49:54.000Z</time></trkpt>
        <trkpt lat="28.2448306" lon="105.8880625"><ele>757.37</ele><time>2026-05-30T23:50:06.000Z</time></trkpt>
        <trkpt lat="28.2448306" lon="105.8880625"><ele>757.37</ele><time>2026-05-30T23:50:27.000Z</time></trkpt>
        <trkpt lat="28.2448056" lon="105.8880143"><ele>758.92</ele><time>2026-05-30T23:50:30.000Z</time></trkpt>
        <trkpt lat="28.2448056" lon="105.8880143"><ele>758.92</ele><time>2026-05-30T23:52:34.000Z</time></trkpt>
        <trkpt lat="28.2448056" lon="105.8880143"><ele>758.92</ele><time>2026-05-30T23:52:49.000Z</time></trkpt>
        <trkpt lat="28.2448227" lon="105.8879553"><ele>754.1</ele><time>2026-05-30T23:52:52.000Z</time></trkpt>
        <trkpt lat="28.2448227" lon="105.8879553"><ele>754.1</ele><time>2026-05-30T23:53:04.000Z</time></trkpt>
        <trkpt lat="28.2448227" lon="105.8879553"><ele>754.1</ele><time>2026-05-30T23:53:19.000Z</time></trkpt>
        <trkpt lat="28.2448227" lon="105.8879553"><ele>754.1</ele><time>2026-05-30T23:53:24.000Z</time></trkpt>
        <trkpt lat="28.2448227" lon="105.8879553"><ele>754.1</ele><time>2026-05-30T23:53:33.000Z</time></trkpt>
        <trkpt lat="28.244833" lon="105.8879032"><ele>751.95</ele><time>2026-05-30T23:53:34.000Z</time></trkpt>
        <trkpt lat="28.244833" lon="105.8879032"><ele>751.95</ele><time>2026-05-30T23:53:37.000Z</time></trkpt>
        <trkpt lat="28.244833" lon="105.8879032"><ele>751.95</ele><time>2026-05-30T23:53:49.000Z</time></trkpt>
        <trkpt lat="28.244833" lon="105.8879032"><ele>751.95</ele><time>2026-05-30T23:54:06.000Z</time></trkpt>
        <trkpt lat="28.244833" lon="105.8879032"><ele>751.95</ele><time>2026-05-30T23:54:57.000Z</time></trkpt>
        <trkpt lat="28.244833" lon="105.8879032"><ele>751.95</ele><time>2026-05-30T23:55:20.000Z</time></trkpt>
        <trkpt lat="28.244833" lon="105.8879032"><ele>751.95</ele><time>2026-05-30T23:55:29.000Z</time></trkpt>
        <trkpt lat="28.244833" lon="105.8879032"><ele>751.95</ele><time>2026-05-30T23:55:48.000Z</time></trkpt>
        <trkpt lat="28.244833" lon="105.8879032"><ele>751.95</ele><time>2026-05-30T23:55:59.000Z</time></trkpt>
        <trkpt lat="28.244833" lon="105.8879032"><ele>751.95</ele><time>2026-05-30T23:56:06.000Z</time></trkpt>
        <trkpt lat="28.244833" lon="105.8879032"><ele>751.95</ele><time>2026-05-30T23:56:53.000Z</time></trkpt>
        <trkpt lat="28.244833" lon="105.8879032"><ele>751.95</ele><time>2026-05-30T23:57:04.000Z</time></trkpt>
        <trkpt lat="28.244833" lon="105.8879032"><ele>751.95</ele><time>2026-05-30T23:57:19.000Z</time></trkpt>
        <trkpt lat="28.244784" lon="105.8879071"><ele>751.05</ele><time>2026-05-30T23:57:26.000Z</time></trkpt>
        <trkpt lat="28.244784" lon="105.8879071"><ele>751.05</ele><time>2026-05-30T23:58:41.000Z</time></trkpt>
        <trkpt lat="28.2448196" lon="105.8878547"><ele>747.6</ele><time>2026-05-30T23:59:09.000Z</time></trkpt>
        <trkpt lat="28.2448706" lon="105.8878392"><ele>744.07</ele><time>2026-05-30T23:59:17.000Z</time></trkpt>
        <trkpt lat="28.2449139" lon="105.8878181"><ele>743.3</ele><time>2026-05-31T00:00:25.000Z</time></trkpt>
        <trkpt lat="28.2449503" lon="105.8877839"><ele>740.41</ele><time>2026-05-31T00:00:43.000Z</time></trkpt>
        <trkpt lat="28.2449831" lon="105.8877482"><ele>736.11</ele><time>2026-05-31T00:01:03.000Z</time></trkpt>
        <trkpt lat="28.2449831" lon="105.8877482"><ele>736.11</ele><time>2026-05-31T00:01:17.000Z</time></trkpt>
        <trkpt lat="28.2449831" lon="105.8877482"><ele>736.11</ele><time>2026-05-31T00:01:28.000Z</time></trkpt>
        <trkpt lat="28.2449831" lon="105.8877482"><ele>736.11</ele><time>2026-05-31T00:01:39.000Z</time></trkpt>
        <trkpt lat="28.2449831" lon="105.8877482"><ele>736.11</ele><time>2026-05-31T00:01:42.000Z</time></trkpt>
        <trkpt lat="28.2449831" lon="105.8877482"><ele>736.11</ele><time>2026-05-31T00:01:51.000Z</time></trkpt>
        <trkpt lat="28.2449831" lon="105.8877482"><ele>736.11</ele><time>2026-05-31T00:01:56.000Z</time></trkpt>
        <trkpt lat="28.2449831" lon="105.8877482"><ele>736.11</ele><time>2026-05-31T00:02:05.000Z</time></trkpt>
        <trkpt lat="28.2450067" lon="105.8877016"><ele>736.67</ele><time>2026-05-31T00:02:10.000Z</time></trkpt>
        <trkpt lat="28.2450067" lon="105.8877016"><ele>736.67</ele><time>2026-05-31T00:02:17.000Z</time></trkpt>
        <trkpt lat="28.2450575" lon="105.8877117"><ele>739.77</ele><time>2026-05-31T00:02:53.000Z</time></trkpt>
        <trkpt lat="28.245099" lon="105.8876657"><ele>742.94</ele><time>2026-05-31T00:03:29.000Z</time></trkpt>
        <trkpt lat="28.2451522" lon="105.887611"><ele>745.75</ele><time>2026-05-31T00:03:33.000Z</time></trkpt>
        <trkpt lat="28.2452019" lon="105.8875393"><ele>748.97</ele><time>2026-05-31T00:03:37.000Z</time></trkpt>
        <trkpt lat="28.2452457" lon="105.8874911"><ele>752.42</ele><time>2026-05-31T00:03:41.000Z</time></trkpt>
        <trkpt lat="28.2452587" lon="105.8874848"><ele>753.97</ele><time>2026-05-31T00:03:43.000Z</time></trkpt>
        <trkpt lat="28.2452312" lon="105.8875198"><ele>752.89</ele><time>2026-05-31T00:03:49.000Z</time></trkpt>
        <trkpt lat="28.2451894" lon="105.8875789"><ele>750.78</ele><time>2026-05-31T00:03:53.000Z</time></trkpt>
        <trkpt lat="28.2451469" lon="105.8876284"><ele>748.1</ele><time>2026-05-31T00:03:57.000Z</time></trkpt>
        <trkpt lat="28.2450848" lon="105.8876585"><ele>747.05</ele><time>2026-05-31T00:04:03.000Z</time></trkpt>
        <trkpt lat="28.2450351" lon="105.8876861"><ele>747.61</ele><time>2026-05-31T00:04:09.000Z</time></trkpt>
        <trkpt lat="28.244996" lon="105.8877187"><ele>746.83</ele><time>2026-05-31T00:04:17.000Z</time></trkpt>
        <trkpt lat="28.2449464" lon="105.8877222"><ele>746.41</ele><time>2026-05-31T00:04:23.000Z</time></trkpt>
        <trkpt lat="28.2448915" lon="105.8877155"><ele>747.6</ele><time>2026-05-31T00:04:33.000Z</time></trkpt>
        <trkpt lat="28.2448915" lon="105.8877155"><ele>747.6</ele><time>2026-05-31T00:05:19.000Z</time></trkpt>
        <trkpt lat="28.2446845" lon="105.8875618"><ele>749.25</ele><time>2026-05-31T00:06:06.000Z</time></trkpt>
        <trkpt lat="28.2446845" lon="105.8875618"><ele>749.25</ele><time>2026-05-31T00:06:08.000Z</time></trkpt>
        <trkpt lat="28.2448185" lon="105.8876635"><ele>758.81</ele><time>2026-05-31T00:06:13.000Z</time></trkpt>
        <trkpt lat="28.2448185" lon="105.8876635"><ele>758.81</ele><time>2026-05-31T00:06:19.000Z</time></trkpt>
        <trkpt lat="28.2448817" lon="105.887689"><ele>765.65</ele><time>2026-05-31T00:06:20.000Z</time></trkpt>
        <trkpt lat="28.2448817" lon="105.887689"><ele>765.65</ele><time>2026-05-31T00:06:35.000Z</time></trkpt>
        <trkpt lat="28.2448817" lon="105.887689"><ele>765.65</ele><time>2026-05-31T00:06:43.000Z</time></trkpt>
        <trkpt lat="28.2448817" lon="105.887689"><ele>765.65</ele><time>2026-05-31T00:06:50.000Z</time></trkpt>
        <trkpt lat="28.2448817" lon="105.887689"><ele>765.65</ele><time>2026-05-31T00:07:01.000Z</time></trkpt>
        <trkpt lat="28.2449758" lon="105.8877061"><ele>767.6</ele><time>2026-05-31T00:07:06.000Z</time></trkpt>
        <trkpt lat="28.2449758" lon="105.8877061"><ele>767.6</ele><time>2026-05-31T00:07:08.000Z</time></trkpt>
        <trkpt lat="28.2449936" lon="105.8877062"><ele>771.7</ele><time>2026-05-31T00:07:29.000Z</time></trkpt>
        <trkpt lat="28.2449936" lon="105.8877062"><ele>771.7</ele><time>2026-05-31T00:07:33.000Z</time></trkpt>
        <trkpt lat="28.2449936" lon="105.8877062"><ele>771.7</ele><time>2026-05-31T00:09:34.000Z</time></trkpt>
        <trkpt lat="28.2449936" lon="105.8877062"><ele>771.7</ele><time>2026-05-31T00:10:13.000Z</time></trkpt>
        <trkpt lat="28.2452284" lon="105.8876445"><ele>769.86</ele><time>2026-05-31T00:10:14.000Z</time></trkpt>
        <trkpt lat="28.2452284" lon="105.8876445"><ele>769.86</ele><time>2026-05-31T00:10:32.000Z</time></trkpt>
        <trkpt lat="28.2452826" lon="105.8877695"><ele>758.85</ele><time>2026-05-31T00:10:37.000Z</time></trkpt>
        <trkpt lat="28.2453351" lon="105.8877658"><ele>747.5</ele><time>2026-05-31T00:10:49.000Z</time></trkpt>
        <trkpt lat="28.2453351" lon="105.8877658"><ele>747.5</ele><time>2026-05-31T00:11:09.000Z</time></trkpt>
        <trkpt lat="28.2453934" lon="105.8877674"><ele>748.05</ele><time>2026-05-31T00:11:18.000Z</time></trkpt>
        <trkpt lat="28.2453934" lon="105.8877674"><ele>748.05</ele><time>2026-05-31T00:11:20.000Z</time></trkpt>
        <trkpt lat="28.2453934" lon="105.8877674"><ele>748.05</ele><time>2026-05-31T00:14:53.000Z</time></trkpt>
        <trkpt lat="28.2455212" lon="105.8869667"><ele>753.23</ele><time>2026-05-31T00:14:58.000Z</time></trkpt>
        <trkpt lat="28.2455212" lon="105.8869667"><ele>753.23</ele><time>2026-05-31T00:15:11.000Z</time></trkpt>
        <trkpt lat="28.2455364" lon="105.8870366"><ele>758.78</ele><time>2026-05-31T00:15:14.000Z</time></trkpt>
        <trkpt lat="28.2455364" lon="105.8870366"><ele>758.78</ele><time>2026-05-31T00:15:19.000Z</time></trkpt>
        <trkpt lat="28.2455364" lon="105.8870366"><ele>758.78</ele><time>2026-05-31T00:15:34.000Z</time></trkpt>
        <trkpt lat="28.2455364" lon="105.8870366"><ele>758.78</ele><time>2026-05-31T00:15:43.000Z</time></trkpt>
        <trkpt lat="28.2455181" lon="105.8869953"><ele>758.42</ele><time>2026-05-31T00:15:50.000Z</time></trkpt>
        <trkpt lat="28.2455181" lon="105.8869953"><ele>758.42</ele><time>2026-05-31T00:16:01.000Z</time></trkpt>
        <trkpt lat="28.2455752" lon="105.8869288"><ele>761.88</ele><time>2026-05-31T00:16:25.000Z</time></trkpt>
        <trkpt lat="28.2455988" lon="105.8869101"><ele>761.77</ele><time>2026-05-31T00:16:27.000Z</time></trkpt>
        <trkpt lat="28.2456225" lon="105.8868662"><ele>760.96</ele><time>2026-05-31T00:16:37.000Z</time></trkpt>
        <trkpt lat="28.2456333" lon="105.8868439"><ele>761.48</ele><time>2026-05-31T00:16:41.000Z</time></trkpt>
        <trkpt lat="28.2456333" lon="105.8868439"><ele>761.48</ele><time>2026-05-31T00:20:55.000Z</time></trkpt>
        <trkpt lat="28.2462511" lon="105.8859972"><ele>760.3</ele><time>2026-05-31T00:20:58.000Z</time></trkpt>
        <trkpt lat="28.2462511" lon="105.8859972"><ele>760.3</ele><time>2026-05-31T00:21:10.000Z</time></trkpt>
        <trkpt lat="28.2461854" lon="105.886046"><ele>779.38</ele><time>2026-05-31T00:21:13.000Z</time></trkpt>
        <trkpt lat="28.2461854" lon="105.886046"><ele>779.38</ele><time>2026-05-31T00:21:17.000Z</time></trkpt>
        <trkpt lat="28.2461905" lon="105.886179"><ele>782.61</ele><time>2026-05-31T00:21:40.000Z</time></trkpt>
        <trkpt lat="28.2461905" lon="105.886179"><ele>782.61</ele><time>2026-05-31T00:22:45.000Z</time></trkpt>
        <trkpt lat="28.2461938" lon="105.8861399"><ele>779.67</ele><time>2026-05-31T00:22:47.000Z</time></trkpt>
        <trkpt lat="28.2462342" lon="105.8861463"><ele>777.77</ele><time>2026-05-31T00:22:55.000Z</time></trkpt>
        <trkpt lat="28.2462896" lon="105.8861619"><ele>775.8</ele><time>2026-05-31T00:23:13.000Z</time></trkpt>
        <trkpt lat="28.2463445" lon="105.8861818"><ele>773.32</ele><time>2026-05-31T00:23:27.000Z</time></trkpt>
        <trkpt lat="28.2463445" lon="105.8861818"><ele>773.32</ele><time>2026-05-31T00:23:33.000Z</time></trkpt>
        <trkpt lat="28.2464022" lon="105.8861971"><ele>769.84</ele><time>2026-05-31T00:23:38.000Z</time></trkpt>
        <trkpt lat="28.2464022" lon="105.8861971"><ele>769.84</ele><time>2026-05-31T00:24:06.000Z</time></trkpt>
        <trkpt lat="28.2464497" lon="105.8862206"><ele>769.44</ele><time>2026-05-31T00:24:18.000Z</time></trkpt>
        <trkpt lat="28.2464839" lon="105.8862679"><ele>769.14</ele><time>2026-05-31T00:24:24.000Z</time></trkpt>
        <trkpt lat="28.2465255" lon="105.8863018"><ele>768</ele><time>2026-05-31T00:24:28.000Z</time></trkpt>
        <trkpt lat="28.2465728" lon="105.8863066"><ele>768.17</ele><time>2026-05-31T00:24:32.000Z</time></trkpt>
        <trkpt lat="28.2466281" lon="105.8862774"><ele>767.14</ele><time>2026-05-31T00:24:42.000Z</time></trkpt>
        <trkpt lat="28.2466778" lon="105.8862573"><ele>764.6</ele><time>2026-05-31T00:24:50.000Z</time></trkpt>
        <trkpt lat="28.2467362" lon="105.8862479"><ele>762.93</ele><time>2026-05-31T00:25:14.000Z</time></trkpt>
        <trkpt lat="28.2467793" lon="105.8862712"><ele>761.54</ele><time>2026-05-31T00:25:26.000Z</time></trkpt>
        <trkpt lat="28.2468319" lon="105.8862916"><ele>757.5</ele><time>2026-05-31T00:25:46.000Z</time></trkpt>
        <trkpt lat="28.2469292" lon="105.8862975"><ele>755.54</ele><time>2026-05-31T00:25:58.000Z</time></trkpt>
        <trkpt lat="28.2470026" lon="105.8862892"><ele>768.2</ele><time>2026-05-31T00:26:00.000Z</time></trkpt>
        <trkpt lat="28.2470509" lon="105.8862619"><ele>774.15</ele><time>2026-05-31T00:26:04.000Z</time></trkpt>
        <trkpt lat="28.2470852" lon="105.8863006"><ele>769.56</ele><time>2026-05-31T00:26:44.000Z</time></trkpt>
        <trkpt lat="28.2471295" lon="105.8863077"><ele>757.63</ele><time>2026-05-31T00:26:50.000Z</time></trkpt>
        <trkpt lat="28.2471781" lon="105.8863244"><ele>749.63</ele><time>2026-05-31T00:26:58.000Z</time></trkpt>
        <trkpt lat="28.2471781" lon="105.8863244"><ele>749.63</ele><time>2026-05-31T00:27:27.000Z</time></trkpt>
        <trkpt lat="28.2471781" lon="105.8863244"><ele>749.63</ele><time>2026-05-31T00:27:30.000Z</time></trkpt>
        <trkpt lat="28.2471781" lon="105.8863244"><ele>749.63</ele><time>2026-05-31T00:28:11.000Z</time></trkpt>
        <trkpt lat="28.2472036" lon="105.8863759"><ele>743.7</ele><time>2026-05-31T00:28:14.000Z</time></trkpt>
        <trkpt lat="28.2472036" lon="105.8863759"><ele>743.7</ele><time>2026-05-31T00:28:42.000Z</time></trkpt>
        <trkpt lat="28.2472611" lon="105.8863777"><ele>737.67</ele><time>2026-05-31T00:28:54.000Z</time></trkpt>
        <trkpt lat="28.2473021" lon="105.8864044"><ele>733.4</ele><time>2026-05-31T00:29:00.000Z</time></trkpt>
        <trkpt lat="28.2473509" lon="105.8864275"><ele>731.82</ele><time>2026-05-31T00:29:10.000Z</time></trkpt>
        <trkpt lat="28.2473991" lon="105.8864483"><ele>732.07</ele><time>2026-05-31T00:29:26.000Z</time></trkpt>
        <trkpt lat="28.2474242" lon="105.8864609"><ele>733.4</ele><time>2026-05-31T00:29:28.000Z</time></trkpt>
        <trkpt lat="28.2474575" lon="105.8864856"><ele>733.94</ele><time>2026-05-31T00:29:52.000Z</time></trkpt>
        <trkpt lat="28.247487" lon="105.8865136"><ele>735.02</ele><time>2026-05-31T00:29:56.000Z</time></trkpt>
        <trkpt lat="28.2475241" lon="105.8865411"><ele>734.52</ele><time>2026-05-31T00:30:12.000Z</time></trkpt>
        <trkpt lat="28.2475408" lon="105.8865488"><ele>735.31</ele><time>2026-05-31T00:30:14.000Z</time></trkpt>
        <trkpt lat="28.2475714" lon="105.8865691"><ele>735.21</ele><time>2026-05-31T00:30:18.000Z</time></trkpt>
        <trkpt lat="28.2475953" lon="105.8866087"><ele>737.04</ele><time>2026-05-31T00:30:28.000Z</time></trkpt>
        <trkpt lat="28.247616" lon="105.8866673"><ele>738.54</ele><time>2026-05-31T00:30:44.000Z</time></trkpt>
        <trkpt lat="28.2476374" lon="105.8867244"><ele>740</ele><time>2026-05-31T00:30:50.000Z</time></trkpt>
        <trkpt lat="28.2476308" lon="105.8867786"><ele>741.48</ele><time>2026-05-31T00:30:58.000Z</time></trkpt>
        <trkpt lat="28.2476585" lon="105.8868136"><ele>743.24</ele><time>2026-05-31T00:31:26.000Z</time></trkpt>
        <trkpt lat="28.2477345" lon="105.8868195"><ele>742.37</ele><time>2026-05-31T00:32:14.000Z</time></trkpt>
        <trkpt lat="28.2477885" lon="105.8868415"><ele>741.75</ele><time>2026-05-31T00:32:18.000Z</time></trkpt>
        <trkpt lat="28.2477885" lon="105.8868415"><ele>741.75</ele><time>2026-05-31T00:33:49.000Z</time></trkpt>
        <trkpt lat="28.2477885" lon="105.8868415"><ele>741.75</ele><time>2026-05-31T00:33:52.000Z</time></trkpt>
        <trkpt lat="28.2477885" lon="105.8868415"><ele>741.75</ele><time>2026-05-31T00:34:13.000Z</time></trkpt>
        <trkpt lat="28.247835" lon="105.8868132"><ele>743.21</ele><time>2026-05-31T00:34:48.000Z</time></trkpt>
        <trkpt lat="28.247835" lon="105.8868132"><ele>743.21</ele><time>2026-05-31T00:35:23.000Z</time></trkpt>
        <trkpt lat="28.247835" lon="105.8868132"><ele>743.21</ele><time>2026-05-31T00:36:17.000Z</time></trkpt>
        <trkpt lat="28.2478241" lon="105.8869081"><ele>739.88</ele><time>2026-05-31T00:36:22.000Z</time></trkpt>
        <trkpt lat="28.2478241" lon="105.8869081"><ele>739.88</ele><time>2026-05-31T00:36:37.000Z</time></trkpt>
        <trkpt lat="28.2478611" lon="105.8869343"><ele>739.82</ele><time>2026-05-31T00:36:45.000Z</time></trkpt>
        <trkpt lat="28.247905" lon="105.886988"><ele>736.35</ele><time>2026-05-31T00:37:17.000Z</time></trkpt>
        <trkpt lat="28.2480515" lon="105.8874387"><ele>734.32</ele><time>2026-05-31T00:37:25.000Z</time></trkpt>
        <trkpt lat="28.2481439" lon="105.8875695"><ele>733.92</ele><time>2026-05-31T00:37:31.000Z</time></trkpt>
        <trkpt lat="28.2481706" lon="105.8875386"><ele>739.45</ele><time>2026-05-31T00:37:41.000Z</time></trkpt>
        <trkpt lat="28.2481941" lon="105.8875393"><ele>741.34</ele><time>2026-05-31T00:37:53.000Z</time></trkpt>
        <trkpt lat="28.248235" lon="105.8875132"><ele>742.89</ele><time>2026-05-31T00:38:03.000Z</time></trkpt>
        <trkpt lat="28.2482811" lon="105.887491"><ele>742.7</ele><time>2026-05-31T00:38:07.000Z</time></trkpt>
        <trkpt lat="28.2483368" lon="105.8874706"><ele>742.85</ele><time>2026-05-31T00:38:11.000Z</time></trkpt>
        <trkpt lat="28.2483909" lon="105.8874211"><ele>742.02</ele><time>2026-05-31T00:38:13.000Z</time></trkpt>
        <trkpt lat="28.2484369" lon="105.887377"><ele>741.33</ele><time>2026-05-31T00:38:15.000Z</time></trkpt>
        <trkpt lat="28.2484795" lon="105.8873466"><ele>739.6</ele><time>2026-05-31T00:38:17.000Z</time></trkpt>
        <trkpt lat="28.2485324" lon="105.887355"><ele>737.67</ele><time>2026-05-31T00:38:23.000Z</time></trkpt>
        <trkpt lat="28.2485807" lon="105.8873782"><ele>738.21</ele><time>2026-05-31T00:38:29.000Z</time></trkpt>
        <trkpt lat="28.2486272" lon="105.8873656"><ele>737.73</ele><time>2026-05-31T00:38:33.000Z</time></trkpt>
        <trkpt lat="28.2486797" lon="105.887347"><ele>736.92</ele><time>2026-05-31T00:38:39.000Z</time></trkpt>
        <trkpt lat="28.2487475" lon="105.887324"><ele>735.67</ele><time>2026-05-31T00:38:45.000Z</time></trkpt>
        <trkpt lat="28.2487323" lon="105.8873032"><ele>736.16</ele><time>2026-05-31T00:38:49.000Z</time></trkpt>
        <trkpt lat="28.2487638" lon="105.8872632"><ele>732.84</ele><time>2026-05-31T00:38:59.000Z</time></trkpt>
        <trkpt lat="28.2487636" lon="105.8872442"><ele>730.75</ele><time>2026-05-31T00:39:01.000Z</time></trkpt>
        <trkpt lat="28.2487974" lon="105.8872382"><ele>728.46</ele><time>2026-05-31T00:39:07.000Z</time></trkpt>
        <trkpt lat="28.2488462" lon="105.8872228"><ele>727.56</ele><time>2026-05-31T00:39:11.000Z</time></trkpt>
        <trkpt lat="28.2488969" lon="105.8872182"><ele>727.32</ele><time>2026-05-31T00:39:17.000Z</time></trkpt>
        <trkpt lat="28.2489729" lon="105.8872157"><ele>727.29</ele><time>2026-05-31T00:39:23.000Z</time></trkpt>
        <trkpt lat="28.2490296" lon="105.8872159"><ele>729.69</ele><time>2026-05-31T00:39:41.000Z</time></trkpt>
        <trkpt lat="28.2490862" lon="105.8872021"><ele>730.16</ele><time>2026-05-31T00:39:45.000Z</time></trkpt>
        <trkpt lat="28.2491522" lon="105.8871909"><ele>730.57</ele><time>2026-05-31T00:39:51.000Z</time></trkpt>
        <trkpt lat="28.249199" lon="105.8871664"><ele>731.72</ele><time>2026-05-31T00:39:55.000Z</time></trkpt>
        <trkpt lat="28.2492364" lon="105.887133"><ele>733.42</ele><time>2026-05-31T00:39:59.000Z</time></trkpt>
        <trkpt lat="28.2492364" lon="105.887133"><ele>733.42</ele><time>2026-05-31T00:40:31.000Z</time></trkpt>
        <trkpt lat="28.2492107" lon="105.8871749"><ele>735.56</ele><time>2026-05-31T00:40:36.000Z</time></trkpt>
        <trkpt lat="28.2492107" lon="105.8871749"><ele>735.56</ele><time>2026-05-31T00:40:37.000Z</time></trkpt>
        <trkpt lat="28.2491892" lon="105.8872392"><ele>749.15</ele><time>2026-05-31T00:40:42.000Z</time></trkpt>
        <trkpt lat="28.2491892" lon="105.8872392"><ele>749.15</ele><time>2026-05-31T00:40:47.000Z</time></trkpt>
        <trkpt lat="28.2491892" lon="105.8872392"><ele>749.15</ele><time>2026-05-31T00:40:56.000Z</time></trkpt>
        <trkpt lat="28.2491892" lon="105.8872392"><ele>749.15</ele><time>2026-05-31T00:41:07.000Z</time></trkpt>
        <trkpt lat="28.2491892" lon="105.8872392"><ele>749.15</ele><time>2026-05-31T00:41:18.000Z</time></trkpt>
        <trkpt lat="28.2491892" lon="105.8872392"><ele>749.15</ele><time>2026-05-31T00:41:29.000Z</time></trkpt>
        <trkpt lat="28.2491892" lon="105.8872392"><ele>749.15</ele><time>2026-05-31T00:41:40.000Z</time></trkpt>
        <trkpt lat="28.2491892" lon="105.8872392"><ele>749.15</ele><time>2026-05-31T00:42:05.000Z</time></trkpt>
        <trkpt lat="28.2491892" lon="105.8872392"><ele>749.15</ele><time>2026-05-31T00:42:08.000Z</time></trkpt>
        <trkpt lat="28.2491892" lon="105.8872392"><ele>749.15</ele><time>2026-05-31T00:43:07.000Z</time></trkpt>
        <trkpt lat="28.2492272" lon="105.8872384"><ele>758.92</ele><time>2026-05-31T00:43:14.000Z</time></trkpt>
        <trkpt lat="28.2492272" lon="105.8872384"><ele>758.92</ele><time>2026-05-31T00:43:30.000Z</time></trkpt>
        <trkpt lat="28.249286" lon="105.8871919"><ele>759.19</ele><time>2026-05-31T00:43:34.000Z</time></trkpt>
        <trkpt lat="28.2493357" lon="105.8871499"><ele>758.92</ele><time>2026-05-31T00:43:36.000Z</time></trkpt>
        <trkpt lat="28.2493586" lon="105.8871007"><ele>753.32</ele><time>2026-05-31T00:43:40.000Z</time></trkpt>
        <trkpt lat="28.2494037" lon="105.8870726"><ele>746.1</ele><time>2026-05-31T00:43:48.000Z</time></trkpt>
        <trkpt lat="28.249436" lon="105.8870687"><ele>738.38</ele><time>2026-05-31T00:43:50.000Z</time></trkpt>
        <trkpt lat="28.2494767" lon="105.8870609"><ele>735.1</ele><time>2026-05-31T00:44:00.000Z</time></trkpt>
        <trkpt lat="28.2495228" lon="105.8870454"><ele>732.57</ele><time>2026-05-31T00:44:10.000Z</time></trkpt>
        <trkpt lat="28.2495842" lon="105.8870299"><ele>732.09</ele><time>2026-05-31T00:45:06.000Z</time></trkpt>
        <trkpt lat="28.2496513" lon="105.8870298"><ele>732.34</ele><time>2026-05-31T00:45:14.000Z</time></trkpt>
        <trkpt lat="28.2497199" lon="105.8870467"><ele>733.16</ele><time>2026-05-31T00:45:44.000Z</time></trkpt>
        <trkpt lat="28.2497714" lon="105.8870474"><ele>734.38</ele><time>2026-05-31T00:45:54.000Z</time></trkpt>
        <trkpt lat="28.2498211" lon="105.8870391"><ele>734.36</ele><time>2026-05-31T00:46:02.000Z</time></trkpt>
        <trkpt lat="28.249899" lon="105.8870263"><ele>734.8</ele><time>2026-05-31T00:46:06.000Z</time></trkpt>
        <trkpt lat="28.2499259" lon="105.8870212"><ele>735.54</ele><time>2026-05-31T00:46:08.000Z</time></trkpt>
        <trkpt lat="28.2499684" lon="105.8870372"><ele>735.88</ele><time>2026-05-31T00:46:18.000Z</time></trkpt>
        <trkpt lat="28.2500182" lon="105.8870442"><ele>737.92</ele><time>2026-05-31T00:46:22.000Z</time></trkpt>
        <trkpt lat="28.2500757" lon="105.8870462"><ele>738.23</ele><time>2026-05-31T00:46:30.000Z</time></trkpt>
        <trkpt lat="28.2501278" lon="105.8870172"><ele>738.83</ele><time>2026-05-31T00:46:42.000Z</time></trkpt>
        <trkpt lat="28.2501278" lon="105.8870172"><ele>738.83</ele><time>2026-05-31T00:46:57.000Z</time></trkpt>
        <trkpt lat="28.2501797" lon="105.8870173"><ele>737.96</ele><time>2026-05-31T00:47:02.000Z</time></trkpt>
        <trkpt lat="28.2501797" lon="105.8870173"><ele>737.96</ele><time>2026-05-31T00:47:12.000Z</time></trkpt>
        <trkpt lat="28.2502182" lon="105.887047"><ele>737.17</ele><time>2026-05-31T00:47:40.000Z</time></trkpt>
        <trkpt lat="28.2502754" lon="105.8870508"><ele>738.53</ele><time>2026-05-31T00:47:58.000Z</time></trkpt>
        <trkpt lat="28.2503105" lon="105.8870538"><ele>737.56</ele><time>2026-05-31T00:48:02.000Z</time></trkpt>
        <trkpt lat="28.2503568" lon="105.8870357"><ele>736.05</ele><time>2026-05-31T00:48:14.000Z</time></trkpt>
        <trkpt lat="28.2504057" lon="105.887027"><ele>734.49</ele><time>2026-05-31T00:49:12.000Z</time></trkpt>
        <trkpt lat="28.2504589" lon="105.8870162"><ele>733.21</ele><time>2026-05-31T00:49:24.000Z</time></trkpt>
        <trkpt lat="28.2504589" lon="105.8870162"><ele>733.21</ele><time>2026-05-31T00:49:51.000Z</time></trkpt>
        <trkpt lat="28.2505075" lon="105.8869265"><ele>731.56</ele><time>2026-05-31T00:49:54.000Z</time></trkpt>
        <trkpt lat="28.2505075" lon="105.8869265"><ele>731.56</ele><time>2026-05-31T00:50:20.000Z</time></trkpt>
        <trkpt lat="28.2505439" lon="105.8868855"><ele>728.47</ele><time>2026-05-31T00:50:34.000Z</time></trkpt>
        <trkpt lat="28.2505688" lon="105.8868597"><ele>725.53</ele><time>2026-05-31T00:50:36.000Z</time></trkpt>
        <trkpt lat="28.2506041" lon="105.8868224"><ele>723.59</ele><time>2026-05-31T00:50:42.000Z</time></trkpt>
        <trkpt lat="28.2506041" lon="105.8868224"><ele>723.59</ele><time>2026-05-31T00:50:59.000Z</time></trkpt>
        <trkpt lat="28.2506083" lon="105.8867496"><ele>723.97</ele><time>2026-05-31T00:51:02.000Z</time></trkpt>
        <trkpt lat="28.2506083" lon="105.8867496"><ele>723.97</ele><time>2026-05-31T00:52:12.000Z</time></trkpt>
        <trkpt lat="28.2506299" lon="105.8867008"><ele>724.37</ele><time>2026-05-31T00:52:20.000Z</time></trkpt>
        <trkpt lat="28.2506704" lon="105.8867061"><ele>723.93</ele><time>2026-05-31T00:52:36.000Z</time></trkpt>
        <trkpt lat="28.2507175" lon="105.8866999"><ele>724.84</ele><time>2026-05-31T00:53:06.000Z</time></trkpt>
        <trkpt lat="28.250771" lon="105.886666"><ele>724.25</ele><time>2026-05-31T00:53:42.000Z</time></trkpt>
        <trkpt lat="28.2508076" lon="105.8866257"><ele>724.98</ele><time>2026-05-31T00:53:50.000Z</time></trkpt>
        <trkpt lat="28.2508278" lon="105.8865759"><ele>725.39</ele><time>2026-05-31T00:54:02.000Z</time></trkpt>
        <trkpt lat="28.2508556" lon="105.8865203"><ele>723.94</ele><time>2026-05-31T00:54:30.000Z</time></trkpt>
        <trkpt lat="28.2508829" lon="105.8864954"><ele>722.94</ele><time>2026-05-31T00:54:32.000Z</time></trkpt>
        <trkpt lat="28.2508829" lon="105.8864954"><ele>722.94</ele><time>2026-05-31T00:54:55.000Z</time></trkpt>
        <trkpt lat="28.2509104" lon="105.8864603"><ele>723.01</ele><time>2026-05-31T00:55:00.000Z</time></trkpt>
        <trkpt lat="28.2509104" lon="105.8864603"><ele>723.01</ele><time>2026-05-31T00:55:01.000Z</time></trkpt>
        <trkpt lat="28.2509348" lon="105.8864177"><ele>723.9</ele><time>2026-05-31T00:57:14.000Z</time></trkpt>
        <trkpt lat="28.2509348" lon="105.8864177"><ele>723.9</ele><time>2026-05-31T00:57:17.000Z</time></trkpt>
        <trkpt lat="28.2509748" lon="105.8863873"><ele>723.55</ele><time>2026-05-31T00:57:24.000Z</time></trkpt>
        <trkpt lat="28.2509748" lon="105.8863873"><ele>723.55</ele><time>2026-05-31T00:57:30.000Z</time></trkpt>
        <trkpt lat="28.2509748" lon="105.8863873"><ele>723.55</ele><time>2026-05-31T00:57:35.000Z</time></trkpt>
        <trkpt lat="28.2509748" lon="105.8863873"><ele>723.55</ele><time>2026-05-31T00:57:48.000Z</time></trkpt>
        <trkpt lat="28.2509748" lon="105.8863873"><ele>723.55</ele><time>2026-05-31T00:57:59.000Z</time></trkpt>
        <trkpt lat="28.2509748" lon="105.8863873"><ele>723.55</ele><time>2026-05-31T00:58:18.000Z</time></trkpt>
        <trkpt lat="28.2509748" lon="105.8863873"><ele>723.55</ele><time>2026-05-31T00:58:31.000Z</time></trkpt>
        <trkpt lat="28.2509748" lon="105.8863873"><ele>723.55</ele><time>2026-05-31T00:58:36.000Z</time></trkpt>
        <trkpt lat="28.2509748" lon="105.8863873"><ele>723.55</ele><time>2026-05-31T00:58:45.000Z</time></trkpt>
        <trkpt lat="28.2509748" lon="105.8863873"><ele>723.55</ele><time>2026-05-31T00:59:30.000Z</time></trkpt>
        <trkpt lat="28.2509748" lon="105.8863873"><ele>723.55</ele><time>2026-05-31T00:59:49.000Z</time></trkpt>
        <trkpt lat="28.2509748" lon="105.8863873"><ele>723.55</ele><time>2026-05-31T00:59:56.000Z</time></trkpt>
        <trkpt lat="28.2509748" lon="105.8863873"><ele>723.55</ele><time>2026-05-31T01:00:05.000Z</time></trkpt>
        <trkpt lat="28.2509891" lon="105.8863356"><ele>722.29</ele><time>2026-05-31T01:00:16.000Z</time></trkpt>
        <trkpt lat="28.2509891" lon="105.8863356"><ele>722.29</ele><time>2026-05-31T01:01:23.000Z</time></trkpt>
        <trkpt lat="28.2510024" lon="105.8862834"><ele>717.51</ele><time>2026-05-31T01:01:35.000Z</time></trkpt>
        <trkpt lat="28.2510024" lon="105.8862834"><ele>717.51</ele><time>2026-05-31T01:02:21.000Z</time></trkpt>
        <trkpt lat="28.2510454" lon="105.8862678"><ele>710.01</ele><time>2026-05-31T01:02:40.000Z</time></trkpt>
        <trkpt lat="28.2510454" lon="105.8862678"><ele>710.01</ele><time>2026-05-31T01:02:44.000Z</time></trkpt>
        <trkpt lat="28.2510454" lon="105.8862678"><ele>710.01</ele><time>2026-05-31T01:03:05.000Z</time></trkpt>
        <trkpt lat="28.2510709" lon="105.8862207"><ele>705.44</ele><time>2026-05-31T01:03:24.000Z</time></trkpt>
        <trkpt lat="28.2510709" lon="105.8862207"><ele>705.44</ele><time>2026-05-31T01:03:50.000Z</time></trkpt>
        <trkpt lat="28.2510834" lon="105.8861708"><ele>701.08</ele><time>2026-05-31T01:04:02.000Z</time></trkpt>
        <trkpt lat="28.2511165" lon="105.886123"><ele>699.26</ele><time>2026-05-31T01:04:14.000Z</time></trkpt>
        <trkpt lat="28.2511639" lon="105.8860852"><ele>698.11</ele><time>2026-05-31T01:04:30.000Z</time></trkpt>
        <trkpt lat="28.251212" lon="105.8860782"><ele>698.59</ele><time>2026-05-31T01:04:44.000Z</time></trkpt>
        <trkpt lat="28.2512539" lon="105.886056"><ele>700.41</ele><time>2026-05-31T01:05:08.000Z</time></trkpt>
        <trkpt lat="28.2512697" lon="105.8860433"><ele>702.6</ele><time>2026-05-31T01:05:10.000Z</time></trkpt>
        <trkpt lat="28.2512976" lon="105.8860181"><ele>704.17</ele><time>2026-05-31T01:05:24.000Z</time></trkpt>
        <trkpt lat="28.2513433" lon="105.8860228"><ele>706.55</ele><time>2026-05-31T01:05:40.000Z</time></trkpt>
        <trkpt lat="28.2513861" lon="105.885987"><ele>709.27</ele><time>2026-05-31T01:06:34.000Z</time></trkpt>
        <trkpt lat="28.2514299" lon="105.8859634"><ele>712.36</ele><time>2026-05-31T01:06:46.000Z</time></trkpt>
        <trkpt lat="28.2514461" lon="105.8859554"><ele>712.34</ele><time>2026-05-31T01:06:48.000Z</time></trkpt>
        <trkpt lat="28.2514835" lon="105.8859647"><ele>712.22</ele><time>2026-05-31T01:07:00.000Z</time></trkpt>
        <trkpt lat="28.2515274" lon="105.885972"><ele>709.69</ele><time>2026-05-31T01:07:14.000Z</time></trkpt>
        <trkpt lat="28.2515775" lon="105.8859659"><ele>707.54</ele><time>2026-05-31T01:07:30.000Z</time></trkpt>
        <trkpt lat="28.2516168" lon="105.8859888"><ele>706.55</ele><time>2026-05-31T01:08:20.000Z</time></trkpt>
        <trkpt lat="28.2516379" lon="105.8860338"><ele>706.84</ele><time>2026-05-31T01:08:36.000Z</time></trkpt>
        <trkpt lat="28.2516379" lon="105.8860338"><ele>706.84</ele><time>2026-05-31T01:09:03.000Z</time></trkpt>
        <trkpt lat="28.2516957" lon="105.8860582"><ele>707</ele><time>2026-05-31T01:09:06.000Z</time></trkpt>
        <trkpt lat="28.2516957" lon="105.8860582"><ele>707</ele><time>2026-05-31T01:09:08.000Z</time></trkpt>
        <trkpt lat="28.2517465" lon="105.886054"><ele>708.11</ele><time>2026-05-31T01:09:16.000Z</time></trkpt>
        <trkpt lat="28.2517993" lon="105.8860512"><ele>709.84</ele><time>2026-05-31T01:09:52.000Z</time></trkpt>
        <trkpt lat="28.2517993" lon="105.8860512"><ele>709.84</ele><time>2026-05-31T01:11:39.000Z</time></trkpt>
        <trkpt lat="28.2518612" lon="105.88604"><ele>713.71</ele><time>2026-05-31T01:11:42.000Z</time></trkpt>
        <trkpt lat="28.2518612" lon="105.88604"><ele>713.71</ele><time>2026-05-31T01:11:44.000Z</time></trkpt>
        <trkpt lat="28.2518446" lon="105.8860896"><ele>718.05</ele><time>2026-05-31T01:12:49.000Z</time></trkpt>
        <trkpt lat="28.2518776" lon="105.8861442"><ele>720.76</ele><time>2026-05-31T01:13:05.000Z</time></trkpt>
        <trkpt lat="28.2519061" lon="105.8861884"><ele>721.46</ele><time>2026-05-31T01:13:09.000Z</time></trkpt>
        <trkpt lat="28.2519606" lon="105.8862271"><ele>721.91</ele><time>2026-05-31T01:14:07.000Z</time></trkpt>
        <trkpt lat="28.2519758" lon="105.886249"><ele>718.35</ele><time>2026-05-31T01:14:09.000Z</time></trkpt>
        <trkpt lat="28.2520151" lon="105.886268"><ele>715.67</ele><time>2026-05-31T01:14:15.000Z</time></trkpt>
        <trkpt lat="28.2520669" lon="105.8862808"><ele>714</ele><time>2026-05-31T01:14:19.000Z</time></trkpt>
        <trkpt lat="28.2520669" lon="105.8862808"><ele>714</ele><time>2026-05-31T01:15:09.000Z</time></trkpt>
        <trkpt lat="28.2521157" lon="105.8862856"><ele>712.75</ele><time>2026-05-31T01:15:16.000Z</time></trkpt>
        <trkpt lat="28.2521157" lon="105.8862856"><ele>712.75</ele><time>2026-05-31T01:15:17.000Z</time></trkpt>
        <trkpt lat="28.2521766" lon="105.8862664"><ele>713.86</ele><time>2026-05-31T01:15:24.000Z</time></trkpt>
        <trkpt lat="28.2522313" lon="105.8862458"><ele>714.05</ele><time>2026-05-31T01:15:40.000Z</time></trkpt>
        <trkpt lat="28.2522756" lon="105.8862814"><ele>709.72</ele><time>2026-05-31T01:16:52.000Z</time></trkpt>
        <trkpt lat="28.252321" lon="105.8863065"><ele>705.35</ele><time>2026-05-31T01:17:08.000Z</time></trkpt>
        <trkpt lat="28.2523721" lon="105.8863113"><ele>702.82</ele><time>2026-05-31T01:17:24.000Z</time></trkpt>
        <trkpt lat="28.2524243" lon="105.8863042"><ele>702.03</ele><time>2026-05-31T01:17:30.000Z</time></trkpt>
        <trkpt lat="28.2524243" lon="105.8863042"><ele>702.03</ele><time>2026-05-31T01:18:05.000Z</time></trkpt>
        <trkpt lat="28.2524865" lon="105.8863185"><ele>701.8</ele><time>2026-05-31T01:18:22.000Z</time></trkpt>
        <trkpt lat="28.2524865" lon="105.8863185"><ele>701.8</ele><time>2026-05-31T01:18:27.000Z</time></trkpt>
        <trkpt lat="28.2525506" lon="105.8863327"><ele>698.63</ele><time>2026-05-31T01:18:37.000Z</time></trkpt>
        <trkpt lat="28.2525506" lon="105.8863327"><ele>698.63</ele><time>2026-05-31T01:18:45.000Z</time></trkpt>
        <trkpt lat="28.2526007" lon="105.8863571"><ele>698.2</ele><time>2026-05-31T01:18:46.000Z</time></trkpt>
        <trkpt lat="28.2526007" lon="105.8863571"><ele>698.2</ele><time>2026-05-31T01:18:51.000Z</time></trkpt>
        <trkpt lat="28.2526501" lon="105.8863862"><ele>699.64</ele><time>2026-05-31T01:18:59.000Z</time></trkpt>
        <trkpt lat="28.2527013" lon="105.8864004"><ele>700.3</ele><time>2026-05-31T01:19:23.000Z</time></trkpt>
        <trkpt lat="28.2527451" lon="105.8864321"><ele>701.81</ele><time>2026-05-31T01:19:29.000Z</time></trkpt>
        <trkpt lat="28.2527532" lon="105.8864522"><ele>702.54</ele><time>2026-05-31T01:19:31.000Z</time></trkpt>
        <trkpt lat="28.2527644" lon="105.8865125"><ele>702.86</ele><time>2026-05-31T01:19:37.000Z</time></trkpt>
        <trkpt lat="28.2527823" lon="105.8865734"><ele>703.63</ele><time>2026-05-31T01:19:47.000Z</time></trkpt>
        <trkpt lat="28.252821" lon="105.886579"><ele>703.91</ele><time>2026-05-31T01:19:57.000Z</time></trkpt>
        <trkpt lat="28.2528695" lon="105.8865461"><ele>705.19</ele><time>2026-05-31T01:20:25.000Z</time></trkpt>
        <trkpt lat="28.2529077" lon="105.8865748"><ele>703.54</ele><time>2026-05-31T01:20:35.000Z</time></trkpt>
        <trkpt lat="28.2529094" lon="105.8866399"><ele>703.01</ele><time>2026-05-31T01:20:39.000Z</time></trkpt>
        <trkpt lat="28.2529003" lon="105.8867004"><ele>704.33</ele><time>2026-05-31T01:20:43.000Z</time></trkpt>
        <trkpt lat="28.2529369" lon="105.8867028"><ele>705.46</ele><time>2026-05-31T01:20:49.000Z</time></trkpt>
        <trkpt lat="28.2529419" lon="105.8866857"><ele>705.77</ele><time>2026-05-31T01:20:53.000Z</time></trkpt>
        <trkpt lat="28.2529419" lon="105.8866857"><ele>705.77</ele><time>2026-05-31T01:21:01.000Z</time></trkpt>
        <trkpt lat="28.2529152" lon="105.8867302"><ele>706.26</ele><time>2026-05-31T01:21:08.000Z</time></trkpt>
        <trkpt lat="28.2529152" lon="105.8867302"><ele>706.26</ele><time>2026-05-31T01:21:10.000Z</time></trkpt>
        <trkpt lat="28.2529029" lon="105.886794"><ele>701.79</ele><time>2026-05-31T01:21:17.000Z</time></trkpt>
        <trkpt lat="28.2529029" lon="105.886794"><ele>701.79</ele><time>2026-05-31T01:21:31.000Z</time></trkpt>
        <trkpt lat="28.2529238" lon="105.8867808"><ele>697.36</ele><time>2026-05-31T01:21:50.000Z</time></trkpt>
        <trkpt lat="28.2529238" lon="105.8867808"><ele>697.36</ele><time>2026-05-31T01:21:55.000Z</time></trkpt>
        <trkpt lat="28.2529238" lon="105.8867808"><ele>697.36</ele><time>2026-05-31T01:23:05.000Z</time></trkpt>
        <trkpt lat="28.2529238" lon="105.8867808"><ele>697.36</ele><time>2026-05-31T01:23:24.000Z</time></trkpt>
        <trkpt lat="28.2529238" lon="105.8867808"><ele>697.36</ele><time>2026-05-31T01:23:55.000Z</time></trkpt>
        <trkpt lat="28.2528881" lon="105.8867613"><ele>698.93</ele><time>2026-05-31T01:24:04.000Z</time></trkpt>
        <trkpt lat="28.2528881" lon="105.8867613"><ele>698.93</ele><time>2026-05-31T01:24:05.000Z</time></trkpt>
        <trkpt lat="28.2528881" lon="105.8867613"><ele>698.93</ele><time>2026-05-31T01:24:21.000Z</time></trkpt>
        <trkpt lat="28.2529351" lon="105.8866178"><ele>701.45</ele><time>2026-05-31T01:25:42.000Z</time></trkpt>
        <trkpt lat="28.2529351" lon="105.8866178"><ele>701.45</ele><time>2026-05-31T01:25:43.000Z</time></trkpt>
        <trkpt lat="28.2529156" lon="105.8866952"><ele>696.15</ele><time>2026-05-31T01:25:46.000Z</time></trkpt>
        <trkpt lat="28.2528835" lon="105.8867381"><ele>695.75</ele><time>2026-05-31T01:26:10.000Z</time></trkpt>
        <trkpt lat="28.252888" lon="105.8867903"><ele>696.97</ele><time>2026-05-31T01:26:20.000Z</time></trkpt>
        <trkpt lat="28.2529058" lon="105.8868036"><ele>699.38</ele><time>2026-05-31T01:26:26.000Z</time></trkpt>
        <trkpt lat="28.2529403" lon="105.8868412"><ele>701.95</ele><time>2026-05-31T01:26:38.000Z</time></trkpt>
        <trkpt lat="28.2529736" lon="105.8868844"><ele>704.86</ele><time>2026-05-31T01:26:42.000Z</time></trkpt>
        <trkpt lat="28.2530194" lon="105.8869172"><ele>706.34</ele><time>2026-05-31T01:26:48.000Z</time></trkpt>
        <trkpt lat="28.2530762" lon="105.8869446"><ele>707.98</ele><time>2026-05-31T01:27:00.000Z</time></trkpt>
        <trkpt lat="28.2530991" lon="105.8869929"><ele>709.84</ele><time>2026-05-31T01:27:18.000Z</time></trkpt>
        <trkpt lat="28.2531428" lon="105.8870406"><ele>710.2</ele><time>2026-05-31T01:27:34.000Z</time></trkpt>
        <trkpt lat="28.2531816" lon="105.8870855"><ele>710.01</ele><time>2026-05-31T01:27:40.000Z</time></trkpt>
        <trkpt lat="28.2532274" lon="105.8871098"><ele>711</ele><time>2026-05-31T01:27:52.000Z</time></trkpt>
        <trkpt lat="28.2532691" lon="105.8871403"><ele>709.3</ele><time>2026-05-31T01:28:10.000Z</time></trkpt>
        <trkpt lat="28.2533143" lon="105.8871705"><ele>708.01</ele><time>2026-05-31T01:28:44.000Z</time></trkpt>
        <trkpt lat="28.2533587" lon="105.8871978"><ele>707.05</ele><time>2026-05-31T01:29:16.000Z</time></trkpt>
        <trkpt lat="28.2533957" lon="105.8872301"><ele>707.17</ele><time>2026-05-31T01:29:34.000Z</time></trkpt>
        <trkpt lat="28.253421" lon="105.8872739"><ele>708.26</ele><time>2026-05-31T01:29:42.000Z</time></trkpt>
        <trkpt lat="28.2534377" lon="105.8873443"><ele>709.57</ele><time>2026-05-31T01:30:10.000Z</time></trkpt>
        <trkpt lat="28.2534809" lon="105.8873484"><ele>710.7</ele><time>2026-05-31T01:30:14.000Z</time></trkpt>
        <trkpt lat="28.2535204" lon="105.8873701"><ele>711.46</ele><time>2026-05-31T01:30:22.000Z</time></trkpt>
        <trkpt lat="28.2535175" lon="105.8874325"><ele>709.27</ele><time>2026-05-31T01:30:26.000Z</time></trkpt>
        <trkpt lat="28.253544" lon="105.8874743"><ele>707.19</ele><time>2026-05-31T01:30:30.000Z</time></trkpt>
        <trkpt lat="28.253553" lon="105.8874802"><ele>703.31</ele><time>2026-05-31T01:30:32.000Z</time></trkpt>
        <trkpt lat="28.253553" lon="105.8874802"><ele>703.31</ele><time>2026-05-31T01:30:57.000Z</time></trkpt>
        <trkpt lat="28.2535412" lon="105.8874365"><ele>700.7</ele><time>2026-05-31T01:30:58.000Z</time></trkpt>
        <trkpt lat="28.2535412" lon="105.8874365"><ele>700.7</ele><time>2026-05-31T01:31:03.000Z</time></trkpt>
        <trkpt lat="28.2535622" lon="105.8874483"><ele>703.12</ele><time>2026-05-31T01:31:25.000Z</time></trkpt>
        <trkpt lat="28.2536092" lon="105.887472"><ele>703.55</ele><time>2026-05-31T01:31:35.000Z</time></trkpt>
        <trkpt lat="28.2536481" lon="105.8874877"><ele>703</ele><time>2026-05-31T01:31:41.000Z</time></trkpt>
        <trkpt lat="28.2536967" lon="105.8875002"><ele>702.39</ele><time>2026-05-31T01:32:15.000Z</time></trkpt>
        <trkpt lat="28.2537481" lon="105.8874773"><ele>702.37</ele><time>2026-05-31T01:32:21.000Z</time></trkpt>
        <trkpt lat="28.2537962" lon="105.8874529"><ele>703.56</ele><time>2026-05-31T01:32:27.000Z</time></trkpt>
        <trkpt lat="28.2538287" lon="105.8874779"><ele>705.12</ele><time>2026-05-31T01:32:45.000Z</time></trkpt>
        <trkpt lat="28.2538287" lon="105.8874779"><ele>705.12</ele><time>2026-05-31T01:32:59.000Z</time></trkpt>
        <trkpt lat="28.253842" lon="105.887587"><ele>706.88</ele><time>2026-05-31T01:33:06.000Z</time></trkpt>
        <trkpt lat="28.253842" lon="105.887587"><ele>706.88</ele><time>2026-05-31T01:33:07.000Z</time></trkpt>
        <trkpt lat="28.2538748" lon="105.8876118"><ele>706.54</ele><time>2026-05-31T01:33:26.000Z</time></trkpt>
        <trkpt lat="28.2539182" lon="105.8876048"><ele>707.01</ele><time>2026-05-31T01:33:34.000Z</time></trkpt>
        <trkpt lat="28.2539688" lon="105.8875809"><ele>707.52</ele><time>2026-05-31T01:33:44.000Z</time></trkpt>
        <trkpt lat="28.2540166" lon="105.8875851"><ele>708.48</ele><time>2026-05-31T01:33:52.000Z</time></trkpt>
        <trkpt lat="28.254066" lon="105.8875817"><ele>710.56</ele><time>2026-05-31T01:34:02.000Z</time></trkpt>
        <trkpt lat="28.2540937" lon="105.887558"><ele>710.99</ele><time>2026-05-31T01:34:06.000Z</time></trkpt>
        <trkpt lat="28.2541382" lon="105.887531"><ele>711.22</ele><time>2026-05-31T01:34:14.000Z</time></trkpt>
        <trkpt lat="28.2541743" lon="105.8875066"><ele>711.02</ele><time>2026-05-31T01:34:18.000Z</time></trkpt>
        <trkpt lat="28.254206" lon="105.8875369"><ele>711.05</ele><time>2026-05-31T01:34:26.000Z</time></trkpt>
        <trkpt lat="28.2542149" lon="105.8875573"><ele>711.13</ele><time>2026-05-31T01:34:28.000Z</time></trkpt>
        <trkpt lat="28.2542149" lon="105.8875573"><ele>711.13</ele><time>2026-05-31T01:34:37.000Z</time></trkpt>
        <trkpt lat="28.2542512" lon="105.8875488"><ele>711.41</ele><time>2026-05-31T01:34:44.000Z</time></trkpt>
        <trkpt lat="28.2542512" lon="105.8875488"><ele>711.41</ele><time>2026-05-31T01:35:26.000Z</time></trkpt>
        <trkpt lat="28.2542962" lon="105.8875549"><ele>713</ele><time>2026-05-31T01:35:50.000Z</time></trkpt>
        <trkpt lat="28.2543478" lon="105.8875495"><ele>713.92</ele><time>2026-05-31T01:36:20.000Z</time></trkpt>
        <trkpt lat="28.2543998" lon="105.8875427"><ele>716.42</ele><time>2026-05-31T01:36:28.000Z</time></trkpt>
        <trkpt lat="28.2544507" lon="105.8875343"><ele>717.41</ele><time>2026-05-31T01:36:44.000Z</time></trkpt>
        <trkpt lat="28.2545019" lon="105.8875381"><ele>719.84</ele><time>2026-05-31T01:37:04.000Z</time></trkpt>
        <trkpt lat="28.2545528" lon="105.8875484"><ele>721.96</ele><time>2026-05-31T01:37:26.000Z</time></trkpt>
        <trkpt lat="28.2545995" lon="105.8875586"><ele>721.3</ele><time>2026-05-31T01:37:32.000Z</time></trkpt>
        <trkpt lat="28.2546498" lon="105.8875732"><ele>721.42</ele><time>2026-05-31T01:37:50.000Z</time></trkpt>
        <trkpt lat="28.2546965" lon="105.8875985"><ele>723.52</ele><time>2026-05-31T01:37:54.000Z</time></trkpt>
        <trkpt lat="28.2547445" lon="105.8876161"><ele>725.12</ele><time>2026-05-31T01:38:00.000Z</time></trkpt>
        <trkpt lat="28.2547832" lon="105.8876585"><ele>726.1</ele><time>2026-05-31T01:38:06.000Z</time></trkpt>
        <trkpt lat="28.2547992" lon="105.887711"><ele>726.61</ele><time>2026-05-31T01:38:10.000Z</time></trkpt>
        <trkpt lat="28.2547962" lon="105.8877723"><ele>725.66</ele><time>2026-05-31T01:38:24.000Z</time></trkpt>
        <trkpt lat="28.2548262" lon="105.8877907"><ele>727.31</ele><time>2026-05-31T01:38:34.000Z</time></trkpt>
        <trkpt lat="28.2548681" lon="105.8878089"><ele>726.07</ele><time>2026-05-31T01:38:40.000Z</time></trkpt>
        <trkpt lat="28.2549129" lon="105.8878253"><ele>724.97</ele><time>2026-05-31T01:38:46.000Z</time></trkpt>
        <trkpt lat="28.2549618" lon="105.8878292"><ele>723.28</ele><time>2026-05-31T01:38:52.000Z</time></trkpt>
        <trkpt lat="28.2549794" lon="105.88787"><ele>721.98</ele><time>2026-05-31T01:39:02.000Z</time></trkpt>
        <trkpt lat="28.2549279" lon="105.887858"><ele>721.85</ele><time>2026-05-31T01:39:12.000Z</time></trkpt>
        <trkpt lat="28.2549205" lon="105.8878416"><ele>721.3</ele><time>2026-05-31T01:39:14.000Z</time></trkpt>
        <trkpt lat="28.2549205" lon="105.8878416"><ele>721.3</ele><time>2026-05-31T01:39:23.000Z</time></trkpt>
        <trkpt lat="28.2549485" lon="105.8878121"><ele>720.8</ele><time>2026-05-31T01:39:32.000Z</time></trkpt>
        <trkpt lat="28.2549485" lon="105.8878121"><ele>720.8</ele><time>2026-05-31T01:39:37.000Z</time></trkpt>
        <trkpt lat="28.2549976" lon="105.8878338"><ele>716.86</ele><time>2026-05-31T01:40:09.000Z</time></trkpt>
        <trkpt lat="28.2550414" lon="105.8878767"><ele>716.36</ele><time>2026-05-31T01:40:15.000Z</time></trkpt>
        <trkpt lat="28.2550882" lon="105.8878896"><ele>713.28</ele><time>2026-05-31T01:40:53.000Z</time></trkpt>
        <trkpt lat="28.2551546" lon="105.8879179"><ele>710.91</ele><time>2026-05-31T01:40:57.000Z</time></trkpt>
        <trkpt lat="28.2552157" lon="105.8879501"><ele>708.69</ele><time>2026-05-31T01:41:03.000Z</time></trkpt>
        <trkpt lat="28.2552662" lon="105.8879554"><ele>705.03</ele><time>2026-05-31T01:41:05.000Z</time></trkpt>
        <trkpt lat="28.2553143" lon="105.8879341"><ele>701.97</ele><time>2026-05-31T01:41:07.000Z</time></trkpt>
        <trkpt lat="28.2553723" lon="105.8879288"><ele>700.12</ele><time>2026-05-31T01:41:11.000Z</time></trkpt>
        <trkpt lat="28.2554223" lon="105.8879023"><ele>700.09</ele><time>2026-05-31T01:41:17.000Z</time></trkpt>
        <trkpt lat="28.2554715" lon="105.8879039"><ele>701.05</ele><time>2026-05-31T01:41:21.000Z</time></trkpt>
        <trkpt lat="28.2555214" lon="105.8879226"><ele>701.32</ele><time>2026-05-31T01:41:25.000Z</time></trkpt>
        <trkpt lat="28.2555756" lon="105.887918"><ele>702.54</ele><time>2026-05-31T01:41:31.000Z</time></trkpt>
        <trkpt lat="28.2556213" lon="105.8879373"><ele>705.69</ele><time>2026-05-31T01:41:35.000Z</time></trkpt>
        <trkpt lat="28.2556585" lon="105.8879788"><ele>708.19</ele><time>2026-05-31T01:41:41.000Z</time></trkpt>
        <trkpt lat="28.2556899" lon="105.8880247"><ele>712.41</ele><time>2026-05-31T01:41:53.000Z</time></trkpt>
        <trkpt lat="28.2557257" lon="105.8880587"><ele>715.89</ele><time>2026-05-31T01:42:07.000Z</time></trkpt>
        <trkpt lat="28.255769" lon="105.8880524"><ele>720.21</ele><time>2026-05-31T01:42:16.000Z</time></trkpt>
        <trkpt lat="28.2558212" lon="105.8880475"><ele>723.18</ele><time>2026-05-31T01:42:26.000Z</time></trkpt>
        <trkpt lat="28.2558596" lon="105.8880861"><ele>724.25</ele><time>2026-05-31T01:42:36.000Z</time></trkpt>
        <trkpt lat="28.2559022" lon="105.8881245"><ele>726.71</ele><time>2026-05-31T01:42:46.000Z</time></trkpt>
        <trkpt lat="28.2559361" lon="105.8881697"><ele>728.86</ele><time>2026-05-31T01:43:08.000Z</time></trkpt>
        <trkpt lat="28.2559783" lon="105.8881717"><ele>727.23</ele><time>2026-05-31T01:43:18.000Z</time></trkpt>
        <trkpt lat="28.2559954" lon="105.8882069"><ele>724.58</ele><time>2026-05-31T01:43:22.000Z</time></trkpt>
        <trkpt lat="28.2560146" lon="105.8881688"><ele>723.98</ele><time>2026-05-31T01:43:46.000Z</time></trkpt>
        <trkpt lat="28.2560463" lon="105.8881752"><ele>720.49</ele><time>2026-05-31T01:43:50.000Z</time></trkpt>
        <trkpt lat="28.2560827" lon="105.888219"><ele>718.2</ele><time>2026-05-31T01:43:56.000Z</time></trkpt>
        <trkpt lat="28.2561244" lon="105.8882701"><ele>715.27</ele><time>2026-05-31T01:44:02.000Z</time></trkpt>
        <trkpt lat="28.2561706" lon="105.8882868"><ele>713.89</ele><time>2026-05-31T01:44:12.000Z</time></trkpt>
        <trkpt lat="28.2562175" lon="105.8883078"><ele>713.69</ele><time>2026-05-31T01:44:28.000Z</time></trkpt>
        <trkpt lat="28.2562437" lon="105.8883589"><ele>714.93</ele><time>2026-05-31T01:44:38.000Z</time></trkpt>
        <trkpt lat="28.2562921" lon="105.8883858"><ele>715.82</ele><time>2026-05-31T01:44:52.000Z</time></trkpt>
        <trkpt lat="28.2563365" lon="105.8884242"><ele>715.06</ele><time>2026-05-31T01:44:58.000Z</time></trkpt>
        <trkpt lat="28.2563749" lon="105.8884707"><ele>715.17</ele><time>2026-05-31T01:45:06.000Z</time></trkpt>
        <trkpt lat="28.2564006" lon="105.8885184"><ele>716.6</ele><time>2026-05-31T01:45:12.000Z</time></trkpt>
        <trkpt lat="28.2564073" lon="105.8885775"><ele>716.51</ele><time>2026-05-31T01:45:16.000Z</time></trkpt>
        <trkpt lat="28.2564241" lon="105.8886487"><ele>714.66</ele><time>2026-05-31T01:45:22.000Z</time></trkpt>
        <trkpt lat="28.2564491" lon="105.888701"><ele>713.01</ele><time>2026-05-31T01:45:26.000Z</time></trkpt>
        <trkpt lat="28.2564881" lon="105.8887351"><ele>711.54</ele><time>2026-05-31T01:45:36.000Z</time></trkpt>
        <trkpt lat="28.2565467" lon="105.8887351"><ele>707.97</ele><time>2026-05-31T01:45:42.000Z</time></trkpt>
        <trkpt lat="28.2566033" lon="105.8887046"><ele>705.3</ele><time>2026-05-31T01:45:48.000Z</time></trkpt>
        <trkpt lat="28.2566595" lon="105.8887035"><ele>703</ele><time>2026-05-31T01:45:56.000Z</time></trkpt>
        <trkpt lat="28.2567098" lon="105.8886832"><ele>702.19</ele><time>2026-05-31T01:46:00.000Z</time></trkpt>
        <trkpt lat="28.2567538" lon="105.8886316"><ele>702.07</ele><time>2026-05-31T01:46:04.000Z</time></trkpt>
        <trkpt lat="28.2567792" lon="105.888574"><ele>700.57</ele><time>2026-05-31T01:46:08.000Z</time></trkpt>
        <trkpt lat="28.256762" lon="105.8885205"><ele>698.85</ele><time>2026-05-31T01:46:20.000Z</time></trkpt>
        <trkpt lat="28.2567909" lon="105.8884878"><ele>695.01</ele><time>2026-05-31T01:46:36.000Z</time></trkpt>
        <trkpt lat="28.2568377" lon="105.8884592"><ele>692.76</ele><time>2026-05-31T01:46:48.000Z</time></trkpt>
        <trkpt lat="28.2568921" lon="105.888446"><ele>688.84</ele><time>2026-05-31T01:46:52.000Z</time></trkpt>
        <trkpt lat="28.2569512" lon="105.8884673"><ele>686.36</ele><time>2026-05-31T01:46:58.000Z</time></trkpt>
        <trkpt lat="28.2569984" lon="105.8885025"><ele>685.68</ele><time>2026-05-31T01:47:04.000Z</time></trkpt>
        <trkpt lat="28.2570473" lon="105.8885161"><ele>685.92</ele><time>2026-05-31T01:47:20.000Z</time></trkpt>
        <trkpt lat="28.2570931" lon="105.8885342"><ele>685.4</ele><time>2026-05-31T01:47:46.000Z</time></trkpt>
        <trkpt lat="28.2571344" lon="105.8885101"><ele>680.9</ele><time>2026-05-31T01:47:54.000Z</time></trkpt>
        <trkpt lat="28.2571737" lon="105.8885285"><ele>676.46</ele><time>2026-05-31T01:48:06.000Z</time></trkpt>
        <trkpt lat="28.2572145" lon="105.8885597"><ele>673.36</ele><time>2026-05-31T01:48:14.000Z</time></trkpt>
        <trkpt lat="28.2572547" lon="105.8885875"><ele>670.91</ele><time>2026-05-31T01:48:18.000Z</time></trkpt>
        <trkpt lat="28.2572985" lon="105.888603"><ele>671.2</ele><time>2026-05-31T01:48:28.000Z</time></trkpt>
        <trkpt lat="28.2573387" lon="105.8885829"><ele>673.75</ele><time>2026-05-31T01:48:46.000Z</time></trkpt>
        <trkpt lat="28.2573833" lon="105.8885649"><ele>676.76</ele><time>2026-05-31T01:48:54.000Z</time></trkpt>
        <trkpt lat="28.2574168" lon="105.8885252"><ele>677.77</ele><time>2026-05-31T01:49:10.000Z</time></trkpt>
        <trkpt lat="28.2574539" lon="105.8884836"><ele>676.46</ele><time>2026-05-31T01:49:14.000Z</time></trkpt>
        <trkpt lat="28.2574831" lon="105.8884386"><ele>674.85</ele><time>2026-05-31T01:49:24.000Z</time></trkpt>
        <trkpt lat="28.2575332" lon="105.8884271"><ele>670.88</ele><time>2026-05-31T01:49:30.000Z</time></trkpt>
        <trkpt lat="28.257573" lon="105.8884013"><ele>667.9</ele><time>2026-05-31T01:49:40.000Z</time></trkpt>
        <trkpt lat="28.2576217" lon="105.8883821"><ele>666.15</ele><time>2026-05-31T01:49:48.000Z</time></trkpt>
        <trkpt lat="28.2576805" lon="105.8883857"><ele>665.45</ele><time>2026-05-31T01:49:56.000Z</time></trkpt>
        <trkpt lat="28.2577436" lon="105.8884104"><ele>667.36</ele><time>2026-05-31T01:50:04.000Z</time></trkpt>
        <trkpt lat="28.2578073" lon="105.8884395"><ele>668.8</ele><time>2026-05-31T01:50:10.000Z</time></trkpt>
        <trkpt lat="28.257865" lon="105.8884433"><ele>670.12</ele><time>2026-05-31T01:50:18.000Z</time></trkpt>
        <trkpt lat="28.2579061" lon="105.8884726"><ele>670.46</ele><time>2026-05-31T01:50:26.000Z</time></trkpt>
        <trkpt lat="28.2579449" lon="105.8885205"><ele>672.15</ele><time>2026-05-31T01:50:34.000Z</time></trkpt>
        <trkpt lat="28.2579849" lon="105.8885507"><ele>675.97</ele><time>2026-05-31T01:50:44.000Z</time></trkpt>
        <trkpt lat="28.2580159" lon="105.8885912"><ele>679.13</ele><time>2026-05-31T01:50:52.000Z</time></trkpt>
        <trkpt lat="28.2580583" lon="105.8886041"><ele>681.9</ele><time>2026-05-31T01:51:00.000Z</time></trkpt>
        <trkpt lat="28.2581038" lon="105.8885847"><ele>684.92</ele><time>2026-05-31T01:51:06.000Z</time></trkpt>
        <trkpt lat="28.2581417" lon="105.8886058"><ele>685.14</ele><time>2026-05-31T01:51:18.000Z</time></trkpt>
        <trkpt lat="28.2581742" lon="105.8885769"><ele>685.24</ele><time>2026-05-31T01:51:24.000Z</time></trkpt>
        <trkpt lat="28.2582109" lon="105.8885257"><ele>683.63</ele><time>2026-05-31T01:51:30.000Z</time></trkpt>
        <trkpt lat="28.2582195" lon="105.8884977"><ele>680.57</ele><time>2026-05-31T01:51:32.000Z</time></trkpt>
        <trkpt lat="28.2582542" lon="105.8884947"><ele>678.2</ele><time>2026-05-31T01:51:48.000Z</time></trkpt>
        <trkpt lat="28.2582906" lon="105.8884617"><ele>677.59</ele><time>2026-05-31T01:52:00.000Z</time></trkpt>
        <trkpt lat="28.2582906" lon="105.8884617"><ele>677.59</ele><time>2026-05-31T01:52:27.000Z</time></trkpt>
        <trkpt lat="28.2583185" lon="105.8885992"><ele>676.66</ele><time>2026-05-31T01:52:30.000Z</time></trkpt>
        <trkpt lat="28.2583185" lon="105.8885992"><ele>676.66</ele><time>2026-05-31T01:52:31.000Z</time></trkpt>
        <trkpt lat="28.2583462" lon="105.8887037"><ele>677.68</ele><time>2026-05-31T01:52:42.000Z</time></trkpt>
        <trkpt lat="28.2583462" lon="105.8887037"><ele>677.68</ele><time>2026-05-31T01:52:57.000Z</time></trkpt>
        <trkpt lat="28.2583462" lon="105.8887037"><ele>677.68</ele><time>2026-05-31T01:53:18.000Z</time></trkpt>
        <trkpt lat="28.2583462" lon="105.8887037"><ele>677.68</ele><time>2026-05-31T01:53:33.000Z</time></trkpt>
        <trkpt lat="28.2583462" lon="105.8887037"><ele>677.68</ele><time>2026-05-31T01:53:48.000Z</time></trkpt>
        <trkpt lat="28.2583462" lon="105.8887037"><ele>677.68</ele><time>2026-05-31T01:53:59.000Z</time></trkpt>
        <trkpt lat="28.2583527" lon="105.8886627"><ele>682.65</ele><time>2026-05-31T01:54:04.000Z</time></trkpt>
        <trkpt lat="28.2583527" lon="105.8886627"><ele>682.65</ele><time>2026-05-31T01:54:11.000Z</time></trkpt>
        <trkpt lat="28.2584009" lon="105.888664"><ele>683.41</ele><time>2026-05-31T01:54:23.000Z</time></trkpt>
        <trkpt lat="28.2584449" lon="105.8886493"><ele>683.05</ele><time>2026-05-31T01:54:49.000Z</time></trkpt>
        <trkpt lat="28.2584886" lon="105.8886575"><ele>681.4</ele><time>2026-05-31T01:55:09.000Z</time></trkpt>
        <trkpt lat="28.2585464" lon="105.8886352"><ele>681.69</ele><time>2026-05-31T01:55:49.000Z</time></trkpt>
        <trkpt lat="28.2585619" lon="105.8886227"><ele>680.48</ele><time>2026-05-31T01:55:51.000Z</time></trkpt>
        <trkpt lat="28.258592" lon="105.8885841"><ele>679.19</ele><time>2026-05-31T01:55:59.000Z</time></trkpt>
        <trkpt lat="28.2586431" lon="105.888552"><ele>676.39</ele><time>2026-05-31T01:56:05.000Z</time></trkpt>
        <trkpt lat="28.2586943" lon="105.8885432"><ele>674.34</ele><time>2026-05-31T01:56:29.000Z</time></trkpt>
        <trkpt lat="28.2587429" lon="105.888545"><ele>674.17</ele><time>2026-05-31T01:56:51.000Z</time></trkpt>
        <trkpt lat="28.2587805" lon="105.8885799"><ele>672.55</ele><time>2026-05-31T01:56:57.000Z</time></trkpt>
        <trkpt lat="28.2587805" lon="105.8885799"><ele>672.55</ele><time>2026-05-31T01:57:09.000Z</time></trkpt>
        <trkpt lat="28.2588313" lon="105.8885724"><ele>674.08</ele><time>2026-05-31T01:57:12.000Z</time></trkpt>
        <trkpt lat="28.2588313" lon="105.8885724"><ele>674.08</ele><time>2026-05-31T01:57:33.000Z</time></trkpt>
        <trkpt lat="28.258867" lon="105.8885671"><ele>672.8</ele><time>2026-05-31T01:57:35.000Z</time></trkpt>
        <trkpt lat="28.258909" lon="105.8885645"><ele>672.49</ele><time>2026-05-31T01:57:47.000Z</time></trkpt>
        <trkpt lat="28.258909" lon="105.8885645"><ele>672.49</ele><time>2026-05-31T01:57:51.000Z</time></trkpt>
        <trkpt lat="28.2588889" lon="105.8886105"><ele>672.86</ele><time>2026-05-31T01:57:56.000Z</time></trkpt>
        <trkpt lat="28.2588889" lon="105.8886105"><ele>672.86</ele><time>2026-05-31T01:58:49.000Z</time></trkpt>
        <trkpt lat="28.2588507" lon="105.8886283"><ele>674.17</ele><time>2026-05-31T01:58:53.000Z</time></trkpt>
        <trkpt lat="28.2588069" lon="105.8886544"><ele>675.01</ele><time>2026-05-31T01:59:01.000Z</time></trkpt>
        <trkpt lat="28.258751" lon="105.8886495"><ele>676</ele><time>2026-05-31T01:59:35.000Z</time></trkpt>
        <trkpt lat="28.2586928" lon="105.8886254"><ele>676.64</ele><time>2026-05-31T01:59:41.000Z</time></trkpt>
        <trkpt lat="28.2586579" lon="105.8886643"><ele>678.64</ele><time>2026-05-31T02:01:15.000Z</time></trkpt>
        <trkpt lat="28.2586097" lon="105.8886754"><ele>682.09</ele><time>2026-05-31T02:02:15.000Z</time></trkpt>
        <trkpt lat="28.258664" lon="105.8886996"><ele>681.57</ele><time>2026-05-31T02:02:49.000Z</time></trkpt>
        <trkpt lat="28.2587175" lon="105.8886705"><ele>682.07</ele><time>2026-05-31T02:02:59.000Z</time></trkpt>
        <trkpt lat="28.2587679" lon="105.8886628"><ele>682.5</ele><time>2026-05-31T02:03:05.000Z</time></trkpt>
        <trkpt lat="28.2588183" lon="105.88866"><ele>682.72</ele><time>2026-05-31T02:03:15.000Z</time></trkpt>
        <trkpt lat="28.2588776" lon="105.8886706"><ele>683.35</ele><time>2026-05-31T02:03:25.000Z</time></trkpt>
        <trkpt lat="28.2589159" lon="105.8887035"><ele>683.34</ele><time>2026-05-31T02:03:31.000Z</time></trkpt>
        <trkpt lat="28.2589641" lon="105.8888098"><ele>681.32</ele><time>2026-05-31T02:04:43.000Z</time></trkpt>
        <trkpt lat="28.2590099" lon="105.8888038"><ele>677.53</ele><time>2026-05-31T02:04:57.000Z</time></trkpt>
        <trkpt lat="28.2590527" lon="105.8887794"><ele>674.29</ele><time>2026-05-31T02:05:11.000Z</time></trkpt>
        <trkpt lat="28.259094" lon="105.888749"><ele>671.21</ele><time>2026-05-31T02:05:19.000Z</time></trkpt>
        <trkpt lat="28.259094" lon="105.888749"><ele>671.21</ele><time>2026-05-31T02:05:45.000Z</time></trkpt>
        <trkpt lat="28.259143" lon="105.8887312"><ele>668.57</ele><time>2026-05-31T02:05:46.000Z</time></trkpt>
        <trkpt lat="28.259143" lon="105.8887312"><ele>668.57</ele><time>2026-05-31T02:05:53.000Z</time></trkpt>
        <trkpt lat="28.259185" lon="105.8886982"><ele>666.71</ele><time>2026-05-31T02:05:59.000Z</time></trkpt>
        <trkpt lat="28.2592209" lon="105.8886539"><ele>664.59</ele><time>2026-05-31T02:06:03.000Z</time></trkpt>
        <trkpt lat="28.2592612" lon="105.8886199"><ele>662.8</ele><time>2026-05-31T02:06:15.000Z</time></trkpt>
        <trkpt lat="28.2593003" lon="105.8885917"><ele>661.34</ele><time>2026-05-31T02:06:41.000Z</time></trkpt>
        <trkpt lat="28.2593498" lon="105.8885927"><ele>660.01</ele><time>2026-05-31T02:06:47.000Z</time></trkpt>
        <trkpt lat="28.2594021" lon="105.8886054"><ele>661.87</ele><time>2026-05-31T02:06:57.000Z</time></trkpt>
        <trkpt lat="28.2594321" lon="105.8886169"><ele>661.92</ele><time>2026-05-31T02:06:59.000Z</time></trkpt>
        <trkpt lat="28.2594723" lon="105.8886093"><ele>661.69</ele><time>2026-05-31T02:07:15.000Z</time></trkpt>
        <trkpt lat="28.2595224" lon="105.8885958"><ele>660.58</ele><time>2026-05-31T02:07:27.000Z</time></trkpt>
        <trkpt lat="28.2595734" lon="105.8885901"><ele>660.84</ele><time>2026-05-31T02:07:37.000Z</time></trkpt>
        <trkpt lat="28.2596142" lon="105.8886134"><ele>662.68</ele><time>2026-05-31T02:07:41.000Z</time></trkpt>
        <trkpt lat="28.2596739" lon="105.8886145"><ele>664.73</ele><time>2026-05-31T02:08:01.000Z</time></trkpt>
        <trkpt lat="28.2597248" lon="105.8886"><ele>666.09</ele><time>2026-05-31T02:08:09.000Z</time></trkpt>
        <trkpt lat="28.2597719" lon="105.8885814"><ele>666.72</ele><time>2026-05-31T02:08:17.000Z</time></trkpt>
        <trkpt lat="28.2598196" lon="105.8885671"><ele>667.93</ele><time>2026-05-31T02:08:32.000Z</time></trkpt>
        <trkpt lat="28.2598196" lon="105.8885671"><ele>667.93</ele><time>2026-05-31T02:08:53.000Z</time></trkpt>
        <trkpt lat="28.2598196" lon="105.8885671"><ele>667.93</ele><time>2026-05-31T02:08:58.000Z</time></trkpt>
        <trkpt lat="28.2598196" lon="105.8885671"><ele>667.93</ele><time>2026-05-31T02:09:07.000Z</time></trkpt>
        <trkpt lat="28.2598196" lon="105.8885671"><ele>667.93</ele><time>2026-05-31T02:09:16.000Z</time></trkpt>
        <trkpt lat="28.2598196" lon="105.8885671"><ele>667.93</ele><time>2026-05-31T02:09:27.000Z</time></trkpt>
        <trkpt lat="28.2598568" lon="105.8885938"><ele>669.69</ele><time>2026-05-31T02:09:54.000Z</time></trkpt>
        <trkpt lat="28.2598568" lon="105.8885938"><ele>669.69</ele><time>2026-05-31T02:10:03.000Z</time></trkpt>
        <trkpt lat="28.2598568" lon="105.8885938"><ele>669.69</ele><time>2026-05-31T02:10:09.000Z</time></trkpt>
        <trkpt lat="28.2598568" lon="105.8885938"><ele>669.69</ele><time>2026-05-31T02:10:18.000Z</time></trkpt>
        <trkpt lat="28.2598568" lon="105.8885938"><ele>669.69</ele><time>2026-05-31T02:10:29.000Z</time></trkpt>
        <trkpt lat="28.2598568" lon="105.8885938"><ele>669.69</ele><time>2026-05-31T02:10:32.000Z</time></trkpt>
        <trkpt lat="28.2598568" lon="105.8885938"><ele>669.69</ele><time>2026-05-31T02:10:51.000Z</time></trkpt>
        <trkpt lat="28.2599057" lon="105.8885743"><ele>671.08</ele><time>2026-05-31T02:10:56.000Z</time></trkpt>
        <trkpt lat="28.2599057" lon="105.8885743"><ele>671.08</ele><time>2026-05-31T02:11:10.000Z</time></trkpt>
        <trkpt lat="28.2599604" lon="105.8885834"><ele>666.81</ele><time>2026-05-31T02:12:04.000Z</time></trkpt>
        <trkpt lat="28.2600069" lon="105.8885096"><ele>666.5</ele><time>2026-05-31T02:12:08.000Z</time></trkpt>
        <trkpt lat="28.260036" lon="105.8884537"><ele>660.46</ele><time>2026-05-31T02:12:10.000Z</time></trkpt>
        <trkpt lat="28.2600851" lon="105.8884251"><ele>657.9</ele><time>2026-05-31T02:12:14.000Z</time></trkpt>
        <trkpt lat="28.2601354" lon="105.8883811"><ele>656.87</ele><time>2026-05-31T02:12:32.000Z</time></trkpt>
        <trkpt lat="28.260163" lon="105.8883238"><ele>651.12</ele><time>2026-05-31T02:12:38.000Z</time></trkpt>
        <trkpt lat="28.2602115" lon="105.8882746"><ele>646.68</ele><time>2026-05-31T02:12:42.000Z</time></trkpt>
        <trkpt lat="28.2602566" lon="105.8882464"><ele>643.6</ele><time>2026-05-31T02:12:54.000Z</time></trkpt>
        <trkpt lat="28.260305" lon="105.88823"><ele>639.2</ele><time>2026-05-31T02:13:02.000Z</time></trkpt>
        <trkpt lat="28.260305" lon="105.88823"><ele>639.2</ele><time>2026-05-31T02:13:31.000Z</time></trkpt>
        <trkpt lat="28.2603648" lon="105.8882124"><ele>637.12</ele><time>2026-05-31T02:13:38.000Z</time></trkpt>
        <trkpt lat="28.2603648" lon="105.8882124"><ele>637.12</ele><time>2026-05-31T02:13:45.000Z</time></trkpt>
        <trkpt lat="28.2604305" lon="105.8881808"><ele>635.34</ele><time>2026-05-31T02:13:49.000Z</time></trkpt>
        <trkpt lat="28.2604623" lon="105.888132"><ele>633.09</ele><time>2026-05-31T02:13:53.000Z</time></trkpt>
        <trkpt lat="28.2604748" lon="105.8880792"><ele>633.21</ele><time>2026-05-31T02:13:59.000Z</time></trkpt>
        <trkpt lat="28.2604897" lon="105.8880165"><ele>632.8</ele><time>2026-05-31T02:14:05.000Z</time></trkpt>
        <trkpt lat="28.2604999" lon="105.8879555"><ele>632.4</ele><time>2026-05-31T02:14:11.000Z</time></trkpt>
        <trkpt lat="28.2605261" lon="105.8879122"><ele>633.93</ele><time>2026-05-31T02:14:23.000Z</time></trkpt>
        <trkpt lat="28.2605603" lon="105.8878738"><ele>636.49</ele><time>2026-05-31T02:14:45.000Z</time></trkpt>
        <trkpt lat="28.2606085" lon="105.8878557"><ele>637.58</ele><time>2026-05-31T02:15:03.000Z</time></trkpt>
        <trkpt lat="28.2606656" lon="105.8878245"><ele>637.59</ele><time>2026-05-31T02:15:13.000Z</time></trkpt>
        <trkpt lat="28.2607115" lon="105.8877808"><ele>638.27</ele><time>2026-05-31T02:15:19.000Z</time></trkpt>
        <trkpt lat="28.2607387" lon="105.8877138"><ele>639.45</ele><time>2026-05-31T02:15:25.000Z</time></trkpt>
        <trkpt lat="28.2607801" lon="105.8876816"><ele>640.67</ele><time>2026-05-31T02:15:29.000Z</time></trkpt>
        <trkpt lat="28.260807" lon="105.8877016"><ele>641.03</ele><time>2026-05-31T02:15:33.000Z</time></trkpt>
        <trkpt lat="28.2608616" lon="105.8877141"><ele>640.98</ele><time>2026-05-31T02:15:41.000Z</time></trkpt>
        <trkpt lat="28.2609174" lon="105.8877219"><ele>642.43</ele><time>2026-05-31T02:15:49.000Z</time></trkpt>
        <trkpt lat="28.2609663" lon="105.8877023"><ele>643.3</ele><time>2026-05-31T02:15:57.000Z</time></trkpt>
        <trkpt lat="28.2610207" lon="105.8876854"><ele>644.39</ele><time>2026-05-31T02:16:07.000Z</time></trkpt>
        <trkpt lat="28.2610671" lon="105.8876551"><ele>644.7</ele><time>2026-05-31T02:16:17.000Z</time></trkpt>
        <trkpt lat="28.2611222" lon="105.8876346"><ele>644.46</ele><time>2026-05-31T02:16:25.000Z</time></trkpt>
        <trkpt lat="28.2611572" lon="105.887679"><ele>644.57</ele><time>2026-05-31T02:16:41.000Z</time></trkpt>
        <trkpt lat="28.2611708" lon="105.8877127"><ele>644.59</ele><time>2026-05-31T02:16:45.000Z</time></trkpt>
        <trkpt lat="28.2612302" lon="105.8875196"><ele>644.78</ele><time>2026-05-31T02:17:59.000Z</time></trkpt>
        <trkpt lat="28.261295" lon="105.887438"><ele>646.69</ele><time>2026-05-31T02:18:02.000Z</time></trkpt>
        <trkpt lat="28.2613416" lon="105.8874406"><ele>648.74</ele><time>2026-05-31T02:18:18.000Z</time></trkpt>
        <trkpt lat="28.2614537" lon="105.8873565"><ele>649.24</ele><time>2026-05-31T02:18:30.000Z</time></trkpt>
        <trkpt lat="28.2614832" lon="105.8873318"><ele>647.59</ele><time>2026-05-31T02:18:32.000Z</time></trkpt>
        <trkpt lat="28.2615195" lon="105.8873354"><ele>646.35</ele><time>2026-05-31T02:18:50.000Z</time></trkpt>
        <trkpt lat="28.2615244" lon="105.8873311"><ele>646.15</ele><time>2026-05-31T02:18:52.000Z</time></trkpt>
        <trkpt lat="28.2615648" lon="105.8873216"><ele>644.94</ele><time>2026-05-31T02:19:10.000Z</time></trkpt>
        <trkpt lat="28.2616241" lon="105.8873176"><ele>644.77</ele><time>2026-05-31T02:19:22.000Z</time></trkpt>
        <trkpt lat="28.2616811" lon="105.8873179"><ele>644.14</ele><time>2026-05-31T02:19:26.000Z</time></trkpt>
        <trkpt lat="28.2617309" lon="105.8873219"><ele>645.05</ele><time>2026-05-31T02:19:32.000Z</time></trkpt>
        <trkpt lat="28.2617309" lon="105.8873219"><ele>645.05</ele><time>2026-05-31T02:19:57.000Z</time></trkpt>
        <trkpt lat="28.2617805" lon="105.8873406"><ele>646.97</ele><time>2026-05-31T02:20:00.000Z</time></trkpt>
        <trkpt lat="28.2617805" lon="105.8873406"><ele>646.97</ele><time>2026-05-31T02:20:14.000Z</time></trkpt>
        <trkpt lat="28.2618302" lon="105.8873329"><ele>650.5</ele><time>2026-05-31T02:20:26.000Z</time></trkpt>
        <trkpt lat="28.2618848" lon="105.8873059"><ele>653.53</ele><time>2026-05-31T02:20:44.000Z</time></trkpt>
        <trkpt lat="28.2619352" lon="105.8872757"><ele>652.86</ele><time>2026-05-31T02:20:48.000Z</time></trkpt>
        <trkpt lat="28.2619532" lon="105.8872551"><ele>649.87</ele><time>2026-05-31T02:20:50.000Z</time></trkpt>
        <trkpt lat="28.2619974" lon="105.887251"><ele>648.42</ele><time>2026-05-31T02:20:54.000Z</time></trkpt>
        <trkpt lat="28.2620439" lon="105.8872497"><ele>649.56</ele><time>2026-05-31T02:20:56.000Z</time></trkpt>
        <trkpt lat="28.2621085" lon="105.8872368"><ele>651.62</ele><time>2026-05-31T02:21:00.000Z</time></trkpt>
        <trkpt lat="28.2621655" lon="105.8872223"><ele>654.12</ele><time>2026-05-31T02:21:04.000Z</time></trkpt>
        <trkpt lat="28.2622131" lon="105.8872293"><ele>654.19</ele><time>2026-05-31T02:21:10.000Z</time></trkpt>
        <trkpt lat="28.2622469" lon="105.8872439"><ele>655.1</ele><time>2026-05-31T02:21:14.000Z</time></trkpt>
        <trkpt lat="28.2622854" lon="105.8872274"><ele>657.29</ele><time>2026-05-31T02:21:22.000Z</time></trkpt>
        <trkpt lat="28.2623329" lon="105.8872226"><ele>657.61</ele><time>2026-05-31T02:21:34.000Z</time></trkpt>
        <trkpt lat="28.26238" lon="105.887207"><ele>657.79</ele><time>2026-05-31T02:21:38.000Z</time></trkpt>
        <trkpt lat="28.2624271" lon="105.887176"><ele>656.72</ele><time>2026-05-31T02:21:42.000Z</time></trkpt>
        <trkpt lat="28.2624582" lon="105.8871541"><ele>654.36</ele><time>2026-05-31T02:21:46.000Z</time></trkpt>
        <trkpt lat="28.2624582" lon="105.8871541"><ele>654.36</ele><time>2026-05-31T02:21:57.000Z</time></trkpt>
        <trkpt lat="28.2624934" lon="105.8871033"><ele>652.47</ele><time>2026-05-31T02:22:08.000Z</time></trkpt>
        <trkpt lat="28.2624934" lon="105.8871033"><ele>652.47</ele><time>2026-05-31T02:22:10.000Z</time></trkpt>
        <trkpt lat="28.2625441" lon="105.8871009"><ele>657.43</ele><time>2026-05-31T02:22:19.000Z</time></trkpt>
        <trkpt lat="28.2625705" lon="105.887113"><ele>656.28</ele><time>2026-05-31T02:22:21.000Z</time></trkpt>
        <trkpt lat="28.262626" lon="105.887096"><ele>656.45</ele><time>2026-05-31T02:22:31.000Z</time></trkpt>
        <trkpt lat="28.2626689" lon="105.8870588"><ele>655.02</ele><time>2026-05-31T02:22:37.000Z</time></trkpt>
        <trkpt lat="28.2627182" lon="105.8870275"><ele>653.53</ele><time>2026-05-31T02:22:41.000Z</time></trkpt>
        <trkpt lat="28.2627699" lon="105.8870073"><ele>651.44</ele><time>2026-05-31T02:22:45.000Z</time></trkpt>
        <trkpt lat="28.2628163" lon="105.8869832"><ele>648.47</ele><time>2026-05-31T02:22:49.000Z</time></trkpt>
        <trkpt lat="28.2628714" lon="105.8869641"><ele>645.79</ele><time>2026-05-31T02:22:59.000Z</time></trkpt>
        <trkpt lat="28.262932" lon="105.8869469"><ele>643.39</ele><time>2026-05-31T02:23:05.000Z</time></trkpt>
        <trkpt lat="28.2629836" lon="105.8869232"><ele>641.74</ele><time>2026-05-31T02:23:11.000Z</time></trkpt>
        <trkpt lat="28.2630312" lon="105.8869211"><ele>639.7</ele><time>2026-05-31T02:23:15.000Z</time></trkpt>
        <trkpt lat="28.2630921" lon="105.8869199"><ele>637.99</ele><time>2026-05-31T02:23:21.000Z</time></trkpt>
        <trkpt lat="28.263154" lon="105.8869286"><ele>637.33</ele><time>2026-05-31T02:23:29.000Z</time></trkpt>
        <trkpt lat="28.263221" lon="105.8869424"><ele>635.2</ele><time>2026-05-31T02:23:37.000Z</time></trkpt>
        <trkpt lat="28.2632823" lon="105.8869628"><ele>634.21</ele><time>2026-05-31T02:23:43.000Z</time></trkpt>
        <trkpt lat="28.2633364" lon="105.8869836"><ele>633.91</ele><time>2026-05-31T02:23:55.000Z</time></trkpt>
        <trkpt lat="28.2633845" lon="105.887001"><ele>631.25</ele><time>2026-05-31T02:24:01.000Z</time></trkpt>
        <trkpt lat="28.2634131" lon="105.8869657"><ele>629.14</ele><time>2026-05-31T02:24:11.000Z</time></trkpt>
        <trkpt lat="28.2634505" lon="105.8869266"><ele>627.54</ele><time>2026-05-31T02:24:33.000Z</time></trkpt>
        <trkpt lat="28.2634505" lon="105.8869266"><ele>627.54</ele><time>2026-05-31T02:24:35.000Z</time></trkpt>
        <trkpt lat="28.2634666" lon="105.8870522"><ele>626.97</ele><time>2026-05-31T02:24:46.000Z</time></trkpt>
        <trkpt lat="28.2634666" lon="105.8870522"><ele>626.97</ele><time>2026-05-31T02:24:48.000Z</time></trkpt>
        <trkpt lat="28.2634726" lon="105.8869994"><ele>633.8</ele><time>2026-05-31T02:24:51.000Z</time></trkpt>
        <trkpt lat="28.263515" lon="105.8869794"><ele>638.94</ele><time>2026-05-31T02:25:05.000Z</time></trkpt>
        <trkpt lat="28.263515" lon="105.8869794"><ele>638.94</ele><time>2026-05-31T02:25:23.000Z</time></trkpt>
        <trkpt lat="28.263587" lon="105.8869583"><ele>642.26</ele><time>2026-05-31T02:25:24.000Z</time></trkpt>
        <trkpt lat="28.263587" lon="105.8869583"><ele>642.26</ele><time>2026-05-31T02:25:31.000Z</time></trkpt>
        <trkpt lat="28.2636413" lon="105.8869363"><ele>638.18</ele><time>2026-05-31T02:25:35.000Z</time></trkpt>
        <trkpt lat="28.2636805" lon="105.8868921"><ele>634.14</ele><time>2026-05-31T02:25:43.000Z</time></trkpt>
        <trkpt lat="28.2636971" lon="105.8868705"><ele>631.6</ele><time>2026-05-31T02:25:45.000Z</time></trkpt>
        <trkpt lat="28.2637385" lon="105.8868592"><ele>630.21</ele><time>2026-05-31T02:25:53.000Z</time></trkpt>
        <trkpt lat="28.2637866" lon="105.8868407"><ele>629.8</ele><time>2026-05-31T02:25:59.000Z</time></trkpt>
        <trkpt lat="28.263838" lon="105.8868281"><ele>629.19</ele><time>2026-05-31T02:26:07.000Z</time></trkpt>
        <trkpt lat="28.2638792" lon="105.8867996"><ele>629.26</ele><time>2026-05-31T02:26:27.000Z</time></trkpt>
        <trkpt lat="28.2638925" lon="105.8868294"><ele>628.6</ele><time>2026-05-31T02:26:51.000Z</time></trkpt>
        <trkpt lat="28.2639344" lon="105.8868411"><ele>631.52</ele><time>2026-05-31T02:27:05.000Z</time></trkpt>
        <trkpt lat="28.2639866" lon="105.8868096"><ele>628.53</ele><time>2026-05-31T02:27:11.000Z</time></trkpt>
        <trkpt lat="28.2640354" lon="105.8867772"><ele>625.6</ele><time>2026-05-31T02:27:17.000Z</time></trkpt>
        <trkpt lat="28.2640486" lon="105.8867257"><ele>621.85</ele><time>2026-05-31T02:27:25.000Z</time></trkpt>
        <trkpt lat="28.2640486" lon="105.8867257"><ele>621.85</ele><time>2026-05-31T02:27:25.000Z</time></trkpt>
        <trkpt lat="28.2640371" lon="105.8866926"><ele>572.19</ele><time>2026-05-31T02:27:51.000Z</time></trkpt>
        <trkpt lat="28.2640371" lon="105.8866926"><ele>572.19</ele><time>2026-05-31T02:27:52.000Z</time></trkpt>
        <trkpt lat="28.2640322" lon="105.8867439"><ele>572.19</ele><time>2026-05-31T02:28:23.000Z</time></trkpt>
        <trkpt lat="28.2640016" lon="105.8867135"><ele>597.05</ele><time>2026-05-31T02:28:29.000Z</time></trkpt>
        <trkpt lat="28.2639679" lon="105.8866645"><ele>611.3</ele><time>2026-05-31T02:28:33.000Z</time></trkpt>
        <trkpt lat="28.263947" lon="105.8866046"><ele>620.15</ele><time>2026-05-31T02:28:37.000Z</time></trkpt>
        <trkpt lat="28.26395" lon="105.8865422"><ele>624.14</ele><time>2026-05-31T02:28:43.000Z</time></trkpt>
        <trkpt lat="28.2639562" lon="105.8864777"><ele>626.88</ele><time>2026-05-31T02:28:49.000Z</time></trkpt>
        <trkpt lat="28.2639562" lon="105.8864777"><ele>626.88</ele><time>2026-05-31T02:30:16.000Z</time></trkpt>
        <trkpt lat="28.2639722" lon="105.8859898"><ele>627.89</ele><time>2026-05-31T02:30:27.000Z</time></trkpt>
        <trkpt lat="28.2639722" lon="105.8859898"><ele>627.89</ele><time>2026-05-31T02:30:35.000Z</time></trkpt>
        <trkpt lat="28.2639722" lon="105.8859898"><ele>627.89</ele><time>2026-05-31T02:30:40.000Z</time></trkpt>
        <trkpt lat="28.2639722" lon="105.8859898"><ele>627.89</ele><time>2026-05-31T02:30:41.000Z</time></trkpt>
        <trkpt lat="28.2639722" lon="105.8859898"><ele>627.89</ele><time>2026-05-31T02:30:52.000Z</time></trkpt>
        <trkpt lat="28.2638135" lon="105.8859568"><ele>623.64</ele><time>2026-05-31T02:31:17.000Z</time></trkpt>
        <trkpt lat="28.2638135" lon="105.8859568"><ele>623.64</ele><time>2026-05-31T02:31:22.000Z</time></trkpt>
        <trkpt lat="28.2638135" lon="105.8859568"><ele>623.64</ele><time>2026-05-31T02:32:16.000Z</time></trkpt>
        <trkpt lat="28.2638591" lon="105.885899"><ele>619.41</ele><time>2026-05-31T02:32:19.000Z</time></trkpt>
        <trkpt lat="28.2638591" lon="105.885899"><ele>619.41</ele><time>2026-05-31T02:33:01.000Z</time></trkpt>
        <trkpt lat="28.2638517" lon="105.8858412"><ele>626.99</ele><time>2026-05-31T02:33:05.000Z</time></trkpt>
        <trkpt lat="28.2638451" lon="105.8857843"><ele>630.42</ele><time>2026-05-31T02:33:09.000Z</time></trkpt>
        <trkpt lat="28.2638282" lon="105.8857213"><ele>631.12</ele><time>2026-05-31T02:33:13.000Z</time></trkpt>
        <trkpt lat="28.2638563" lon="105.8856792"><ele>631.12</ele><time>2026-05-31T02:33:17.000Z</time></trkpt>
        <trkpt lat="28.2638847" lon="105.8856299"><ele>629.93</ele><time>2026-05-31T02:33:21.000Z</time></trkpt>
        <trkpt lat="28.2638904" lon="105.8855737"><ele>627.8</ele><time>2026-05-31T02:33:25.000Z</time></trkpt>
        <trkpt lat="28.2638598" lon="105.885534"><ele>627.26</ele><time>2026-05-31T02:33:29.000Z</time></trkpt>
        <trkpt lat="28.2638157" lon="105.8855021"><ele>626.57</ele><time>2026-05-31T02:33:33.000Z</time></trkpt>
        <trkpt lat="28.2637762" lon="105.8854635"><ele>626.49</ele><time>2026-05-31T02:33:39.000Z</time></trkpt>
        <trkpt lat="28.2637292" lon="105.8854338"><ele>627.03</ele><time>2026-05-31T02:33:43.000Z</time></trkpt>
        <trkpt lat="28.2636992" lon="105.8853931"><ele>628.15</ele><time>2026-05-31T02:33:49.000Z</time></trkpt>
        <trkpt lat="28.2637035" lon="105.8853381"><ele>627.24</ele><time>2026-05-31T02:33:55.000Z</time></trkpt>
        <trkpt lat="28.2636885" lon="105.8852814"><ele>626.59</ele><time>2026-05-31T02:34:03.000Z</time></trkpt>
        <trkpt lat="28.2636935" lon="105.8852111"><ele>628.15</ele><time>2026-05-31T02:34:09.000Z</time></trkpt>
        <trkpt lat="28.2637001" lon="105.8851352"><ele>629.05</ele><time>2026-05-31T02:34:13.000Z</time></trkpt>
        <trkpt lat="28.2636967" lon="105.8850718"><ele>628.8</ele><time>2026-05-31T02:34:17.000Z</time></trkpt>
        <trkpt lat="28.2636969" lon="105.8850156"><ele>629.97</ele><time>2026-05-31T02:34:21.000Z</time></trkpt>
        <trkpt lat="28.2636894" lon="105.8849544"><ele>632.54</ele><time>2026-05-31T02:34:27.000Z</time></trkpt>
        <trkpt lat="28.2636678" lon="105.8848931"><ele>634.68</ele><time>2026-05-31T02:34:31.000Z</time></trkpt>
        <trkpt lat="28.2636559" lon="105.8848253"><ele>634.43</ele><time>2026-05-31T02:34:37.000Z</time></trkpt>
        <trkpt lat="28.2636436" lon="105.884766"><ele>633.39</ele><time>2026-05-31T02:34:41.000Z</time></trkpt>
        <trkpt lat="28.2636533" lon="105.8847057"><ele>631.88</ele><time>2026-05-31T02:34:47.000Z</time></trkpt>
        <trkpt lat="28.2636649" lon="105.8846388"><ele>630.35</ele><time>2026-05-31T02:34:55.000Z</time></trkpt>
        <trkpt lat="28.2636702" lon="105.8845806"><ele>630</ele><time>2026-05-31T02:35:11.000Z</time></trkpt>
        <trkpt lat="28.26368" lon="105.8845223"><ele>631.8</ele><time>2026-05-31T02:35:19.000Z</time></trkpt>
        <trkpt lat="28.2636737" lon="105.8844639"><ele>632.3</ele><time>2026-05-31T02:35:27.000Z</time></trkpt>
        <trkpt lat="28.263653" lon="105.8843935"><ele>632.19</ele><time>2026-05-31T02:35:33.000Z</time></trkpt>
        <trkpt lat="28.263633" lon="105.8843345"><ele>630.29</ele><time>2026-05-31T02:35:37.000Z</time></trkpt>
        <trkpt lat="28.2635896" lon="105.8842812"><ele>628.87</ele><time>2026-05-31T02:35:43.000Z</time></trkpt>
        <trkpt lat="28.263543" lon="105.884231"><ele>628.63</ele><time>2026-05-31T02:35:49.000Z</time></trkpt>
        <trkpt lat="28.2634995" lon="105.884181"><ele>629.58</ele><time>2026-05-31T02:35:55.000Z</time></trkpt>
        <trkpt lat="28.2634792" lon="105.884128"><ele>629.32</ele><time>2026-05-31T02:36:01.000Z</time></trkpt>
        <trkpt lat="28.2634619" lon="105.8840699"><ele>630.65</ele><time>2026-05-31T02:36:07.000Z</time></trkpt>
        <trkpt lat="28.2634388" lon="105.8840165"><ele>630.66</ele><time>2026-05-31T02:36:13.000Z</time></trkpt>
        <trkpt lat="28.2633886" lon="105.8839737"><ele>629.59</ele><time>2026-05-31T02:36:19.000Z</time></trkpt>
        <trkpt lat="28.2633488" lon="105.8839182"><ele>630.48</ele><time>2026-05-31T02:36:25.000Z</time></trkpt>
        <trkpt lat="28.2633252" lon="105.8838477"><ele>630.46</ele><time>2026-05-31T02:36:31.000Z</time></trkpt>
        <trkpt lat="28.2632867" lon="105.8837934"><ele>629.74</ele><time>2026-05-31T02:36:37.000Z</time></trkpt>
        <trkpt lat="28.26325" lon="105.8837329"><ele>631.24</ele><time>2026-05-31T02:36:43.000Z</time></trkpt>
        <trkpt lat="28.263234" lon="105.8836725"><ele>632.57</ele><time>2026-05-31T02:36:49.000Z</time></trkpt>
        <trkpt lat="28.2632294" lon="105.8836654"><ele>634.68</ele><time>2026-05-31T02:36:51.000Z</time></trkpt>
        <trkpt lat="28.2632294" lon="105.8836654"><ele>634.68</ele><time>2026-05-31T02:37:00.000Z</time></trkpt>
        <trkpt lat="28.2630493" lon="105.8837462"><ele>635.75</ele><time>2026-05-31T02:37:11.000Z</time></trkpt>
        <trkpt lat="28.2630493" lon="105.8837462"><ele>635.75</ele><time>2026-05-31T02:37:18.000Z</time></trkpt>
        <trkpt lat="28.2630197" lon="105.8837818"><ele>636.44</ele><time>2026-05-31T02:37:21.000Z</time></trkpt>
        <trkpt lat="28.2630197" lon="105.8837818"><ele>636.44</ele><time>2026-05-31T02:37:44.000Z</time></trkpt>
        <trkpt lat="28.2630862" lon="105.8838208"><ele>637.28</ele><time>2026-05-31T02:37:47.000Z</time></trkpt>
        <trkpt lat="28.2630862" lon="105.8838208"><ele>637.28</ele><time>2026-05-31T02:38:09.000Z</time></trkpt>
        <trkpt lat="28.2630862" lon="105.8838208"><ele>637.28</ele><time>2026-05-31T02:38:32.000Z</time></trkpt>
        <trkpt lat="28.2630862" lon="105.8838208"><ele>637.28</ele><time>2026-05-31T02:38:37.000Z</time></trkpt>
        <trkpt lat="28.2630862" lon="105.8838208"><ele>637.28</ele><time>2026-05-31T02:38:48.000Z</time></trkpt>
        <trkpt lat="28.2631135" lon="105.8837595"><ele>647.99</ele><time>2026-05-31T02:39:11.000Z</time></trkpt>
        <trkpt lat="28.2631135" lon="105.8837595"><ele>647.99</ele><time>2026-05-31T02:39:27.000Z</time></trkpt>
        <trkpt lat="28.2630719" lon="105.883663"><ele>648.8</ele><time>2026-05-31T02:39:31.000Z</time></trkpt>
        <trkpt lat="28.263013" lon="105.8836365"><ele>652.65</ele><time>2026-05-31T02:39:35.000Z</time></trkpt>
        <trkpt lat="28.2629838" lon="105.8835829"><ele>652.55</ele><time>2026-05-31T02:39:39.000Z</time></trkpt>
        <trkpt lat="28.2629587" lon="105.8835379"><ele>651.96</ele><time>2026-05-31T02:39:43.000Z</time></trkpt>
        <trkpt lat="28.2629299" lon="105.8834994"><ele>651.39</ele><time>2026-05-31T02:39:53.000Z</time></trkpt>
        <trkpt lat="28.2629158" lon="105.8834523"><ele>652.8</ele><time>2026-05-31T02:40:01.000Z</time></trkpt>
        <trkpt lat="28.2628864" lon="105.8834057"><ele>651.91</ele><time>2026-05-31T02:40:07.000Z</time></trkpt>
        <trkpt lat="28.2628397" lon="105.8834044"><ele>651.3</ele><time>2026-05-31T02:40:11.000Z</time></trkpt>
        <trkpt lat="28.2627909" lon="105.8834094"><ele>650.07</ele><time>2026-05-31T02:40:17.000Z</time></trkpt>
        <trkpt lat="28.2627357" lon="105.8834088"><ele>648.47</ele><time>2026-05-31T02:40:25.000Z</time></trkpt>
        <trkpt lat="28.262686" lon="105.8833966"><ele>648.15</ele><time>2026-05-31T02:40:33.000Z</time></trkpt>
        <trkpt lat="28.2626395" lon="105.8833825"><ele>648.59</ele><time>2026-05-31T02:40:39.000Z</time></trkpt>
        <trkpt lat="28.2626034" lon="105.8833393"><ele>649.95</ele><time>2026-05-31T02:40:49.000Z</time></trkpt>
        <trkpt lat="28.2625629" lon="105.8833054"><ele>651.71</ele><time>2026-05-31T02:40:55.000Z</time></trkpt>
        <trkpt lat="28.2625141" lon="105.8832668"><ele>650.37</ele><time>2026-05-31T02:41:01.000Z</time></trkpt>
        <trkpt lat="28.2624579" lon="105.8832401"><ele>649.43</ele><time>2026-05-31T02:41:05.000Z</time></trkpt>
        <trkpt lat="28.2624113" lon="105.883204"><ele>649.69</ele><time>2026-05-31T02:41:11.000Z</time></trkpt>
        <trkpt lat="28.2623568" lon="105.8831797"><ele>650.59</ele><time>2026-05-31T02:41:23.000Z</time></trkpt>
        <trkpt lat="28.262322" lon="105.8831417"><ele>650.44</ele><time>2026-05-31T02:41:31.000Z</time></trkpt>
        <trkpt lat="28.262297" lon="105.8830952"><ele>649.31</ele><time>2026-05-31T02:41:37.000Z</time></trkpt>
        <trkpt lat="28.2622739" lon="105.8830436"><ele>646.52</ele><time>2026-05-31T02:41:43.000Z</time></trkpt>
        <trkpt lat="28.2622441" lon="105.8829964"><ele>645.68</ele><time>2026-05-31T02:41:49.000Z</time></trkpt>
        <trkpt lat="28.2622141" lon="105.882954"><ele>644.84</ele><time>2026-05-31T02:41:55.000Z</time></trkpt>
        <trkpt lat="28.2621816" lon="105.8829083"><ele>646.72</ele><time>2026-05-31T02:42:03.000Z</time></trkpt>
        <trkpt lat="28.2621425" lon="105.8828586"><ele>646.52</ele><time>2026-05-31T02:42:09.000Z</time></trkpt>
        <trkpt lat="28.2621097" lon="105.8828168"><ele>647.6</ele><time>2026-05-31T02:42:15.000Z</time></trkpt>
        <trkpt lat="28.2620685" lon="105.8827572"><ele>646.43</ele><time>2026-05-31T02:42:21.000Z</time></trkpt>
        <trkpt lat="28.2620391" lon="105.8827007"><ele>645.07</ele><time>2026-05-31T02:42:27.000Z</time></trkpt>
        <trkpt lat="28.2620231" lon="105.8826577"><ele>643.66</ele><time>2026-05-31T02:42:33.000Z</time></trkpt>
        <trkpt lat="28.2620231" lon="105.8826577"><ele>643.66</ele><time>2026-05-31T02:42:42.000Z</time></trkpt>
        <trkpt lat="28.2620499" lon="105.8825761"><ele>642.43</ele><time>2026-05-31T02:42:45.000Z</time></trkpt>
        <trkpt lat="28.2620499" lon="105.8825761"><ele>642.43</ele><time>2026-05-31T02:42:49.000Z</time></trkpt>
        <trkpt lat="28.2620499" lon="105.8825761"><ele>642.43</ele><time>2026-05-31T02:49:04.000Z</time></trkpt>
        <trkpt lat="28.2616391" lon="105.8799522"><ele>638.49</ele><time>2026-05-31T02:49:13.000Z</time></trkpt>
        <trkpt lat="28.2616391" lon="105.8799522"><ele>638.49</ele><time>2026-05-31T02:49:24.000Z</time></trkpt>
        <trkpt lat="28.2615904" lon="105.8799617"><ele>635.95</ele><time>2026-05-31T02:49:27.000Z</time></trkpt>
        <trkpt lat="28.2615904" lon="105.8799617"><ele>635.95</ele><time>2026-05-31T02:49:32.000Z</time></trkpt>
        <trkpt lat="28.2615904" lon="105.8799617"><ele>635.95</ele><time>2026-05-31T02:49:39.000Z</time></trkpt>
        <trkpt lat="28.2615904" lon="105.8799617"><ele>635.95</ele><time>2026-05-31T02:49:52.000Z</time></trkpt>
        <trkpt lat="28.2616117" lon="105.8800171"><ele>634.49</ele><time>2026-05-31T02:49:57.000Z</time></trkpt>
        <trkpt lat="28.2616117" lon="105.8800171"><ele>634.49</ele><time>2026-05-31T02:49:59.000Z</time></trkpt>
        <trkpt lat="28.2616117" lon="105.8800171"><ele>634.49</ele><time>2026-05-31T02:50:38.000Z</time></trkpt>
        <trkpt lat="28.2616117" lon="105.8800171"><ele>634.49</ele><time>2026-05-31T02:50:43.000Z</time></trkpt>
        <trkpt lat="28.2616117" lon="105.8800171"><ele>634.49</ele><time>2026-05-31T02:50:54.000Z</time></trkpt>
        <trkpt lat="28.2616117" lon="105.8800171"><ele>634.49</ele><time>2026-05-31T02:50:59.000Z</time></trkpt>
        <trkpt lat="28.2616117" lon="105.8800171"><ele>634.49</ele><time>2026-05-31T02:51:24.000Z</time></trkpt>
        <trkpt lat="28.261664" lon="105.8800499"><ele>636.89</ele><time>2026-05-31T02:51:51.000Z</time></trkpt>
        <trkpt lat="28.261664" lon="105.8800499"><ele>636.89</ele><time>2026-05-31T02:52:02.000Z</time></trkpt>
        <trkpt lat="28.261664" lon="105.8800499"><ele>636.89</ele><time>2026-05-31T02:52:06.000Z</time></trkpt>
        <trkpt lat="28.261664" lon="105.8800499"><ele>636.89</ele><time>2026-05-31T02:52:37.000Z</time></trkpt>
        <trkpt lat="28.261664" lon="105.8800499"><ele>636.89</ele><time>2026-05-31T02:53:04.000Z</time></trkpt>
        <trkpt lat="28.2615065" lon="105.8799536"><ele>643.72</ele><time>2026-05-31T02:53:05.000Z</time></trkpt>
        <trkpt lat="28.2615065" lon="105.8799536"><ele>643.72</ele><time>2026-05-31T02:53:23.000Z</time></trkpt>
        <trkpt lat="28.2616698" lon="105.8800042"><ele>646.87</ele><time>2026-05-31T02:53:28.000Z</time></trkpt>
        <trkpt lat="28.2618143" lon="105.8800008"><ele>647.97</ele><time>2026-05-31T02:53:34.000Z</time></trkpt>
        <trkpt lat="28.2618048" lon="105.8799647"><ele>651.89</ele><time>2026-05-31T02:53:36.000Z</time></trkpt>
        <trkpt lat="28.2618645" lon="105.8798884"><ele>654.3</ele><time>2026-05-31T02:53:50.000Z</time></trkpt>
        <trkpt lat="28.2619173" lon="105.8798454"><ele>659.2</ele><time>2026-05-31T02:53:54.000Z</time></trkpt>
        <trkpt lat="28.2619679" lon="105.8798066"><ele>661.4</ele><time>2026-05-31T02:54:10.000Z</time></trkpt>
        <trkpt lat="28.2620177" lon="105.8797973"><ele>664.44</ele><time>2026-05-31T02:54:16.000Z</time></trkpt>
        <trkpt lat="28.2620489" lon="105.8797576"><ele>666.95</ele><time>2026-05-31T02:54:28.000Z</time></trkpt>
        <trkpt lat="28.2621979" lon="105.8799823"><ele>668.83</ele><time>2026-05-31T02:54:56.000Z</time></trkpt>
        <trkpt lat="28.2622523" lon="105.8800624"><ele>673.44</ele><time>2026-05-31T02:55:09.000Z</time></trkpt>
        <trkpt lat="28.2622687" lon="105.8801387"><ele>676.78</ele><time>2026-05-31T02:55:17.000Z</time></trkpt>
        <trkpt lat="28.2623269" lon="105.8800946"><ele>680.07</ele><time>2026-05-31T02:55:33.000Z</time></trkpt>
        <trkpt lat="28.2623691" lon="105.8800266"><ele>679.96</ele><time>2026-05-31T02:55:35.000Z</time></trkpt>
        <trkpt lat="28.2624102" lon="105.8799766"><ele>677.43</ele><time>2026-05-31T02:55:41.000Z</time></trkpt>
        <trkpt lat="28.2624153" lon="105.8799208"><ele>676.48</ele><time>2026-05-31T02:55:45.000Z</time></trkpt>
        <trkpt lat="28.2624346" lon="105.8798695"><ele>674.43</ele><time>2026-05-31T02:56:11.000Z</time></trkpt>
        <trkpt lat="28.2624587" lon="105.8797983"><ele>671.03</ele><time>2026-05-31T02:56:15.000Z</time></trkpt>
        <trkpt lat="28.2624934" lon="105.8797558"><ele>669.04</ele><time>2026-05-31T02:56:21.000Z</time></trkpt>
        <trkpt lat="28.2625461" lon="105.8797206"><ele>668.49</ele><time>2026-05-31T02:57:05.000Z</time></trkpt>
        <trkpt lat="28.2625832" lon="105.8796821"><ele>670.18</ele><time>2026-05-31T02:57:07.000Z</time></trkpt>
        <trkpt lat="28.262621" lon="105.8796401"><ele>672.55</ele><time>2026-05-31T02:57:11.000Z</time></trkpt>
        <trkpt lat="28.2626461" lon="105.8795847"><ele>676.99</ele><time>2026-05-31T02:57:37.000Z</time></trkpt>
        <trkpt lat="28.2626652" lon="105.8795053"><ele>680.23</ele><time>2026-05-31T02:57:41.000Z</time></trkpt>
        <trkpt lat="28.2626786" lon="105.8794302"><ele>681.69</ele><time>2026-05-31T02:57:47.000Z</time></trkpt>
        <trkpt lat="28.2627131" lon="105.8793772"><ele>683.64</ele><time>2026-05-31T02:58:03.000Z</time></trkpt>
        <trkpt lat="28.2627525" lon="105.8793317"><ele>684.94</ele><time>2026-05-31T02:58:09.000Z</time></trkpt>
        <trkpt lat="28.262782" lon="105.8792863"><ele>686.82</ele><time>2026-05-31T02:58:15.000Z</time></trkpt>
        <trkpt lat="28.2628126" lon="105.8792463"><ele>687.83</ele><time>2026-05-31T02:58:23.000Z</time></trkpt>
        <trkpt lat="28.2628632" lon="105.8792213"><ele>689.12</ele><time>2026-05-31T02:58:33.000Z</time></trkpt>
        <trkpt lat="28.2628931" lon="105.8791762"><ele>690.98</ele><time>2026-05-31T02:58:47.000Z</time></trkpt>
        <trkpt lat="28.2629306" lon="105.8791484"><ele>690.63</ele><time>2026-05-31T02:58:49.000Z</time></trkpt>
        <trkpt lat="28.2629749" lon="105.8791279"><ele>690.35</ele><time>2026-05-31T02:58:53.000Z</time></trkpt>
        <trkpt lat="28.2630282" lon="105.8790844"><ele>690.83</ele><time>2026-05-31T02:59:03.000Z</time></trkpt>
        <trkpt lat="28.2630422" lon="105.8790725"><ele>692.06</ele><time>2026-05-31T02:59:05.000Z</time></trkpt>
        <trkpt lat="28.2630605" lon="105.8790386"><ele>693.28</ele><time>2026-05-31T02:59:13.000Z</time></trkpt>
        <trkpt lat="28.2630781" lon="105.8789937"><ele>693.48</ele><time>2026-05-31T02:59:19.000Z</time></trkpt>
        <trkpt lat="28.2631099" lon="105.8789393"><ele>693.98</ele><time>2026-05-31T02:59:25.000Z</time></trkpt>
        <trkpt lat="28.2631263" lon="105.8788731"><ele>694.79</ele><time>2026-05-31T02:59:31.000Z</time></trkpt>
        <trkpt lat="28.2631324" lon="105.8788414"><ele>697.23</ele><time>2026-05-31T02:59:33.000Z</time></trkpt>
        <trkpt lat="28.2631543" lon="105.8787951"><ele>698.6</ele><time>2026-05-31T02:59:39.000Z</time></trkpt>
        <trkpt lat="28.2631795" lon="105.8787489"><ele>700.47</ele><time>2026-05-31T02:59:49.000Z</time></trkpt>
        <trkpt lat="28.2632127" lon="105.8787082"><ele>702.21</ele><time>2026-05-31T03:00:01.000Z</time></trkpt>
        <trkpt lat="28.2632555" lon="105.8786748"><ele>705.56</ele><time>2026-05-31T03:00:09.000Z</time></trkpt>
        <trkpt lat="28.2632842" lon="105.8786328"><ele>707.64</ele><time>2026-05-31T03:00:17.000Z</time></trkpt>
        <trkpt lat="28.2633266" lon="105.8786208"><ele>708.61</ele><time>2026-05-31T03:00:35.000Z</time></trkpt>
        <trkpt lat="28.263355" lon="105.8785855"><ele>707.41</ele><time>2026-05-31T03:00:41.000Z</time></trkpt>
        <trkpt lat="28.2633914" lon="105.8785551"><ele>707.58</ele><time>2026-05-31T03:00:47.000Z</time></trkpt>
        <trkpt lat="28.2634431" lon="105.8785264"><ele>708.57</ele><time>2026-05-31T03:01:05.000Z</time></trkpt>
        <trkpt lat="28.2634453" lon="105.8784784"><ele>705.73</ele><time>2026-05-31T03:01:11.000Z</time></trkpt>
        <trkpt lat="28.2634449" lon="105.8784573"><ele>703.69</ele><time>2026-05-31T03:01:13.000Z</time></trkpt>
        <trkpt lat="28.2634764" lon="105.8784328"><ele>702.96</ele><time>2026-05-31T03:01:19.000Z</time></trkpt>
        <trkpt lat="28.2635125" lon="105.8783984"><ele>702.47</ele><time>2026-05-31T03:01:29.000Z</time></trkpt>
        <trkpt lat="28.2635432" lon="105.8783888"><ele>698.98</ele><time>2026-05-31T03:01:39.000Z</time></trkpt>
        <trkpt lat="28.2635772" lon="105.8783548"><ele>696.08</ele><time>2026-05-31T03:01:43.000Z</time></trkpt>
        <trkpt lat="28.2635986" lon="105.878307"><ele>693.84</ele><time>2026-05-31T03:01:45.000Z</time></trkpt>
        <trkpt lat="28.2635832" lon="105.8782406"><ele>693.74</ele><time>2026-05-31T03:01:49.000Z</time></trkpt>
        <trkpt lat="28.263587" lon="105.8781724"><ele>694.32</ele><time>2026-05-31T03:01:53.000Z</time></trkpt>
        <trkpt lat="28.2636126" lon="105.8781177"><ele>694.21</ele><time>2026-05-31T03:01:57.000Z</time></trkpt>
        <trkpt lat="28.2636442" lon="105.8780718"><ele>694.78</ele><time>2026-05-31T03:02:01.000Z</time></trkpt>
        <trkpt lat="28.2636827" lon="105.8780313"><ele>696.88</ele><time>2026-05-31T03:02:05.000Z</time></trkpt>
        <trkpt lat="28.2637152" lon="105.8779698"><ele>697.33</ele><time>2026-05-31T03:02:09.000Z</time></trkpt>
        <trkpt lat="28.2637419" lon="105.8779057"><ele>698.59</ele><time>2026-05-31T03:02:13.000Z</time></trkpt>
        <trkpt lat="28.2637782" lon="105.8778624"><ele>701.33</ele><time>2026-05-31T03:02:17.000Z</time></trkpt>
        <trkpt lat="28.263817" lon="105.8778173"><ele>704</ele><time>2026-05-31T03:02:21.000Z</time></trkpt>
        <trkpt lat="28.263847" lon="105.8777725"><ele>705.88</ele><time>2026-05-31T03:02:25.000Z</time></trkpt>
        <trkpt lat="28.2638836" lon="105.877734"><ele>707.59</ele><time>2026-05-31T03:02:29.000Z</time></trkpt>
        <trkpt lat="28.2639207" lon="105.8776836"><ele>710.48</ele><time>2026-05-31T03:02:35.000Z</time></trkpt>
        <trkpt lat="28.2639332" lon="105.8776289"><ele>713.57</ele><time>2026-05-31T03:02:39.000Z</time></trkpt>
        <trkpt lat="28.2639391" lon="105.8775708"><ele>714.69</ele><time>2026-05-31T03:02:43.000Z</time></trkpt>
        <trkpt lat="28.2639561" lon="105.8775197"><ele>714.57</ele><time>2026-05-31T03:02:47.000Z</time></trkpt>
        <trkpt lat="28.2639512" lon="105.8774642"><ele>714.44</ele><time>2026-05-31T03:02:51.000Z</time></trkpt>
        <trkpt lat="28.2639321" lon="105.8774732"><ele>714.87</ele><time>2026-05-31T03:02:53.000Z</time></trkpt>
        <trkpt lat="28.2646897" lon="105.8756959"><ele>713.16</ele><time>2026-05-31T03:07:51.000Z</time></trkpt>
        <trkpt lat="28.2646136" lon="105.8757606"><ele>721.92</ele><time>2026-05-31T03:07:53.000Z</time></trkpt>
        <trkpt lat="28.2646136" lon="105.8757606"><ele>721.92</ele><time>2026-05-31T03:08:12.000Z</time></trkpt>
        <trkpt lat="28.2645422" lon="105.8757476"><ele>727.45</ele><time>2026-05-31T03:08:25.000Z</time></trkpt>
        <trkpt lat="28.2645422" lon="105.8757476"><ele>727.45</ele><time>2026-05-31T03:08:30.000Z</time></trkpt>
        <trkpt lat="28.2645343" lon="105.8757454"><ele>732.8</ele><time>2026-05-31T03:08:33.000Z</time></trkpt>
        <trkpt lat="28.264541" lon="105.8756907"><ele>736.42</ele><time>2026-05-31T03:09:11.000Z</time></trkpt>
        <trkpt lat="28.2645502" lon="105.8756188"><ele>733.29</ele><time>2026-05-31T03:09:15.000Z</time></trkpt>
        <trkpt lat="28.2645586" lon="105.8755718"><ele>730.05</ele><time>2026-05-31T03:09:17.000Z</time></trkpt>
        <trkpt lat="28.2645728" lon="105.8755194"><ele>728.79</ele><time>2026-05-31T03:09:21.000Z</time></trkpt>
        <trkpt lat="28.264588" lon="105.8754289"><ele>727.99</ele><time>2026-05-31T03:09:39.000Z</time></trkpt>
        <trkpt lat="28.2647029" lon="105.8746325"><ele>725.68</ele><time>2026-05-31T03:10:54.000Z</time></trkpt>
        <trkpt lat="28.2647351" lon="105.8746547"><ele>730.93</ele><time>2026-05-31T03:10:57.000Z</time></trkpt>
        <trkpt lat="28.2647489" lon="105.8746095"><ele>732.88</ele><time>2026-05-31T03:11:05.000Z</time></trkpt>
        <trkpt lat="28.2647579" lon="105.8745348"><ele>741.93</ele><time>2026-05-31T03:11:19.000Z</time></trkpt>
        <trkpt lat="28.2647722" lon="105.874467"><ele>743.55</ele><time>2026-05-31T03:11:25.000Z</time></trkpt>
        <trkpt lat="28.264752" lon="105.8744037"><ele>740.26</ele><time>2026-05-31T03:11:29.000Z</time></trkpt>
        <trkpt lat="28.2647462" lon="105.8743438"><ele>736.86</ele><time>2026-05-31T03:11:35.000Z</time></trkpt>
        <trkpt lat="28.2647403" lon="105.8742873"><ele>733.72</ele><time>2026-05-31T03:11:41.000Z</time></trkpt>
        <trkpt lat="28.2647198" lon="105.8742343"><ele>731.64</ele><time>2026-05-31T03:11:47.000Z</time></trkpt>
        <trkpt lat="28.2646994" lon="105.8741862"><ele>729.45</ele><time>2026-05-31T03:11:51.000Z</time></trkpt>
        <trkpt lat="28.2646717" lon="105.874128"><ele>726.67</ele><time>2026-05-31T03:11:57.000Z</time></trkpt>
        <trkpt lat="28.2646434" lon="105.8740709"><ele>724.09</ele><time>2026-05-31T03:12:03.000Z</time></trkpt>
        <trkpt lat="28.2646198" lon="105.8740198"><ele>721.96</ele><time>2026-05-31T03:12:09.000Z</time></trkpt>
        <trkpt lat="28.2646104" lon="105.8739627"><ele>722.91</ele><time>2026-05-31T03:12:13.000Z</time></trkpt>
        <trkpt lat="28.264601" lon="105.8739071"><ele>723.86</ele><time>2026-05-31T03:12:19.000Z</time></trkpt>
        <trkpt lat="28.2645692" lon="105.8738576"><ele>722.44</ele><time>2026-05-31T03:12:25.000Z</time></trkpt>
        <trkpt lat="28.2645351" lon="105.8738069"><ele>720.67</ele><time>2026-05-31T03:12:31.000Z</time></trkpt>
        <trkpt lat="28.2644985" lon="105.8737651"><ele>720.25</ele><time>2026-05-31T03:12:37.000Z</time></trkpt>
        <trkpt lat="28.2644492" lon="105.8737365"><ele>719.31</ele><time>2026-05-31T03:12:45.000Z</time></trkpt>
        <trkpt lat="28.2644061" lon="105.8737073"><ele>722.09</ele><time>2026-05-31T03:12:51.000Z</time></trkpt>
        <trkpt lat="28.2644202" lon="105.873662"><ele>721.06</ele><time>2026-05-31T03:12:57.000Z</time></trkpt>
        <trkpt lat="28.2644123" lon="105.8736109"><ele>720.4</ele><time>2026-05-31T03:13:03.000Z</time></trkpt>
        <trkpt lat="28.2643796" lon="105.8735598"><ele>720.3</ele><time>2026-05-31T03:13:09.000Z</time></trkpt>
        <trkpt lat="28.2643349" lon="105.8735208"><ele>721.25</ele><time>2026-05-31T03:13:17.000Z</time></trkpt>
        <trkpt lat="28.2642954" lon="105.8734811"><ele>720.62</ele><time>2026-05-31T03:13:27.000Z</time></trkpt>
        <trkpt lat="28.2642751" lon="105.8734308"><ele>719.36</ele><time>2026-05-31T03:13:37.000Z</time></trkpt>
        <trkpt lat="28.2642717" lon="105.8733703"><ele>718.53</ele><time>2026-05-31T03:13:47.000Z</time></trkpt>
        <trkpt lat="28.2642717" lon="105.8733703"><ele>718.53</ele><time>2026-05-31T03:14:02.000Z</time></trkpt>
        <trkpt lat="28.2643053" lon="105.873326"><ele>720.79</ele><time>2026-05-31T03:14:07.000Z</time></trkpt>
        <trkpt lat="28.2643053" lon="105.873326"><ele>720.79</ele><time>2026-05-31T03:14:16.000Z</time></trkpt>
        <trkpt lat="28.2643598" lon="105.8733067"><ele>722.77</ele><time>2026-05-31T03:14:22.000Z</time></trkpt>
        <trkpt lat="28.264383" lon="105.873245"><ele>724.87</ele><time>2026-05-31T03:15:04.000Z</time></trkpt>
        <trkpt lat="28.2643049" lon="105.8731583"><ele>725.53</ele><time>2026-05-31T03:15:08.000Z</time></trkpt>
        <trkpt lat="28.2642245" lon="105.8730727"><ele>721.04</ele><time>2026-05-31T03:15:12.000Z</time></trkpt>
        <trkpt lat="28.2641607" lon="105.8730123"><ele>713.02</ele><time>2026-05-31T03:15:14.000Z</time></trkpt>
        <trkpt lat="28.2641098" lon="105.8729678"><ele>708.9</ele><time>2026-05-31T03:15:16.000Z</time></trkpt>
        <trkpt lat="28.2640808" lon="105.8728979"><ele>706.36</ele><time>2026-05-31T03:15:20.000Z</time></trkpt>
        <trkpt lat="28.2640803" lon="105.8728316"><ele>705.99</ele><time>2026-05-31T03:15:26.000Z</time></trkpt>
        <trkpt lat="28.2640712" lon="105.8727786"><ele>707.98</ele><time>2026-05-31T03:15:32.000Z</time></trkpt>
        <trkpt lat="28.2640724" lon="105.8727061"><ele>710</ele><time>2026-05-31T03:15:38.000Z</time></trkpt>
        <trkpt lat="28.2640335" lon="105.872676"><ele>716.33</ele><time>2026-05-31T03:15:44.000Z</time></trkpt>
        <trkpt lat="28.2639904" lon="105.8727011"><ele>725.04</ele><time>2026-05-31T03:15:50.000Z</time></trkpt>
        <trkpt lat="28.2639479" lon="105.8726731"><ele>731.19</ele><time>2026-05-31T03:15:58.000Z</time></trkpt>
        <trkpt lat="28.2639017" lon="105.872663"><ele>734.01</ele><time>2026-05-31T03:16:04.000Z</time></trkpt>
        <trkpt lat="28.2638549" lon="105.8726536"><ele>737.12</ele><time>2026-05-31T03:16:12.000Z</time></trkpt>
        <trkpt lat="28.2638222" lon="105.8726149"><ele>738.8</ele><time>2026-05-31T03:16:22.000Z</time></trkpt>
        <trkpt lat="28.2637862" lon="105.8725683"><ele>738.2</ele><time>2026-05-31T03:16:30.000Z</time></trkpt>
        <trkpt lat="28.2637713" lon="105.8725053"><ele>739.14</ele><time>2026-05-31T03:16:44.000Z</time></trkpt>
        <trkpt lat="28.2637733" lon="105.8724283"><ele>741.12</ele><time>2026-05-31T03:16:50.000Z</time></trkpt>
        <trkpt lat="28.2637802" lon="105.8723606"><ele>742.31</ele><time>2026-05-31T03:16:56.000Z</time></trkpt>
        <trkpt lat="28.2637591" lon="105.8723072"><ele>744.17</ele><time>2026-05-31T03:17:04.000Z</time></trkpt>
        <trkpt lat="28.2637201" lon="105.8723363"><ele>746.63</ele><time>2026-05-31T03:17:10.000Z</time></trkpt>
        <trkpt lat="28.2636652" lon="105.8723786"><ele>746.55</ele><time>2026-05-31T03:17:18.000Z</time></trkpt>
        <trkpt lat="28.2636094" lon="105.8723806"><ele>747.87</ele><time>2026-05-31T03:17:24.000Z</time></trkpt>
        <trkpt lat="28.2635584" lon="105.8723938"><ele>749.8</ele><time>2026-05-31T03:17:30.000Z</time></trkpt>
        <trkpt lat="28.2635069" lon="105.8724169"><ele>750.23</ele><time>2026-05-31T03:17:36.000Z</time></trkpt>
        <trkpt lat="28.2634718" lon="105.8724635"><ele>751.73</ele><time>2026-05-31T03:17:42.000Z</time></trkpt>
        <trkpt lat="28.2634389" lon="105.8724337"><ele>751.83</ele><time>2026-05-31T03:17:58.000Z</time></trkpt>
        <trkpt lat="28.2634288" lon="105.8723804"><ele>754.55</ele><time>2026-05-31T03:18:02.000Z</time></trkpt>
        <trkpt lat="28.2633996" lon="105.8723331"><ele>756.97</ele><time>2026-05-31T03:18:08.000Z</time></trkpt>
        <trkpt lat="28.2633806" lon="105.8722721"><ele>758.19</ele><time>2026-05-31T03:18:14.000Z</time></trkpt>
        <trkpt lat="28.263344" lon="105.8722266"><ele>759.47</ele><time>2026-05-31T03:18:18.000Z</time></trkpt>
        <trkpt lat="28.2632988" lon="105.8722081"><ele>761.04</ele><time>2026-05-31T03:18:22.000Z</time></trkpt>
        <trkpt lat="28.2632552" lon="105.8721608"><ele>762.39</ele><time>2026-05-31T03:18:28.000Z</time></trkpt>
        <trkpt lat="28.2632334" lon="105.8721044"><ele>764.7</ele><time>2026-05-31T03:18:32.000Z</time></trkpt>
        <trkpt lat="28.2631885" lon="105.8720719"><ele>764.34</ele><time>2026-05-31T03:18:38.000Z</time></trkpt>
        <trkpt lat="28.2631428" lon="105.8720569"><ele>763.53</ele><time>2026-05-31T03:18:46.000Z</time></trkpt>
        <trkpt lat="28.2630957" lon="105.8720497"><ele>762.45</ele><time>2026-05-31T03:18:52.000Z</time></trkpt>
        <trkpt lat="28.263037" lon="105.8720544"><ele>762.27</ele><time>2026-05-31T03:18:58.000Z</time></trkpt>
        <trkpt lat="28.2629793" lon="105.8720524"><ele>762.29</ele><time>2026-05-31T03:19:06.000Z</time></trkpt>
        <trkpt lat="28.2629322" lon="105.8720239"><ele>761.39</ele><time>2026-05-31T03:19:14.000Z</time></trkpt>
        <trkpt lat="28.262898" lon="105.871973"><ele>756.89</ele><time>2026-05-31T03:19:22.000Z</time></trkpt>
        <trkpt lat="28.2628567" lon="105.8719311"><ele>753.38</ele><time>2026-05-31T03:19:30.000Z</time></trkpt>
        <trkpt lat="28.2628067" lon="105.8718926"><ele>748.85</ele><time>2026-05-31T03:19:38.000Z</time></trkpt>
        <trkpt lat="28.2627532" lon="105.871866"><ele>745.35</ele><time>2026-05-31T03:19:46.000Z</time></trkpt>
        <trkpt lat="28.2627039" lon="105.8718356"><ele>741.58</ele><time>2026-05-31T03:19:52.000Z</time></trkpt>
        <trkpt lat="28.26266" lon="105.8717941"><ele>738.13</ele><time>2026-05-31T03:19:58.000Z</time></trkpt>
        <trkpt lat="28.2626158" lon="105.871771"><ele>735.32</ele><time>2026-05-31T03:20:04.000Z</time></trkpt>
        <trkpt lat="28.2625981" lon="105.8717643"><ele>734.85</ele><time>2026-05-31T03:20:10.000Z</time></trkpt>
        <trkpt lat="28.2625557" lon="105.871776"><ele>736.21</ele><time>2026-05-31T03:20:12.000Z</time></trkpt>
        <trkpt lat="28.2625138" lon="105.871761"><ele>735.78</ele><time>2026-05-31T03:20:16.000Z</time></trkpt>
        <trkpt lat="28.262495" lon="105.8717103"><ele>735.78</ele><time>2026-05-31T03:20:20.000Z</time></trkpt>
        <trkpt lat="28.262479" lon="105.8716491"><ele>735.54</ele><time>2026-05-31T03:20:26.000Z</time></trkpt>
        <trkpt lat="28.2624998" lon="105.8715991"><ele>733.03</ele><time>2026-05-31T03:20:28.000Z</time></trkpt>
        <trkpt lat="28.2625108" lon="105.8715385"><ele>731.23</ele><time>2026-05-31T03:20:34.000Z</time></trkpt>
        <trkpt lat="28.2625206" lon="105.8714664"><ele>728.75</ele><time>2026-05-31T03:20:42.000Z</time></trkpt>
        <trkpt lat="28.2624913" lon="105.8714145"><ele>724.73</ele><time>2026-05-31T03:20:52.000Z</time></trkpt>
        <trkpt lat="28.2624565" lon="105.8713708"><ele>720.84</ele><time>2026-05-31T03:20:58.000Z</time></trkpt>
        <trkpt lat="28.2624221" lon="105.8713283"><ele>717.5</ele><time>2026-05-31T03:21:06.000Z</time></trkpt>
        <trkpt lat="28.2623844" lon="105.8712907"><ele>716.41</ele><time>2026-05-31T03:21:18.000Z</time></trkpt>
        <trkpt lat="28.2623466" lon="105.8712578"><ele>718.7</ele><time>2026-05-31T03:21:32.000Z</time></trkpt>
        <trkpt lat="28.2623374" lon="105.8712961"><ele>723.11</ele><time>2026-05-31T03:21:42.000Z</time></trkpt>
        <trkpt lat="28.2622983" lon="105.8713333"><ele>727.18</ele><time>2026-05-31T03:22:00.000Z</time></trkpt>
        <trkpt lat="28.262251" lon="105.8713487"><ele>731.02</ele><time>2026-05-31T03:22:06.000Z</time></trkpt>
        <trkpt lat="28.2622134" lon="105.8713869"><ele>732.53</ele><time>2026-05-31T03:22:14.000Z</time></trkpt>
        <trkpt lat="28.2621709" lon="105.8714084"><ele>735.2</ele><time>2026-05-31T03:22:20.000Z</time></trkpt>
        <trkpt lat="28.2621349" lon="105.8714194"><ele>736.42</ele><time>2026-05-31T03:22:26.000Z</time></trkpt>
        <trkpt lat="28.2621349" lon="105.8714194"><ele>736.42</ele><time>2026-05-31T03:22:36.000Z</time></trkpt>
        <trkpt lat="28.2620455" lon="105.8710867"><ele>736.89</ele><time>2026-05-31T03:22:41.000Z</time></trkpt>
        <trkpt lat="28.2620455" lon="105.8710867"><ele>736.89</ele><time>2026-05-31T03:22:43.000Z</time></trkpt>
        <trkpt lat="28.2619917" lon="105.8709372"><ele>744.09</ele><time>2026-05-31T03:23:04.000Z</time></trkpt>
        <trkpt lat="28.2619444" lon="105.8708976"><ele>751.77</ele><time>2026-05-31T03:23:18.000Z</time></trkpt>
        <trkpt lat="28.2618979" lon="105.8709031"><ele>757.32</ele><time>2026-05-31T03:23:20.000Z</time></trkpt>
        <trkpt lat="28.261837" lon="105.8709022"><ele>761.76</ele><time>2026-05-31T03:23:22.000Z</time></trkpt>
        <trkpt lat="28.2618148" lon="105.8709589"><ele>763.99</ele><time>2026-05-31T03:23:26.000Z</time></trkpt>
        <trkpt lat="28.2617758" lon="105.871004"><ele>766.54</ele><time>2026-05-31T03:23:30.000Z</time></trkpt>
        <trkpt lat="28.2617088" lon="105.870992"><ele>770.5</ele><time>2026-05-31T03:23:34.000Z</time></trkpt>
        <trkpt lat="28.2616482" lon="105.8709541"><ele>774.39</ele><time>2026-05-31T03:23:38.000Z</time></trkpt>
        <trkpt lat="28.2616022" lon="105.870892"><ele>776.63</ele><time>2026-05-31T03:23:44.000Z</time></trkpt>
        <trkpt lat="28.2615472" lon="105.8708836"><ele>778.36</ele><time>2026-05-31T03:23:50.000Z</time></trkpt>
        <trkpt lat="28.2614988" lon="105.870903"><ele>775.85</ele><time>2026-05-31T03:23:54.000Z</time></trkpt>
        <trkpt lat="28.2614576" lon="105.8709359"><ele>771.87</ele><time>2026-05-31T03:24:00.000Z</time></trkpt>
        <trkpt lat="28.2614377" lon="105.8709857"><ele>768.32</ele><time>2026-05-31T03:24:08.000Z</time></trkpt>
        <trkpt lat="28.2613988" lon="105.8710156"><ele>766.37</ele><time>2026-05-31T03:24:18.000Z</time></trkpt>
        <trkpt lat="28.2613401" lon="105.871012"><ele>764.07</ele><time>2026-05-31T03:24:26.000Z</time></trkpt>
        <trkpt lat="28.2612853" lon="105.870992"><ele>764.63</ele><time>2026-05-31T03:24:30.000Z</time></trkpt>
        <trkpt lat="28.2612337" lon="105.870967"><ele>764.57</ele><time>2026-05-31T03:24:36.000Z</time></trkpt>
        <trkpt lat="28.2611845" lon="105.8709507"><ele>764.74</ele><time>2026-05-31T03:24:46.000Z</time></trkpt>
        <trkpt lat="28.2611382" lon="105.870923"><ele>766.32</ele><time>2026-05-31T03:24:56.000Z</time></trkpt>
        <trkpt lat="28.261083" lon="105.870926"><ele>767.79</ele><time>2026-05-31T03:25:14.000Z</time></trkpt>
        <trkpt lat="28.2610276" lon="105.8708989"><ele>767.63</ele><time>2026-05-31T03:25:18.000Z</time></trkpt>
        <trkpt lat="28.260987" lon="105.8708634"><ele>769.04</ele><time>2026-05-31T03:25:22.000Z</time></trkpt>
        <trkpt lat="28.260975" lon="105.8708071"><ele>770.61</ele><time>2026-05-31T03:25:28.000Z</time></trkpt>
        <trkpt lat="28.2609485" lon="105.8707557"><ele>772.15</ele><time>2026-05-31T03:25:34.000Z</time></trkpt>
        <trkpt lat="28.2609309" lon="105.8707825"><ele>772.89</ele><time>2026-05-31T03:25:40.000Z</time></trkpt>
        <trkpt lat="28.2608844" lon="105.8707834"><ele>771.77</ele><time>2026-05-31T03:25:48.000Z</time></trkpt>
        <trkpt lat="28.2608296" lon="105.8707661"><ele>772.08</ele><time>2026-05-31T03:25:54.000Z</time></trkpt>
        <trkpt lat="28.2607759" lon="105.8707696"><ele>772.95</ele><time>2026-05-31T03:26:00.000Z</time></trkpt>
        <trkpt lat="28.2607282" lon="105.8707607"><ele>773.44</ele><time>2026-05-31T03:26:06.000Z</time></trkpt>
        <trkpt lat="28.2606929" lon="105.8707112"><ele>774.84</ele><time>2026-05-31T03:26:12.000Z</time></trkpt>
        <trkpt lat="28.2606482" lon="105.8706888"><ele>776.66</ele><time>2026-05-31T03:26:20.000Z</time></trkpt>
        <trkpt lat="28.2606098" lon="105.8706432"><ele>777.1</ele><time>2026-05-31T03:26:26.000Z</time></trkpt>
        <trkpt lat="28.2605748" lon="105.8706076"><ele>778.5</ele><time>2026-05-31T03:26:34.000Z</time></trkpt>
        <trkpt lat="28.2606015" lon="105.8705979"><ele>779.94</ele><time>2026-05-31T03:26:48.000Z</time></trkpt>
        <trkpt lat="28.2606476" lon="105.8705832"><ele>782.82</ele><time>2026-05-31T03:26:58.000Z</time></trkpt>
        <trkpt lat="28.2606333" lon="105.8705595"><ele>786.95</ele><time>2026-05-31T03:27:00.000Z</time></trkpt>
        <trkpt lat="28.2606538" lon="105.8705211"><ele>789.49</ele><time>2026-05-31T03:27:12.000Z</time></trkpt>
        <trkpt lat="28.2606538" lon="105.8705211"><ele>789.49</ele><time>2026-05-31T03:27:18.000Z</time></trkpt>
        <trkpt lat="28.2607298" lon="105.8705062"><ele>793.21</ele><time>2026-05-31T03:27:19.000Z</time></trkpt>
        <trkpt lat="28.2607298" lon="105.8705062"><ele>793.21</ele><time>2026-05-31T03:27:24.000Z</time></trkpt>
        <trkpt lat="28.2607886" lon="105.870467"><ele>804.7</ele><time>2026-05-31T03:27:31.000Z</time></trkpt>
        <trkpt lat="28.2607967" lon="105.8704177"><ele>815.06</ele><time>2026-05-31T03:27:35.000Z</time></trkpt>
        <trkpt lat="28.2607967" lon="105.8704177"><ele>815.06</ele><time>2026-05-31T03:28:06.000Z</time></trkpt>
        <trkpt lat="28.2607967" lon="105.8704177"><ele>815.06</ele><time>2026-05-31T03:28:31.000Z</time></trkpt>
        <trkpt lat="28.2607967" lon="105.8704177"><ele>815.06</ele><time>2026-05-31T03:28:42.000Z</time></trkpt>
        <trkpt lat="28.2607967" lon="105.8704177"><ele>815.06</ele><time>2026-05-31T03:29:17.000Z</time></trkpt>
        <trkpt lat="28.2607967" lon="105.8704177"><ele>815.06</ele><time>2026-05-31T03:30:04.000Z</time></trkpt>
        <trkpt lat="28.2607967" lon="105.8704177"><ele>815.06</ele><time>2026-05-31T03:30:27.000Z</time></trkpt>
        <trkpt lat="28.2607967" lon="105.8704177"><ele>815.06</ele><time>2026-05-31T03:34:18.000Z</time></trkpt>
        <trkpt lat="28.2589073" lon="105.871141"><ele>824.44</ele><time>2026-05-31T03:34:29.000Z</time></trkpt>
        <trkpt lat="28.2589073" lon="105.871141"><ele>824.44</ele><time>2026-05-31T03:34:40.000Z</time></trkpt>
        <trkpt lat="28.2591168" lon="105.8707726"><ele>819.95</ele><time>2026-05-31T03:34:49.000Z</time></trkpt>
        <trkpt lat="28.2591794" lon="105.8707613"><ele>815.49</ele><time>2026-05-31T03:34:51.000Z</time></trkpt>
        <trkpt lat="28.2592068" lon="105.8708098"><ele>813.38</ele><time>2026-05-31T03:34:59.000Z</time></trkpt>
        <trkpt lat="28.2591679" lon="105.8708235"><ele>807.28</ele><time>2026-05-31T03:35:09.000Z</time></trkpt>
        <trkpt lat="28.2591114" lon="105.8708227"><ele>800.33</ele><time>2026-05-31T03:35:13.000Z</time></trkpt>
        <trkpt lat="28.2591114" lon="105.8708227"><ele>800.33</ele><time>2026-05-31T03:35:30.000Z</time></trkpt>
        <trkpt lat="28.2591114" lon="105.8708227"><ele>800.33</ele><time>2026-05-31T03:35:33.000Z</time></trkpt>
        <trkpt lat="28.2591114" lon="105.8708227"><ele>800.33</ele><time>2026-05-31T03:35:44.000Z</time></trkpt>
        <trkpt lat="28.2590982" lon="105.8710519"><ele>794.7</ele><time>2026-05-31T03:35:55.000Z</time></trkpt>
        <trkpt lat="28.2590982" lon="105.8710519"><ele>794.7</ele><time>2026-05-31T03:36:08.000Z</time></trkpt>
        <trkpt lat="28.2590547" lon="105.8710881"><ele>791.6</ele><time>2026-05-31T03:36:11.000Z</time></trkpt>
        <trkpt lat="28.2590089" lon="105.8710716"><ele>789.87</ele><time>2026-05-31T03:36:29.000Z</time></trkpt>
        <trkpt lat="28.2589627" lon="105.8710732"><ele>787.43</ele><time>2026-05-31T03:36:49.000Z</time></trkpt>
        <trkpt lat="28.2589627" lon="105.8710732"><ele>787.43</ele><time>2026-05-31T03:36:49.000Z</time></trkpt>
        <trkpt lat="28.2578772" lon="105.8703143"><ele>783.69</ele><time>2026-05-31T03:44:22.000Z</time></trkpt>
        <trkpt lat="28.2578772" lon="105.8703143"><ele>783.69</ele><time>2026-05-31T03:44:24.000Z</time></trkpt>
        <trkpt lat="28.2578923" lon="105.8702622"><ele>783.69</ele><time>2026-05-31T03:44:27.000Z</time></trkpt>
        <trkpt lat="28.2578923" lon="105.8702622"><ele>783.69</ele><time>2026-05-31T03:44:28.000Z</time></trkpt>
        <trkpt lat="28.2578923" lon="105.8702622"><ele>783.69</ele><time>2026-05-31T03:44:38.000Z</time></trkpt>
        <trkpt lat="28.2578923" lon="105.8702622"><ele>783.69</ele><time>2026-05-31T03:44:39.000Z</time></trkpt>
        <trkpt lat="28.2578998" lon="105.8701961"><ele>786.62</ele><time>2026-05-31T03:44:46.000Z</time></trkpt>
        <trkpt lat="28.2578998" lon="105.8701961"><ele>786.62</ele><time>2026-05-31T03:44:48.000Z</time></trkpt>
        <trkpt lat="28.2579095" lon="105.870163"><ele>792.28</ele><time>2026-05-31T03:44:50.000Z</time></trkpt>
        <trkpt lat="28.2579262" lon="105.870109"><ele>793.79</ele><time>2026-05-31T03:45:24.000Z</time></trkpt>
        <trkpt lat="28.2579281" lon="105.8700457"><ele>795.21</ele><time>2026-05-31T03:45:30.000Z</time></trkpt>
        <trkpt lat="28.2579203" lon="105.8699613"><ele>794.33</ele><time>2026-05-31T03:45:36.000Z</time></trkpt>
        <trkpt lat="28.2579087" lon="105.8698961"><ele>787.07</ele><time>2026-05-31T03:45:42.000Z</time></trkpt>
        <trkpt lat="28.2579035" lon="105.8698395"><ele>783.54</ele><time>2026-05-31T03:45:48.000Z</time></trkpt>
        <trkpt lat="28.2579101" lon="105.8697727"><ele>782.41</ele><time>2026-05-31T03:45:54.000Z</time></trkpt>
        <trkpt lat="28.2579066" lon="105.869707"><ele>783</ele><time>2026-05-31T03:46:00.000Z</time></trkpt>
        <trkpt lat="28.2579176" lon="105.8696527"><ele>783.43</ele><time>2026-05-31T03:46:04.000Z</time></trkpt>
        <trkpt lat="28.2579413" lon="105.8695997"><ele>784.28</ele><time>2026-05-31T03:46:20.000Z</time></trkpt>
        <trkpt lat="28.2579739" lon="105.869545"><ele>784.46</ele><time>2026-05-31T03:46:26.000Z</time></trkpt>
        <trkpt lat="28.2579819" lon="105.8694856"><ele>784.82</ele><time>2026-05-31T03:46:34.000Z</time></trkpt>
        <trkpt lat="28.2579443" lon="105.8694281"><ele>787.45</ele><time>2026-05-31T03:46:40.000Z</time></trkpt>
        <trkpt lat="28.2578951" lon="105.8693724"><ele>791.13</ele><time>2026-05-31T03:46:46.000Z</time></trkpt>
        <trkpt lat="28.25785" lon="105.8693263"><ele>793.26</ele><time>2026-05-31T03:46:52.000Z</time></trkpt>
        <trkpt lat="28.2578357" lon="105.8692713"><ele>794.55</ele><time>2026-05-31T03:47:08.000Z</time></trkpt>
        <trkpt lat="28.2578375" lon="105.8692173"><ele>797.1</ele><time>2026-05-31T03:47:16.000Z</time></trkpt>
        <trkpt lat="28.2578375" lon="105.8692173"><ele>797.1</ele><time>2026-05-31T03:47:35.000Z</time></trkpt>
        <trkpt lat="28.2578014" lon="105.8691811"><ele>798.36</ele><time>2026-05-31T03:47:50.000Z</time></trkpt>
        <trkpt lat="28.2578014" lon="105.8691811"><ele>798.36</ele><time>2026-05-31T03:48:16.000Z</time></trkpt>
        <trkpt lat="28.2578335" lon="105.869113"><ele>799.25</ele><time>2026-05-31T03:48:24.000Z</time></trkpt>
        <trkpt lat="28.2578514" lon="105.8690714"><ele>799.38</ele><time>2026-05-31T03:48:26.000Z</time></trkpt>
        <trkpt lat="28.2578874" lon="105.8690183"><ele>799.33</ele><time>2026-05-31T03:48:36.000Z</time></trkpt>
        <trkpt lat="28.2579195" lon="105.8689717"><ele>799.07</ele><time>2026-05-31T03:48:42.000Z</time></trkpt>
        <trkpt lat="28.2579553" lon="105.8689196"><ele>799.05</ele><time>2026-05-31T03:48:48.000Z</time></trkpt>
        <trkpt lat="28.2579879" lon="105.8688684"><ele>798.58</ele><time>2026-05-31T03:48:56.000Z</time></trkpt>
        <trkpt lat="28.2580289" lon="105.8688266"><ele>796.78</ele><time>2026-05-31T03:49:02.000Z</time></trkpt>
        <trkpt lat="28.2580519" lon="105.8687738"><ele>794.36</ele><time>2026-05-31T03:49:14.000Z</time></trkpt>
        <trkpt lat="28.2580227" lon="105.8687439"><ele>792.93</ele><time>2026-05-31T03:49:18.000Z</time></trkpt>
        <trkpt lat="28.2580171" lon="105.8686909"><ele>792.34</ele><time>2026-05-31T03:49:26.000Z</time></trkpt>
        <trkpt lat="28.2580164" lon="105.8686355"><ele>791.63</ele><time>2026-05-31T03:49:34.000Z</time></trkpt>
        <trkpt lat="28.2580389" lon="105.86859"><ele>793.79</ele><time>2026-05-31T03:49:44.000Z</time></trkpt>
        <trkpt lat="28.2580315" lon="105.8685379"><ele>794.49</ele><time>2026-05-31T03:50:00.000Z</time></trkpt>
        <trkpt lat="28.2580249" lon="105.8684815"><ele>796.02</ele><time>2026-05-31T03:50:08.000Z</time></trkpt>
        <trkpt lat="28.258044" lon="105.8684337"><ele>798.55</ele><time>2026-05-31T03:50:14.000Z</time></trkpt>
        <trkpt lat="28.2580779" lon="105.8683915"><ele>801.43</ele><time>2026-05-31T03:50:22.000Z</time></trkpt>
        <trkpt lat="28.2580945" lon="105.868334"><ele>803.38</ele><time>2026-05-31T03:50:28.000Z</time></trkpt>
        <trkpt lat="28.2580673" lon="105.8682954"><ele>806.7</ele><time>2026-05-31T03:50:34.000Z</time></trkpt>
        <trkpt lat="28.2580511" lon="105.8682457"><ele>809.05</ele><time>2026-05-31T03:50:50.000Z</time></trkpt>
        <trkpt lat="28.2580229" lon="105.8682033"><ele>804.98</ele><time>2026-05-31T03:50:56.000Z</time></trkpt>
        <trkpt lat="28.2580059" lon="105.8681555"><ele>802.32</ele><time>2026-05-31T03:51:00.000Z</time></trkpt>
        <trkpt lat="28.2580253" lon="105.8680964"><ele>800.62</ele><time>2026-05-31T03:51:06.000Z</time></trkpt>
        <trkpt lat="28.258064" lon="105.8680421"><ele>798.96</ele><time>2026-05-31T03:51:12.000Z</time></trkpt>
        <trkpt lat="28.2581207" lon="105.8680348"><ele>799.03</ele><time>2026-05-31T03:51:18.000Z</time></trkpt>
        <trkpt lat="28.2581707" lon="105.868007"><ele>797.98</ele><time>2026-05-31T03:51:24.000Z</time></trkpt>
        <trkpt lat="28.2582402" lon="105.8679391"><ele>796.87</ele><time>2026-05-31T03:51:30.000Z</time></trkpt>
        <trkpt lat="28.2583016" lon="105.8678734"><ele>798.36</ele><time>2026-05-31T03:52:02.000Z</time></trkpt>
        <trkpt lat="28.2583719" lon="105.8677877"><ele>798.09</ele><time>2026-05-31T03:52:06.000Z</time></trkpt>
        <trkpt lat="28.258399" lon="105.8677068"><ele>796.24</ele><time>2026-05-31T03:52:12.000Z</time></trkpt>
        <trkpt lat="28.2584277" lon="105.8676464"><ele>795.53</ele><time>2026-05-31T03:52:18.000Z</time></trkpt>
        <trkpt lat="28.2584366" lon="105.8675901"><ele>796.64</ele><time>2026-05-31T03:52:28.000Z</time></trkpt>
        <trkpt lat="28.2584343" lon="105.8675306"><ele>797.16</ele><time>2026-05-31T03:52:36.000Z</time></trkpt>
        <trkpt lat="28.2584272" lon="105.8674742"><ele>799.8</ele><time>2026-05-31T03:52:42.000Z</time></trkpt>
        <trkpt lat="28.2584182" lon="105.8674098"><ele>801.66</ele><time>2026-05-31T03:53:00.000Z</time></trkpt>
        <trkpt lat="28.2583836" lon="105.8673691"><ele>807.11</ele><time>2026-05-31T03:53:06.000Z</time></trkpt>
        <trkpt lat="28.258353" lon="105.8673188"><ele>810.75</ele><time>2026-05-31T03:53:12.000Z</time></trkpt>
        <trkpt lat="28.2583209" lon="105.8672732"><ele>813.82</ele><time>2026-05-31T03:53:18.000Z</time></trkpt>
        <trkpt lat="28.2582708" lon="105.8672573"><ele>815.76</ele><time>2026-05-31T03:53:24.000Z</time></trkpt>
        <trkpt lat="28.2582592" lon="105.867217"><ele>817.92</ele><time>2026-05-31T03:53:28.000Z</time></trkpt>
        <trkpt lat="28.25828" lon="105.8671679"><ele>820.72</ele><time>2026-05-31T03:53:36.000Z</time></trkpt>
        <trkpt lat="28.2582542" lon="105.8671483"><ele>820.34</ele><time>2026-05-31T03:53:58.000Z</time></trkpt>
        <trkpt lat="28.2582876" lon="105.8671069"><ele>819.57</ele><time>2026-05-31T03:54:06.000Z</time></trkpt>
        <trkpt lat="28.2583248" lon="105.8670491"><ele>820.8</ele><time>2026-05-31T03:54:10.000Z</time></trkpt>
        <trkpt lat="28.2583389" lon="105.8669899"><ele>821.84</ele><time>2026-05-31T03:54:16.000Z</time></trkpt>
        <trkpt lat="28.2583223" lon="105.8669294"><ele>822.84</ele><time>2026-05-31T03:54:22.000Z</time></trkpt>
        <trkpt lat="28.2582653" lon="105.8668826"><ele>822.92</ele><time>2026-05-31T03:54:26.000Z</time></trkpt>
        <trkpt lat="28.2582114" lon="105.866847"><ele>823.21</ele><time>2026-05-31T03:54:30.000Z</time></trkpt>
        <trkpt lat="28.258159" lon="105.8668338"><ele>821.95</ele><time>2026-05-31T03:54:34.000Z</time></trkpt>
        <trkpt lat="28.2580998" lon="105.8668368"><ele>820.53</ele><time>2026-05-31T03:54:40.000Z</time></trkpt>
        <trkpt lat="28.2580489" lon="105.8668283"><ele>821.07</ele><time>2026-05-31T03:54:48.000Z</time></trkpt>
        <trkpt lat="28.2580489" lon="105.8668283"><ele>821.07</ele><time>2026-05-31T03:55:01.000Z</time></trkpt>
        <trkpt lat="28.2580489" lon="105.8668283"><ele>821.07</ele><time>2026-05-31T03:55:18.000Z</time></trkpt>
        <trkpt lat="28.2580489" lon="105.8668283"><ele>821.07</ele><time>2026-05-31T03:57:31.000Z</time></trkpt>
        <trkpt lat="28.2572802" lon="105.8665707"><ele>823.34</ele><time>2026-05-31T03:57:36.000Z</time></trkpt>
        <trkpt lat="28.2572802" lon="105.8665707"><ele>823.34</ele><time>2026-05-31T03:57:51.000Z</time></trkpt>
        <trkpt lat="28.2572696" lon="105.86659"><ele>820.37</ele><time>2026-05-31T03:58:10.000Z</time></trkpt>
        <trkpt lat="28.2572789" lon="105.8665462"><ele>823.73</ele><time>2026-05-31T03:58:16.000Z</time></trkpt>
        <trkpt lat="28.2572379" lon="105.8665244"><ele>826.96</ele><time>2026-05-31T03:58:32.000Z</time></trkpt>
        <trkpt lat="28.2572062" lon="105.8664744"><ele>827.21</ele><time>2026-05-31T03:58:36.000Z</time></trkpt>
        <trkpt lat="28.2572062" lon="105.8664744"><ele>827.21</ele><time>2026-05-31T03:58:45.000Z</time></trkpt>
        <trkpt lat="28.2571176" lon="105.8664501"><ele>829</ele><time>2026-05-31T03:58:52.000Z</time></trkpt>
        <trkpt lat="28.2571176" lon="105.8664501"><ele>829</ele><time>2026-05-31T03:58:55.000Z</time></trkpt>
        <trkpt lat="28.2571027" lon="105.8664087"><ele>829.34</ele><time>2026-05-31T03:58:58.000Z</time></trkpt>
        <trkpt lat="28.2571186" lon="105.8663921"><ele>831.28</ele><time>2026-05-31T03:59:02.000Z</time></trkpt>
        <trkpt lat="28.2571186" lon="105.8663921"><ele>831.28</ele><time>2026-05-31T04:00:19.000Z</time></trkpt>
        <trkpt lat="28.2571186" lon="105.8663921"><ele>831.28</ele><time>2026-05-31T04:02:44.000Z</time></trkpt>
        <trkpt lat="28.2571186" lon="105.8663921"><ele>831.28</ele><time>2026-05-31T04:02:53.000Z</time></trkpt>
        <trkpt lat="28.2571186" lon="105.8663921"><ele>831.28</ele><time>2026-05-31T04:04:28.000Z</time></trkpt>
        <trkpt lat="28.2571186" lon="105.8663921"><ele>831.28</ele><time>2026-05-31T04:04:39.000Z</time></trkpt>
        <trkpt lat="28.2571426" lon="105.866148"><ele>832.23</ele><time>2026-05-31T04:04:48.000Z</time></trkpt>
        <trkpt lat="28.2571426" lon="105.866148"><ele>832.23</ele><time>2026-05-31T04:04:58.000Z</time></trkpt>
        <trkpt lat="28.2571426" lon="105.866148"><ele>832.23</ele><time>2026-05-31T04:05:09.000Z</time></trkpt>
        <trkpt lat="28.2571638" lon="105.8659545"><ele>834.79</ele><time>2026-05-31T04:06:48.000Z</time></trkpt>
        <trkpt lat="28.2571638" lon="105.8659545"><ele>834.79</ele><time>2026-05-31T04:08:47.000Z</time></trkpt>
        <trkpt lat="28.257144" lon="105.8659978"><ele>842.43</ele><time>2026-05-31T04:08:56.000Z</time></trkpt>
        <trkpt lat="28.257144" lon="105.8659978"><ele>842.43</ele><time>2026-05-31T04:09:21.000Z</time></trkpt>
        <trkpt lat="28.257184" lon="105.8659574"><ele>857.38</ele><time>2026-05-31T04:09:24.000Z</time></trkpt>
        <trkpt lat="28.257184" lon="105.8659574"><ele>857.38</ele><time>2026-05-31T04:10:05.000Z</time></trkpt>
        <trkpt lat="28.2572062" lon="105.8659028"><ele>865.82</ele><time>2026-05-31T04:10:17.000Z</time></trkpt>
        <trkpt lat="28.2572345" lon="105.8658608"><ele>871.5</ele><time>2026-05-31T04:10:21.000Z</time></trkpt>
        <trkpt lat="28.2572694" lon="105.8657942"><ele>873.93</ele><time>2026-05-31T04:10:37.000Z</time></trkpt>
        <trkpt lat="28.2572587" lon="105.8657432"><ele>877.11</ele><time>2026-05-31T04:10:41.000Z</time></trkpt>
        <trkpt lat="28.2572746" lon="105.8656995"><ele>880.16</ele><time>2026-05-31T04:10:47.000Z</time></trkpt>
        <trkpt lat="28.2572394" lon="105.8656594"><ele>880.8</ele><time>2026-05-31T04:10:59.000Z</time></trkpt>
        <trkpt lat="28.2571847" lon="105.865635"><ele>880.24</ele><time>2026-05-31T04:11:03.000Z</time></trkpt>
        <trkpt lat="28.2571363" lon="105.865601"><ele>880.33</ele><time>2026-05-31T04:11:09.000Z</time></trkpt>
        <trkpt lat="28.2571395" lon="105.8655529"><ele>881.27</ele><time>2026-05-31T04:11:15.000Z</time></trkpt>
        <trkpt lat="28.2571835" lon="105.8655207"><ele>884.97</ele><time>2026-05-31T04:11:29.000Z</time></trkpt>
        <trkpt lat="28.2572061" lon="105.8655585"><ele>887.39</ele><time>2026-05-31T04:11:35.000Z</time></trkpt>
        <trkpt lat="28.257209" lon="105.8656148"><ele>889.92</ele><time>2026-05-31T04:11:55.000Z</time></trkpt>
        <trkpt lat="28.257209" lon="105.8656148"><ele>889.92</ele><time>2026-05-31T04:12:03.000Z</time></trkpt>
        <trkpt lat="28.2572633" lon="105.8656581"><ele>891.54</ele><time>2026-05-31T04:12:44.000Z</time></trkpt>
        <trkpt lat="28.2572633" lon="105.8656581"><ele>891.54</ele><time>2026-05-31T04:12:47.000Z</time></trkpt>
        <trkpt lat="28.2572719" lon="105.8656229"><ele>897.22</ele><time>2026-05-31T04:12:56.000Z</time></trkpt>
        <trkpt lat="28.2572719" lon="105.8656229"><ele>897.22</ele><time>2026-05-31T04:13:03.000Z</time></trkpt>
        <trkpt lat="28.257203" lon="105.8656001"><ele>896.17</ele><time>2026-05-31T04:13:22.000Z</time></trkpt>
        <trkpt lat="28.257203" lon="105.8656001"><ele>896.17</ele><time>2026-05-31T04:13:29.000Z</time></trkpt>
        <trkpt lat="28.257203" lon="105.8656001"><ele>896.17</ele><time>2026-05-31T04:13:41.000Z</time></trkpt>
        <trkpt lat="28.257203" lon="105.8656001"><ele>896.17</ele><time>2026-05-31T04:13:54.000Z</time></trkpt>
        <trkpt lat="28.257203" lon="105.8656001"><ele>896.17</ele><time>2026-05-31T04:14:05.000Z</time></trkpt>
        <trkpt lat="28.257203" lon="105.8656001"><ele>896.17</ele><time>2026-05-31T04:14:16.000Z</time></trkpt>
        <trkpt lat="28.257203" lon="105.8656001"><ele>896.17</ele><time>2026-05-31T04:14:31.000Z</time></trkpt>
        <trkpt lat="28.257203" lon="105.8656001"><ele>896.17</ele><time>2026-05-31T04:14:34.000Z</time></trkpt>
        <trkpt lat="28.257203" lon="105.8656001"><ele>896.17</ele><time>2026-05-31T04:14:45.000Z</time></trkpt>
        <trkpt lat="28.257203" lon="105.8656001"><ele>896.17</ele><time>2026-05-31T04:16:12.000Z</time></trkpt>
        <trkpt lat="28.257203" lon="105.8656001"><ele>896.17</ele><time>2026-05-31T04:16:23.000Z</time></trkpt>
        <trkpt lat="28.257203" lon="105.8656001"><ele>896.17</ele><time>2026-05-31T04:16:44.000Z</time></trkpt>
        <trkpt lat="28.257203" lon="105.8656001"><ele>896.17</ele><time>2026-05-31T04:16:55.000Z</time></trkpt>
        <trkpt lat="28.257203" lon="105.8656001"><ele>896.17</ele><time>2026-05-31T04:16:58.000Z</time></trkpt>
        <trkpt lat="28.257203" lon="105.8656001"><ele>896.17</ele><time>2026-05-31T04:17:11.000Z</time></trkpt>
        <trkpt lat="28.257213" lon="105.8656359"><ele>894.74</ele><time>2026-05-31T04:19:10.000Z</time></trkpt>
        <trkpt lat="28.257213" lon="105.8656359"><ele>894.74</ele><time>2026-05-31T04:19:14.000Z</time></trkpt>
        <trkpt lat="28.2571704" lon="105.8656793"><ele>889.37</ele><time>2026-05-31T04:19:21.000Z</time></trkpt>
        <trkpt lat="28.2571704" lon="105.8656793"><ele>889.37</ele><time>2026-05-31T04:19:23.000Z</time></trkpt>
        <trkpt lat="28.2571821" lon="105.8656554"><ele>889.12</ele><time>2026-05-31T04:19:44.000Z</time></trkpt>
        <trkpt lat="28.2571821" lon="105.8656554"><ele>889.12</ele><time>2026-05-31T04:19:50.000Z</time></trkpt>
        <trkpt lat="28.2572226" lon="105.8656252"><ele>886.86</ele><time>2026-05-31T04:19:54.000Z</time></trkpt>
        <trkpt lat="28.2572226" lon="105.8656252"><ele>886.86</ele><time>2026-05-31T04:19:55.000Z</time></trkpt>
        <trkpt lat="28.2571909" lon="105.8656354"><ele>884.43</ele><time>2026-05-31T04:23:26.000Z</time></trkpt>
        <trkpt lat="28.2571909" lon="105.8656354"><ele>884.43</ele><time>2026-05-31T04:23:33.000Z</time></trkpt>
        <trkpt lat="28.2571909" lon="105.8656354"><ele>884.43</ele><time>2026-05-31T04:23:47.000Z</time></trkpt>
        <trkpt lat="28.2572401" lon="105.8656399"><ele>887.46</ele><time>2026-05-31T04:23:52.000Z</time></trkpt>
        <trkpt lat="28.2572401" lon="105.8656399"><ele>887.46</ele><time>2026-05-31T04:24:55.000Z</time></trkpt>
        <trkpt lat="28.2573282" lon="105.8656145"><ele>887.97</ele><time>2026-05-31T04:26:05.000Z</time></trkpt>
        <trkpt lat="28.257356" lon="105.8655724"><ele>891.26</ele><time>2026-05-31T04:27:29.000Z</time></trkpt>
        <trkpt lat="28.257382" lon="105.8655289"><ele>894.78</ele><time>2026-05-31T04:27:35.000Z</time></trkpt>
        <trkpt lat="28.257393" lon="105.8654798"><ele>897.4</ele><time>2026-05-31T04:27:59.000Z</time></trkpt>
        <trkpt lat="28.2573877" lon="105.8654244"><ele>899.08</ele><time>2026-05-31T04:28:05.000Z</time></trkpt>
        <trkpt lat="28.2573747" lon="105.8653716"><ele>900.92</ele><time>2026-05-31T04:28:15.000Z</time></trkpt>
        <trkpt lat="28.2573568" lon="105.8653218"><ele>903.56</ele><time>2026-05-31T04:28:31.000Z</time></trkpt>
        <trkpt lat="28.25733" lon="105.8652751"><ele>906.96</ele><time>2026-05-31T04:29:05.000Z</time></trkpt>
        <trkpt lat="28.2573016" lon="105.8652292"><ele>909.37</ele><time>2026-05-31T04:29:13.000Z</time></trkpt>
        <trkpt lat="28.2572724" lon="105.865182"><ele>911.67</ele><time>2026-05-31T04:29:19.000Z</time></trkpt>
        <trkpt lat="28.2572724" lon="105.865182"><ele>911.67</ele><time>2026-05-31T04:29:25.000Z</time></trkpt>
        <trkpt lat="28.2572559" lon="105.8651253"><ele>912.75</ele><time>2026-05-31T04:29:28.000Z</time></trkpt>
        <trkpt lat="28.2572559" lon="105.8651253"><ele>912.75</ele><time>2026-05-31T04:30:11.000Z</time></trkpt>
        <trkpt lat="28.2572473" lon="105.8650589"><ele>916.29</ele><time>2026-05-31T04:31:03.000Z</time></trkpt>
        <trkpt lat="28.2572214" lon="105.8649812"><ele>920.1</ele><time>2026-05-31T04:31:07.000Z</time></trkpt>
        <trkpt lat="28.2571864" lon="105.8649089"><ele>922.87</ele><time>2026-05-31T04:31:11.000Z</time></trkpt>
        <trkpt lat="28.2572045" lon="105.8648539"><ele>929.25</ele><time>2026-05-31T04:31:15.000Z</time></trkpt>
        <trkpt lat="28.2572163" lon="105.8647942"><ele>934.35</ele><time>2026-05-31T04:31:23.000Z</time></trkpt>
        <trkpt lat="28.2572195" lon="105.8647384"><ele>937.86</ele><time>2026-05-31T04:31:33.000Z</time></trkpt>
        <trkpt lat="28.2572386" lon="105.8646848"><ele>940.26</ele><time>2026-05-31T04:31:51.000Z</time></trkpt>
        <trkpt lat="28.2572076" lon="105.86466"><ele>942.95</ele><time>2026-05-31T04:32:11.000Z</time></trkpt>
        <trkpt lat="28.2571611" lon="105.8646493"><ele>944.09</ele><time>2026-05-31T04:32:29.000Z</time></trkpt>
        <trkpt lat="28.2571674" lon="105.8646167"><ele>944.41</ele><time>2026-05-31T04:32:53.000Z</time></trkpt>
        <trkpt lat="28.2571945" lon="105.8645782"><ele>947.68</ele><time>2026-05-31T04:33:05.000Z</time></trkpt>
        <trkpt lat="28.2572408" lon="105.8645765"><ele>948.97</ele><time>2026-05-31T04:33:15.000Z</time></trkpt>
        <trkpt lat="28.2572669" lon="105.8646207"><ele>950.18</ele><time>2026-05-31T04:33:45.000Z</time></trkpt>
        <trkpt lat="28.2572705" lon="105.8645954"><ele>953.16</ele><time>2026-05-31T04:34:13.000Z</time></trkpt>
        <trkpt lat="28.2572898" lon="105.8645426"><ele>957.63</ele><time>2026-05-31T04:34:23.000Z</time></trkpt>
        <trkpt lat="28.2572599" lon="105.8645306"><ele>958.73</ele><time>2026-05-31T04:34:27.000Z</time></trkpt>
        <trkpt lat="28.2572097" lon="105.8645079"><ele>962</ele><time>2026-05-31T04:34:47.000Z</time></trkpt>
        <trkpt lat="28.2571677" lon="105.8644661"><ele>965.57</ele><time>2026-05-31T04:34:55.000Z</time></trkpt>
        <trkpt lat="28.2571228" lon="105.864441"><ele>967.88</ele><time>2026-05-31T04:34:59.000Z</time></trkpt>
        <trkpt lat="28.2570775" lon="105.8644109"><ele>969.49</ele><time>2026-05-31T04:35:05.000Z</time></trkpt>
        <trkpt lat="28.2570429" lon="105.8643731"><ele>969.81</ele><time>2026-05-31T04:35:11.000Z</time></trkpt>
        <trkpt lat="28.2569931" lon="105.8643601"><ele>968.91</ele><time>2026-05-31T04:35:17.000Z</time></trkpt>
        <trkpt lat="28.2569372" lon="105.8643577"><ele>968.39</ele><time>2026-05-31T04:35:23.000Z</time></trkpt>
        <trkpt lat="28.2568873" lon="105.8643368"><ele>968.1</ele><time>2026-05-31T04:35:29.000Z</time></trkpt>
        <trkpt lat="28.2568728" lon="105.864291"><ele>968.68</ele><time>2026-05-31T04:35:37.000Z</time></trkpt>
        <trkpt lat="28.2568467" lon="105.8642506"><ele>966.45</ele><time>2026-05-31T04:36:07.000Z</time></trkpt>
        <trkpt lat="28.2568505" lon="105.8641984"><ele>965.74</ele><time>2026-05-31T04:36:23.000Z</time></trkpt>
        <trkpt lat="28.256863" lon="105.8641842"><ele>966.53</ele><time>2026-05-31T04:36:25.000Z</time></trkpt>
        <trkpt lat="28.2568395" lon="105.8641644"><ele>967.08</ele><time>2026-05-31T04:36:39.000Z</time></trkpt>
        <trkpt lat="28.2568605" lon="105.8641804"><ele>965.65</ele><time>2026-05-31T04:36:51.000Z</time></trkpt>
        <trkpt lat="28.2569026" lon="105.8641716"><ele>965.09</ele><time>2026-05-31T04:37:07.000Z</time></trkpt>
        <trkpt lat="28.2569374" lon="105.8642087"><ele>964.62</ele><time>2026-05-31T04:37:21.000Z</time></trkpt>
        <trkpt lat="28.2569801" lon="105.864241"><ele>965.8</ele><time>2026-05-31T04:37:33.000Z</time></trkpt>
        <trkpt lat="28.2569813" lon="105.8642089"><ele>968.62</ele><time>2026-05-31T04:37:41.000Z</time></trkpt>
        <trkpt lat="28.2569432" lon="105.864169"><ele>968.71</ele><time>2026-05-31T04:37:47.000Z</time></trkpt>
        <trkpt lat="28.2568981" lon="105.8641232"><ele>969.8</ele><time>2026-05-31T04:37:59.000Z</time></trkpt>
        <trkpt lat="28.2568554" lon="105.8640825"><ele>969.87</ele><time>2026-05-31T04:38:07.000Z</time></trkpt>
        <trkpt lat="28.256812" lon="105.8640478"><ele>970.06</ele><time>2026-05-31T04:38:15.000Z</time></trkpt>
        <trkpt lat="28.256806" lon="105.8640004"><ele>971.27</ele><time>2026-05-31T04:38:29.000Z</time></trkpt>
        <trkpt lat="28.2568153" lon="105.8639462"><ele>974.23</ele><time>2026-05-31T04:39:11.000Z</time></trkpt>
        <trkpt lat="28.2568265" lon="105.863923"><ele>978.08</ele><time>2026-05-31T04:39:13.000Z</time></trkpt>
        <trkpt lat="28.2568238" lon="105.8638821"><ele>980.01</ele><time>2026-05-31T04:39:41.000Z</time></trkpt>
        <trkpt lat="28.2568456" lon="105.8638305"><ele>982.41</ele><time>2026-05-31T04:40:53.000Z</time></trkpt>
        <trkpt lat="28.2568599" lon="105.8637801"><ele>984.24</ele><time>2026-05-31T04:41:19.000Z</time></trkpt>
        <trkpt lat="28.2568597" lon="105.863729"><ele>984.93</ele><time>2026-05-31T04:41:27.000Z</time></trkpt>
        <trkpt lat="28.2568636" lon="105.8636783"><ele>985.11</ele><time>2026-05-31T04:42:01.000Z</time></trkpt>
        <trkpt lat="28.25687" lon="105.8636278"><ele>987.53</ele><time>2026-05-31T04:42:25.000Z</time></trkpt>
        <trkpt lat="28.2568825" lon="105.8635776"><ele>992.34</ele><time>2026-05-31T04:42:37.000Z</time></trkpt>
        <trkpt lat="28.2568964" lon="105.8635276"><ele>995.39</ele><time>2026-05-31T04:42:57.000Z</time></trkpt>
        <trkpt lat="28.2569169" lon="105.8634779"><ele>998.73</ele><time>2026-05-31T04:43:09.000Z</time></trkpt>
        <trkpt lat="28.2569229" lon="105.863422"><ele>1001.06</ele><time>2026-05-31T04:43:29.000Z</time></trkpt>
        <trkpt lat="28.256888" lon="105.8633884"><ele>1003.21</ele><time>2026-05-31T04:43:47.000Z</time></trkpt>
        <trkpt lat="28.256888" lon="105.8633884"><ele>1003.21</ele><time>2026-05-31T04:43:57.000Z</time></trkpt>
        <trkpt lat="28.2568968" lon="105.8633401"><ele>1005.17</ele><time>2026-05-31T04:43:58.000Z</time></trkpt>
        <trkpt lat="28.2568968" lon="105.8633401"><ele>1005.17</ele><time>2026-05-31T04:45:18.000Z</time></trkpt>
        <trkpt lat="28.2569198" lon="105.8632956"><ele>1005.14</ele><time>2026-05-31T04:45:46.000Z</time></trkpt>
        <trkpt lat="28.2569563" lon="105.8633137"><ele>1006.44</ele><time>2026-05-31T04:46:02.000Z</time></trkpt>
        <trkpt lat="28.2569563" lon="105.8633137"><ele>1006.44</ele><time>2026-05-31T04:46:21.000Z</time></trkpt>
        <trkpt lat="28.25699" lon="105.8633487"><ele>1011.07</ele><time>2026-05-31T04:46:26.000Z</time></trkpt>
        <trkpt lat="28.25699" lon="105.8633487"><ele>1011.07</ele><time>2026-05-31T04:46:35.000Z</time></trkpt>
        <trkpt lat="28.2569807" lon="105.8633286"><ele>1015.13</ele><time>2026-05-31T04:47:33.000Z</time></trkpt>
        <trkpt lat="28.2569714" lon="105.8632278"><ele>1017.68</ele><time>2026-05-31T04:47:39.000Z</time></trkpt>
        <trkpt lat="28.2569447" lon="105.8631569"><ele>1018.71</ele><time>2026-05-31T04:47:47.000Z</time></trkpt>
        <trkpt lat="28.2568906" lon="105.8631254"><ele>1020.23</ele><time>2026-05-31T04:47:59.000Z</time></trkpt>
        <trkpt lat="28.2568538" lon="105.8630843"><ele>1021.84</ele><time>2026-05-31T04:48:09.000Z</time></trkpt>
        <trkpt lat="28.2568782" lon="105.8630392"><ele>1024.19</ele><time>2026-05-31T04:48:25.000Z</time></trkpt>
        <trkpt lat="28.2569095" lon="105.8629805"><ele>1024.78</ele><time>2026-05-31T04:48:31.000Z</time></trkpt>
        <trkpt lat="28.2569058" lon="105.8629524"><ele>1024.8</ele><time>2026-05-31T04:48:35.000Z</time></trkpt>
        <trkpt lat="28.2568688" lon="105.8629349"><ele>1025.51</ele><time>2026-05-31T04:48:45.000Z</time></trkpt>
        <trkpt lat="28.2568688" lon="105.8629349"><ele>1025.51</ele><time>2026-05-31T04:48:53.000Z</time></trkpt>
        <trkpt lat="28.2568244" lon="105.8628985"><ele>1027.51</ele><time>2026-05-31T04:48:58.000Z</time></trkpt>
        <trkpt lat="28.2568244" lon="105.8628985"><ele>1027.51</ele><time>2026-05-31T04:50:29.000Z</time></trkpt>
        <trkpt lat="28.2567782" lon="105.8628752"><ele>1034.83</ele><time>2026-05-31T04:50:43.000Z</time></trkpt>
        <trkpt lat="28.2567581" lon="105.8628288"><ele>1038.35</ele><time>2026-05-31T04:52:15.000Z</time></trkpt>
        <trkpt lat="28.2567581" lon="105.8628288"><ele>1038.35</ele><time>2026-05-31T04:52:31.000Z</time></trkpt>
        <trkpt lat="28.2567774" lon="105.8627573"><ele>1043.11</ele><time>2026-05-31T04:52:36.000Z</time></trkpt>
        <trkpt lat="28.2567774" lon="105.8627573"><ele>1043.11</ele><time>2026-05-31T04:52:43.000Z</time></trkpt>
        <trkpt lat="28.2567774" lon="105.8627573"><ele>1043.11</ele><time>2026-05-31T04:52:51.000Z</time></trkpt>
        <trkpt lat="28.2567774" lon="105.8627573"><ele>1043.11</ele><time>2026-05-31T04:52:56.000Z</time></trkpt>
        <trkpt lat="28.2567774" lon="105.8627573"><ele>1043.11</ele><time>2026-05-31T04:53:07.000Z</time></trkpt>
        <trkpt lat="28.2567752" lon="105.862702"><ele>1046.64</ele><time>2026-05-31T04:53:22.000Z</time></trkpt>
        <trkpt lat="28.2567752" lon="105.862702"><ele>1046.64</ele><time>2026-05-31T04:53:37.000Z</time></trkpt>
        <trkpt lat="28.2567846" lon="105.8626485"><ele>1049.45</ele><time>2026-05-31T04:54:07.000Z</time></trkpt>
        <trkpt lat="28.2568103" lon="105.8625878"><ele>1051.07</ele><time>2026-05-31T04:55:25.000Z</time></trkpt>
        <trkpt lat="28.2568492" lon="105.8625374"><ele>1053.43</ele><time>2026-05-31T04:55:29.000Z</time></trkpt>
        <trkpt lat="28.2568664" lon="105.8624894"><ele>1055.63</ele><time>2026-05-31T04:57:11.000Z</time></trkpt>
        <trkpt lat="28.2568831" lon="105.8624402"><ele>1059.62</ele><time>2026-05-31T04:57:19.000Z</time></trkpt>
        <trkpt lat="28.2569069" lon="105.8623848"><ele>1063.05</ele><time>2026-05-31T04:57:43.000Z</time></trkpt>
        <trkpt lat="28.2569452" lon="105.8623479"><ele>1065.21</ele><time>2026-05-31T04:57:47.000Z</time></trkpt>
        <trkpt lat="28.2569452" lon="105.8623479"><ele>1065.21</ele><time>2026-05-31T04:58:13.000Z</time></trkpt>
        <trkpt lat="28.2569922" lon="105.8623174"><ele>1066.36</ele><time>2026-05-31T04:58:16.000Z</time></trkpt>
        <trkpt lat="28.2569922" lon="105.8623174"><ele>1066.36</ele><time>2026-05-31T04:58:25.000Z</time></trkpt>
        <trkpt lat="28.2570459" lon="105.8623037"><ele>1066.53</ele><time>2026-05-31T04:58:39.000Z</time></trkpt>
        <trkpt lat="28.2570936" lon="105.8622808"><ele>1069.19</ele><time>2026-05-31T04:59:09.000Z</time></trkpt>
        <trkpt lat="28.2571264" lon="105.8622354"><ele>1075.15</ele><time>2026-05-31T04:59:27.000Z</time></trkpt>
        <trkpt lat="28.2571264" lon="105.8622354"><ele>1075.15</ele><time>2026-05-31T05:00:03.000Z</time></trkpt>
        <trkpt lat="28.2571684" lon="105.8622257"><ele>1080.51</ele><time>2026-05-31T05:00:04.000Z</time></trkpt>
        <trkpt lat="28.2571684" lon="105.8622257"><ele>1080.51</ele><time>2026-05-31T05:00:13.000Z</time></trkpt>
        <trkpt lat="28.2572129" lon="105.8622242"><ele>1085.32</ele><time>2026-05-31T05:01:05.000Z</time></trkpt>
        <trkpt lat="28.2572425" lon="105.8621788"><ele>1089.58</ele><time>2026-05-31T05:01:47.000Z</time></trkpt>
        <trkpt lat="28.2572565" lon="105.8621247"><ele>1092.65</ele><time>2026-05-31T05:01:51.000Z</time></trkpt>
        <trkpt lat="28.2572766" lon="105.8620717"><ele>1093.18</ele><time>2026-05-31T05:01:57.000Z</time></trkpt>
        <trkpt lat="28.2573074" lon="105.8620323"><ele>1093.6</ele><time>2026-05-31T05:02:03.000Z</time></trkpt>
        <trkpt lat="28.2573456" lon="105.8620021"><ele>1093.79</ele><time>2026-05-31T05:02:21.000Z</time></trkpt>
        <trkpt lat="28.2573817" lon="105.8619684"><ele>1097.28</ele><time>2026-05-31T05:02:43.000Z</time></trkpt>
        <trkpt lat="28.2573917" lon="105.861919"><ele>1100.29</ele><time>2026-05-31T05:02:49.000Z</time></trkpt>
        <trkpt lat="28.2574259" lon="105.8618971"><ele>1102.61</ele><time>2026-05-31T05:03:09.000Z</time></trkpt>
        <trkpt lat="28.2574572" lon="105.8619282"><ele>1105.59</ele><time>2026-05-31T05:03:27.000Z</time></trkpt>
        <trkpt lat="28.2574624" lon="105.8619898"><ele>1107.88</ele><time>2026-05-31T05:03:33.000Z</time></trkpt>
        <trkpt lat="28.2574624" lon="105.8619898"><ele>1107.88</ele><time>2026-05-31T05:04:29.000Z</time></trkpt>
        <trkpt lat="28.2574989" lon="105.8619938"><ele>1111.27</ele><time>2026-05-31T05:04:40.000Z</time></trkpt>
        <trkpt lat="28.2574989" lon="105.8619938"><ele>1111.27</ele><time>2026-05-31T05:04:41.000Z</time></trkpt>
        <trkpt lat="28.2574429" lon="105.8619653"><ele>1112.02</ele><time>2026-05-31T05:04:45.000Z</time></trkpt>
        <trkpt lat="28.2574429" lon="105.8619653"><ele>1112.02</ele><time>2026-05-31T05:04:53.000Z</time></trkpt>
        <trkpt lat="28.2574565" lon="105.861996"><ele>1117.3</ele><time>2026-05-31T05:05:02.000Z</time></trkpt>
        <trkpt lat="28.2574565" lon="105.861996"><ele>1117.3</ele><time>2026-05-31T05:05:15.000Z</time></trkpt>
        <trkpt lat="28.2577503" lon="105.8621912"><ele>1117.56</ele><time>2026-05-31T05:09:51.000Z</time></trkpt>
        <trkpt lat="28.2577503" lon="105.8621912"><ele>1117.56</ele><time>2026-05-31T05:09:59.000Z</time></trkpt>
        <trkpt lat="28.2577666" lon="105.8622423"><ele>1129.03</ele><time>2026-05-31T05:10:02.000Z</time></trkpt>
        <trkpt lat="28.2577666" lon="105.8622423"><ele>1129.03</ele><time>2026-05-31T05:11:00.000Z</time></trkpt>
        <trkpt lat="28.2577664" lon="105.8622437"><ele>1135.18</ele><time>2026-05-31T05:11:02.000Z</time></trkpt>
        <trkpt lat="28.2577901" lon="105.8622892"><ele>1138.7</ele><time>2026-05-31T05:11:18.000Z</time></trkpt>
        <trkpt lat="28.2577901" lon="105.8622892"><ele>1138.7</ele><time>2026-05-31T05:11:41.000Z</time></trkpt>
        <trkpt lat="28.257827" lon="105.8623234"><ele>1140.71</ele><time>2026-05-31T05:11:46.000Z</time></trkpt>
        <trkpt lat="28.257827" lon="105.8623234"><ele>1140.71</ele><time>2026-05-31T05:11:50.000Z</time></trkpt>
        <trkpt lat="28.2578683" lon="105.8623636"><ele>1142.94</ele><time>2026-05-31T05:12:02.000Z</time></trkpt>
        <trkpt lat="28.2579035" lon="105.8624054"><ele>1144.13</ele><time>2026-05-31T05:12:22.000Z</time></trkpt>
        <trkpt lat="28.2579394" lon="105.862442"><ele>1145.21</ele><time>2026-05-31T05:12:50.000Z</time></trkpt>
        <trkpt lat="28.2579655" lon="105.8624867"><ele>1148.86</ele><time>2026-05-31T05:13:10.000Z</time></trkpt>
        <trkpt lat="28.2580041" lon="105.8625105"><ele>1152.06</ele><time>2026-05-31T05:13:24.000Z</time></trkpt>
        <trkpt lat="28.2580498" lon="105.8625103"><ele>1155.38</ele><time>2026-05-31T05:14:00.000Z</time></trkpt>
        <trkpt lat="28.2580915" lon="105.8624862"><ele>1158.38</ele><time>2026-05-31T05:14:34.000Z</time></trkpt>
        <trkpt lat="28.2581332" lon="105.8625078"><ele>1160.64</ele><time>2026-05-31T05:14:46.000Z</time></trkpt>
        <trkpt lat="28.2581748" lon="105.8625448"><ele>1161.7</ele><time>2026-05-31T05:14:56.000Z</time></trkpt>
        <trkpt lat="28.2582135" lon="105.8625347"><ele>1162.6</ele><time>2026-05-31T05:15:02.000Z</time></trkpt>
        <trkpt lat="28.2582577" lon="105.8625045"><ele>1163.6</ele><time>2026-05-31T05:15:08.000Z</time></trkpt>
        <trkpt lat="28.2583027" lon="105.862476"><ele>1164.22</ele><time>2026-05-31T05:15:14.000Z</time></trkpt>
        <trkpt lat="28.2583518" lon="105.8624547"><ele>1163.97</ele><time>2026-05-31T05:15:22.000Z</time></trkpt>
        <trkpt lat="28.2583917" lon="105.8624226"><ele>1163.72</ele><time>2026-05-31T05:15:28.000Z</time></trkpt>
        <trkpt lat="28.2584412" lon="105.862384"><ele>1162.86</ele><time>2026-05-31T05:15:34.000Z</time></trkpt>
        <trkpt lat="28.2584645" lon="105.8623224"><ele>1163.66</ele><time>2026-05-31T05:15:40.000Z</time></trkpt>
        <trkpt lat="28.2584976" lon="105.8622798"><ele>1164.78</ele><time>2026-05-31T05:15:50.000Z</time></trkpt>
        <trkpt lat="28.2585341" lon="105.8622471"><ele>1164.77</ele><time>2026-05-31T05:15:58.000Z</time></trkpt>
        <trkpt lat="28.2585834" lon="105.8622276"><ele>1165.39</ele><time>2026-05-31T05:16:06.000Z</time></trkpt>
        <trkpt lat="28.2586356" lon="105.8622032"><ele>1165.53</ele><time>2026-05-31T05:16:18.000Z</time></trkpt>
        <trkpt lat="28.2586862" lon="105.8621841"><ele>1166.65</ele><time>2026-05-31T05:16:26.000Z</time></trkpt>
        <trkpt lat="28.2587341" lon="105.8621737"><ele>1169.12</ele><time>2026-05-31T05:16:34.000Z</time></trkpt>
        <trkpt lat="28.258783" lon="105.8621744"><ele>1170.39</ele><time>2026-05-31T05:16:40.000Z</time></trkpt>
        <trkpt lat="28.2588204" lon="105.8621509"><ele>1171.8</ele><time>2026-05-31T05:17:08.000Z</time></trkpt>
        <trkpt lat="28.2588516" lon="105.862113"><ele>1173.8</ele><time>2026-05-31T05:17:22.000Z</time></trkpt>
        <trkpt lat="28.25889" lon="105.8620662"><ele>1176.9</ele><time>2026-05-31T05:17:36.000Z</time></trkpt>
        <trkpt lat="28.2589362" lon="105.8620301"><ele>1178.58</ele><time>2026-05-31T05:17:42.000Z</time></trkpt>
        <trkpt lat="28.2589823" lon="105.8619907"><ele>1177.51</ele><time>2026-05-31T05:17:56.000Z</time></trkpt>
        <trkpt lat="28.2590206" lon="105.861953"><ele>1180.43</ele><time>2026-05-31T05:18:02.000Z</time></trkpt>
        <trkpt lat="28.2590633" lon="105.8619302"><ele>1182.99</ele><time>2026-05-31T05:18:12.000Z</time></trkpt>
        <trkpt lat="28.259068" lon="105.8618853"><ele>1185.01</ele><time>2026-05-31T05:18:27.000Z</time></trkpt>
        <trkpt lat="28.2590771" lon="105.8618291"><ele>1186.63</ele><time>2026-05-31T05:18:41.000Z</time></trkpt>
        <trkpt lat="28.2590487" lon="105.8618372"><ele>1186.97</ele><time>2026-05-31T05:18:47.000Z</time></trkpt>
        <trkpt lat="28.2589938" lon="105.8618606"><ele>1188.03</ele><time>2026-05-31T05:18:53.000Z</time></trkpt>
        <trkpt lat="28.2589376" lon="105.8618768"><ele>1188.02</ele><time>2026-05-31T05:18:57.000Z</time></trkpt>
        <trkpt lat="28.2588729" lon="105.8618817"><ele>1187.7</ele><time>2026-05-31T05:19:03.000Z</time></trkpt>
        <trkpt lat="28.2588729" lon="105.8618817"><ele>1187.7</ele><time>2026-05-31T05:19:17.000Z</time></trkpt>
        <trkpt lat="28.2588822" lon="105.8618551"><ele>1189.5</ele><time>2026-05-31T05:19:18.000Z</time></trkpt>
        <trkpt lat="28.2588822" lon="105.8618551"><ele>1189.5</ele><time>2026-05-31T05:19:21.000Z</time></trkpt>
        <trkpt lat="28.2588651" lon="105.8618167"><ele>1189.8</ele><time>2026-05-31T05:19:31.000Z</time></trkpt>
        <trkpt lat="28.2588229" lon="105.8617878"><ele>1189.39</ele><time>2026-05-31T05:19:41.000Z</time></trkpt>
        <trkpt lat="28.2588119" lon="105.8617925"><ele>1188.71</ele><time>2026-05-31T05:19:45.000Z</time></trkpt>
        <trkpt lat="28.2587765" lon="105.8617768"><ele>1187.47</ele><time>2026-05-31T05:19:53.000Z</time></trkpt>
        <trkpt lat="28.258724" lon="105.861794"><ele>1186.05</ele><time>2026-05-31T05:20:33.000Z</time></trkpt>
        <trkpt lat="28.2586813" lon="105.8618291"><ele>1182.14</ele><time>2026-05-31T05:20:39.000Z</time></trkpt>
        <trkpt lat="28.258642" lon="105.8618652"><ele>1179.78</ele><time>2026-05-31T05:20:47.000Z</time></trkpt>
        <trkpt lat="28.2586325" lon="105.8618781"><ele>1178.42</ele><time>2026-05-31T05:20:51.000Z</time></trkpt>
        <trkpt lat="28.2585992" lon="105.8618794"><ele>1176.91</ele><time>2026-05-31T05:20:57.000Z</time></trkpt>
        <trkpt lat="28.2585573" lon="105.861905"><ele>1176.98</ele><time>2026-05-31T05:21:07.000Z</time></trkpt>
        <trkpt lat="28.2585096" lon="105.861901"><ele>1177.35</ele><time>2026-05-31T05:21:13.000Z</time></trkpt>
        <trkpt lat="28.2584567" lon="105.8619032"><ele>1176.7</ele><time>2026-05-31T05:21:21.000Z</time></trkpt>
        <trkpt lat="28.2584087" lon="105.8618942"><ele>1175.68</ele><time>2026-05-31T05:21:31.000Z</time></trkpt>
        <trkpt lat="28.2583693" lon="105.8618654"><ele>1174.2</ele><time>2026-05-31T05:21:41.000Z</time></trkpt>
        <trkpt lat="28.2583277" lon="105.8618429"><ele>1172.23</ele><time>2026-05-31T05:21:49.000Z</time></trkpt>
        <trkpt lat="28.2582765" lon="105.8618291"><ele>1170.36</ele><time>2026-05-31T05:21:55.000Z</time></trkpt>
        <trkpt lat="28.2582324" lon="105.8618001"><ele>1167.99</ele><time>2026-05-31T05:22:07.000Z</time></trkpt>
        <trkpt lat="28.258209" lon="105.8617558"><ele>1164.78</ele><time>2026-05-31T05:22:15.000Z</time></trkpt>
        <trkpt lat="28.258209" lon="105.8617558"><ele>1164.78</ele><time>2026-05-31T05:22:27.000Z</time></trkpt>
        <trkpt lat="28.2582369" lon="105.8617155"><ele>1161.74</ele><time>2026-05-31T05:22:40.000Z</time></trkpt>
        <trkpt lat="28.2582369" lon="105.8617155"><ele>1161.74</ele><time>2026-05-31T05:22:45.000Z</time></trkpt>
        <trkpt lat="28.2582837" lon="105.8616938"><ele>1161.42</ele><time>2026-05-31T05:22:49.000Z</time></trkpt>
        <trkpt lat="28.2583209" lon="105.8616482"><ele>1161.25</ele><time>2026-05-31T05:23:37.000Z</time></trkpt>
        <trkpt lat="28.2583579" lon="105.8616052"><ele>1159.34</ele><time>2026-05-31T05:23:47.000Z</time></trkpt>
        <trkpt lat="28.2583716" lon="105.8615553"><ele>1158.82</ele><time>2026-05-31T05:23:53.000Z</time></trkpt>
        <trkpt lat="28.2583668" lon="105.861502"><ele>1157.82</ele><time>2026-05-31T05:23:59.000Z</time></trkpt>
        <trkpt lat="28.2583753" lon="105.8614503"><ele>1157.33</ele><time>2026-05-31T05:24:03.000Z</time></trkpt>
        <trkpt lat="28.2583787" lon="105.8614101"><ele>1158.24</ele><time>2026-05-31T05:24:11.000Z</time></trkpt>
        <trkpt lat="28.2583787" lon="105.8614101"><ele>1158.24</ele><time>2026-05-31T05:24:35.000Z</time></trkpt>
        <trkpt lat="28.2583453" lon="105.8614117"><ele>1157.91</ele><time>2026-05-31T05:24:46.000Z</time></trkpt>
        <trkpt lat="28.2583453" lon="105.8614117"><ele>1157.91</ele><time>2026-05-31T05:24:47.000Z</time></trkpt>
        <trkpt lat="28.2583112" lon="105.8613846"><ele>1158.28</ele><time>2026-05-31T05:25:09.000Z</time></trkpt>
        <trkpt lat="28.2583002" lon="105.8613372"><ele>1156.9</ele><time>2026-05-31T05:25:16.000Z</time></trkpt>
        <trkpt lat="28.2583005" lon="105.8612839"><ele>1154.75</ele><time>2026-05-31T05:25:24.000Z</time></trkpt>
        <trkpt lat="28.258267" lon="105.8612812"><ele>1154.16</ele><time>2026-05-31T05:25:40.000Z</time></trkpt>
        <trkpt lat="28.2582464" lon="105.8612354"><ele>1152.93</ele><time>2026-05-31T05:25:46.000Z</time></trkpt>
        <trkpt lat="28.2582304" lon="105.8611827"><ele>1153.93</ele><time>2026-05-31T05:25:52.000Z</time></trkpt>
        <trkpt lat="28.2581901" lon="105.8611714"><ele>1153.92</ele><time>2026-05-31T05:25:58.000Z</time></trkpt>
        <trkpt lat="28.2581339" lon="105.861158"><ele>1151.58</ele><time>2026-05-31T05:26:04.000Z</time></trkpt>
        <trkpt lat="28.2581147" lon="105.8611163"><ele>1149.48</ele><time>2026-05-31T05:26:16.000Z</time></trkpt>
        <trkpt lat="28.2580724" lon="105.8611128"><ele>1146.19</ele><time>2026-05-31T05:26:26.000Z</time></trkpt>
        <trkpt lat="28.2580252" lon="105.8611207"><ele>1144.17</ele><time>2026-05-31T05:26:30.000Z</time></trkpt>
        <trkpt lat="28.2579722" lon="105.8611318"><ele>1143.37</ele><time>2026-05-31T05:26:36.000Z</time></trkpt>
        <trkpt lat="28.2579151" lon="105.8611515"><ele>1143.89</ele><time>2026-05-31T05:26:42.000Z</time></trkpt>
        <trkpt lat="28.2578653" lon="105.8611917"><ele>1143.49</ele><time>2026-05-31T05:26:48.000Z</time></trkpt>
        <trkpt lat="28.2578137" lon="105.8612303"><ele>1142.35</ele><time>2026-05-31T05:26:54.000Z</time></trkpt>
        <trkpt lat="28.2577618" lon="105.8612529"><ele>1141.11</ele><time>2026-05-31T05:27:02.000Z</time></trkpt>
        <trkpt lat="28.2577049" lon="105.8612668"><ele>1139.16</ele><time>2026-05-31T05:27:08.000Z</time></trkpt>
        <trkpt lat="28.2576765" lon="105.8613081"><ele>1137.56</ele><time>2026-05-31T05:27:14.000Z</time></trkpt>
        <trkpt lat="28.2576775" lon="105.8613149"><ele>1135.23</ele><time>2026-05-31T05:27:18.000Z</time></trkpt>
        <trkpt lat="28.2577164" lon="105.8613392"><ele>1134.48</ele><time>2026-05-31T05:27:32.000Z</time></trkpt>
        <trkpt lat="28.2577337" lon="105.8613873"><ele>1131.74</ele><time>2026-05-31T05:27:38.000Z</time></trkpt>
        <trkpt lat="28.2577407" lon="105.8614518"><ele>1129.44</ele><time>2026-05-31T05:27:46.000Z</time></trkpt>
        <trkpt lat="28.2577725" lon="105.8615028"><ele>1127.24</ele><time>2026-05-31T05:27:54.000Z</time></trkpt>
        <trkpt lat="28.2577517" lon="105.8615361"><ele>1125.38</ele><time>2026-05-31T05:28:00.000Z</time></trkpt>
        <trkpt lat="28.2577038" lon="105.8615462"><ele>1123.48</ele><time>2026-05-31T05:28:08.000Z</time></trkpt>
        <trkpt lat="28.2576605" lon="105.861577"><ele>1123.65</ele><time>2026-05-31T05:28:14.000Z</time></trkpt>
        <trkpt lat="28.2576363" lon="105.8616302"><ele>1125.15</ele><time>2026-05-31T05:28:20.000Z</time></trkpt>
        <trkpt lat="28.2576079" lon="105.8616804"><ele>1126.23</ele><time>2026-05-31T05:28:26.000Z</time></trkpt>
        <trkpt lat="28.257588" lon="105.8617345"><ele>1125.69</ele><time>2026-05-31T05:28:32.000Z</time></trkpt>
        <trkpt lat="28.2575702" lon="105.861789"><ele>1125.87</ele><time>2026-05-31T05:28:38.000Z</time></trkpt>
        <trkpt lat="28.2575433" lon="105.8618342"><ele>1126.08</ele><time>2026-05-31T05:28:46.000Z</time></trkpt>
        <trkpt lat="28.2575129" lon="105.8618879"><ele>1126.07</ele><time>2026-05-31T05:28:52.000Z</time></trkpt>
        <trkpt lat="28.2574811" lon="105.8619421"><ele>1125.91</ele><time>2026-05-31T05:28:58.000Z</time></trkpt>
        <trkpt lat="28.2574579" lon="105.8619954"><ele>1125.19</ele><time>2026-05-31T05:29:04.000Z</time></trkpt>
        <trkpt lat="28.2574396" lon="105.8620514"><ele>1125.11</ele><time>2026-05-31T05:29:16.000Z</time></trkpt>
        <trkpt lat="28.2574543" lon="105.8620312"><ele>1123.21</ele><time>2026-05-31T05:29:24.000Z</time></trkpt>
        <trkpt lat="28.2574814" lon="105.8619692"><ele>1122.01</ele><time>2026-05-31T05:29:28.000Z</time></trkpt>
        <trkpt lat="28.2574878" lon="105.8618926"><ele>1121.58</ele><time>2026-05-31T05:29:32.000Z</time></trkpt>
        <trkpt lat="28.2574577" lon="105.8618399"><ele>1121.82</ele><time>2026-05-31T05:29:42.000Z</time></trkpt>
        <trkpt lat="28.2574884" lon="105.8618089"><ele>1123.78</ele><time>2026-05-31T05:29:50.000Z</time></trkpt>
        <trkpt lat="28.2575349" lon="105.8617848"><ele>1124.62</ele><time>2026-05-31T05:29:54.000Z</time></trkpt>
        <trkpt lat="28.2575627" lon="105.8617362"><ele>1125.49</ele><time>2026-05-31T05:30:00.000Z</time></trkpt>
        <trkpt lat="28.2575786" lon="105.8616756"><ele>1125.96</ele><time>2026-05-31T05:30:04.000Z</time></trkpt>
        <trkpt lat="28.2576171" lon="105.8616334"><ele>1125.64</ele><time>2026-05-31T05:30:12.000Z</time></trkpt>
        <trkpt lat="28.2576591" lon="105.8615761"><ele>1122.86</ele><time>2026-05-31T05:30:18.000Z</time></trkpt>
        <trkpt lat="28.2576809" lon="105.8615098"><ele>1121.8</ele><time>2026-05-31T05:30:24.000Z</time></trkpt>
        <trkpt lat="28.2577051" lon="105.8614491"><ele>1122.63</ele><time>2026-05-31T05:30:30.000Z</time></trkpt>
        <trkpt lat="28.2577284" lon="105.861386"><ele>1123.4</ele><time>2026-05-31T05:30:36.000Z</time></trkpt>
        <trkpt lat="28.2577424" lon="105.8613315"><ele>1123.5</ele><time>2026-05-31T05:30:40.000Z</time></trkpt>
        <trkpt lat="28.2577581" lon="105.8612801"><ele>1123.26</ele><time>2026-05-31T05:30:46.000Z</time></trkpt>
        <trkpt lat="28.2577624" lon="105.8612276"><ele>1123.53</ele><time>2026-05-31T05:30:52.000Z</time></trkpt>
        <trkpt lat="28.257731" lon="105.8611984"><ele>1124.52</ele><time>2026-05-31T05:31:22.000Z</time></trkpt>
        <trkpt lat="28.257731" lon="105.8611984"><ele>1124.52</ele><time>2026-05-31T05:31:31.000Z</time></trkpt>
        <trkpt lat="28.2577552" lon="105.8612049"><ele>1125.05</ele><time>2026-05-31T05:31:36.000Z</time></trkpt>
        <trkpt lat="28.2577552" lon="105.8612049"><ele>1125.05</ele><time>2026-05-31T05:31:52.000Z</time></trkpt>
        <trkpt lat="28.2577552" lon="105.8612049"><ele>1125.05</ele><time>2026-05-31T05:32:01.000Z</time></trkpt>
        <trkpt lat="28.2577552" lon="105.8612049"><ele>1125.05</ele><time>2026-05-31T05:32:08.000Z</time></trkpt>
        <trkpt lat="28.2577552" lon="105.8612049"><ele>1125.05</ele><time>2026-05-31T05:32:19.000Z</time></trkpt>
        <trkpt lat="28.2577922" lon="105.8612556"><ele>1125.39</ele><time>2026-05-31T05:32:36.000Z</time></trkpt>
        <trkpt lat="28.2577922" lon="105.8612556"><ele>1125.39</ele><time>2026-05-31T05:32:43.000Z</time></trkpt>
        <trkpt lat="28.2577922" lon="105.8612556"><ele>1125.39</ele><time>2026-05-31T05:32:45.000Z</time></trkpt>
        <trkpt lat="28.2577731" lon="105.8612316"><ele>1126.7</ele><time>2026-05-31T05:33:12.000Z</time></trkpt>
        <trkpt lat="28.2577731" lon="105.8612316"><ele>1126.7</ele><time>2026-05-31T05:35:47.000Z</time></trkpt>
        <trkpt lat="28.2577405" lon="105.8612694"><ele>1127.33</ele><time>2026-05-31T05:36:03.000Z</time></trkpt>
        <trkpt lat="28.2576988" lon="105.861292"><ele>1127.31</ele><time>2026-05-31T05:36:13.000Z</time></trkpt>
        <trkpt lat="28.257668" lon="105.8613283"><ele>1126.42</ele><time>2026-05-31T05:36:27.000Z</time></trkpt>
        <trkpt lat="28.2576327" lon="105.8613466"><ele>1124.96</ele><time>2026-05-31T05:36:39.000Z</time></trkpt>
        <trkpt lat="28.2575898" lon="105.8613266"><ele>1124.67</ele><time>2026-05-31T05:36:49.000Z</time></trkpt>
        <trkpt lat="28.2575454" lon="105.8613017"><ele>1123.63</ele><time>2026-05-31T05:36:55.000Z</time></trkpt>
        <trkpt lat="28.2574856" lon="105.8612584"><ele>1121.65</ele><time>2026-05-31T05:37:07.000Z</time></trkpt>
        <trkpt lat="28.2574741" lon="105.8612251"><ele>1123.07</ele><time>2026-05-31T05:37:09.000Z</time></trkpt>
        <trkpt lat="28.2574741" lon="105.8612251"><ele>1123.07</ele><time>2026-05-31T05:37:43.000Z</time></trkpt>
        <trkpt lat="28.2578389" lon="105.8610145"><ele>1123.68</ele><time>2026-05-31T05:38:28.000Z</time></trkpt>
        <trkpt lat="28.2578389" lon="105.8610145"><ele>1123.68</ele><time>2026-05-31T05:38:31.000Z</time></trkpt>
        <trkpt lat="28.2578389" lon="105.8610145"><ele>1123.68</ele><time>2026-05-31T05:38:37.000Z</time></trkpt>
        <trkpt lat="28.2576551" lon="105.8612789"><ele>1117.02</ele><time>2026-05-31T05:39:32.000Z</time></trkpt>
        <trkpt lat="28.2576551" lon="105.8612789"><ele>1117.02</ele><time>2026-05-31T05:39:35.000Z</time></trkpt>
        <trkpt lat="28.2576132" lon="105.8613106"><ele>1108.14</ele><time>2026-05-31T05:39:42.000Z</time></trkpt>
        <trkpt lat="28.2576132" lon="105.8613106"><ele>1108.14</ele><time>2026-05-31T05:39:53.000Z</time></trkpt>
        <trkpt lat="28.2576132" lon="105.8613106"><ele>1108.14</ele><time>2026-05-31T05:39:54.000Z</time></trkpt>
        <trkpt lat="28.2576132" lon="105.8613106"><ele>1108.14</ele><time>2026-05-31T05:40:39.000Z</time></trkpt>
        <trkpt lat="28.2576253" lon="105.8612002"><ele>1107.13</ele><time>2026-05-31T05:40:40.000Z</time></trkpt>
        <trkpt lat="28.2576253" lon="105.8612002"><ele>1107.13</ele><time>2026-05-31T05:41:14.000Z</time></trkpt>
        <trkpt lat="28.2576205" lon="105.8611663"><ele>1106.34</ele><time>2026-05-31T05:41:16.000Z</time></trkpt>
        <trkpt lat="28.2575974" lon="105.8611175"><ele>1105.59</ele><time>2026-05-31T05:41:58.000Z</time></trkpt>
        <trkpt lat="28.2575522" lon="105.8611009"><ele>1106.29</ele><time>2026-05-31T05:42:36.000Z</time></trkpt>
        <trkpt lat="28.257497" lon="105.8610865"><ele>1107.33</ele><time>2026-05-31T05:42:40.000Z</time></trkpt>
        <trkpt lat="28.2574352" lon="105.8610776"><ele>1108.42</ele><time>2026-05-31T05:42:44.000Z</time></trkpt>
        <trkpt lat="28.2573821" lon="105.8610446"><ele>1109.89</ele><time>2026-05-31T05:43:06.000Z</time></trkpt>
        <trkpt lat="28.2573404" lon="105.8609951"><ele>1109.33</ele><time>2026-05-31T05:43:10.000Z</time></trkpt>
        <trkpt lat="28.2572918" lon="105.8609467"><ele>1107.81</ele><time>2026-05-31T05:43:14.000Z</time></trkpt>
        <trkpt lat="28.2572481" lon="105.8608998"><ele>1106.87</ele><time>2026-05-31T05:43:20.000Z</time></trkpt>
        <trkpt lat="28.2571993" lon="105.8608852"><ele>1105.3</ele><time>2026-05-31T05:43:26.000Z</time></trkpt>
        <trkpt lat="28.2571535" lon="105.8608609"><ele>1104.67</ele><time>2026-05-31T05:43:34.000Z</time></trkpt>
        <trkpt lat="28.2571194" lon="105.8608212"><ele>1103.54</ele><time>2026-05-31T05:43:42.000Z</time></trkpt>
        <trkpt lat="28.2571155" lon="105.8607672"><ele>1101.15</ele><time>2026-05-31T05:43:50.000Z</time></trkpt>
        <trkpt lat="28.2570942" lon="105.8607212"><ele>1098.67</ele><time>2026-05-31T05:43:58.000Z</time></trkpt>
        <trkpt lat="28.2570894" lon="105.860669"><ele>1097.47</ele><time>2026-05-31T05:44:04.000Z</time></trkpt>
        <trkpt lat="28.2570852" lon="105.8606133"><ele>1096.5</ele><time>2026-05-31T05:44:10.000Z</time></trkpt>
        <trkpt lat="28.2571211" lon="105.8605688"><ele>1096.3</ele><time>2026-05-31T05:44:18.000Z</time></trkpt>
        <trkpt lat="28.2571142" lon="105.860519"><ele>1095.43</ele><time>2026-05-31T05:44:24.000Z</time></trkpt>
        <trkpt lat="28.2570882" lon="105.8604767"><ele>1096.43</ele><time>2026-05-31T05:44:30.000Z</time></trkpt>
        <trkpt lat="28.2570672" lon="105.8604276"><ele>1098.08</ele><time>2026-05-31T05:44:40.000Z</time></trkpt>
        <trkpt lat="28.2570438" lon="105.860376"><ele>1098.31</ele><time>2026-05-31T05:44:48.000Z</time></trkpt>
        <trkpt lat="28.2571074" lon="105.8603323"><ele>1100.38</ele><time>2026-05-31T05:44:52.000Z</time></trkpt>
        <trkpt lat="28.2571704" lon="105.8603019"><ele>1100.43</ele><time>2026-05-31T05:45:14.000Z</time></trkpt>
        <trkpt lat="28.2572197" lon="105.8602229"><ele>1096.99</ele><time>2026-05-31T05:45:46.000Z</time></trkpt>
        <trkpt lat="28.2572487" lon="105.8601372"><ele>1095.97</ele><time>2026-05-31T05:45:50.000Z</time></trkpt>
        <trkpt lat="28.2572667" lon="105.8600643"><ele>1094.42</ele><time>2026-05-31T05:45:54.000Z</time></trkpt>
        <trkpt lat="28.257311" lon="105.8600269"><ele>1095.78</ele><time>2026-05-31T05:46:04.000Z</time></trkpt>
        <trkpt lat="28.2573506" lon="105.8599875"><ele>1094.92</ele><time>2026-05-31T05:46:10.000Z</time></trkpt>
        <trkpt lat="28.2573418" lon="105.8599226"><ele>1094.53</ele><time>2026-05-31T05:46:18.000Z</time></trkpt>
        <trkpt lat="28.2573683" lon="105.8598831"><ele>1097.6</ele><time>2026-05-31T05:46:24.000Z</time></trkpt>
        <trkpt lat="28.2573911" lon="105.8598266"><ele>1098.9</ele><time>2026-05-31T05:46:34.000Z</time></trkpt>
        <trkpt lat="28.2573657" lon="105.8597884"><ele>1100.2</ele><time>2026-05-31T05:46:42.000Z</time></trkpt>
        <trkpt lat="28.257387" lon="105.8597582"><ele>1103.3</ele><time>2026-05-31T05:46:46.000Z</time></trkpt>
        <trkpt lat="28.2574345" lon="105.8597345"><ele>1106.78</ele><time>2026-05-31T05:46:54.000Z</time></trkpt>
        <trkpt lat="28.2574869" lon="105.8597258"><ele>1107.41</ele><time>2026-05-31T05:47:08.000Z</time></trkpt>
        <trkpt lat="28.2575351" lon="105.8597106"><ele>1106.41</ele><time>2026-05-31T05:47:12.000Z</time></trkpt>
        <trkpt lat="28.2575763" lon="105.8596826"><ele>1105.4</ele><time>2026-05-31T05:47:18.000Z</time></trkpt>
        <trkpt lat="28.2576378" lon="105.8583446"><ele>1105.97</ele><time>2026-05-31T05:52:59.000Z</time></trkpt>
        <trkpt lat="28.2576378" lon="105.8583446"><ele>1105.97</ele><time>2026-05-31T05:53:15.000Z</time></trkpt>
        <trkpt lat="28.2575883" lon="105.858334"><ele>1111.92</ele><time>2026-05-31T05:53:20.000Z</time></trkpt>
        <trkpt lat="28.2575883" lon="105.858334"><ele>1111.92</ele><time>2026-05-31T05:54:05.000Z</time></trkpt>
        <trkpt lat="28.257526" lon="105.8583533"><ele>1111.79</ele><time>2026-05-31T05:54:07.000Z</time></trkpt>
        <trkpt lat="28.2574633" lon="105.8583916"><ele>1112.03</ele><time>2026-05-31T05:54:11.000Z</time></trkpt>
        <trkpt lat="28.2574052" lon="105.858431"><ele>1111.2</ele><time>2026-05-31T05:54:15.000Z</time></trkpt>
        <trkpt lat="28.2573542" lon="105.8584363"><ele>1111.64</ele><time>2026-05-31T05:54:23.000Z</time></trkpt>
        <trkpt lat="28.2573087" lon="105.8584622"><ele>1109.56</ele><time>2026-05-31T05:54:31.000Z</time></trkpt>
        <trkpt lat="28.2572631" lon="105.8584653"><ele>1109.19</ele><time>2026-05-31T05:54:39.000Z</time></trkpt>
        <trkpt lat="28.2572307" lon="105.8584948"><ele>1109.38</ele><time>2026-05-31T05:54:43.000Z</time></trkpt>
        <trkpt lat="28.2571984" lon="105.858545"><ele>1110.28</ele><time>2026-05-31T05:54:49.000Z</time></trkpt>
        <trkpt lat="28.257152" lon="105.8585856"><ele>1110.76</ele><time>2026-05-31T05:54:55.000Z</time></trkpt>
        <trkpt lat="28.2571045" lon="105.8586056"><ele>1111.88</ele><time>2026-05-31T05:55:01.000Z</time></trkpt>
        <trkpt lat="28.2570579" lon="105.8586017"><ele>1112.74</ele><time>2026-05-31T05:55:09.000Z</time></trkpt>
        <trkpt lat="28.2570102" lon="105.8585824"><ele>1113.31</ele><time>2026-05-31T05:55:19.000Z</time></trkpt>
        <trkpt lat="28.2569641" lon="105.8585754"><ele>1114.31</ele><time>2026-05-31T05:55:25.000Z</time></trkpt>
        <trkpt lat="28.2569173" lon="105.8585564"><ele>1114.28</ele><time>2026-05-31T05:55:33.000Z</time></trkpt>
        <trkpt lat="28.2568741" lon="105.8585334"><ele>1113.85</ele><time>2026-05-31T05:55:43.000Z</time></trkpt>
        <trkpt lat="28.2568281" lon="105.8585426"><ele>1112.18</ele><time>2026-05-31T05:56:05.000Z</time></trkpt>
        <trkpt lat="28.2567948" lon="105.8585912"><ele>1105.93</ele><time>2026-05-31T05:56:17.000Z</time></trkpt>
        <trkpt lat="28.2567817" lon="105.8586478"><ele>1101.23</ele><time>2026-05-31T05:56:27.000Z</time></trkpt>
        <trkpt lat="28.2567884" lon="105.8587111"><ele>1097.22</ele><time>2026-05-31T05:56:35.000Z</time></trkpt>
        <trkpt lat="28.2567589" lon="105.8587547"><ele>1093.72</ele><time>2026-05-31T05:56:41.000Z</time></trkpt>
        <trkpt lat="28.2567306" lon="105.8587985"><ele>1090.42</ele><time>2026-05-31T05:56:49.000Z</time></trkpt>
        <trkpt lat="28.2566842" lon="105.8588188"><ele>1088.3</ele><time>2026-05-31T05:56:59.000Z</time></trkpt>
        <trkpt lat="28.2566328" lon="105.858831"><ele>1089.49</ele><time>2026-05-31T05:57:07.000Z</time></trkpt>
        <trkpt lat="28.2565721" lon="105.8588335"><ele>1090.43</ele><time>2026-05-31T05:57:15.000Z</time></trkpt>
        <trkpt lat="28.2565593" lon="105.8588243"><ele>1088.58</ele><time>2026-05-31T05:57:17.000Z</time></trkpt>
        <trkpt lat="28.2565217" lon="105.8588038"><ele>1087.23</ele><time>2026-05-31T05:57:23.000Z</time></trkpt>
        <trkpt lat="28.256485" lon="105.8588284"><ele>1085.7</ele><time>2026-05-31T05:57:29.000Z</time></trkpt>
        <trkpt lat="28.2564561" lon="105.8588834"><ele>1085.58</ele><time>2026-05-31T05:57:35.000Z</time></trkpt>
        <trkpt lat="28.2564253" lon="105.8589359"><ele>1087.26</ele><time>2026-05-31T05:57:41.000Z</time></trkpt>
        <trkpt lat="28.256389" lon="105.858986"><ele>1088.38</ele><time>2026-05-31T05:57:51.000Z</time></trkpt>
        <trkpt lat="28.2563471" lon="105.8590166"><ele>1088.16</ele><time>2026-05-31T05:57:57.000Z</time></trkpt>
        <trkpt lat="28.256302" lon="105.8590187"><ele>1088.73</ele><time>2026-05-31T05:58:03.000Z</time></trkpt>
        <trkpt lat="28.2562516" lon="105.8589996"><ele>1089.52</ele><time>2026-05-31T05:58:11.000Z</time></trkpt>
        <trkpt lat="28.2561917" lon="105.8589895"><ele>1090.25</ele><time>2026-05-31T05:58:21.000Z</time></trkpt>
        <trkpt lat="28.2561419" lon="105.8590022"><ele>1090.35</ele><time>2026-05-31T05:58:27.000Z</time></trkpt>
        <trkpt lat="28.2560986" lon="105.8590255"><ele>1090.37</ele><time>2026-05-31T05:58:35.000Z</time></trkpt>
        <trkpt lat="28.2560674" lon="105.8590707"><ele>1089.6</ele><time>2026-05-31T05:58:45.000Z</time></trkpt>
        <trkpt lat="28.2560313" lon="105.859124"><ele>1088.04</ele><time>2026-05-31T05:58:53.000Z</time></trkpt>
        <trkpt lat="28.2559855" lon="105.8591565"><ele>1086</ele><time>2026-05-31T05:59:03.000Z</time></trkpt>
        <trkpt lat="28.2559352" lon="105.859177"><ele>1082.3</ele><time>2026-05-31T05:59:11.000Z</time></trkpt>
        <trkpt lat="28.2558799" lon="105.8591891"><ele>1080.08</ele><time>2026-05-31T05:59:19.000Z</time></trkpt>
        <trkpt lat="28.2558287" lon="105.859188"><ele>1079.94</ele><time>2026-05-31T05:59:27.000Z</time></trkpt>
        <trkpt lat="28.2557953" lon="105.859217"><ele>1079.73</ele><time>2026-05-31T05:59:45.000Z</time></trkpt>
        <trkpt lat="28.2557639" lon="105.8592531"><ele>1079.4</ele><time>2026-05-31T05:59:57.000Z</time></trkpt>
        <trkpt lat="28.2557242" lon="105.8592874"><ele>1079.09</ele><time>2026-05-31T06:00:17.000Z</time></trkpt>
        <trkpt lat="28.2557238" lon="105.8593587"><ele>1078.69</ele><time>2026-05-31T06:00:23.000Z</time></trkpt>
        <trkpt lat="28.2557014" lon="105.8594189"><ele>1079.65</ele><time>2026-05-31T06:00:31.000Z</time></trkpt>
        <trkpt lat="28.2556619" lon="105.8594624"><ele>1078.08</ele><time>2026-05-31T06:00:37.000Z</time></trkpt>
        <trkpt lat="28.2556138" lon="105.8594824"><ele>1077.41</ele><time>2026-05-31T06:00:43.000Z</time></trkpt>
        <trkpt lat="28.2555657" lon="105.8594974"><ele>1076.84</ele><time>2026-05-31T06:00:53.000Z</time></trkpt>
        <trkpt lat="28.2555255" lon="105.8595299"><ele>1074.76</ele><time>2026-05-31T06:01:03.000Z</time></trkpt>
        <trkpt lat="28.2554826" lon="105.8595644"><ele>1073.15</ele><time>2026-05-31T06:01:11.000Z</time></trkpt>
        <trkpt lat="28.2554332" lon="105.8595681"><ele>1072.02</ele><time>2026-05-31T06:01:21.000Z</time></trkpt>
        <trkpt lat="28.2553832" lon="105.8595795"><ele>1071.61</ele><time>2026-05-31T06:01:27.000Z</time></trkpt>
        <trkpt lat="28.2553365" lon="105.8595736"><ele>1070.58</ele><time>2026-05-31T06:01:33.000Z</time></trkpt>
        <trkpt lat="28.2552894" lon="105.8595766"><ele>1070.97</ele><time>2026-05-31T06:01:41.000Z</time></trkpt>
        <trkpt lat="28.2552396" lon="105.8595918"><ele>1071.74</ele><time>2026-05-31T06:01:49.000Z</time></trkpt>
        <trkpt lat="28.2552346" lon="105.8595575"><ele>1074.13</ele><time>2026-05-31T06:01:59.000Z</time></trkpt>
        <trkpt lat="28.2552326" lon="105.8594972"><ele>1074.52</ele><time>2026-05-31T06:02:09.000Z</time></trkpt>
        <trkpt lat="28.2552172" lon="105.8594414"><ele>1074.53</ele><time>2026-05-31T06:02:27.000Z</time></trkpt>
        <trkpt lat="28.2552101" lon="105.8593828"><ele>1073.84</ele><time>2026-05-31T06:02:35.000Z</time></trkpt>
        <trkpt lat="28.2551812" lon="105.8593352"><ele>1072.76</ele><time>2026-05-31T06:02:41.000Z</time></trkpt>
        <trkpt lat="28.2551297" lon="105.8593221"><ele>1072.32</ele><time>2026-05-31T06:02:57.000Z</time></trkpt>
        <trkpt lat="28.2550832" lon="105.8593002"><ele>1072.43</ele><time>2026-05-31T06:03:01.000Z</time></trkpt>
        <trkpt lat="28.2550334" lon="105.8592703"><ele>1074.4</ele><time>2026-05-31T06:03:07.000Z</time></trkpt>
        <trkpt lat="28.2550213" lon="105.8592626"><ele>1078.81</ele><time>2026-05-31T06:03:09.000Z</time></trkpt>
        <trkpt lat="28.2549943" lon="105.8592346"><ele>1080.97</ele><time>2026-05-31T06:03:41.000Z</time></trkpt>
        <trkpt lat="28.2549482" lon="105.8592238"><ele>1080.9</ele><time>2026-05-31T06:03:49.000Z</time></trkpt>
        <trkpt lat="28.2548998" lon="105.8592003"><ele>1079.08</ele><time>2026-05-31T06:04:03.000Z</time></trkpt>
        <trkpt lat="28.2548456" lon="105.8592027"><ele>1077.16</ele><time>2026-05-31T06:04:13.000Z</time></trkpt>
        <trkpt lat="28.2547874" lon="105.8592148"><ele>1074.54</ele><time>2026-05-31T06:04:31.000Z</time></trkpt>
        <trkpt lat="28.2547361" lon="105.859227"><ele>1071.06</ele><time>2026-05-31T06:04:37.000Z</time></trkpt>
        <trkpt lat="28.2546835" lon="105.8592558"><ele>1068.27</ele><time>2026-05-31T06:04:47.000Z</time></trkpt>
        <trkpt lat="28.2546441" lon="105.859297"><ele>1067.58</ele><time>2026-05-31T06:04:53.000Z</time></trkpt>
        <trkpt lat="28.254616" lon="105.859354"><ele>1067.94</ele><time>2026-05-31T06:04:59.000Z</time></trkpt>
        <trkpt lat="28.2545705" lon="105.859384"><ele>1068.57</ele><time>2026-05-31T06:05:05.000Z</time></trkpt>
        <trkpt lat="28.2545479" lon="105.8594373"><ele>1069.03</ele><time>2026-05-31T06:05:11.000Z</time></trkpt>
        <trkpt lat="28.2545283" lon="105.8594896"><ele>1069.45</ele><time>2026-05-31T06:05:17.000Z</time></trkpt>
        <trkpt lat="28.2544793" lon="105.8595121"><ele>1069.13</ele><time>2026-05-31T06:05:23.000Z</time></trkpt>
        <trkpt lat="28.2544319" lon="105.8594761"><ele>1068.09</ele><time>2026-05-31T06:05:29.000Z</time></trkpt>
        <trkpt lat="28.2543959" lon="105.8594233"><ele>1065.36</ele><time>2026-05-31T06:05:37.000Z</time></trkpt>
        <trkpt lat="28.2543482" lon="105.8593919"><ele>1062.21</ele><time>2026-05-31T06:05:47.000Z</time></trkpt>
        <trkpt lat="28.2543023" lon="105.8593484"><ele>1059.41</ele><time>2026-05-31T06:05:55.000Z</time></trkpt>
        <trkpt lat="28.2542648" lon="105.8593086"><ele>1057.19</ele><time>2026-05-31T06:06:01.000Z</time></trkpt>
        <trkpt lat="28.254228" lon="105.8592751"><ele>1056.52</ele><time>2026-05-31T06:06:09.000Z</time></trkpt>
        <trkpt lat="28.2541922" lon="105.8592162"><ele>1056.33</ele><time>2026-05-31T06:06:19.000Z</time></trkpt>
        <trkpt lat="28.2541791" lon="105.8591503"><ele>1057.57</ele><time>2026-05-31T06:06:33.000Z</time></trkpt>
        <trkpt lat="28.2541934" lon="105.8590963"><ele>1056.85</ele><time>2026-05-31T06:06:41.000Z</time></trkpt>
        <trkpt lat="28.2542217" lon="105.8590513"><ele>1055.21</ele><time>2026-05-31T06:06:49.000Z</time></trkpt>
        <trkpt lat="28.2542217" lon="105.8590513"><ele>1055.21</ele><time>2026-05-31T06:06:55.000Z</time></trkpt>
        <trkpt lat="28.2542679" lon="105.859005"><ele>1055.43</ele><time>2026-05-31T06:06:58.000Z</time></trkpt>
        <trkpt lat="28.2542679" lon="105.859005"><ele>1055.43</ele><time>2026-05-31T06:07:03.000Z</time></trkpt>
        <trkpt lat="28.2542679" lon="105.859005"><ele>1055.43</ele><time>2026-05-31T06:07:25.000Z</time></trkpt>
        <trkpt lat="28.2542628" lon="105.8590271"><ele>1056.72</ele><time>2026-05-31T06:07:28.000Z</time></trkpt>
        <trkpt lat="28.2542628" lon="105.8590271"><ele>1056.72</ele><time>2026-05-31T06:07:33.000Z</time></trkpt>
        <trkpt lat="28.2542133" lon="105.8590187"><ele>1056.13</ele><time>2026-05-31T06:07:45.000Z</time></trkpt>
        <trkpt lat="28.2541673" lon="105.8589844"><ele>1055.48</ele><time>2026-05-31T06:08:11.000Z</time></trkpt>
        <trkpt lat="28.2541151" lon="105.858987"><ele>1059.81</ele><time>2026-05-31T06:08:13.000Z</time></trkpt>
        <trkpt lat="28.2541265" lon="105.8589567"><ele>1061.98</ele><time>2026-05-31T06:08:37.000Z</time></trkpt>
        <trkpt lat="28.2540999" lon="105.8589246"><ele>1062.19</ele><time>2026-05-31T06:08:47.000Z</time></trkpt>
        <trkpt lat="28.2540488" lon="105.8589102"><ele>1061.72</ele><time>2026-05-31T06:08:53.000Z</time></trkpt>
        <trkpt lat="28.2539973" lon="105.8589009"><ele>1059.93</ele><time>2026-05-31T06:08:57.000Z</time></trkpt>
        <trkpt lat="28.2539483" lon="105.8588728"><ele>1059.92</ele><time>2026-05-31T06:09:09.000Z</time></trkpt>
        <trkpt lat="28.2538974" lon="105.8588411"><ele>1059.23</ele><time>2026-05-31T06:09:15.000Z</time></trkpt>
        <trkpt lat="28.2538446" lon="105.8588322"><ele>1058.93</ele><time>2026-05-31T06:09:21.000Z</time></trkpt>
        <trkpt lat="28.253829" lon="105.8587922"><ele>1057.6</ele><time>2026-05-31T06:09:31.000Z</time></trkpt>
        <trkpt lat="28.2537981" lon="105.8588079"><ele>1056.27</ele><time>2026-05-31T06:09:37.000Z</time></trkpt>
        <trkpt lat="28.2537894" lon="105.8588151"><ele>1055.58</ele><time>2026-05-31T06:09:39.000Z</time></trkpt>
        <trkpt lat="28.2537468" lon="105.8588429"><ele>1054.8</ele><time>2026-05-31T06:09:45.000Z</time></trkpt>
        <trkpt lat="28.2536911" lon="105.858871"><ele>1055.27</ele><time>2026-05-31T06:09:53.000Z</time></trkpt>
        <trkpt lat="28.2536353" lon="105.8588995"><ele>1056.1</ele><time>2026-05-31T06:09:59.000Z</time></trkpt>
        <trkpt lat="28.2535895" lon="105.8589277"><ele>1056.61</ele><time>2026-05-31T06:10:05.000Z</time></trkpt>
        <trkpt lat="28.2535459" lon="105.8589484"><ele>1057.11</ele><time>2026-05-31T06:10:13.000Z</time></trkpt>
        <trkpt lat="28.2535076" lon="105.8589799"><ele>1056.6</ele><time>2026-05-31T06:10:21.000Z</time></trkpt>
        <trkpt lat="28.2534555" lon="105.8589879"><ele>1056.13</ele><time>2026-05-31T06:10:27.000Z</time></trkpt>
        <trkpt lat="28.253409" lon="105.8590116"><ele>1056.13</ele><time>2026-05-31T06:10:35.000Z</time></trkpt>
        <trkpt lat="28.2533628" lon="105.8590418"><ele>1056.75</ele><time>2026-05-31T06:10:43.000Z</time></trkpt>
        <trkpt lat="28.253315" lon="105.8590734"><ele>1056.49</ele><time>2026-05-31T06:10:51.000Z</time></trkpt>
        <trkpt lat="28.2532587" lon="105.8590889"><ele>1055.04</ele><time>2026-05-31T06:10:59.000Z</time></trkpt>
        <trkpt lat="28.2532027" lon="105.8590917"><ele>1054.35</ele><time>2026-05-31T06:11:07.000Z</time></trkpt>
        <trkpt lat="28.253149" lon="105.8591086"><ele>1054.29</ele><time>2026-05-31T06:11:17.000Z</time></trkpt>
        <trkpt lat="28.253094" lon="105.8591137"><ele>1053.37</ele><time>2026-05-31T06:11:39.000Z</time></trkpt>
        <trkpt lat="28.2530516" lon="105.8591433"><ele>1050.4</ele><time>2026-05-31T06:11:49.000Z</time></trkpt>
        <trkpt lat="28.2530125" lon="105.859181"><ele>1048.55</ele><time>2026-05-31T06:11:55.000Z</time></trkpt>
        <trkpt lat="28.2529752" lon="105.8591542"><ele>1046.76</ele><time>2026-05-31T06:12:01.000Z</time></trkpt>
        <trkpt lat="28.252974" lon="105.8591003"><ele>1045.72</ele><time>2026-05-31T06:12:07.000Z</time></trkpt>
        <trkpt lat="28.2529911" lon="105.8590377"><ele>1043.63</ele><time>2026-05-31T06:12:13.000Z</time></trkpt>
        <trkpt lat="28.2530123" lon="105.8589766"><ele>1042.66</ele><time>2026-05-31T06:12:19.000Z</time></trkpt>
        <trkpt lat="28.2530373" lon="105.8589116"><ele>1042</ele><time>2026-05-31T06:12:25.000Z</time></trkpt>
        <trkpt lat="28.2530468" lon="105.8588402"><ele>1041.75</ele><time>2026-05-31T06:12:35.000Z</time></trkpt>
        <trkpt lat="28.2530564" lon="105.8587688"><ele>1042.39</ele><time>2026-05-31T06:12:41.000Z</time></trkpt>
        <trkpt lat="28.2530247" lon="105.8587144"><ele>1042.98</ele><time>2026-05-31T06:12:49.000Z</time></trkpt>
        <trkpt lat="28.2529915" lon="105.8587332"><ele>1045.19</ele><time>2026-05-31T06:12:51.000Z</time></trkpt>
        <trkpt lat="28.2529601" lon="105.8587163"><ele>1048.11</ele><time>2026-05-31T06:13:01.000Z</time></trkpt>
        <trkpt lat="28.2529791" lon="105.8586825"><ele>1049.78</ele><time>2026-05-31T06:13:07.000Z</time></trkpt>
        <trkpt lat="28.2529964" lon="105.8586208"><ele>1049.84</ele><time>2026-05-31T06:13:09.000Z</time></trkpt>
        <trkpt lat="28.2529573" lon="105.8585852"><ele>1050.08</ele><time>2026-05-31T06:13:11.000Z</time></trkpt>
        <trkpt lat="28.2529854" lon="105.8585996"><ele>1049.38</ele><time>2026-05-31T06:13:15.000Z</time></trkpt>
        <trkpt lat="28.2529922" lon="105.8586524"><ele>1047.76</ele><time>2026-05-31T06:13:21.000Z</time></trkpt>
        <trkpt lat="28.2529771" lon="105.8587098"><ele>1045.93</ele><time>2026-05-31T06:13:23.000Z</time></trkpt>
        <trkpt lat="28.2529433" lon="105.8587565"><ele>1045.8</ele><time>2026-05-31T06:13:25.000Z</time></trkpt>
        <trkpt lat="28.2528945" lon="105.8587875"><ele>1045.46</ele><time>2026-05-31T06:13:33.000Z</time></trkpt>
        <trkpt lat="28.2528375" lon="105.8588049"><ele>1044.51</ele><time>2026-05-31T06:13:41.000Z</time></trkpt>
        <trkpt lat="28.2527884" lon="105.8587854"><ele>1044.55</ele><time>2026-05-31T06:13:47.000Z</time></trkpt>
        <trkpt lat="28.2527374" lon="105.8587598"><ele>1043.16</ele><time>2026-05-31T06:13:55.000Z</time></trkpt>
        <trkpt lat="28.2526942" lon="105.8587287"><ele>1042.85</ele><time>2026-05-31T06:14:03.000Z</time></trkpt>
        <trkpt lat="28.2526631" lon="105.8586751"><ele>1042.84</ele><time>2026-05-31T06:14:11.000Z</time></trkpt>
        <trkpt lat="28.2526208" lon="105.8586548"><ele>1042.69</ele><time>2026-05-31T06:14:17.000Z</time></trkpt>
        <trkpt lat="28.252569" lon="105.8586455"><ele>1042.2</ele><time>2026-05-31T06:14:25.000Z</time></trkpt>
        <trkpt lat="28.25253" lon="105.8586172"><ele>1042.11</ele><time>2026-05-31T06:14:31.000Z</time></trkpt>
        <trkpt lat="28.2524993" lon="105.8585737"><ele>1043.51</ele><time>2026-05-31T06:14:45.000Z</time></trkpt>
        <trkpt lat="28.2524744" lon="105.8585188"><ele>1043.88</ele><time>2026-05-31T06:14:55.000Z</time></trkpt>
        <trkpt lat="28.2524621" lon="105.8584495"><ele>1044.03</ele><time>2026-05-31T06:15:05.000Z</time></trkpt>
        <trkpt lat="28.2524513" lon="105.8583909"><ele>1044.26</ele><time>2026-05-31T06:15:11.000Z</time></trkpt>
        <trkpt lat="28.2524138" lon="105.8583536"><ele>1044.84</ele><time>2026-05-31T06:15:17.000Z</time></trkpt>
        <trkpt lat="28.2524301" lon="105.8583202"><ele>1045.32</ele><time>2026-05-31T06:15:29.000Z</time></trkpt>
        <trkpt lat="28.2524175" lon="105.8582835"><ele>1044.29</ele><time>2026-05-31T06:15:37.000Z</time></trkpt>
        <trkpt lat="28.2524196" lon="105.8582361"><ele>1045.41</ele><time>2026-05-31T06:15:47.000Z</time></trkpt>
        <trkpt lat="28.2524309" lon="105.8581762"><ele>1044.56</ele><time>2026-05-31T06:16:01.000Z</time></trkpt>
        <trkpt lat="28.2524498" lon="105.8581132"><ele>1042.93</ele><time>2026-05-31T06:16:07.000Z</time></trkpt>
        <trkpt lat="28.2524376" lon="105.8580506"><ele>1041.06</ele><time>2026-05-31T06:16:15.000Z</time></trkpt>
        <trkpt lat="28.2524557" lon="105.8580041"><ele>1041.35</ele><time>2026-05-31T06:16:27.000Z</time></trkpt>
        <trkpt lat="28.2524867" lon="105.8579594"><ele>1041.11</ele><time>2026-05-31T06:16:37.000Z</time></trkpt>
        <trkpt lat="28.252484" lon="105.8579128"><ele>1040.78</ele><time>2026-05-31T06:17:09.000Z</time></trkpt>
        <trkpt lat="28.2524776" lon="105.8578621"><ele>1040.28</ele><time>2026-05-31T06:17:37.000Z</time></trkpt>
        <trkpt lat="28.2524715" lon="105.8578076"><ele>1039.55</ele><time>2026-05-31T06:18:05.000Z</time></trkpt>
        <trkpt lat="28.2524661" lon="105.8577547"><ele>1036.68</ele><time>2026-05-31T06:18:23.000Z</time></trkpt>
        <trkpt lat="28.2524641" lon="105.8576952"><ele>1034.87</ele><time>2026-05-31T06:18:31.000Z</time></trkpt>
        <trkpt lat="28.2524622" lon="105.85764"><ele>1034.5</ele><time>2026-05-31T06:18:39.000Z</time></trkpt>
        <trkpt lat="28.2524311" lon="105.8576055"><ele>1035.31</ele><time>2026-05-31T06:18:51.000Z</time></trkpt>
        <trkpt lat="28.2524294" lon="105.8575614"><ele>1035</ele><time>2026-05-31T06:18:57.000Z</time></trkpt>
        <trkpt lat="28.2524002" lon="105.8575304"><ele>1035.05</ele><time>2026-05-31T06:19:17.000Z</time></trkpt>
        <trkpt lat="28.2524007" lon="105.8574871"><ele>1035.46</ele><time>2026-05-31T06:19:45.000Z</time></trkpt>
        <trkpt lat="28.2523827" lon="105.8574376"><ele>1035.18</ele><time>2026-05-31T06:20:07.000Z</time></trkpt>
        <trkpt lat="28.2523599" lon="105.8573885"><ele>1033.84</ele><time>2026-05-31T06:20:21.000Z</time></trkpt>
        <trkpt lat="28.2523427" lon="105.8573315"><ele>1033.37</ele><time>2026-05-31T06:20:37.000Z</time></trkpt>
        <trkpt lat="28.2523414" lon="105.8573143"><ele>1032.19</ele><time>2026-05-31T06:20:39.000Z</time></trkpt>
        <trkpt lat="28.2523158" lon="105.8572825"><ele>1031.48</ele><time>2026-05-31T06:21:05.000Z</time></trkpt>
        <trkpt lat="28.252332" lon="105.8572382"><ele>1030.34</ele><time>2026-05-31T06:21:11.000Z</time></trkpt>
        <trkpt lat="28.2523293" lon="105.8571792"><ele>1029.12</ele><time>2026-05-31T06:21:23.000Z</time></trkpt>
        <trkpt lat="28.2523077" lon="105.8571311"><ele>1025.91</ele><time>2026-05-31T06:21:59.000Z</time></trkpt>
        <trkpt lat="28.2522913" lon="105.8570723"><ele>1023.85</ele><time>2026-05-31T06:22:15.000Z</time></trkpt>
        <trkpt lat="28.2522764" lon="105.856999"><ele>1021.13</ele><time>2026-05-31T06:22:29.000Z</time></trkpt>
        <trkpt lat="28.2522365" lon="105.8569528"><ele>1018.43</ele><time>2026-05-31T06:22:37.000Z</time></trkpt>
        <trkpt lat="28.2521891" lon="105.8569456"><ele>1017.07</ele><time>2026-05-31T06:23:11.000Z</time></trkpt>
        <trkpt lat="28.252133" lon="105.8569452"><ele>1015.88</ele><time>2026-05-31T06:23:25.000Z</time></trkpt>
        <trkpt lat="28.2520964" lon="105.8569823"><ele>1014.45</ele><time>2026-05-31T06:23:31.000Z</time></trkpt>
        <trkpt lat="28.2520964" lon="105.8569823"><ele>1014.45</ele><time>2026-05-31T06:24:21.000Z</time></trkpt>
        <trkpt lat="28.2521238" lon="105.857048"><ele>1012.83</ele><time>2026-05-31T06:24:38.000Z</time></trkpt>
        <trkpt lat="28.2521238" lon="105.857048"><ele>1012.83</ele><time>2026-05-31T06:24:53.000Z</time></trkpt>
        <trkpt lat="28.2520756" lon="105.8570625"><ele>1009.58</ele><time>2026-05-31T06:25:09.000Z</time></trkpt>
        <trkpt lat="28.2520756" lon="105.8570625"><ele>1009.58</ele><time>2026-05-31T06:25:53.000Z</time></trkpt>
        <trkpt lat="28.252029" lon="105.8570751"><ele>1007.56</ele><time>2026-05-31T06:25:56.000Z</time></trkpt>
        <trkpt lat="28.252029" lon="105.8570751"><ele>1007.56</ele><time>2026-05-31T06:26:13.000Z</time></trkpt>
        <trkpt lat="28.2519904" lon="105.8571224"><ele>1006.62</ele><time>2026-05-31T06:26:21.000Z</time></trkpt>
        <trkpt lat="28.2519418" lon="105.8571494"><ele>1006.16</ele><time>2026-05-31T06:26:31.000Z</time></trkpt>
        <trkpt lat="28.2519103" lon="105.8571912"><ele>1007.34</ele><time>2026-05-31T06:26:41.000Z</time></trkpt>
        <trkpt lat="28.2518737" lon="105.8571836"><ele>1008.53</ele><time>2026-05-31T06:26:49.000Z</time></trkpt>
        <trkpt lat="28.2518336" lon="105.8571621"><ele>1009.2</ele><time>2026-05-31T06:27:17.000Z</time></trkpt>
        <trkpt lat="28.2517988" lon="105.8571256"><ele>1009.95</ele><time>2026-05-31T06:27:37.000Z</time></trkpt>
        <trkpt lat="28.2517598" lon="105.8570907"><ele>1010.26</ele><time>2026-05-31T06:27:59.000Z</time></trkpt>
        <trkpt lat="28.2517241" lon="105.8570532"><ele>1010.72</ele><time>2026-05-31T06:28:27.000Z</time></trkpt>
        <trkpt lat="28.2516821" lon="105.8570227"><ele>1011.88</ele><time>2026-05-31T06:28:37.000Z</time></trkpt>
        <trkpt lat="28.2516427" lon="105.8569894"><ele>1013.47</ele><time>2026-05-31T06:29:10.000Z</time></trkpt>
        <trkpt lat="28.2516038" lon="105.8569557"><ele>1015.27</ele><time>2026-05-31T06:29:44.000Z</time></trkpt>
        <trkpt lat="28.2515611" lon="105.8569339"><ele>1017.15</ele><time>2026-05-31T06:29:58.000Z</time></trkpt>
        <trkpt lat="28.2515203" lon="105.8569554"><ele>1018.45</ele><time>2026-05-31T06:30:06.000Z</time></trkpt>
        <trkpt lat="28.2514777" lon="105.8569528"><ele>1020.56</ele><time>2026-05-31T06:30:18.000Z</time></trkpt>
        <trkpt lat="28.2514391" lon="105.8569806"><ele>1021.85</ele><time>2026-05-31T06:30:22.000Z</time></trkpt>
        <trkpt lat="28.251167" lon="105.8569181"><ele>1023.57</ele><time>2026-05-31T06:32:23.000Z</time></trkpt>
        <trkpt lat="28.2511258" lon="105.8568891"><ele>1034.44</ele><time>2026-05-31T06:32:26.000Z</time></trkpt>
        <trkpt lat="28.2510945" lon="105.8568493"><ele>1038.69</ele><time>2026-05-31T06:32:30.000Z</time></trkpt>
        <trkpt lat="28.2510545" lon="105.8568235"><ele>1040.17</ele><time>2026-05-31T06:32:50.000Z</time></trkpt>
        <trkpt lat="28.2509994" lon="105.856815"><ele>1040.67</ele><time>2026-05-31T06:33:02.000Z</time></trkpt>
        <trkpt lat="28.2509454" lon="105.8568141"><ele>1041.19</ele><time>2026-05-31T06:33:08.000Z</time></trkpt>
        <trkpt lat="28.2508954" lon="105.8568066"><ele>1041.31</ele><time>2026-05-31T06:33:24.000Z</time></trkpt>
        <trkpt lat="28.2508466" lon="105.8568115"><ele>1040.93</ele><time>2026-05-31T06:33:30.000Z</time></trkpt>
        <trkpt lat="28.2507934" lon="105.856821"><ele>1041.29</ele><time>2026-05-31T06:33:38.000Z</time></trkpt>
        <trkpt lat="28.250741" lon="105.8568301"><ele>1041.21</ele><time>2026-05-31T06:33:44.000Z</time></trkpt>
        <trkpt lat="28.250693" lon="105.8568311"><ele>1041.6</ele><time>2026-05-31T06:33:50.000Z</time></trkpt>
        <trkpt lat="28.2506435" lon="105.8568123"><ele>1041.5</ele><time>2026-05-31T06:33:56.000Z</time></trkpt>
        <trkpt lat="28.2505955" lon="105.856799"><ele>1042.39</ele><time>2026-05-31T06:34:02.000Z</time></trkpt>
        <trkpt lat="28.2505823" lon="105.8567902"><ele>1042.92</ele><time>2026-05-31T06:34:04.000Z</time></trkpt>
        <trkpt lat="28.2505823" lon="105.8567902"><ele>1042.92</ele><time>2026-05-31T06:34:13.000Z</time></trkpt>
        <trkpt lat="28.2505823" lon="105.8567902"><ele>1042.92</ele><time>2026-05-31T06:34:30.000Z</time></trkpt>
        <trkpt lat="28.2505823" lon="105.8567902"><ele>1042.92</ele><time>2026-05-31T06:34:43.000Z</time></trkpt>
        <trkpt lat="28.2505823" lon="105.8567902"><ele>1042.92</ele><time>2026-05-31T06:34:52.000Z</time></trkpt>
        <trkpt lat="28.2505823" lon="105.8567902"><ele>1042.92</ele><time>2026-05-31T06:35:01.000Z</time></trkpt>
        <trkpt lat="28.2505823" lon="105.8567902"><ele>1042.92</ele><time>2026-05-31T06:46:38.000Z</time></trkpt>
        <trkpt lat="28.2505823" lon="105.8567902"><ele>1042.92</ele><time>2026-05-31T06:47:51.000Z</time></trkpt>
        <trkpt lat="28.2505586" lon="105.8567537"><ele>1042.79</ele><time>2026-05-31T06:47:58.000Z</time></trkpt>
        <trkpt lat="28.2505586" lon="105.8567537"><ele>1042.79</ele><time>2026-05-31T06:48:09.000Z</time></trkpt>
        <trkpt lat="28.2505199" lon="105.8567172"><ele>1043.05</ele><time>2026-05-31T06:48:21.000Z</time></trkpt>
        <trkpt lat="28.2504844" lon="105.8566664"><ele>1042.04</ele><time>2026-05-31T06:48:29.000Z</time></trkpt>
        <trkpt lat="28.2504514" lon="105.8566113"><ele>1042.66</ele><time>2026-05-31T06:48:39.000Z</time></trkpt>
        <trkpt lat="28.2504015" lon="105.8565778"><ele>1042.14</ele><time>2026-05-31T06:48:45.000Z</time></trkpt>
        <trkpt lat="28.2503452" lon="105.8565634"><ele>1041.45</ele><time>2026-05-31T06:48:53.000Z</time></trkpt>
        <trkpt lat="28.2502903" lon="105.8565577"><ele>1041.22</ele><time>2026-05-31T06:49:01.000Z</time></trkpt>
        <trkpt lat="28.2502394" lon="105.8565769"><ele>1040.77</ele><time>2026-05-31T06:49:07.000Z</time></trkpt>
        <trkpt lat="28.2501817" lon="105.8565799"><ele>1040.7</ele><time>2026-05-31T06:49:13.000Z</time></trkpt>
        <trkpt lat="28.250134" lon="105.8565685"><ele>1041.73</ele><time>2026-05-31T06:49:21.000Z</time></trkpt>
        <trkpt lat="28.2500859" lon="105.8565688"><ele>1041.46</ele><time>2026-05-31T06:49:29.000Z</time></trkpt>
        <trkpt lat="28.2500401" lon="105.8565707"><ele>1041.58</ele><time>2026-05-31T06:49:37.000Z</time></trkpt>
        <trkpt lat="28.2499876" lon="105.856573"><ele>1041.11</ele><time>2026-05-31T06:49:45.000Z</time></trkpt>
        <trkpt lat="28.2499535" lon="105.8565264"><ele>1041.05</ele><time>2026-05-31T06:49:55.000Z</time></trkpt>
        <trkpt lat="28.2499138" lon="105.8564748"><ele>1040.09</ele><time>2026-05-31T06:50:05.000Z</time></trkpt>
        <trkpt lat="28.2498705" lon="105.8564367"><ele>1038.05</ele><time>2026-05-31T06:50:11.000Z</time></trkpt>
        <trkpt lat="28.2498235" lon="105.856396"><ele>1036.7</ele><time>2026-05-31T06:50:19.000Z</time></trkpt>
        <trkpt lat="28.249778" lon="105.8563736"><ele>1036.41</ele><time>2026-05-31T06:50:39.000Z</time></trkpt>
        <trkpt lat="28.2497231" lon="105.856355"><ele>1035.67</ele><time>2026-05-31T06:51:01.000Z</time></trkpt>
        <trkpt lat="28.249681" lon="105.8563761"><ele>1036.51</ele><time>2026-05-31T06:51:07.000Z</time></trkpt>
        <trkpt lat="28.2496248" lon="105.8563903"><ele>1037.59</ele><time>2026-05-31T06:51:13.000Z</time></trkpt>
        <trkpt lat="28.2495793" lon="105.8564254"><ele>1038.61</ele><time>2026-05-31T06:51:19.000Z</time></trkpt>
        <trkpt lat="28.2495277" lon="105.8564327"><ele>1037.54</ele><time>2026-05-31T06:51:25.000Z</time></trkpt>
        <trkpt lat="28.2494805" lon="105.8563958"><ele>1035.94</ele><time>2026-05-31T06:51:29.000Z</time></trkpt>
        <trkpt lat="28.2494417" lon="105.8563571"><ele>1034.66</ele><time>2026-05-31T06:51:35.000Z</time></trkpt>
        <trkpt lat="28.2494" lon="105.8563356"><ele>1034.16</ele><time>2026-05-31T06:51:45.000Z</time></trkpt>
        <trkpt lat="28.2490888" lon="105.8560165"><ele>1033.45</ele><time>2026-05-31T06:53:02.000Z</time></trkpt>
        <trkpt lat="28.2492395" lon="105.8560062"><ele>1039.02</ele><time>2026-05-31T06:53:07.000Z</time></trkpt>
        <trkpt lat="28.2492846" lon="105.8559654"><ele>1033.89</ele><time>2026-05-31T06:53:15.000Z</time></trkpt>
        <trkpt lat="28.2492549" lon="105.8559079"><ele>1030.45</ele><time>2026-05-31T06:53:19.000Z</time></trkpt>
        <trkpt lat="28.2492669" lon="105.8558611"><ele>1030.32</ele><time>2026-05-31T06:53:25.000Z</time></trkpt>
        <trkpt lat="28.2492758" lon="105.8558099"><ele>1029.4</ele><time>2026-05-31T06:53:33.000Z</time></trkpt>
        <trkpt lat="28.2492945" lon="105.8557402"><ele>1029.38</ele><time>2026-05-31T06:53:51.000Z</time></trkpt>
        <trkpt lat="28.2493412" lon="105.8556845"><ele>1028.52</ele><time>2026-05-31T06:53:55.000Z</time></trkpt>
        <trkpt lat="28.2493225" lon="105.8556397"><ele>1027.55</ele><time>2026-05-31T06:53:59.000Z</time></trkpt>
        <trkpt lat="28.2493051" lon="105.8555824"><ele>1027.79</ele><time>2026-05-31T06:54:05.000Z</time></trkpt>
        <trkpt lat="28.2492791" lon="105.8552083"><ele>1028.29</ele><time>2026-05-31T06:54:52.000Z</time></trkpt>
        <trkpt lat="28.2492216" lon="105.855078"><ele>1027.67</ele><time>2026-05-31T06:54:55.000Z</time></trkpt>
        <trkpt lat="28.2491784" lon="105.8550195"><ele>1026.12</ele><time>2026-05-31T06:55:01.000Z</time></trkpt>
        <trkpt lat="28.2491365" lon="105.8549902"><ele>1025.63</ele><time>2026-05-31T06:55:05.000Z</time></trkpt>
        <trkpt lat="28.2490873" lon="105.8549591"><ele>1025.53</ele><time>2026-05-31T06:55:11.000Z</time></trkpt>
        <trkpt lat="28.248687" lon="105.8547032"><ele>1025.34</ele><time>2026-05-31T06:56:28.000Z</time></trkpt>
        <trkpt lat="28.2485713" lon="105.8547659"><ele>1022.09</ele><time>2026-05-31T06:56:31.000Z</time></trkpt>
        <trkpt lat="28.2485112" lon="105.8547483"><ele>1019.37</ele><time>2026-05-31T06:56:41.000Z</time></trkpt>
        <trkpt lat="28.2484514" lon="105.854737"><ele>1018.43</ele><time>2026-05-31T06:56:47.000Z</time></trkpt>
        <trkpt lat="28.2484057" lon="105.8547154"><ele>1018.37</ele><time>2026-05-31T06:56:53.000Z</time></trkpt>
        <trkpt lat="28.2483532" lon="105.8546847"><ele>1018.25</ele><time>2026-05-31T06:56:59.000Z</time></trkpt>
        <trkpt lat="28.2483063" lon="105.8546415"><ele>1017.85</ele><time>2026-05-31T06:57:05.000Z</time></trkpt>
        <trkpt lat="28.2482689" lon="105.8545964"><ele>1017.37</ele><time>2026-05-31T06:57:11.000Z</time></trkpt>
        <trkpt lat="28.2482513" lon="105.8545334"><ele>1016.57</ele><time>2026-05-31T06:57:17.000Z</time></trkpt>
        <trkpt lat="28.2482235" lon="105.8544761"><ele>1015.67</ele><time>2026-05-31T06:57:33.000Z</time></trkpt>
        <trkpt lat="28.2481683" lon="105.8544569"><ele>1014.54</ele><time>2026-05-31T06:57:39.000Z</time></trkpt>
        <trkpt lat="28.2481163" lon="105.8544434"><ele>1015.63</ele><time>2026-05-31T06:57:49.000Z</time></trkpt>
        <trkpt lat="28.2480691" lon="105.8544235"><ele>1016.32</ele><time>2026-05-31T06:57:55.000Z</time></trkpt>
        <trkpt lat="28.2480333" lon="105.8543815"><ele>1017.04</ele><time>2026-05-31T06:58:03.000Z</time></trkpt>
        <trkpt lat="28.2479963" lon="105.8543453"><ele>1016.18</ele><time>2026-05-31T06:58:13.000Z</time></trkpt>
        <trkpt lat="28.2479558" lon="105.8543131"><ele>1014.76</ele><time>2026-05-31T06:58:25.000Z</time></trkpt>
        <trkpt lat="28.2479086" lon="105.854304"><ele>1013.02</ele><time>2026-05-31T06:58:37.000Z</time></trkpt>
        <trkpt lat="28.247876" lon="105.8543386"><ele>1010.05</ele><time>2026-05-31T06:58:57.000Z</time></trkpt>
        <trkpt lat="28.2478839" lon="105.8544065"><ele>1009.4</ele><time>2026-05-31T06:59:05.000Z</time></trkpt>
        <trkpt lat="28.2478939" lon="105.8544749"><ele>1011.56</ele><time>2026-05-31T06:59:13.000Z</time></trkpt>
        <trkpt lat="28.247891" lon="105.8545347"><ele>1014.5</ele><time>2026-05-31T06:59:43.000Z</time></trkpt>
        <trkpt lat="28.2478936" lon="105.8545892"><ele>1017.78</ele><time>2026-05-31T06:59:59.000Z</time></trkpt>
        <trkpt lat="28.2478882" lon="105.8546422"><ele>1020.2</ele><time>2026-05-31T07:00:07.000Z</time></trkpt>
        <trkpt lat="28.2478835" lon="105.8546967"><ele>1021.6</ele><time>2026-05-31T07:00:15.000Z</time></trkpt>
        <trkpt lat="28.2478604" lon="105.854741"><ele>1022.81</ele><time>2026-05-31T07:01:01.000Z</time></trkpt>
        <trkpt lat="28.2478162" lon="105.8547454"><ele>1023.75</ele><time>2026-05-31T07:01:10.000Z</time></trkpt>
        <trkpt lat="28.2477667" lon="105.8547392"><ele>1025.32</ele><time>2026-05-31T07:01:24.000Z</time></trkpt>
        <trkpt lat="28.2477254" lon="105.8547575"><ele>1028.54</ele><time>2026-05-31T07:01:32.000Z</time></trkpt>
        <trkpt lat="28.2476953" lon="105.8548038"><ele>1030.31</ele><time>2026-05-31T07:01:44.000Z</time></trkpt>
        <trkpt lat="28.2476768" lon="105.8548639"><ele>1034.37</ele><time>2026-05-31T07:01:54.000Z</time></trkpt>
        <trkpt lat="28.2476607" lon="105.8549299"><ele>1038.42</ele><time>2026-05-31T07:02:00.000Z</time></trkpt>
        <trkpt lat="28.2476406" lon="105.8549906"><ele>1040.56</ele><time>2026-05-31T07:02:08.000Z</time></trkpt>
        <trkpt lat="28.2476135" lon="105.8550511"><ele>1043.79</ele><time>2026-05-31T07:02:18.000Z</time></trkpt>
        <trkpt lat="28.247578" lon="105.8550417"><ele>1046.52</ele><time>2026-05-31T07:02:24.000Z</time></trkpt>
        <trkpt lat="28.2475337" lon="105.855006"><ele>1047.48</ele><time>2026-05-31T07:02:30.000Z</time></trkpt>
        <trkpt lat="28.2474886" lon="105.8549553"><ele>1046.62</ele><time>2026-05-31T07:02:42.000Z</time></trkpt>
        <trkpt lat="28.2474961" lon="105.8549005"><ele>1045.02</ele><time>2026-05-31T07:02:46.000Z</time></trkpt>
        <trkpt lat="28.2475112" lon="105.8548766"><ele>1044.04</ele><time>2026-05-31T07:02:48.000Z</time></trkpt>
        <trkpt lat="28.2475112" lon="105.8548766"><ele>1044.04</ele><time>2026-05-31T07:02:57.000Z</time></trkpt>
        <trkpt lat="28.2474869" lon="105.8548478"><ele>1043.15</ele><time>2026-05-31T07:03:16.000Z</time></trkpt>
        <trkpt lat="28.2474869" lon="105.8548478"><ele>1043.15</ele><time>2026-05-31T07:03:22.000Z</time></trkpt>
        <trkpt lat="28.2474697" lon="105.8548012"><ele>1042.69</ele><time>2026-05-31T07:03:32.000Z</time></trkpt>
        <trkpt lat="28.2474697" lon="105.8548012"><ele>1042.69</ele><time>2026-05-31T07:04:03.000Z</time></trkpt>
      </trkseg>
  </trk>
</gpx>